<?xml version="1.0" encoding="UTF-8" standalone="no" ?>
<gpx xmlns="http://www.topografix.com/GPX/1/1" xmlns:xsi="http://www.w3.org/2001/XMLSchema-instance" xsi:schemaLocation="http://www.topografix.com/GPX/1/1 http://www.topografix.com/GPX/1/1/gpx.xsd" version="1.1" creator="VisuGPX - https://www.visugpx.com">
  <metadata>
    <name>SE-NE-La Filée Chateau Thébaud Monnières Chapelle Heulin Loroux Bottereau Thouaré Nantes</name>
    <desc><![CDATA[SE-NE-La Filée Chateau Thébaud Monnières Chapelle Heulin Loroux Bottereau Thouaré Nantes]]></desc>
  </metadata>
  <trk>
    <name><![CDATA[2021-08-31 16:58 +02:00]]></name>
    <trkseg>
      <trkpt lat="47.16777" lon="-1.62641">
        <ele>69</ele>
        <time>2021-08-31T14:58:18.000Z</time>
      </trkpt>
      <trkpt lat="47.16779" lon="-1.62656">
        <ele>70</ele>
        <time>2021-08-31T15:00:03.000Z</time>
      </trkpt>
      <trkpt lat="47.16789" lon="-1.62648">
        <ele>69</ele>
        <time>2021-08-31T15:00:06.000Z</time>
      </trkpt>
      <trkpt lat="47.16796" lon="-1.62638">
        <ele>69</ele>
        <time>2021-08-31T15:00:08.000Z</time>
      </trkpt>
      <trkpt lat="47.16804" lon="-1.62627">
        <ele>69</ele>
        <time>2021-08-31T15:00:10.000Z</time>
      </trkpt>
      <trkpt lat="47.16811" lon="-1.62615">
        <ele>68</ele>
        <time>2021-08-31T15:00:12.000Z</time>
      </trkpt>
      <trkpt lat="47.16818" lon="-1.62602">
        <ele>69</ele>
        <time>2021-08-31T15:00:14.000Z</time>
      </trkpt>
      <trkpt lat="47.16826" lon="-1.6259">
        <ele>69</ele>
        <time>2021-08-31T15:00:16.000Z</time>
      </trkpt>
      <trkpt lat="47.16831" lon="-1.62576">
        <ele>69</ele>
        <time>2021-08-31T15:00:18.000Z</time>
      </trkpt>
      <trkpt lat="47.16823" lon="-1.62562">
        <ele>69</ele>
        <time>2021-08-31T15:00:20.000Z</time>
      </trkpt>
      <trkpt lat="47.16814" lon="-1.62552">
        <ele>70</ele>
        <time>2021-08-31T15:00:22.000Z</time>
      </trkpt>
      <trkpt lat="47.16804" lon="-1.62544">
        <ele>70</ele>
        <time>2021-08-31T15:00:24.000Z</time>
      </trkpt>
      <trkpt lat="47.16793" lon="-1.62537">
        <ele>69</ele>
        <time>2021-08-31T15:00:26.000Z</time>
      </trkpt>
      <trkpt lat="47.16783" lon="-1.62529">
        <ele>69</ele>
        <time>2021-08-31T15:00:28.000Z</time>
      </trkpt>
      <trkpt lat="47.16771" lon="-1.62522">
        <ele>68</ele>
        <time>2021-08-31T15:00:30.000Z</time>
      </trkpt>
      <trkpt lat="47.1676" lon="-1.62515">
        <ele>68</ele>
        <time>2021-08-31T15:00:32.000Z</time>
      </trkpt>
      <trkpt lat="47.16749" lon="-1.62509">
        <ele>67</ele>
        <time>2021-08-31T15:00:34.000Z</time>
      </trkpt>
      <trkpt lat="47.16738" lon="-1.62503">
        <ele>67</ele>
        <time>2021-08-31T15:00:36.000Z</time>
      </trkpt>
      <trkpt lat="47.16727" lon="-1.62498">
        <ele>67</ele>
        <time>2021-08-31T15:00:38.000Z</time>
      </trkpt>
      <trkpt lat="47.16717" lon="-1.62495">
        <ele>66</ele>
        <time>2021-08-31T15:00:40.000Z</time>
      </trkpt>
      <trkpt lat="47.16712" lon="-1.62477">
        <ele>65</ele>
        <time>2021-08-31T15:00:43.000Z</time>
      </trkpt>
      <trkpt lat="47.16714" lon="-1.62461">
        <ele>65</ele>
        <time>2021-08-31T15:00:45.000Z</time>
      </trkpt>
      <trkpt lat="47.16715" lon="-1.62445">
        <ele>65</ele>
        <time>2021-08-31T15:00:47.000Z</time>
      </trkpt>
      <trkpt lat="47.16717" lon="-1.62428">
        <ele>65</ele>
        <time>2021-08-31T15:00:49.000Z</time>
      </trkpt>
      <trkpt lat="47.16722" lon="-1.62413">
        <ele>65</ele>
        <time>2021-08-31T15:00:51.000Z</time>
      </trkpt>
      <trkpt lat="47.16727" lon="-1.62395">
        <ele>65</ele>
        <time>2021-08-31T15:00:53.000Z</time>
      </trkpt>
      <trkpt lat="47.16732" lon="-1.62379">
        <ele>65</ele>
        <time>2021-08-31T15:00:55.000Z</time>
      </trkpt>
      <trkpt lat="47.1674" lon="-1.62364">
        <ele>64</ele>
        <time>2021-08-31T15:00:57.000Z</time>
      </trkpt>
      <trkpt lat="47.1675" lon="-1.62352">
        <ele>65</ele>
        <time>2021-08-31T15:00:59.000Z</time>
      </trkpt>
      <trkpt lat="47.1676" lon="-1.62343">
        <ele>65</ele>
        <time>2021-08-31T15:01:01.000Z</time>
      </trkpt>
      <trkpt lat="47.16772" lon="-1.62336">
        <ele>66</ele>
        <time>2021-08-31T15:01:03.000Z</time>
      </trkpt>
      <trkpt lat="47.16784" lon="-1.6233">
        <ele>66</ele>
        <time>2021-08-31T15:01:05.000Z</time>
      </trkpt>
      <trkpt lat="47.16795" lon="-1.62325">
        <ele>67</ele>
        <time>2021-08-31T15:01:07.000Z</time>
      </trkpt>
      <trkpt lat="47.16806" lon="-1.62318">
        <ele>67</ele>
        <time>2021-08-31T15:01:09.000Z</time>
      </trkpt>
      <trkpt lat="47.16817" lon="-1.6231">
        <ele>67</ele>
        <time>2021-08-31T15:01:11.000Z</time>
      </trkpt>
      <trkpt lat="47.16827" lon="-1.62301">
        <ele>68</ele>
        <time>2021-08-31T15:01:13.000Z</time>
      </trkpt>
      <trkpt lat="47.16837" lon="-1.62291">
        <ele>68</ele>
        <time>2021-08-31T15:01:15.000Z</time>
      </trkpt>
      <trkpt lat="47.16846" lon="-1.62279">
        <ele>68</ele>
        <time>2021-08-31T15:01:17.000Z</time>
      </trkpt>
      <trkpt lat="47.16855" lon="-1.62268">
        <ele>68</ele>
        <time>2021-08-31T15:01:19.000Z</time>
      </trkpt>
      <trkpt lat="47.16865" lon="-1.62256">
        <ele>68</ele>
        <time>2021-08-31T15:01:21.000Z</time>
      </trkpt>
      <trkpt lat="47.16874" lon="-1.62245">
        <ele>68</ele>
        <time>2021-08-31T15:01:23.000Z</time>
      </trkpt>
      <trkpt lat="47.16883" lon="-1.62234">
        <ele>68</ele>
        <time>2021-08-31T15:01:25.000Z</time>
      </trkpt>
      <trkpt lat="47.16892" lon="-1.62223">
        <ele>68</ele>
        <time>2021-08-31T15:01:27.000Z</time>
      </trkpt>
      <trkpt lat="47.16901" lon="-1.62211">
        <ele>68</ele>
        <time>2021-08-31T15:01:29.000Z</time>
      </trkpt>
      <trkpt lat="47.1691" lon="-1.62199">
        <ele>68</ele>
        <time>2021-08-31T15:01:31.000Z</time>
      </trkpt>
      <trkpt lat="47.16917" lon="-1.62185">
        <ele>68</ele>
        <time>2021-08-31T15:01:33.000Z</time>
      </trkpt>
      <trkpt lat="47.16924" lon="-1.62171">
        <ele>68</ele>
        <time>2021-08-31T15:01:35.000Z</time>
      </trkpt>
      <trkpt lat="47.16931" lon="-1.62156">
        <ele>68</ele>
        <time>2021-08-31T15:01:37.000Z</time>
      </trkpt>
      <trkpt lat="47.16938" lon="-1.62142">
        <ele>68</ele>
        <time>2021-08-31T15:01:39.000Z</time>
      </trkpt>
      <trkpt lat="47.16946" lon="-1.62128">
        <ele>68</ele>
        <time>2021-08-31T15:01:41.000Z</time>
      </trkpt>
      <trkpt lat="47.16954" lon="-1.62113">
        <ele>68</ele>
        <time>2021-08-31T15:01:43.000Z</time>
      </trkpt>
      <trkpt lat="47.16962" lon="-1.62098">
        <ele>68</ele>
        <time>2021-08-31T15:01:45.000Z</time>
      </trkpt>
      <trkpt lat="47.16969" lon="-1.62083">
        <ele>67</ele>
        <time>2021-08-31T15:01:47.000Z</time>
      </trkpt>
      <trkpt lat="47.16977" lon="-1.62068">
        <ele>67</ele>
        <time>2021-08-31T15:01:49.000Z</time>
      </trkpt>
      <trkpt lat="47.16984" lon="-1.62054">
        <ele>67</ele>
        <time>2021-08-31T15:01:51.000Z</time>
      </trkpt>
      <trkpt lat="47.16993" lon="-1.6204">
        <ele>67</ele>
        <time>2021-08-31T15:01:53.000Z</time>
      </trkpt>
      <trkpt lat="47.17001" lon="-1.62026">
        <ele>67</ele>
        <time>2021-08-31T15:01:55.000Z</time>
      </trkpt>
      <trkpt lat="47.17009" lon="-1.62014">
        <ele>67</ele>
        <time>2021-08-31T15:01:57.000Z</time>
      </trkpt>
      <trkpt lat="47.17018" lon="-1.62001">
        <ele>67</ele>
        <time>2021-08-31T15:01:59.000Z</time>
      </trkpt>
      <trkpt lat="47.17026" lon="-1.61989">
        <ele>67</ele>
        <time>2021-08-31T15:02:01.000Z</time>
      </trkpt>
      <trkpt lat="47.17035" lon="-1.61976">
        <ele>68</ele>
        <time>2021-08-31T15:02:03.000Z</time>
      </trkpt>
      <trkpt lat="47.17043" lon="-1.61964">
        <ele>68</ele>
        <time>2021-08-31T15:02:05.000Z</time>
      </trkpt>
      <trkpt lat="47.17052" lon="-1.61952">
        <ele>68</ele>
        <time>2021-08-31T15:02:07.000Z</time>
      </trkpt>
      <trkpt lat="47.17061" lon="-1.6194">
        <ele>68</ele>
        <time>2021-08-31T15:02:09.000Z</time>
      </trkpt>
      <trkpt lat="47.1707" lon="-1.6193">
        <ele>67</ele>
        <time>2021-08-31T15:02:11.000Z</time>
      </trkpt>
      <trkpt lat="47.1708" lon="-1.61919">
        <ele>67</ele>
        <time>2021-08-31T15:02:13.000Z</time>
      </trkpt>
      <trkpt lat="47.1709" lon="-1.61909">
        <ele>67</ele>
        <time>2021-08-31T15:02:15.000Z</time>
      </trkpt>
      <trkpt lat="47.171" lon="-1.619">
        <ele>66</ele>
        <time>2021-08-31T15:02:17.000Z</time>
      </trkpt>
      <trkpt lat="47.17111" lon="-1.61891">
        <ele>66</ele>
        <time>2021-08-31T15:02:19.000Z</time>
      </trkpt>
      <trkpt lat="47.1712" lon="-1.61881">
        <ele>67</ele>
        <time>2021-08-31T15:02:21.000Z</time>
      </trkpt>
      <trkpt lat="47.1713" lon="-1.61871">
        <ele>67</ele>
        <time>2021-08-31T15:02:23.000Z</time>
      </trkpt>
      <trkpt lat="47.17139" lon="-1.61862">
        <ele>67</ele>
        <time>2021-08-31T15:02:25.000Z</time>
      </trkpt>
      <trkpt lat="47.17149" lon="-1.61853">
        <ele>67</ele>
        <time>2021-08-31T15:02:27.000Z</time>
      </trkpt>
      <trkpt lat="47.17159" lon="-1.61844">
        <ele>67</ele>
        <time>2021-08-31T15:02:29.000Z</time>
      </trkpt>
      <trkpt lat="47.17169" lon="-1.61835">
        <ele>67</ele>
        <time>2021-08-31T15:02:31.000Z</time>
      </trkpt>
      <trkpt lat="47.17178" lon="-1.61825">
        <ele>67</ele>
        <time>2021-08-31T15:02:33.000Z</time>
      </trkpt>
      <trkpt lat="47.17188" lon="-1.61816">
        <ele>67</ele>
        <time>2021-08-31T15:02:35.000Z</time>
      </trkpt>
      <trkpt lat="47.17197" lon="-1.61807">
        <ele>67</ele>
        <time>2021-08-31T15:02:37.000Z</time>
      </trkpt>
      <trkpt lat="47.17207" lon="-1.61798">
        <ele>67</ele>
        <time>2021-08-31T15:02:39.000Z</time>
      </trkpt>
      <trkpt lat="47.17216" lon="-1.61787">
        <ele>67</ele>
        <time>2021-08-31T15:02:41.000Z</time>
      </trkpt>
      <trkpt lat="47.1722" lon="-1.61771">
        <ele>67</ele>
        <time>2021-08-31T15:02:43.000Z</time>
      </trkpt>
      <trkpt lat="47.17216" lon="-1.61755">
        <ele>66</ele>
        <time>2021-08-31T15:02:45.000Z</time>
      </trkpt>
      <trkpt lat="47.17208" lon="-1.61742">
        <ele>66</ele>
        <time>2021-08-31T15:02:47.000Z</time>
      </trkpt>
      <trkpt lat="47.172" lon="-1.61728">
        <ele>65</ele>
        <time>2021-08-31T15:02:49.000Z</time>
      </trkpt>
      <trkpt lat="47.17192" lon="-1.61715">
        <ele>65</ele>
        <time>2021-08-31T15:02:51.000Z</time>
      </trkpt>
      <trkpt lat="47.17183" lon="-1.61701">
        <ele>66</ele>
        <time>2021-08-31T15:02:53.000Z</time>
      </trkpt>
      <trkpt lat="47.1717" lon="-1.61687">
        <ele>64</ele>
        <time>2021-08-31T15:02:55.000Z</time>
      </trkpt>
      <trkpt lat="47.17156" lon="-1.61674">
        <ele>63</ele>
        <time>2021-08-31T15:02:57.000Z</time>
      </trkpt>
      <trkpt lat="47.1714" lon="-1.61664">
        <ele>62</ele>
        <time>2021-08-31T15:02:59.000Z</time>
      </trkpt>
      <trkpt lat="47.17123" lon="-1.61655">
        <ele>61</ele>
        <time>2021-08-31T15:03:01.000Z</time>
      </trkpt>
      <trkpt lat="47.17107" lon="-1.61646">
        <ele>60</ele>
        <time>2021-08-31T15:03:03.000Z</time>
      </trkpt>
      <trkpt lat="47.17092" lon="-1.61637">
        <ele>60</ele>
        <time>2021-08-31T15:03:05.000Z</time>
      </trkpt>
      <trkpt lat="47.1708" lon="-1.61628">
        <ele>60</ele>
        <time>2021-08-31T15:03:07.000Z</time>
      </trkpt>
      <trkpt lat="47.17066" lon="-1.6162">
        <ele>60</ele>
        <time>2021-08-31T15:03:09.000Z</time>
      </trkpt>
      <trkpt lat="47.17055" lon="-1.61613">
        <ele>63</ele>
        <time>2021-08-31T15:03:11.000Z</time>
      </trkpt>
      <trkpt lat="47.1704" lon="-1.61607">
        <ele>63</ele>
        <time>2021-08-31T15:03:13.000Z</time>
      </trkpt>
      <trkpt lat="47.1703" lon="-1.61599">
        <ele>64</ele>
        <time>2021-08-31T15:03:15.000Z</time>
      </trkpt>
      <trkpt lat="47.17023" lon="-1.61584">
        <ele>62</ele>
        <time>2021-08-31T15:03:17.000Z</time>
      </trkpt>
      <trkpt lat="47.17016" lon="-1.61568">
        <ele>60</ele>
        <time>2021-08-31T15:03:19.000Z</time>
      </trkpt>
      <trkpt lat="47.17011" lon="-1.6155">
        <ele>60</ele>
        <time>2021-08-31T15:03:21.000Z</time>
      </trkpt>
      <trkpt lat="47.17007" lon="-1.61532">
        <ele>59</ele>
        <time>2021-08-31T15:03:23.000Z</time>
      </trkpt>
      <trkpt lat="47.17" lon="-1.61506">
        <ele>59</ele>
        <time>2021-08-31T15:03:26.000Z</time>
      </trkpt>
      <trkpt lat="47.16995" lon="-1.61488">
        <ele>59</ele>
        <time>2021-08-31T15:03:28.000Z</time>
      </trkpt>
      <trkpt lat="47.16989" lon="-1.61471">
        <ele>58</ele>
        <time>2021-08-31T15:03:30.000Z</time>
      </trkpt>
      <trkpt lat="47.16984" lon="-1.61454">
        <ele>58</ele>
        <time>2021-08-31T15:03:32.000Z</time>
      </trkpt>
      <trkpt lat="47.1698" lon="-1.6144">
        <ele>60</ele>
        <time>2021-08-31T15:03:34.000Z</time>
      </trkpt>
      <trkpt lat="47.16975" lon="-1.61426">
        <ele>62</ele>
        <time>2021-08-31T15:03:36.000Z</time>
      </trkpt>
      <trkpt lat="47.16969" lon="-1.61412">
        <ele>63</ele>
        <time>2021-08-31T15:03:38.000Z</time>
      </trkpt>
      <trkpt lat="47.1696" lon="-1.61393">
        <ele>65</ele>
        <time>2021-08-31T15:03:41.000Z</time>
      </trkpt>
      <trkpt lat="47.16953" lon="-1.6138">
        <ele>65</ele>
        <time>2021-08-31T15:03:43.000Z</time>
      </trkpt>
      <trkpt lat="47.16946" lon="-1.61366">
        <ele>64</ele>
        <time>2021-08-31T15:03:45.000Z</time>
      </trkpt>
      <trkpt lat="47.16936" lon="-1.61344">
        <ele>63</ele>
        <time>2021-08-31T15:03:48.000Z</time>
      </trkpt>
      <trkpt lat="47.16929" lon="-1.61328">
        <ele>63</ele>
        <time>2021-08-31T15:03:50.000Z</time>
      </trkpt>
      <trkpt lat="47.16921" lon="-1.61311">
        <ele>63</ele>
        <time>2021-08-31T15:03:52.000Z</time>
      </trkpt>
      <trkpt lat="47.16912" lon="-1.61295">
        <ele>63</ele>
        <time>2021-08-31T15:03:54.000Z</time>
      </trkpt>
      <trkpt lat="47.16894" lon="-1.61272">
        <ele>61</ele>
        <time>2021-08-31T15:03:57.000Z</time>
      </trkpt>
      <trkpt lat="47.16877" lon="-1.61262">
        <ele>60</ele>
        <time>2021-08-31T15:03:59.000Z</time>
      </trkpt>
      <trkpt lat="47.1686" lon="-1.61259">
        <ele>59</ele>
        <time>2021-08-31T15:04:01.000Z</time>
      </trkpt>
      <trkpt lat="47.1685" lon="-1.6126">
        <ele>59</ele>
        <time>2021-08-31T15:04:02.000Z</time>
      </trkpt>
      <trkpt lat="47.16839" lon="-1.6126">
        <ele>58</ele>
        <time>2021-08-31T15:04:03.000Z</time>
      </trkpt>
      <trkpt lat="47.16829" lon="-1.61258">
        <ele>58</ele>
        <time>2021-08-31T15:04:04.000Z</time>
      </trkpt>
      <trkpt lat="47.16811" lon="-1.61252">
        <ele>58</ele>
        <time>2021-08-31T15:04:06.000Z</time>
      </trkpt>
      <trkpt lat="47.16795" lon="-1.61242">
        <ele>58</ele>
        <time>2021-08-31T15:04:08.000Z</time>
      </trkpt>
      <trkpt lat="47.16786" lon="-1.61236">
        <ele>58</ele>
        <time>2021-08-31T15:04:09.000Z</time>
      </trkpt>
      <trkpt lat="47.16771" lon="-1.61227">
        <ele>57</ele>
        <time>2021-08-31T15:04:11.000Z</time>
      </trkpt>
      <trkpt lat="47.16757" lon="-1.61218">
        <ele>56</ele>
        <time>2021-08-31T15:04:13.000Z</time>
      </trkpt>
      <trkpt lat="47.16745" lon="-1.61211">
        <ele>56</ele>
        <time>2021-08-31T15:04:15.000Z</time>
      </trkpt>
      <trkpt lat="47.16735" lon="-1.61204">
        <ele>57</ele>
        <time>2021-08-31T15:04:17.000Z</time>
      </trkpt>
      <trkpt lat="47.16725" lon="-1.61197">
        <ele>57</ele>
        <time>2021-08-31T15:04:19.000Z</time>
      </trkpt>
      <trkpt lat="47.16714" lon="-1.6119">
        <ele>57</ele>
        <time>2021-08-31T15:04:21.000Z</time>
      </trkpt>
      <trkpt lat="47.16703" lon="-1.61183">
        <ele>57</ele>
        <time>2021-08-31T15:04:23.000Z</time>
      </trkpt>
      <trkpt lat="47.16692" lon="-1.61177">
        <ele>58</ele>
        <time>2021-08-31T15:04:25.000Z</time>
      </trkpt>
      <trkpt lat="47.16681" lon="-1.6117">
        <ele>59</ele>
        <time>2021-08-31T15:04:27.000Z</time>
      </trkpt>
      <trkpt lat="47.16672" lon="-1.61162">
        <ele>59</ele>
        <time>2021-08-31T15:04:29.000Z</time>
      </trkpt>
      <trkpt lat="47.16664" lon="-1.61151">
        <ele>60</ele>
        <time>2021-08-31T15:04:31.000Z</time>
      </trkpt>
      <trkpt lat="47.16657" lon="-1.61139">
        <ele>61</ele>
        <time>2021-08-31T15:04:33.000Z</time>
      </trkpt>
      <trkpt lat="47.16653" lon="-1.61125">
        <ele>62</ele>
        <time>2021-08-31T15:04:35.000Z</time>
      </trkpt>
      <trkpt lat="47.1665" lon="-1.6111">
        <ele>63</ele>
        <time>2021-08-31T15:04:37.000Z</time>
      </trkpt>
      <trkpt lat="47.16649" lon="-1.61095">
        <ele>64</ele>
        <time>2021-08-31T15:04:39.000Z</time>
      </trkpt>
      <trkpt lat="47.16647" lon="-1.61079">
        <ele>64</ele>
        <time>2021-08-31T15:04:41.000Z</time>
      </trkpt>
      <trkpt lat="47.16644" lon="-1.61063">
        <ele>65</ele>
        <time>2021-08-31T15:04:43.000Z</time>
      </trkpt>
      <trkpt lat="47.16642" lon="-1.61048">
        <ele>66</ele>
        <time>2021-08-31T15:04:45.000Z</time>
      </trkpt>
      <trkpt lat="47.16639" lon="-1.61033">
        <ele>66</ele>
        <time>2021-08-31T15:04:47.000Z</time>
      </trkpt>
      <trkpt lat="47.16636" lon="-1.61018">
        <ele>67</ele>
        <time>2021-08-31T15:04:49.000Z</time>
      </trkpt>
      <trkpt lat="47.16632" lon="-1.61003">
        <ele>67</ele>
        <time>2021-08-31T15:04:51.000Z</time>
      </trkpt>
      <trkpt lat="47.16628" lon="-1.6099">
        <ele>68</ele>
        <time>2021-08-31T15:04:53.000Z</time>
      </trkpt>
      <trkpt lat="47.16622" lon="-1.60976">
        <ele>69</ele>
        <time>2021-08-31T15:04:55.000Z</time>
      </trkpt>
      <trkpt lat="47.16616" lon="-1.60962">
        <ele>69</ele>
        <time>2021-08-31T15:04:57.000Z</time>
      </trkpt>
      <trkpt lat="47.16609" lon="-1.60949">
        <ele>69</ele>
        <time>2021-08-31T15:04:59.000Z</time>
      </trkpt>
      <trkpt lat="47.16604" lon="-1.60936">
        <ele>69</ele>
        <time>2021-08-31T15:05:01.000Z</time>
      </trkpt>
      <trkpt lat="47.16597" lon="-1.60922">
        <ele>69</ele>
        <time>2021-08-31T15:05:03.000Z</time>
      </trkpt>
      <trkpt lat="47.16591" lon="-1.60909">
        <ele>69</ele>
        <time>2021-08-31T15:05:05.000Z</time>
      </trkpt>
      <trkpt lat="47.16585" lon="-1.60894">
        <ele>69</ele>
        <time>2021-08-31T15:05:07.000Z</time>
      </trkpt>
      <trkpt lat="47.16579" lon="-1.6088">
        <ele>69</ele>
        <time>2021-08-31T15:05:09.000Z</time>
      </trkpt>
      <trkpt lat="47.16573" lon="-1.60866">
        <ele>69</ele>
        <time>2021-08-31T15:05:11.000Z</time>
      </trkpt>
      <trkpt lat="47.16566" lon="-1.60854">
        <ele>70</ele>
        <time>2021-08-31T15:05:13.000Z</time>
      </trkpt>
      <trkpt lat="47.16558" lon="-1.60843">
        <ele>70</ele>
        <time>2021-08-31T15:05:15.000Z</time>
      </trkpt>
      <trkpt lat="47.16551" lon="-1.60829">
        <ele>70</ele>
        <time>2021-08-31T15:05:17.000Z</time>
      </trkpt>
      <trkpt lat="47.16544" lon="-1.60816">
        <ele>70</ele>
        <time>2021-08-31T15:05:19.000Z</time>
      </trkpt>
      <trkpt lat="47.16535" lon="-1.60804">
        <ele>70</ele>
        <time>2021-08-31T15:05:21.000Z</time>
      </trkpt>
      <trkpt lat="47.16527" lon="-1.60792">
        <ele>71</ele>
        <time>2021-08-31T15:05:23.000Z</time>
      </trkpt>
      <trkpt lat="47.16521" lon="-1.6078">
        <ele>71</ele>
        <time>2021-08-31T15:05:25.000Z</time>
      </trkpt>
      <trkpt lat="47.16518" lon="-1.60763">
        <ele>70</ele>
        <time>2021-08-31T15:05:27.000Z</time>
      </trkpt>
      <trkpt lat="47.16519" lon="-1.60746">
        <ele>70</ele>
        <time>2021-08-31T15:05:29.000Z</time>
      </trkpt>
      <trkpt lat="47.16523" lon="-1.6073">
        <ele>70</ele>
        <time>2021-08-31T15:05:31.000Z</time>
      </trkpt>
      <trkpt lat="47.16526" lon="-1.60714">
        <ele>70</ele>
        <time>2021-08-31T15:05:33.000Z</time>
      </trkpt>
      <trkpt lat="47.1653" lon="-1.60699">
        <ele>70</ele>
        <time>2021-08-31T15:05:35.000Z</time>
      </trkpt>
      <trkpt lat="47.16532" lon="-1.60683">
        <ele>70</ele>
        <time>2021-08-31T15:05:37.000Z</time>
      </trkpt>
      <trkpt lat="47.16536" lon="-1.60668">
        <ele>70</ele>
        <time>2021-08-31T15:05:39.000Z</time>
      </trkpt>
      <trkpt lat="47.16539" lon="-1.60652">
        <ele>70</ele>
        <time>2021-08-31T15:05:41.000Z</time>
      </trkpt>
      <trkpt lat="47.16542" lon="-1.60636">
        <ele>71</ele>
        <time>2021-08-31T15:05:43.000Z</time>
      </trkpt>
      <trkpt lat="47.16546" lon="-1.60621">
        <ele>71</ele>
        <time>2021-08-31T15:05:45.000Z</time>
      </trkpt>
      <trkpt lat="47.16549" lon="-1.60606">
        <ele>71</ele>
        <time>2021-08-31T15:05:47.000Z</time>
      </trkpt>
      <trkpt lat="47.16552" lon="-1.60592">
        <ele>71</ele>
        <time>2021-08-31T15:05:49.000Z</time>
      </trkpt>
      <trkpt lat="47.16555" lon="-1.60576">
        <ele>72</ele>
        <time>2021-08-31T15:05:51.000Z</time>
      </trkpt>
      <trkpt lat="47.16558" lon="-1.60561">
        <ele>72</ele>
        <time>2021-08-31T15:05:53.000Z</time>
      </trkpt>
      <trkpt lat="47.16562" lon="-1.60546">
        <ele>72</ele>
        <time>2021-08-31T15:05:55.000Z</time>
      </trkpt>
      <trkpt lat="47.16571" lon="-1.60534">
        <ele>72</ele>
        <time>2021-08-31T15:05:57.000Z</time>
      </trkpt>
      <trkpt lat="47.16582" lon="-1.60527">
        <ele>72</ele>
        <time>2021-08-31T15:05:59.000Z</time>
      </trkpt>
      <trkpt lat="47.16593" lon="-1.60523">
        <ele>72</ele>
        <time>2021-08-31T15:06:01.000Z</time>
      </trkpt>
      <trkpt lat="47.16605" lon="-1.60519">
        <ele>72</ele>
        <time>2021-08-31T15:06:03.000Z</time>
      </trkpt>
      <trkpt lat="47.16617" lon="-1.60514">
        <ele>72</ele>
        <time>2021-08-31T15:06:05.000Z</time>
      </trkpt>
      <trkpt lat="47.16629" lon="-1.60508">
        <ele>72</ele>
        <time>2021-08-31T15:06:07.000Z</time>
      </trkpt>
      <trkpt lat="47.16641" lon="-1.60502">
        <ele>72</ele>
        <time>2021-08-31T15:06:09.000Z</time>
      </trkpt>
      <trkpt lat="47.16652" lon="-1.60495">
        <ele>72</ele>
        <time>2021-08-31T15:06:11.000Z</time>
      </trkpt>
      <trkpt lat="47.16664" lon="-1.60487">
        <ele>72</ele>
        <time>2021-08-31T15:06:13.000Z</time>
      </trkpt>
      <trkpt lat="47.16676" lon="-1.6048">
        <ele>73</ele>
        <time>2021-08-31T15:06:15.000Z</time>
      </trkpt>
      <trkpt lat="47.16687" lon="-1.60472">
        <ele>73</ele>
        <time>2021-08-31T15:06:17.000Z</time>
      </trkpt>
      <trkpt lat="47.16699" lon="-1.60463">
        <ele>73</ele>
        <time>2021-08-31T15:06:19.000Z</time>
      </trkpt>
      <trkpt lat="47.1671" lon="-1.60453">
        <ele>73</ele>
        <time>2021-08-31T15:06:21.000Z</time>
      </trkpt>
      <trkpt lat="47.16721" lon="-1.60444">
        <ele>73</ele>
        <time>2021-08-31T15:06:23.000Z</time>
      </trkpt>
      <trkpt lat="47.16732" lon="-1.60435">
        <ele>73</ele>
        <time>2021-08-31T15:06:25.000Z</time>
      </trkpt>
      <trkpt lat="47.16743" lon="-1.60426">
        <ele>73</ele>
        <time>2021-08-31T15:06:27.000Z</time>
      </trkpt>
      <trkpt lat="47.16755" lon="-1.60418">
        <ele>73</ele>
        <time>2021-08-31T15:06:29.000Z</time>
      </trkpt>
      <trkpt lat="47.16766" lon="-1.60411">
        <ele>73</ele>
        <time>2021-08-31T15:06:31.000Z</time>
      </trkpt>
      <trkpt lat="47.16777" lon="-1.60405">
        <ele>74</ele>
        <time>2021-08-31T15:06:33.000Z</time>
      </trkpt>
      <trkpt lat="47.16789" lon="-1.60399">
        <ele>74</ele>
        <time>2021-08-31T15:06:35.000Z</time>
      </trkpt>
      <trkpt lat="47.16802" lon="-1.60394">
        <ele>74</ele>
        <time>2021-08-31T15:06:37.000Z</time>
      </trkpt>
      <trkpt lat="47.16814" lon="-1.60388">
        <ele>74</ele>
        <time>2021-08-31T15:06:39.000Z</time>
      </trkpt>
      <trkpt lat="47.16827" lon="-1.60383">
        <ele>74</ele>
        <time>2021-08-31T15:06:41.000Z</time>
      </trkpt>
      <trkpt lat="47.1684" lon="-1.60377">
        <ele>74</ele>
        <time>2021-08-31T15:06:43.000Z</time>
      </trkpt>
      <trkpt lat="47.16853" lon="-1.60372">
        <ele>74</ele>
        <time>2021-08-31T15:06:45.000Z</time>
      </trkpt>
      <trkpt lat="47.16865" lon="-1.60367">
        <ele>73</ele>
        <time>2021-08-31T15:06:47.000Z</time>
      </trkpt>
      <trkpt lat="47.16878" lon="-1.60362">
        <ele>73</ele>
        <time>2021-08-31T15:06:49.000Z</time>
      </trkpt>
      <trkpt lat="47.1689" lon="-1.60358">
        <ele>73</ele>
        <time>2021-08-31T15:06:51.000Z</time>
      </trkpt>
      <trkpt lat="47.16903" lon="-1.60353">
        <ele>73</ele>
        <time>2021-08-31T15:06:53.000Z</time>
      </trkpt>
      <trkpt lat="47.16915" lon="-1.60348">
        <ele>72</ele>
        <time>2021-08-31T15:06:55.000Z</time>
      </trkpt>
      <trkpt lat="47.16925" lon="-1.60341">
        <ele>73</ele>
        <time>2021-08-31T15:06:57.000Z</time>
      </trkpt>
      <trkpt lat="47.16932" lon="-1.6033">
        <ele>73</ele>
        <time>2021-08-31T15:06:59.000Z</time>
      </trkpt>
      <trkpt lat="47.16934" lon="-1.60316">
        <ele>73</ele>
        <time>2021-08-31T15:07:01.000Z</time>
      </trkpt>
      <trkpt lat="47.16925" lon="-1.60308">
        <ele>73</ele>
        <time>2021-08-31T15:07:03.000Z</time>
      </trkpt>
      <trkpt lat="47.16912" lon="-1.60304">
        <ele>72</ele>
        <time>2021-08-31T15:07:05.000Z</time>
      </trkpt>
      <trkpt lat="47.16899" lon="-1.60301">
        <ele>72</ele>
        <time>2021-08-31T15:07:07.000Z</time>
      </trkpt>
      <trkpt lat="47.16886" lon="-1.60298">
        <ele>72</ele>
        <time>2021-08-31T15:07:09.000Z</time>
      </trkpt>
      <trkpt lat="47.16872" lon="-1.60295">
        <ele>72</ele>
        <time>2021-08-31T15:07:11.000Z</time>
      </trkpt>
      <trkpt lat="47.16858" lon="-1.60292">
        <ele>72</ele>
        <time>2021-08-31T15:07:13.000Z</time>
      </trkpt>
      <trkpt lat="47.16845" lon="-1.60289">
        <ele>72</ele>
        <time>2021-08-31T15:07:15.000Z</time>
      </trkpt>
      <trkpt lat="47.16832" lon="-1.60286">
        <ele>72</ele>
        <time>2021-08-31T15:07:17.000Z</time>
      </trkpt>
      <trkpt lat="47.16819" lon="-1.60282">
        <ele>71</ele>
        <time>2021-08-31T15:07:19.000Z</time>
      </trkpt>
      <trkpt lat="47.16808" lon="-1.60272">
        <ele>70</ele>
        <time>2021-08-31T15:07:21.000Z</time>
      </trkpt>
      <trkpt lat="47.16798" lon="-1.60259">
        <ele>70</ele>
        <time>2021-08-31T15:07:23.000Z</time>
      </trkpt>
      <trkpt lat="47.16789" lon="-1.60245">
        <ele>70</ele>
        <time>2021-08-31T15:07:25.000Z</time>
      </trkpt>
      <trkpt lat="47.1678" lon="-1.60231">
        <ele>70</ele>
        <time>2021-08-31T15:07:27.000Z</time>
      </trkpt>
      <trkpt lat="47.16771" lon="-1.60216">
        <ele>69</ele>
        <time>2021-08-31T15:07:29.000Z</time>
      </trkpt>
      <trkpt lat="47.16762" lon="-1.602">
        <ele>69</ele>
        <time>2021-08-31T15:07:31.000Z</time>
      </trkpt>
      <trkpt lat="47.16754" lon="-1.60185">
        <ele>69</ele>
        <time>2021-08-31T15:07:33.000Z</time>
      </trkpt>
      <trkpt lat="47.16745" lon="-1.6017">
        <ele>69</ele>
        <time>2021-08-31T15:07:35.000Z</time>
      </trkpt>
      <trkpt lat="47.16736" lon="-1.60156">
        <ele>69</ele>
        <time>2021-08-31T15:07:37.000Z</time>
      </trkpt>
      <trkpt lat="47.16728" lon="-1.6014">
        <ele>69</ele>
        <time>2021-08-31T15:07:39.000Z</time>
      </trkpt>
      <trkpt lat="47.16719" lon="-1.60126">
        <ele>69</ele>
        <time>2021-08-31T15:07:41.000Z</time>
      </trkpt>
      <trkpt lat="47.1671" lon="-1.60112">
        <ele>70</ele>
        <time>2021-08-31T15:07:43.000Z</time>
      </trkpt>
      <trkpt lat="47.16702" lon="-1.60099">
        <ele>70</ele>
        <time>2021-08-31T15:07:45.000Z</time>
      </trkpt>
      <trkpt lat="47.16694" lon="-1.60085">
        <ele>70</ele>
        <time>2021-08-31T15:07:47.000Z</time>
      </trkpt>
      <trkpt lat="47.16686" lon="-1.60071">
        <ele>71</ele>
        <time>2021-08-31T15:07:49.000Z</time>
      </trkpt>
      <trkpt lat="47.16678" lon="-1.60058">
        <ele>71</ele>
        <time>2021-08-31T15:07:51.000Z</time>
      </trkpt>
      <trkpt lat="47.1667" lon="-1.60044">
        <ele>71</ele>
        <time>2021-08-31T15:07:53.000Z</time>
      </trkpt>
      <trkpt lat="47.16661" lon="-1.6003">
        <ele>71</ele>
        <time>2021-08-31T15:07:55.000Z</time>
      </trkpt>
      <trkpt lat="47.16653" lon="-1.60016">
        <ele>71</ele>
        <time>2021-08-31T15:07:57.000Z</time>
      </trkpt>
      <trkpt lat="47.16645" lon="-1.60002">
        <ele>71</ele>
        <time>2021-08-31T15:07:59.000Z</time>
      </trkpt>
      <trkpt lat="47.16636" lon="-1.59988">
        <ele>71</ele>
        <time>2021-08-31T15:08:01.000Z</time>
      </trkpt>
      <trkpt lat="47.16627" lon="-1.59975">
        <ele>71</ele>
        <time>2021-08-31T15:08:03.000Z</time>
      </trkpt>
      <trkpt lat="47.16619" lon="-1.59961">
        <ele>71</ele>
        <time>2021-08-31T15:08:05.000Z</time>
      </trkpt>
      <trkpt lat="47.16611" lon="-1.59947">
        <ele>71</ele>
        <time>2021-08-31T15:08:07.000Z</time>
      </trkpt>
      <trkpt lat="47.16602" lon="-1.59934">
        <ele>71</ele>
        <time>2021-08-31T15:08:09.000Z</time>
      </trkpt>
      <trkpt lat="47.16593" lon="-1.59922">
        <ele>70</ele>
        <time>2021-08-31T15:08:11.000Z</time>
      </trkpt>
      <trkpt lat="47.16583" lon="-1.59909">
        <ele>70</ele>
        <time>2021-08-31T15:08:13.000Z</time>
      </trkpt>
      <trkpt lat="47.16571" lon="-1.59897">
        <ele>69</ele>
        <time>2021-08-31T15:08:15.000Z</time>
      </trkpt>
      <trkpt lat="47.1656" lon="-1.59886">
        <ele>69</ele>
        <time>2021-08-31T15:08:17.000Z</time>
      </trkpt>
      <trkpt lat="47.16547" lon="-1.59875">
        <ele>68</ele>
        <time>2021-08-31T15:08:19.000Z</time>
      </trkpt>
      <trkpt lat="47.16536" lon="-1.59864">
        <ele>69</ele>
        <time>2021-08-31T15:08:21.000Z</time>
      </trkpt>
      <trkpt lat="47.16523" lon="-1.59854">
        <ele>68</ele>
        <time>2021-08-31T15:08:23.000Z</time>
      </trkpt>
      <trkpt lat="47.16511" lon="-1.59843">
        <ele>68</ele>
        <time>2021-08-31T15:08:25.000Z</time>
      </trkpt>
      <trkpt lat="47.16499" lon="-1.59833">
        <ele>68</ele>
        <time>2021-08-31T15:08:27.000Z</time>
      </trkpt>
      <trkpt lat="47.16487" lon="-1.59823">
        <ele>68</ele>
        <time>2021-08-31T15:08:29.000Z</time>
      </trkpt>
      <trkpt lat="47.16475" lon="-1.59813">
        <ele>67</ele>
        <time>2021-08-31T15:08:31.000Z</time>
      </trkpt>
      <trkpt lat="47.16463" lon="-1.59803">
        <ele>67</ele>
        <time>2021-08-31T15:08:33.000Z</time>
      </trkpt>
      <trkpt lat="47.16451" lon="-1.59793">
        <ele>67</ele>
        <time>2021-08-31T15:08:35.000Z</time>
      </trkpt>
      <trkpt lat="47.16439" lon="-1.59783">
        <ele>67</ele>
        <time>2021-08-31T15:08:37.000Z</time>
      </trkpt>
      <trkpt lat="47.16428" lon="-1.59774">
        <ele>67</ele>
        <time>2021-08-31T15:08:39.000Z</time>
      </trkpt>
      <trkpt lat="47.16416" lon="-1.59764">
        <ele>67</ele>
        <time>2021-08-31T15:08:41.000Z</time>
      </trkpt>
      <trkpt lat="47.16405" lon="-1.59754">
        <ele>67</ele>
        <time>2021-08-31T15:08:43.000Z</time>
      </trkpt>
      <trkpt lat="47.16395" lon="-1.59743">
        <ele>68</ele>
        <time>2021-08-31T15:08:45.000Z</time>
      </trkpt>
      <trkpt lat="47.16383" lon="-1.59732">
        <ele>68</ele>
        <time>2021-08-31T15:08:47.000Z</time>
      </trkpt>
      <trkpt lat="47.16372" lon="-1.5972">
        <ele>69</ele>
        <time>2021-08-31T15:08:49.000Z</time>
      </trkpt>
      <trkpt lat="47.16361" lon="-1.59707">
        <ele>69</ele>
        <time>2021-08-31T15:08:51.000Z</time>
      </trkpt>
      <trkpt lat="47.16352" lon="-1.59694">
        <ele>69</ele>
        <time>2021-08-31T15:08:53.000Z</time>
      </trkpt>
      <trkpt lat="47.16342" lon="-1.5968">
        <ele>69</ele>
        <time>2021-08-31T15:08:55.000Z</time>
      </trkpt>
      <trkpt lat="47.16333" lon="-1.59666">
        <ele>69</ele>
        <time>2021-08-31T15:08:57.000Z</time>
      </trkpt>
      <trkpt lat="47.16324" lon="-1.59653">
        <ele>69</ele>
        <time>2021-08-31T15:08:59.000Z</time>
      </trkpt>
      <trkpt lat="47.16316" lon="-1.5964">
        <ele>69</ele>
        <time>2021-08-31T15:09:01.000Z</time>
      </trkpt>
      <trkpt lat="47.16308" lon="-1.5963">
        <ele>69</ele>
        <time>2021-08-31T15:09:03.000Z</time>
      </trkpt>
      <trkpt lat="47.16297" lon="-1.5962">
        <ele>69</ele>
        <time>2021-08-31T15:09:06.000Z</time>
      </trkpt>
      <trkpt lat="47.16288" lon="-1.59626">
        <ele>69</ele>
        <time>2021-08-31T15:09:08.000Z</time>
      </trkpt>
      <trkpt lat="47.16276" lon="-1.59633">
        <ele>69</ele>
        <time>2021-08-31T15:09:10.000Z</time>
      </trkpt>
      <trkpt lat="47.16262" lon="-1.5964">
        <ele>69</ele>
        <time>2021-08-31T15:09:12.000Z</time>
      </trkpt>
      <trkpt lat="47.16249" lon="-1.59647">
        <ele>69</ele>
        <time>2021-08-31T15:09:14.000Z</time>
      </trkpt>
      <trkpt lat="47.16235" lon="-1.59654">
        <ele>69</ele>
        <time>2021-08-31T15:09:16.000Z</time>
      </trkpt>
      <trkpt lat="47.16221" lon="-1.59661">
        <ele>69</ele>
        <time>2021-08-31T15:09:18.000Z</time>
      </trkpt>
      <trkpt lat="47.16207" lon="-1.59669">
        <ele>69</ele>
        <time>2021-08-31T15:09:20.000Z</time>
      </trkpt>
      <trkpt lat="47.16193" lon="-1.59677">
        <ele>69</ele>
        <time>2021-08-31T15:09:22.000Z</time>
      </trkpt>
      <trkpt lat="47.16179" lon="-1.59684">
        <ele>69</ele>
        <time>2021-08-31T15:09:24.000Z</time>
      </trkpt>
      <trkpt lat="47.16165" lon="-1.59692">
        <ele>69</ele>
        <time>2021-08-31T15:09:26.000Z</time>
      </trkpt>
      <trkpt lat="47.16151" lon="-1.59699">
        <ele>70</ele>
        <time>2021-08-31T15:09:28.000Z</time>
      </trkpt>
      <trkpt lat="47.16137" lon="-1.59707">
        <ele>70</ele>
        <time>2021-08-31T15:09:30.000Z</time>
      </trkpt>
      <trkpt lat="47.16124" lon="-1.59714">
        <ele>70</ele>
        <time>2021-08-31T15:09:32.000Z</time>
      </trkpt>
      <trkpt lat="47.16111" lon="-1.59722">
        <ele>70</ele>
        <time>2021-08-31T15:09:34.000Z</time>
      </trkpt>
      <trkpt lat="47.16098" lon="-1.5973">
        <ele>70</ele>
        <time>2021-08-31T15:09:36.000Z</time>
      </trkpt>
      <trkpt lat="47.16085" lon="-1.59739">
        <ele>70</ele>
        <time>2021-08-31T15:09:38.000Z</time>
      </trkpt>
      <trkpt lat="47.16071" lon="-1.59748">
        <ele>70</ele>
        <time>2021-08-31T15:09:40.000Z</time>
      </trkpt>
      <trkpt lat="47.16059" lon="-1.59756">
        <ele>70</ele>
        <time>2021-08-31T15:09:42.000Z</time>
      </trkpt>
      <trkpt lat="47.16046" lon="-1.59764">
        <ele>71</ele>
        <time>2021-08-31T15:09:44.000Z</time>
      </trkpt>
      <trkpt lat="47.16034" lon="-1.59772">
        <ele>71</ele>
        <time>2021-08-31T15:09:46.000Z</time>
      </trkpt>
      <trkpt lat="47.1602" lon="-1.5978">
        <ele>71</ele>
        <time>2021-08-31T15:09:48.000Z</time>
      </trkpt>
      <trkpt lat="47.16005" lon="-1.59789">
        <ele>72</ele>
        <time>2021-08-31T15:09:50.000Z</time>
      </trkpt>
      <trkpt lat="47.1599" lon="-1.59797">
        <ele>72</ele>
        <time>2021-08-31T15:09:52.000Z</time>
      </trkpt>
      <trkpt lat="47.15976" lon="-1.59806">
        <ele>72</ele>
        <time>2021-08-31T15:09:54.000Z</time>
      </trkpt>
      <trkpt lat="47.15962" lon="-1.59814">
        <ele>72</ele>
        <time>2021-08-31T15:09:56.000Z</time>
      </trkpt>
      <trkpt lat="47.15947" lon="-1.59821">
        <ele>72</ele>
        <time>2021-08-31T15:09:58.000Z</time>
      </trkpt>
      <trkpt lat="47.15934" lon="-1.5983">
        <ele>72</ele>
        <time>2021-08-31T15:10:00.000Z</time>
      </trkpt>
      <trkpt lat="47.15921" lon="-1.59839">
        <ele>72</ele>
        <time>2021-08-31T15:10:02.000Z</time>
      </trkpt>
      <trkpt lat="47.15912" lon="-1.59856">
        <ele>72</ele>
        <time>2021-08-31T15:10:04.000Z</time>
      </trkpt>
      <trkpt lat="47.15899" lon="-1.59865">
        <ele>72</ele>
        <time>2021-08-31T15:10:06.000Z</time>
      </trkpt>
      <trkpt lat="47.15886" lon="-1.59856">
        <ele>73</ele>
        <time>2021-08-31T15:10:08.000Z</time>
      </trkpt>
      <trkpt lat="47.15881" lon="-1.59837">
        <ele>73</ele>
        <time>2021-08-31T15:10:10.000Z</time>
      </trkpt>
      <trkpt lat="47.15876" lon="-1.59818">
        <ele>73</ele>
        <time>2021-08-31T15:10:12.000Z</time>
      </trkpt>
      <trkpt lat="47.15866" lon="-1.59801">
        <ele>72</ele>
        <time>2021-08-31T15:10:14.000Z</time>
      </trkpt>
      <trkpt lat="47.15855" lon="-1.59787">
        <ele>72</ele>
        <time>2021-08-31T15:10:16.000Z</time>
      </trkpt>
      <trkpt lat="47.15844" lon="-1.59774">
        <ele>72</ele>
        <time>2021-08-31T15:10:18.000Z</time>
      </trkpt>
      <trkpt lat="47.15831" lon="-1.59762">
        <ele>72</ele>
        <time>2021-08-31T15:10:20.000Z</time>
      </trkpt>
      <trkpt lat="47.15819" lon="-1.59752">
        <ele>72</ele>
        <time>2021-08-31T15:10:22.000Z</time>
      </trkpt>
      <trkpt lat="47.15807" lon="-1.59744">
        <ele>72</ele>
        <time>2021-08-31T15:10:24.000Z</time>
      </trkpt>
      <trkpt lat="47.15797" lon="-1.59737">
        <ele>72</ele>
        <time>2021-08-31T15:10:26.000Z</time>
      </trkpt>
      <trkpt lat="47.15786" lon="-1.59734">
        <ele>72</ele>
        <time>2021-08-31T15:10:28.000Z</time>
      </trkpt>
      <trkpt lat="47.15775" lon="-1.59732">
        <ele>73</ele>
        <time>2021-08-31T15:10:31.000Z</time>
      </trkpt>
      <trkpt lat="47.15766" lon="-1.59716">
        <ele>74</ele>
        <time>2021-08-31T15:10:34.000Z</time>
      </trkpt>
      <trkpt lat="47.15763" lon="-1.59698">
        <ele>73</ele>
        <time>2021-08-31T15:10:36.000Z</time>
      </trkpt>
      <trkpt lat="47.15764" lon="-1.59679">
        <ele>73</ele>
        <time>2021-08-31T15:10:38.000Z</time>
      </trkpt>
      <trkpt lat="47.15766" lon="-1.5966">
        <ele>74</ele>
        <time>2021-08-31T15:10:40.000Z</time>
      </trkpt>
      <trkpt lat="47.15765" lon="-1.59641">
        <ele>74</ele>
        <time>2021-08-31T15:10:42.000Z</time>
      </trkpt>
      <trkpt lat="47.15763" lon="-1.59623">
        <ele>74</ele>
        <time>2021-08-31T15:10:44.000Z</time>
      </trkpt>
      <trkpt lat="47.15762" lon="-1.59605">
        <ele>74</ele>
        <time>2021-08-31T15:10:46.000Z</time>
      </trkpt>
      <trkpt lat="47.15761" lon="-1.59588">
        <ele>74</ele>
        <time>2021-08-31T15:10:48.000Z</time>
      </trkpt>
      <trkpt lat="47.15759" lon="-1.5957">
        <ele>74</ele>
        <time>2021-08-31T15:10:50.000Z</time>
      </trkpt>
      <trkpt lat="47.15758" lon="-1.59553">
        <ele>74</ele>
        <time>2021-08-31T15:10:52.000Z</time>
      </trkpt>
      <trkpt lat="47.15758" lon="-1.59535">
        <ele>74</ele>
        <time>2021-08-31T15:10:54.000Z</time>
      </trkpt>
      <trkpt lat="47.15759" lon="-1.59517">
        <ele>74</ele>
        <time>2021-08-31T15:10:56.000Z</time>
      </trkpt>
      <trkpt lat="47.1576" lon="-1.59499">
        <ele>74</ele>
        <time>2021-08-31T15:10:58.000Z</time>
      </trkpt>
      <trkpt lat="47.15761" lon="-1.59481">
        <ele>74</ele>
        <time>2021-08-31T15:11:00.000Z</time>
      </trkpt>
      <trkpt lat="47.15764" lon="-1.59463">
        <ele>74</ele>
        <time>2021-08-31T15:11:02.000Z</time>
      </trkpt>
      <trkpt lat="47.15766" lon="-1.59445">
        <ele>74</ele>
        <time>2021-08-31T15:11:04.000Z</time>
      </trkpt>
      <trkpt lat="47.15769" lon="-1.59426">
        <ele>74</ele>
        <time>2021-08-31T15:11:06.000Z</time>
      </trkpt>
      <trkpt lat="47.15772" lon="-1.59408">
        <ele>74</ele>
        <time>2021-08-31T15:11:08.000Z</time>
      </trkpt>
      <trkpt lat="47.15776" lon="-1.59391">
        <ele>74</ele>
        <time>2021-08-31T15:11:10.000Z</time>
      </trkpt>
      <trkpt lat="47.15778" lon="-1.59373">
        <ele>74</ele>
        <time>2021-08-31T15:11:12.000Z</time>
      </trkpt>
      <trkpt lat="47.15781" lon="-1.59356">
        <ele>74</ele>
        <time>2021-08-31T15:11:14.000Z</time>
      </trkpt>
      <trkpt lat="47.15784" lon="-1.59339">
        <ele>74</ele>
        <time>2021-08-31T15:11:16.000Z</time>
      </trkpt>
      <trkpt lat="47.15787" lon="-1.59323">
        <ele>74</ele>
        <time>2021-08-31T15:11:18.000Z</time>
      </trkpt>
      <trkpt lat="47.15789" lon="-1.59307">
        <ele>74</ele>
        <time>2021-08-31T15:11:20.000Z</time>
      </trkpt>
      <trkpt lat="47.15792" lon="-1.5929">
        <ele>75</ele>
        <time>2021-08-31T15:11:22.000Z</time>
      </trkpt>
      <trkpt lat="47.15794" lon="-1.59274">
        <ele>75</ele>
        <time>2021-08-31T15:11:24.000Z</time>
      </trkpt>
      <trkpt lat="47.15796" lon="-1.59257">
        <ele>75</ele>
        <time>2021-08-31T15:11:26.000Z</time>
      </trkpt>
      <trkpt lat="47.158" lon="-1.59241">
        <ele>75</ele>
        <time>2021-08-31T15:11:28.000Z</time>
      </trkpt>
      <trkpt lat="47.15804" lon="-1.59225">
        <ele>75</ele>
        <time>2021-08-31T15:11:30.000Z</time>
      </trkpt>
      <trkpt lat="47.15809" lon="-1.59209">
        <ele>75</ele>
        <time>2021-08-31T15:11:32.000Z</time>
      </trkpt>
      <trkpt lat="47.15812" lon="-1.59193">
        <ele>75</ele>
        <time>2021-08-31T15:11:34.000Z</time>
      </trkpt>
      <trkpt lat="47.15812" lon="-1.59177">
        <ele>75</ele>
        <time>2021-08-31T15:11:36.000Z</time>
      </trkpt>
      <trkpt lat="47.15814" lon="-1.5916">
        <ele>75</ele>
        <time>2021-08-31T15:11:38.000Z</time>
      </trkpt>
      <trkpt lat="47.15821" lon="-1.59146">
        <ele>75</ele>
        <time>2021-08-31T15:11:40.000Z</time>
      </trkpt>
      <trkpt lat="47.15833" lon="-1.59139">
        <ele>75</ele>
        <time>2021-08-31T15:11:42.000Z</time>
      </trkpt>
      <trkpt lat="47.15845" lon="-1.59136">
        <ele>74</ele>
        <time>2021-08-31T15:11:44.000Z</time>
      </trkpt>
      <trkpt lat="47.15856" lon="-1.59126">
        <ele>74</ele>
        <time>2021-08-31T15:11:46.000Z</time>
      </trkpt>
      <trkpt lat="47.15864" lon="-1.59114">
        <ele>74</ele>
        <time>2021-08-31T15:11:48.000Z</time>
      </trkpt>
      <trkpt lat="47.15872" lon="-1.591">
        <ele>75</ele>
        <time>2021-08-31T15:11:50.000Z</time>
      </trkpt>
      <trkpt lat="47.1588" lon="-1.59087">
        <ele>75</ele>
        <time>2021-08-31T15:11:52.000Z</time>
      </trkpt>
      <trkpt lat="47.15888" lon="-1.59074">
        <ele>76</ele>
        <time>2021-08-31T15:11:54.000Z</time>
      </trkpt>
      <trkpt lat="47.15897" lon="-1.59061">
        <ele>76</ele>
        <time>2021-08-31T15:11:56.000Z</time>
      </trkpt>
      <trkpt lat="47.15905" lon="-1.59048">
        <ele>77</ele>
        <time>2021-08-31T15:11:58.000Z</time>
      </trkpt>
      <trkpt lat="47.15912" lon="-1.59034">
        <ele>77</ele>
        <time>2021-08-31T15:12:00.000Z</time>
      </trkpt>
      <trkpt lat="47.1592" lon="-1.59021">
        <ele>77</ele>
        <time>2021-08-31T15:12:02.000Z</time>
      </trkpt>
      <trkpt lat="47.15927" lon="-1.59007">
        <ele>77</ele>
        <time>2021-08-31T15:12:04.000Z</time>
      </trkpt>
      <trkpt lat="47.15934" lon="-1.58995">
        <ele>77</ele>
        <time>2021-08-31T15:12:06.000Z</time>
      </trkpt>
      <trkpt lat="47.15941" lon="-1.58983">
        <ele>78</ele>
        <time>2021-08-31T15:12:08.000Z</time>
      </trkpt>
      <trkpt lat="47.15948" lon="-1.58971">
        <ele>78</ele>
        <time>2021-08-31T15:12:10.000Z</time>
      </trkpt>
      <trkpt lat="47.15956" lon="-1.58958">
        <ele>78</ele>
        <time>2021-08-31T15:12:12.000Z</time>
      </trkpt>
      <trkpt lat="47.15963" lon="-1.58945">
        <ele>78</ele>
        <time>2021-08-31T15:12:14.000Z</time>
      </trkpt>
      <trkpt lat="47.15971" lon="-1.58931">
        <ele>78</ele>
        <time>2021-08-31T15:12:16.000Z</time>
      </trkpt>
      <trkpt lat="47.15978" lon="-1.58919">
        <ele>78</ele>
        <time>2021-08-31T15:12:18.000Z</time>
      </trkpt>
      <trkpt lat="47.15987" lon="-1.58906">
        <ele>78</ele>
        <time>2021-08-31T15:12:20.000Z</time>
      </trkpt>
      <trkpt lat="47.15995" lon="-1.58894">
        <ele>77</ele>
        <time>2021-08-31T15:12:22.000Z</time>
      </trkpt>
      <trkpt lat="47.16004" lon="-1.58882">
        <ele>77</ele>
        <time>2021-08-31T15:12:24.000Z</time>
      </trkpt>
      <trkpt lat="47.16012" lon="-1.58871">
        <ele>77</ele>
        <time>2021-08-31T15:12:26.000Z</time>
      </trkpt>
      <trkpt lat="47.16021" lon="-1.5886">
        <ele>77</ele>
        <time>2021-08-31T15:12:28.000Z</time>
      </trkpt>
      <trkpt lat="47.16029" lon="-1.58848">
        <ele>76</ele>
        <time>2021-08-31T15:12:30.000Z</time>
      </trkpt>
      <trkpt lat="47.16039" lon="-1.58837">
        <ele>76</ele>
        <time>2021-08-31T15:12:32.000Z</time>
      </trkpt>
      <trkpt lat="47.16047" lon="-1.58825">
        <ele>76</ele>
        <time>2021-08-31T15:12:34.000Z</time>
      </trkpt>
      <trkpt lat="47.16054" lon="-1.58815">
        <ele>76</ele>
        <time>2021-08-31T15:12:36.000Z</time>
      </trkpt>
      <trkpt lat="47.16062" lon="-1.58806">
        <ele>76</ele>
        <time>2021-08-31T15:12:38.000Z</time>
      </trkpt>
      <trkpt lat="47.16071" lon="-1.58793">
        <ele>76</ele>
        <time>2021-08-31T15:12:41.000Z</time>
      </trkpt>
      <trkpt lat="47.16079" lon="-1.58783">
        <ele>76</ele>
        <time>2021-08-31T15:12:44.000Z</time>
      </trkpt>
      <trkpt lat="47.16086" lon="-1.58773">
        <ele>76</ele>
        <time>2021-08-31T15:12:51.000Z</time>
      </trkpt>
      <trkpt lat="47.16093" lon="-1.58763">
        <ele>76</ele>
        <time>2021-08-31T15:12:58.000Z</time>
      </trkpt>
      <trkpt lat="47.16103" lon="-1.58749">
        <ele>76</ele>
        <time>2021-08-31T15:13:01.000Z</time>
      </trkpt>
      <trkpt lat="47.16112" lon="-1.58738">
        <ele>75</ele>
        <time>2021-08-31T15:13:03.000Z</time>
      </trkpt>
      <trkpt lat="47.16122" lon="-1.58727">
        <ele>75</ele>
        <time>2021-08-31T15:13:05.000Z</time>
      </trkpt>
      <trkpt lat="47.16131" lon="-1.58714">
        <ele>75</ele>
        <time>2021-08-31T15:13:07.000Z</time>
      </trkpt>
      <trkpt lat="47.16141" lon="-1.58701">
        <ele>76</ele>
        <time>2021-08-31T15:13:09.000Z</time>
      </trkpt>
      <trkpt lat="47.1615" lon="-1.58688">
        <ele>76</ele>
        <time>2021-08-31T15:13:11.000Z</time>
      </trkpt>
      <trkpt lat="47.1616" lon="-1.58675">
        <ele>76</ele>
        <time>2021-08-31T15:13:13.000Z</time>
      </trkpt>
      <trkpt lat="47.16169" lon="-1.58663">
        <ele>76</ele>
        <time>2021-08-31T15:13:15.000Z</time>
      </trkpt>
      <trkpt lat="47.16179" lon="-1.58651">
        <ele>77</ele>
        <time>2021-08-31T15:13:17.000Z</time>
      </trkpt>
      <trkpt lat="47.16188" lon="-1.58639">
        <ele>76</ele>
        <time>2021-08-31T15:13:19.000Z</time>
      </trkpt>
      <trkpt lat="47.16197" lon="-1.58626">
        <ele>76</ele>
        <time>2021-08-31T15:13:21.000Z</time>
      </trkpt>
      <trkpt lat="47.16207" lon="-1.58613">
        <ele>75</ele>
        <time>2021-08-31T15:13:23.000Z</time>
      </trkpt>
      <trkpt lat="47.16217" lon="-1.58601">
        <ele>75</ele>
        <time>2021-08-31T15:13:25.000Z</time>
      </trkpt>
      <trkpt lat="47.16227" lon="-1.58588">
        <ele>74</ele>
        <time>2021-08-31T15:13:27.000Z</time>
      </trkpt>
      <trkpt lat="47.16236" lon="-1.58576">
        <ele>74</ele>
        <time>2021-08-31T15:13:29.000Z</time>
      </trkpt>
      <trkpt lat="47.16246" lon="-1.58563">
        <ele>74</ele>
        <time>2021-08-31T15:13:31.000Z</time>
      </trkpt>
      <trkpt lat="47.16256" lon="-1.5855">
        <ele>74</ele>
        <time>2021-08-31T15:13:33.000Z</time>
      </trkpt>
      <trkpt lat="47.16265" lon="-1.58538">
        <ele>74</ele>
        <time>2021-08-31T15:13:35.000Z</time>
      </trkpt>
      <trkpt lat="47.16275" lon="-1.58524">
        <ele>74</ele>
        <time>2021-08-31T15:13:37.000Z</time>
      </trkpt>
      <trkpt lat="47.16284" lon="-1.58511">
        <ele>74</ele>
        <time>2021-08-31T15:13:39.000Z</time>
      </trkpt>
      <trkpt lat="47.16294" lon="-1.58498">
        <ele>74</ele>
        <time>2021-08-31T15:13:41.000Z</time>
      </trkpt>
      <trkpt lat="47.16305" lon="-1.58487">
        <ele>74</ele>
        <time>2021-08-31T15:13:43.000Z</time>
      </trkpt>
      <trkpt lat="47.16315" lon="-1.58473">
        <ele>74</ele>
        <time>2021-08-31T15:13:45.000Z</time>
      </trkpt>
      <trkpt lat="47.16324" lon="-1.5846">
        <ele>74</ele>
        <time>2021-08-31T15:13:47.000Z</time>
      </trkpt>
      <trkpt lat="47.16333" lon="-1.58448">
        <ele>74</ele>
        <time>2021-08-31T15:13:49.000Z</time>
      </trkpt>
      <trkpt lat="47.16342" lon="-1.58437">
        <ele>73</ele>
        <time>2021-08-31T15:13:51.000Z</time>
      </trkpt>
      <trkpt lat="47.16351" lon="-1.58425">
        <ele>74</ele>
        <time>2021-08-31T15:13:53.000Z</time>
      </trkpt>
      <trkpt lat="47.1636" lon="-1.58413">
        <ele>74</ele>
        <time>2021-08-31T15:13:55.000Z</time>
      </trkpt>
      <trkpt lat="47.16368" lon="-1.58402">
        <ele>74</ele>
        <time>2021-08-31T15:13:57.000Z</time>
      </trkpt>
      <trkpt lat="47.16377" lon="-1.5839">
        <ele>74</ele>
        <time>2021-08-31T15:13:59.000Z</time>
      </trkpt>
      <trkpt lat="47.16386" lon="-1.58379">
        <ele>74</ele>
        <time>2021-08-31T15:14:01.000Z</time>
      </trkpt>
      <trkpt lat="47.16395" lon="-1.58367">
        <ele>74</ele>
        <time>2021-08-31T15:14:03.000Z</time>
      </trkpt>
      <trkpt lat="47.16404" lon="-1.58356">
        <ele>74</ele>
        <time>2021-08-31T15:14:05.000Z</time>
      </trkpt>
      <trkpt lat="47.16412" lon="-1.58344">
        <ele>74</ele>
        <time>2021-08-31T15:14:07.000Z</time>
      </trkpt>
      <trkpt lat="47.16421" lon="-1.58333">
        <ele>75</ele>
        <time>2021-08-31T15:14:09.000Z</time>
      </trkpt>
      <trkpt lat="47.16431" lon="-1.5832">
        <ele>75</ele>
        <time>2021-08-31T15:14:11.000Z</time>
      </trkpt>
      <trkpt lat="47.1644" lon="-1.58308">
        <ele>75</ele>
        <time>2021-08-31T15:14:13.000Z</time>
      </trkpt>
      <trkpt lat="47.16449" lon="-1.58297">
        <ele>75</ele>
        <time>2021-08-31T15:14:15.000Z</time>
      </trkpt>
      <trkpt lat="47.16458" lon="-1.58285">
        <ele>75</ele>
        <time>2021-08-31T15:14:17.000Z</time>
      </trkpt>
      <trkpt lat="47.16467" lon="-1.58273">
        <ele>75</ele>
        <time>2021-08-31T15:14:19.000Z</time>
      </trkpt>
      <trkpt lat="47.16476" lon="-1.58262">
        <ele>75</ele>
        <time>2021-08-31T15:14:21.000Z</time>
      </trkpt>
      <trkpt lat="47.16486" lon="-1.58249">
        <ele>75</ele>
        <time>2021-08-31T15:14:23.000Z</time>
      </trkpt>
      <trkpt lat="47.16494" lon="-1.58238">
        <ele>76</ele>
        <time>2021-08-31T15:14:25.000Z</time>
      </trkpt>
      <trkpt lat="47.16502" lon="-1.58227">
        <ele>76</ele>
        <time>2021-08-31T15:14:27.000Z</time>
      </trkpt>
      <trkpt lat="47.16511" lon="-1.58217">
        <ele>76</ele>
        <time>2021-08-31T15:14:29.000Z</time>
      </trkpt>
      <trkpt lat="47.16521" lon="-1.58204">
        <ele>76</ele>
        <time>2021-08-31T15:14:31.000Z</time>
      </trkpt>
      <trkpt lat="47.1653" lon="-1.58191">
        <ele>75</ele>
        <time>2021-08-31T15:14:33.000Z</time>
      </trkpt>
      <trkpt lat="47.1654" lon="-1.58179">
        <ele>75</ele>
        <time>2021-08-31T15:14:35.000Z</time>
      </trkpt>
      <trkpt lat="47.16549" lon="-1.58167">
        <ele>76</ele>
        <time>2021-08-31T15:14:37.000Z</time>
      </trkpt>
      <trkpt lat="47.16558" lon="-1.58155">
        <ele>76</ele>
        <time>2021-08-31T15:14:39.000Z</time>
      </trkpt>
      <trkpt lat="47.16568" lon="-1.58143">
        <ele>75</ele>
        <time>2021-08-31T15:14:41.000Z</time>
      </trkpt>
      <trkpt lat="47.16577" lon="-1.5813">
        <ele>76</ele>
        <time>2021-08-31T15:14:43.000Z</time>
      </trkpt>
      <trkpt lat="47.16586" lon="-1.58118">
        <ele>76</ele>
        <time>2021-08-31T15:14:45.000Z</time>
      </trkpt>
      <trkpt lat="47.16595" lon="-1.58106">
        <ele>76</ele>
        <time>2021-08-31T15:14:47.000Z</time>
      </trkpt>
      <trkpt lat="47.16603" lon="-1.58094">
        <ele>75</ele>
        <time>2021-08-31T15:14:49.000Z</time>
      </trkpt>
      <trkpt lat="47.16611" lon="-1.58083">
        <ele>76</ele>
        <time>2021-08-31T15:14:51.000Z</time>
      </trkpt>
      <trkpt lat="47.16619" lon="-1.58071">
        <ele>76</ele>
        <time>2021-08-31T15:14:53.000Z</time>
      </trkpt>
      <trkpt lat="47.16619" lon="-1.58055">
        <ele>76</ele>
        <time>2021-08-31T15:14:55.000Z</time>
      </trkpt>
      <trkpt lat="47.16609" lon="-1.58041">
        <ele>76</ele>
        <time>2021-08-31T15:14:57.000Z</time>
      </trkpt>
      <trkpt lat="47.16599" lon="-1.5803">
        <ele>76</ele>
        <time>2021-08-31T15:14:59.000Z</time>
      </trkpt>
      <trkpt lat="47.16587" lon="-1.58021">
        <ele>76</ele>
        <time>2021-08-31T15:15:01.000Z</time>
      </trkpt>
      <trkpt lat="47.16576" lon="-1.58012">
        <ele>76</ele>
        <time>2021-08-31T15:15:03.000Z</time>
      </trkpt>
      <trkpt lat="47.16565" lon="-1.58001">
        <ele>76</ele>
        <time>2021-08-31T15:15:05.000Z</time>
      </trkpt>
      <trkpt lat="47.16554" lon="-1.5799">
        <ele>76</ele>
        <time>2021-08-31T15:15:07.000Z</time>
      </trkpt>
      <trkpt lat="47.16544" lon="-1.5798">
        <ele>76</ele>
        <time>2021-08-31T15:15:09.000Z</time>
      </trkpt>
      <trkpt lat="47.16534" lon="-1.5797">
        <ele>76</ele>
        <time>2021-08-31T15:15:11.000Z</time>
      </trkpt>
      <trkpt lat="47.16524" lon="-1.57959">
        <ele>76</ele>
        <time>2021-08-31T15:15:13.000Z</time>
      </trkpt>
      <trkpt lat="47.16514" lon="-1.57949">
        <ele>76</ele>
        <time>2021-08-31T15:15:15.000Z</time>
      </trkpt>
      <trkpt lat="47.16504" lon="-1.57939">
        <ele>76</ele>
        <time>2021-08-31T15:15:17.000Z</time>
      </trkpt>
      <trkpt lat="47.16495" lon="-1.5793">
        <ele>76</ele>
        <time>2021-08-31T15:15:19.000Z</time>
      </trkpt>
      <trkpt lat="47.16485" lon="-1.57919">
        <ele>76</ele>
        <time>2021-08-31T15:15:21.000Z</time>
      </trkpt>
      <trkpt lat="47.16475" lon="-1.57909">
        <ele>77</ele>
        <time>2021-08-31T15:15:23.000Z</time>
      </trkpt>
      <trkpt lat="47.16464" lon="-1.579">
        <ele>77</ele>
        <time>2021-08-31T15:15:25.000Z</time>
      </trkpt>
      <trkpt lat="47.16454" lon="-1.57892">
        <ele>77</ele>
        <time>2021-08-31T15:15:27.000Z</time>
      </trkpt>
      <trkpt lat="47.16443" lon="-1.57884">
        <ele>77</ele>
        <time>2021-08-31T15:15:29.000Z</time>
      </trkpt>
      <trkpt lat="47.16433" lon="-1.57876">
        <ele>78</ele>
        <time>2021-08-31T15:15:31.000Z</time>
      </trkpt>
      <trkpt lat="47.16422" lon="-1.57868">
        <ele>78</ele>
        <time>2021-08-31T15:15:33.000Z</time>
      </trkpt>
      <trkpt lat="47.16411" lon="-1.57859">
        <ele>78</ele>
        <time>2021-08-31T15:15:35.000Z</time>
      </trkpt>
      <trkpt lat="47.164" lon="-1.57851">
        <ele>78</ele>
        <time>2021-08-31T15:15:37.000Z</time>
      </trkpt>
      <trkpt lat="47.16389" lon="-1.57844">
        <ele>78</ele>
        <time>2021-08-31T15:15:39.000Z</time>
      </trkpt>
      <trkpt lat="47.16378" lon="-1.57835">
        <ele>78</ele>
        <time>2021-08-31T15:15:41.000Z</time>
      </trkpt>
      <trkpt lat="47.16367" lon="-1.57827">
        <ele>78</ele>
        <time>2021-08-31T15:15:43.000Z</time>
      </trkpt>
      <trkpt lat="47.16357" lon="-1.57817">
        <ele>78</ele>
        <time>2021-08-31T15:15:45.000Z</time>
      </trkpt>
      <trkpt lat="47.16348" lon="-1.57804">
        <ele>78</ele>
        <time>2021-08-31T15:15:47.000Z</time>
      </trkpt>
      <trkpt lat="47.1634" lon="-1.5779">
        <ele>78</ele>
        <time>2021-08-31T15:15:49.000Z</time>
      </trkpt>
      <trkpt lat="47.16332" lon="-1.57777">
        <ele>78</ele>
        <time>2021-08-31T15:15:51.000Z</time>
      </trkpt>
      <trkpt lat="47.16323" lon="-1.57763">
        <ele>78</ele>
        <time>2021-08-31T15:15:53.000Z</time>
      </trkpt>
      <trkpt lat="47.16315" lon="-1.5775">
        <ele>78</ele>
        <time>2021-08-31T15:15:55.000Z</time>
      </trkpt>
      <trkpt lat="47.16306" lon="-1.57736">
        <ele>77</ele>
        <time>2021-08-31T15:15:57.000Z</time>
      </trkpt>
      <trkpt lat="47.16297" lon="-1.57723">
        <ele>77</ele>
        <time>2021-08-31T15:15:59.000Z</time>
      </trkpt>
      <trkpt lat="47.16285" lon="-1.57704">
        <ele>78</ele>
        <time>2021-08-31T15:16:02.000Z</time>
      </trkpt>
      <trkpt lat="47.16276" lon="-1.57693">
        <ele>78</ele>
        <time>2021-08-31T15:16:04.000Z</time>
      </trkpt>
      <trkpt lat="47.16265" lon="-1.57683">
        <ele>78</ele>
        <time>2021-08-31T15:16:06.000Z</time>
      </trkpt>
      <trkpt lat="47.16255" lon="-1.57673">
        <ele>78</ele>
        <time>2021-08-31T15:16:08.000Z</time>
      </trkpt>
      <trkpt lat="47.16245" lon="-1.57662">
        <ele>77</ele>
        <time>2021-08-31T15:16:10.000Z</time>
      </trkpt>
      <trkpt lat="47.16237" lon="-1.5765">
        <ele>77</ele>
        <time>2021-08-31T15:16:12.000Z</time>
      </trkpt>
      <trkpt lat="47.16227" lon="-1.57638">
        <ele>77</ele>
        <time>2021-08-31T15:16:14.000Z</time>
      </trkpt>
      <trkpt lat="47.16217" lon="-1.57626">
        <ele>77</ele>
        <time>2021-08-31T15:16:16.000Z</time>
      </trkpt>
      <trkpt lat="47.16207" lon="-1.57613">
        <ele>78</ele>
        <time>2021-08-31T15:16:18.000Z</time>
      </trkpt>
      <trkpt lat="47.16199" lon="-1.576">
        <ele>78</ele>
        <time>2021-08-31T15:16:20.000Z</time>
      </trkpt>
      <trkpt lat="47.16191" lon="-1.57584">
        <ele>77</ele>
        <time>2021-08-31T15:16:22.000Z</time>
      </trkpt>
      <trkpt lat="47.16183" lon="-1.57568">
        <ele>77</ele>
        <time>2021-08-31T15:16:24.000Z</time>
      </trkpt>
      <trkpt lat="47.16177" lon="-1.57551">
        <ele>77</ele>
        <time>2021-08-31T15:16:26.000Z</time>
      </trkpt>
      <trkpt lat="47.16172" lon="-1.57534">
        <ele>77</ele>
        <time>2021-08-31T15:16:28.000Z</time>
      </trkpt>
      <trkpt lat="47.16171" lon="-1.57515">
        <ele>77</ele>
        <time>2021-08-31T15:16:30.000Z</time>
      </trkpt>
      <trkpt lat="47.16171" lon="-1.57487">
        <ele>76</ele>
        <time>2021-08-31T15:16:33.000Z</time>
      </trkpt>
      <trkpt lat="47.16171" lon="-1.57469">
        <ele>76</ele>
        <time>2021-08-31T15:16:35.000Z</time>
      </trkpt>
      <trkpt lat="47.1617" lon="-1.5745">
        <ele>76</ele>
        <time>2021-08-31T15:16:37.000Z</time>
      </trkpt>
      <trkpt lat="47.1617" lon="-1.57422">
        <ele>76</ele>
        <time>2021-08-31T15:16:40.000Z</time>
      </trkpt>
      <trkpt lat="47.16169" lon="-1.57404">
        <ele>76</ele>
        <time>2021-08-31T15:16:42.000Z</time>
      </trkpt>
      <trkpt lat="47.16168" lon="-1.5738">
        <ele>76</ele>
        <time>2021-08-31T15:16:45.000Z</time>
      </trkpt>
      <trkpt lat="47.16166" lon="-1.57362">
        <ele>76</ele>
        <time>2021-08-31T15:16:48.000Z</time>
      </trkpt>
      <trkpt lat="47.16164" lon="-1.57347">
        <ele>75</ele>
        <time>2021-08-31T15:16:54.000Z</time>
      </trkpt>
      <trkpt lat="47.16165" lon="-1.57332">
        <ele>75</ele>
        <time>2021-08-31T15:16:56.000Z</time>
      </trkpt>
      <trkpt lat="47.16163" lon="-1.57315">
        <ele>76</ele>
        <time>2021-08-31T15:16:58.000Z</time>
      </trkpt>
      <trkpt lat="47.16163" lon="-1.57296">
        <ele>75</ele>
        <time>2021-08-31T15:17:00.000Z</time>
      </trkpt>
      <trkpt lat="47.16162" lon="-1.57277">
        <ele>75</ele>
        <time>2021-08-31T15:17:02.000Z</time>
      </trkpt>
      <trkpt lat="47.16162" lon="-1.57259">
        <ele>76</ele>
        <time>2021-08-31T15:17:04.000Z</time>
      </trkpt>
      <trkpt lat="47.16163" lon="-1.5724">
        <ele>76</ele>
        <time>2021-08-31T15:17:06.000Z</time>
      </trkpt>
      <trkpt lat="47.16164" lon="-1.57222">
        <ele>75</ele>
        <time>2021-08-31T15:17:08.000Z</time>
      </trkpt>
      <trkpt lat="47.16165" lon="-1.57204">
        <ele>76</ele>
        <time>2021-08-31T15:17:10.000Z</time>
      </trkpt>
      <trkpt lat="47.16167" lon="-1.57185">
        <ele>75</ele>
        <time>2021-08-31T15:17:12.000Z</time>
      </trkpt>
      <trkpt lat="47.16168" lon="-1.57167">
        <ele>75</ele>
        <time>2021-08-31T15:17:14.000Z</time>
      </trkpt>
      <trkpt lat="47.16169" lon="-1.57147">
        <ele>75</ele>
        <time>2021-08-31T15:17:16.000Z</time>
      </trkpt>
      <trkpt lat="47.16172" lon="-1.57129">
        <ele>75</ele>
        <time>2021-08-31T15:17:18.000Z</time>
      </trkpt>
      <trkpt lat="47.16175" lon="-1.5711">
        <ele>74</ele>
        <time>2021-08-31T15:17:20.000Z</time>
      </trkpt>
      <trkpt lat="47.16178" lon="-1.57091">
        <ele>74</ele>
        <time>2021-08-31T15:17:22.000Z</time>
      </trkpt>
      <trkpt lat="47.16181" lon="-1.57073">
        <ele>74</ele>
        <time>2021-08-31T15:17:24.000Z</time>
      </trkpt>
      <trkpt lat="47.16184" lon="-1.57054">
        <ele>74</ele>
        <time>2021-08-31T15:17:26.000Z</time>
      </trkpt>
      <trkpt lat="47.16187" lon="-1.57036">
        <ele>74</ele>
        <time>2021-08-31T15:17:28.000Z</time>
      </trkpt>
      <trkpt lat="47.1619" lon="-1.57018">
        <ele>74</ele>
        <time>2021-08-31T15:17:30.000Z</time>
      </trkpt>
      <trkpt lat="47.16193" lon="-1.57">
        <ele>74</ele>
        <time>2021-08-31T15:17:32.000Z</time>
      </trkpt>
      <trkpt lat="47.16196" lon="-1.56983">
        <ele>74</ele>
        <time>2021-08-31T15:17:34.000Z</time>
      </trkpt>
      <trkpt lat="47.16199" lon="-1.56965">
        <ele>74</ele>
        <time>2021-08-31T15:17:36.000Z</time>
      </trkpt>
      <trkpt lat="47.16202" lon="-1.56948">
        <ele>74</ele>
        <time>2021-08-31T15:17:38.000Z</time>
      </trkpt>
      <trkpt lat="47.16206" lon="-1.56929">
        <ele>74</ele>
        <time>2021-08-31T15:17:40.000Z</time>
      </trkpt>
      <trkpt lat="47.16209" lon="-1.56911">
        <ele>74</ele>
        <time>2021-08-31T15:17:42.000Z</time>
      </trkpt>
      <trkpt lat="47.16212" lon="-1.56892">
        <ele>74</ele>
        <time>2021-08-31T15:17:44.000Z</time>
      </trkpt>
      <trkpt lat="47.16216" lon="-1.56874">
        <ele>74</ele>
        <time>2021-08-31T15:17:46.000Z</time>
      </trkpt>
      <trkpt lat="47.16219" lon="-1.56856">
        <ele>74</ele>
        <time>2021-08-31T15:17:48.000Z</time>
      </trkpt>
      <trkpt lat="47.16222" lon="-1.56837">
        <ele>74</ele>
        <time>2021-08-31T15:17:50.000Z</time>
      </trkpt>
      <trkpt lat="47.16225" lon="-1.56819">
        <ele>73</ele>
        <time>2021-08-31T15:17:52.000Z</time>
      </trkpt>
      <trkpt lat="47.16229" lon="-1.56802">
        <ele>73</ele>
        <time>2021-08-31T15:17:54.000Z</time>
      </trkpt>
      <trkpt lat="47.16232" lon="-1.56785">
        <ele>73</ele>
        <time>2021-08-31T15:17:56.000Z</time>
      </trkpt>
      <trkpt lat="47.16235" lon="-1.56768">
        <ele>73</ele>
        <time>2021-08-31T15:17:58.000Z</time>
      </trkpt>
      <trkpt lat="47.16238" lon="-1.5675">
        <ele>73</ele>
        <time>2021-08-31T15:18:00.000Z</time>
      </trkpt>
      <trkpt lat="47.16241" lon="-1.56734">
        <ele>73</ele>
        <time>2021-08-31T15:18:02.000Z</time>
      </trkpt>
      <trkpt lat="47.16233" lon="-1.5672">
        <ele>74</ele>
        <time>2021-08-31T15:18:04.000Z</time>
      </trkpt>
      <trkpt lat="47.16219" lon="-1.56719">
        <ele>73</ele>
        <time>2021-08-31T15:18:06.000Z</time>
      </trkpt>
      <trkpt lat="47.16205" lon="-1.56721">
        <ele>74</ele>
        <time>2021-08-31T15:18:08.000Z</time>
      </trkpt>
      <trkpt lat="47.16192" lon="-1.5672">
        <ele>74</ele>
        <time>2021-08-31T15:18:10.000Z</time>
      </trkpt>
      <trkpt lat="47.16179" lon="-1.56719">
        <ele>73</ele>
        <time>2021-08-31T15:18:12.000Z</time>
      </trkpt>
      <trkpt lat="47.16165" lon="-1.56718">
        <ele>73</ele>
        <time>2021-08-31T15:18:14.000Z</time>
      </trkpt>
      <trkpt lat="47.16152" lon="-1.56715">
        <ele>73</ele>
        <time>2021-08-31T15:18:16.000Z</time>
      </trkpt>
      <trkpt lat="47.16138" lon="-1.56713">
        <ele>72</ele>
        <time>2021-08-31T15:18:18.000Z</time>
      </trkpt>
      <trkpt lat="47.16124" lon="-1.5671">
        <ele>72</ele>
        <time>2021-08-31T15:18:20.000Z</time>
      </trkpt>
      <trkpt lat="47.1611" lon="-1.56709">
        <ele>72</ele>
        <time>2021-08-31T15:18:22.000Z</time>
      </trkpt>
      <trkpt lat="47.16096" lon="-1.56711">
        <ele>72</ele>
        <time>2021-08-31T15:18:24.000Z</time>
      </trkpt>
      <trkpt lat="47.16082" lon="-1.56712">
        <ele>72</ele>
        <time>2021-08-31T15:18:26.000Z</time>
      </trkpt>
      <trkpt lat="47.16067" lon="-1.56712">
        <ele>72</ele>
        <time>2021-08-31T15:18:28.000Z</time>
      </trkpt>
      <trkpt lat="47.16052" lon="-1.5671">
        <ele>71</ele>
        <time>2021-08-31T15:18:30.000Z</time>
      </trkpt>
      <trkpt lat="47.16038" lon="-1.56707">
        <ele>70</ele>
        <time>2021-08-31T15:18:32.000Z</time>
      </trkpt>
      <trkpt lat="47.16023" lon="-1.56704">
        <ele>70</ele>
        <time>2021-08-31T15:18:34.000Z</time>
      </trkpt>
      <trkpt lat="47.16009" lon="-1.567">
        <ele>70</ele>
        <time>2021-08-31T15:18:36.000Z</time>
      </trkpt>
      <trkpt lat="47.15995" lon="-1.56695">
        <ele>70</ele>
        <time>2021-08-31T15:18:38.000Z</time>
      </trkpt>
      <trkpt lat="47.15984" lon="-1.56681">
        <ele>70</ele>
        <time>2021-08-31T15:18:40.000Z</time>
      </trkpt>
      <trkpt lat="47.15979" lon="-1.56662">
        <ele>70</ele>
        <time>2021-08-31T15:18:42.000Z</time>
      </trkpt>
      <trkpt lat="47.15976" lon="-1.56641">
        <ele>71</ele>
        <time>2021-08-31T15:18:44.000Z</time>
      </trkpt>
      <trkpt lat="47.15974" lon="-1.56622">
        <ele>71</ele>
        <time>2021-08-31T15:18:46.000Z</time>
      </trkpt>
      <trkpt lat="47.15971" lon="-1.56603">
        <ele>71</ele>
        <time>2021-08-31T15:18:48.000Z</time>
      </trkpt>
      <trkpt lat="47.15969" lon="-1.56583">
        <ele>71</ele>
        <time>2021-08-31T15:18:50.000Z</time>
      </trkpt>
      <trkpt lat="47.15968" lon="-1.56563">
        <ele>72</ele>
        <time>2021-08-31T15:18:52.000Z</time>
      </trkpt>
      <trkpt lat="47.15968" lon="-1.56543">
        <ele>72</ele>
        <time>2021-08-31T15:18:54.000Z</time>
      </trkpt>
      <trkpt lat="47.15968" lon="-1.56524">
        <ele>71</ele>
        <time>2021-08-31T15:18:56.000Z</time>
      </trkpt>
      <trkpt lat="47.15969" lon="-1.56504">
        <ele>71</ele>
        <time>2021-08-31T15:18:58.000Z</time>
      </trkpt>
      <trkpt lat="47.15969" lon="-1.56484">
        <ele>71</ele>
        <time>2021-08-31T15:19:00.000Z</time>
      </trkpt>
      <trkpt lat="47.15969" lon="-1.56465">
        <ele>72</ele>
        <time>2021-08-31T15:19:02.000Z</time>
      </trkpt>
      <trkpt lat="47.15969" lon="-1.56445">
        <ele>72</ele>
        <time>2021-08-31T15:19:04.000Z</time>
      </trkpt>
      <trkpt lat="47.1597" lon="-1.56425">
        <ele>72</ele>
        <time>2021-08-31T15:19:06.000Z</time>
      </trkpt>
      <trkpt lat="47.15973" lon="-1.56406">
        <ele>72</ele>
        <time>2021-08-31T15:19:08.000Z</time>
      </trkpt>
      <trkpt lat="47.15977" lon="-1.56387">
        <ele>71</ele>
        <time>2021-08-31T15:19:10.000Z</time>
      </trkpt>
      <trkpt lat="47.15983" lon="-1.56369">
        <ele>72</ele>
        <time>2021-08-31T15:19:12.000Z</time>
      </trkpt>
      <trkpt lat="47.15988" lon="-1.5635">
        <ele>72</ele>
        <time>2021-08-31T15:19:14.000Z</time>
      </trkpt>
      <trkpt lat="47.15994" lon="-1.56332">
        <ele>72</ele>
        <time>2021-08-31T15:19:16.000Z</time>
      </trkpt>
      <trkpt lat="47.15999" lon="-1.56314">
        <ele>72</ele>
        <time>2021-08-31T15:19:18.000Z</time>
      </trkpt>
      <trkpt lat="47.16005" lon="-1.56296">
        <ele>73</ele>
        <time>2021-08-31T15:19:20.000Z</time>
      </trkpt>
      <trkpt lat="47.1601" lon="-1.56279">
        <ele>73</ele>
        <time>2021-08-31T15:19:22.000Z</time>
      </trkpt>
      <trkpt lat="47.16015" lon="-1.56262">
        <ele>73</ele>
        <time>2021-08-31T15:19:24.000Z</time>
      </trkpt>
      <trkpt lat="47.16018" lon="-1.56245">
        <ele>73</ele>
        <time>2021-08-31T15:19:26.000Z</time>
      </trkpt>
      <trkpt lat="47.16013" lon="-1.56234">
        <ele>73</ele>
        <time>2021-08-31T15:19:28.000Z</time>
      </trkpt>
      <trkpt lat="47.16003" lon="-1.56229">
        <ele>73</ele>
        <time>2021-08-31T15:19:30.000Z</time>
      </trkpt>
      <trkpt lat="47.15991" lon="-1.56224">
        <ele>73</ele>
        <time>2021-08-31T15:19:32.000Z</time>
      </trkpt>
      <trkpt lat="47.15979" lon="-1.56219">
        <ele>72</ele>
        <time>2021-08-31T15:19:34.000Z</time>
      </trkpt>
      <trkpt lat="47.15966" lon="-1.56214">
        <ele>73</ele>
        <time>2021-08-31T15:19:36.000Z</time>
      </trkpt>
      <trkpt lat="47.15953" lon="-1.56208">
        <ele>73</ele>
        <time>2021-08-31T15:19:38.000Z</time>
      </trkpt>
      <trkpt lat="47.1594" lon="-1.56202">
        <ele>73</ele>
        <time>2021-08-31T15:19:40.000Z</time>
      </trkpt>
      <trkpt lat="47.15927" lon="-1.56196">
        <ele>73</ele>
        <time>2021-08-31T15:19:42.000Z</time>
      </trkpt>
      <trkpt lat="47.15914" lon="-1.56192">
        <ele>73</ele>
        <time>2021-08-31T15:19:44.000Z</time>
      </trkpt>
      <trkpt lat="47.159" lon="-1.56186">
        <ele>72</ele>
        <time>2021-08-31T15:19:46.000Z</time>
      </trkpt>
      <trkpt lat="47.15888" lon="-1.5618">
        <ele>73</ele>
        <time>2021-08-31T15:19:48.000Z</time>
      </trkpt>
      <trkpt lat="47.15874" lon="-1.56175">
        <ele>73</ele>
        <time>2021-08-31T15:19:50.000Z</time>
      </trkpt>
      <trkpt lat="47.15862" lon="-1.56169">
        <ele>73</ele>
        <time>2021-08-31T15:19:52.000Z</time>
      </trkpt>
      <trkpt lat="47.15848" lon="-1.56164">
        <ele>73</ele>
        <time>2021-08-31T15:19:54.000Z</time>
      </trkpt>
      <trkpt lat="47.15835" lon="-1.56159">
        <ele>73</ele>
        <time>2021-08-31T15:19:56.000Z</time>
      </trkpt>
      <trkpt lat="47.15822" lon="-1.56153">
        <ele>73</ele>
        <time>2021-08-31T15:19:58.000Z</time>
      </trkpt>
      <trkpt lat="47.1581" lon="-1.56148">
        <ele>73</ele>
        <time>2021-08-31T15:20:00.000Z</time>
      </trkpt>
      <trkpt lat="47.15797" lon="-1.56143">
        <ele>73</ele>
        <time>2021-08-31T15:20:02.000Z</time>
      </trkpt>
      <trkpt lat="47.15784" lon="-1.56137">
        <ele>73</ele>
        <time>2021-08-31T15:20:04.000Z</time>
      </trkpt>
      <trkpt lat="47.15772" lon="-1.56131">
        <ele>73</ele>
        <time>2021-08-31T15:20:06.000Z</time>
      </trkpt>
      <trkpt lat="47.15759" lon="-1.56125">
        <ele>73</ele>
        <time>2021-08-31T15:20:08.000Z</time>
      </trkpt>
      <trkpt lat="47.15746" lon="-1.56121">
        <ele>74</ele>
        <time>2021-08-31T15:20:10.000Z</time>
      </trkpt>
      <trkpt lat="47.15734" lon="-1.56116">
        <ele>75</ele>
        <time>2021-08-31T15:20:12.000Z</time>
      </trkpt>
      <trkpt lat="47.15721" lon="-1.5611">
        <ele>75</ele>
        <time>2021-08-31T15:20:14.000Z</time>
      </trkpt>
      <trkpt lat="47.15708" lon="-1.56105">
        <ele>75</ele>
        <time>2021-08-31T15:20:16.000Z</time>
      </trkpt>
      <trkpt lat="47.15696" lon="-1.56099">
        <ele>75</ele>
        <time>2021-08-31T15:20:18.000Z</time>
      </trkpt>
      <trkpt lat="47.15683" lon="-1.56094">
        <ele>75</ele>
        <time>2021-08-31T15:20:20.000Z</time>
      </trkpt>
      <trkpt lat="47.1567" lon="-1.56088">
        <ele>76</ele>
        <time>2021-08-31T15:20:22.000Z</time>
      </trkpt>
      <trkpt lat="47.15659" lon="-1.56082">
        <ele>76</ele>
        <time>2021-08-31T15:20:24.000Z</time>
      </trkpt>
      <trkpt lat="47.15646" lon="-1.56076">
        <ele>76</ele>
        <time>2021-08-31T15:20:26.000Z</time>
      </trkpt>
      <trkpt lat="47.15634" lon="-1.56069">
        <ele>76</ele>
        <time>2021-08-31T15:20:28.000Z</time>
      </trkpt>
      <trkpt lat="47.15621" lon="-1.56062">
        <ele>76</ele>
        <time>2021-08-31T15:20:30.000Z</time>
      </trkpt>
      <trkpt lat="47.15608" lon="-1.56054">
        <ele>76</ele>
        <time>2021-08-31T15:20:32.000Z</time>
      </trkpt>
      <trkpt lat="47.15596" lon="-1.56045">
        <ele>75</ele>
        <time>2021-08-31T15:20:34.000Z</time>
      </trkpt>
      <trkpt lat="47.15583" lon="-1.56036">
        <ele>75</ele>
        <time>2021-08-31T15:20:36.000Z</time>
      </trkpt>
      <trkpt lat="47.15571" lon="-1.56026">
        <ele>75</ele>
        <time>2021-08-31T15:20:38.000Z</time>
      </trkpt>
      <trkpt lat="47.15559" lon="-1.56016">
        <ele>75</ele>
        <time>2021-08-31T15:20:40.000Z</time>
      </trkpt>
      <trkpt lat="47.15546" lon="-1.56006">
        <ele>74</ele>
        <time>2021-08-31T15:20:42.000Z</time>
      </trkpt>
      <trkpt lat="47.15534" lon="-1.55997">
        <ele>74</ele>
        <time>2021-08-31T15:20:44.000Z</time>
      </trkpt>
      <trkpt lat="47.15522" lon="-1.55987">
        <ele>74</ele>
        <time>2021-08-31T15:20:46.000Z</time>
      </trkpt>
      <trkpt lat="47.1551" lon="-1.55977">
        <ele>74</ele>
        <time>2021-08-31T15:20:48.000Z</time>
      </trkpt>
      <trkpt lat="47.15498" lon="-1.55968">
        <ele>73</ele>
        <time>2021-08-31T15:20:50.000Z</time>
      </trkpt>
      <trkpt lat="47.15487" lon="-1.55959">
        <ele>73</ele>
        <time>2021-08-31T15:20:52.000Z</time>
      </trkpt>
      <trkpt lat="47.15475" lon="-1.55949">
        <ele>73</ele>
        <time>2021-08-31T15:20:54.000Z</time>
      </trkpt>
      <trkpt lat="47.15463" lon="-1.5594">
        <ele>74</ele>
        <time>2021-08-31T15:20:56.000Z</time>
      </trkpt>
      <trkpt lat="47.15452" lon="-1.55931">
        <ele>74</ele>
        <time>2021-08-31T15:20:58.000Z</time>
      </trkpt>
      <trkpt lat="47.15441" lon="-1.55922">
        <ele>74</ele>
        <time>2021-08-31T15:21:00.000Z</time>
      </trkpt>
      <trkpt lat="47.15429" lon="-1.55914">
        <ele>74</ele>
        <time>2021-08-31T15:21:02.000Z</time>
      </trkpt>
      <trkpt lat="47.15417" lon="-1.55906">
        <ele>74</ele>
        <time>2021-08-31T15:21:04.000Z</time>
      </trkpt>
      <trkpt lat="47.15405" lon="-1.55899">
        <ele>73</ele>
        <time>2021-08-31T15:21:06.000Z</time>
      </trkpt>
      <trkpt lat="47.15397" lon="-1.55889">
        <ele>73</ele>
        <time>2021-08-31T15:21:09.000Z</time>
      </trkpt>
      <trkpt lat="47.15387" lon="-1.55876">
        <ele>74</ele>
        <time>2021-08-31T15:21:12.000Z</time>
      </trkpt>
      <trkpt lat="47.1538" lon="-1.5586">
        <ele>73</ele>
        <time>2021-08-31T15:21:14.000Z</time>
      </trkpt>
      <trkpt lat="47.15375" lon="-1.55841">
        <ele>73</ele>
        <time>2021-08-31T15:21:16.000Z</time>
      </trkpt>
      <trkpt lat="47.15367" lon="-1.55825">
        <ele>73</ele>
        <time>2021-08-31T15:21:18.000Z</time>
      </trkpt>
      <trkpt lat="47.15358" lon="-1.5581">
        <ele>73</ele>
        <time>2021-08-31T15:21:20.000Z</time>
      </trkpt>
      <trkpt lat="47.1535" lon="-1.55794">
        <ele>73</ele>
        <time>2021-08-31T15:21:22.000Z</time>
      </trkpt>
      <trkpt lat="47.15342" lon="-1.55777">
        <ele>73</ele>
        <time>2021-08-31T15:21:24.000Z</time>
      </trkpt>
      <trkpt lat="47.15333" lon="-1.55761">
        <ele>73</ele>
        <time>2021-08-31T15:21:26.000Z</time>
      </trkpt>
      <trkpt lat="47.15324" lon="-1.55744">
        <ele>72</ele>
        <time>2021-08-31T15:21:28.000Z</time>
      </trkpt>
      <trkpt lat="47.15316" lon="-1.55727">
        <ele>72</ele>
        <time>2021-08-31T15:21:30.000Z</time>
      </trkpt>
      <trkpt lat="47.15307" lon="-1.5571">
        <ele>72</ele>
        <time>2021-08-31T15:21:32.000Z</time>
      </trkpt>
      <trkpt lat="47.15299" lon="-1.55693">
        <ele>72</ele>
        <time>2021-08-31T15:21:34.000Z</time>
      </trkpt>
      <trkpt lat="47.1529" lon="-1.55676">
        <ele>72</ele>
        <time>2021-08-31T15:21:36.000Z</time>
      </trkpt>
      <trkpt lat="47.15282" lon="-1.55658">
        <ele>72</ele>
        <time>2021-08-31T15:21:38.000Z</time>
      </trkpt>
      <trkpt lat="47.15274" lon="-1.55641">
        <ele>72</ele>
        <time>2021-08-31T15:21:40.000Z</time>
      </trkpt>
      <trkpt lat="47.15267" lon="-1.55624">
        <ele>72</ele>
        <time>2021-08-31T15:21:42.000Z</time>
      </trkpt>
      <trkpt lat="47.15259" lon="-1.55606">
        <ele>72</ele>
        <time>2021-08-31T15:21:44.000Z</time>
      </trkpt>
      <trkpt lat="47.15252" lon="-1.55587">
        <ele>71</ele>
        <time>2021-08-31T15:21:46.000Z</time>
      </trkpt>
      <trkpt lat="47.15246" lon="-1.55568">
        <ele>70</ele>
        <time>2021-08-31T15:21:48.000Z</time>
      </trkpt>
      <trkpt lat="47.1524" lon="-1.55549">
        <ele>70</ele>
        <time>2021-08-31T15:21:50.000Z</time>
      </trkpt>
      <trkpt lat="47.15233" lon="-1.55531">
        <ele>71</ele>
        <time>2021-08-31T15:21:52.000Z</time>
      </trkpt>
      <trkpt lat="47.15226" lon="-1.55512">
        <ele>70</ele>
        <time>2021-08-31T15:21:54.000Z</time>
      </trkpt>
      <trkpt lat="47.15219" lon="-1.55494">
        <ele>70</ele>
        <time>2021-08-31T15:21:56.000Z</time>
      </trkpt>
      <trkpt lat="47.15209" lon="-1.55478">
        <ele>69</ele>
        <time>2021-08-31T15:21:58.000Z</time>
      </trkpt>
      <trkpt lat="47.15199" lon="-1.55467">
        <ele>69</ele>
        <time>2021-08-31T15:22:00.000Z</time>
      </trkpt>
      <trkpt lat="47.15186" lon="-1.55462">
        <ele>69</ele>
        <time>2021-08-31T15:22:02.000Z</time>
      </trkpt>
      <trkpt lat="47.15172" lon="-1.55462">
        <ele>69</ele>
        <time>2021-08-31T15:22:04.000Z</time>
      </trkpt>
      <trkpt lat="47.15158" lon="-1.55465">
        <ele>69</ele>
        <time>2021-08-31T15:22:06.000Z</time>
      </trkpt>
      <trkpt lat="47.15144" lon="-1.55469">
        <ele>69</ele>
        <time>2021-08-31T15:22:08.000Z</time>
      </trkpt>
      <trkpt lat="47.1513" lon="-1.55473">
        <ele>69</ele>
        <time>2021-08-31T15:22:10.000Z</time>
      </trkpt>
      <trkpt lat="47.15116" lon="-1.55478">
        <ele>69</ele>
        <time>2021-08-31T15:22:12.000Z</time>
      </trkpt>
      <trkpt lat="47.15102" lon="-1.55481">
        <ele>69</ele>
        <time>2021-08-31T15:22:14.000Z</time>
      </trkpt>
      <trkpt lat="47.15089" lon="-1.55486">
        <ele>69</ele>
        <time>2021-08-31T15:22:16.000Z</time>
      </trkpt>
      <trkpt lat="47.15075" lon="-1.5549">
        <ele>69</ele>
        <time>2021-08-31T15:22:18.000Z</time>
      </trkpt>
      <trkpt lat="47.1506" lon="-1.55494">
        <ele>68</ele>
        <time>2021-08-31T15:22:20.000Z</time>
      </trkpt>
      <trkpt lat="47.15046" lon="-1.55497">
        <ele>69</ele>
        <time>2021-08-31T15:22:22.000Z</time>
      </trkpt>
      <trkpt lat="47.15032" lon="-1.55501">
        <ele>69</ele>
        <time>2021-08-31T15:22:24.000Z</time>
      </trkpt>
      <trkpt lat="47.15019" lon="-1.55505">
        <ele>69</ele>
        <time>2021-08-31T15:22:26.000Z</time>
      </trkpt>
      <trkpt lat="47.15005" lon="-1.55508">
        <ele>69</ele>
        <time>2021-08-31T15:22:28.000Z</time>
      </trkpt>
      <trkpt lat="47.14991" lon="-1.55512">
        <ele>68</ele>
        <time>2021-08-31T15:22:30.000Z</time>
      </trkpt>
      <trkpt lat="47.14977" lon="-1.55517">
        <ele>68</ele>
        <time>2021-08-31T15:22:32.000Z</time>
      </trkpt>
      <trkpt lat="47.14962" lon="-1.55521">
        <ele>68</ele>
        <time>2021-08-31T15:22:34.000Z</time>
      </trkpt>
      <trkpt lat="47.14947" lon="-1.55525">
        <ele>68</ele>
        <time>2021-08-31T15:22:36.000Z</time>
      </trkpt>
      <trkpt lat="47.14933" lon="-1.55528">
        <ele>68</ele>
        <time>2021-08-31T15:22:38.000Z</time>
      </trkpt>
      <trkpt lat="47.14919" lon="-1.55532">
        <ele>67</ele>
        <time>2021-08-31T15:22:40.000Z</time>
      </trkpt>
      <trkpt lat="47.14904" lon="-1.55536">
        <ele>67</ele>
        <time>2021-08-31T15:22:42.000Z</time>
      </trkpt>
      <trkpt lat="47.1489" lon="-1.55537">
        <ele>67</ele>
        <time>2021-08-31T15:22:44.000Z</time>
      </trkpt>
      <trkpt lat="47.14876" lon="-1.55535">
        <ele>67</ele>
        <time>2021-08-31T15:22:46.000Z</time>
      </trkpt>
      <trkpt lat="47.14863" lon="-1.55528">
        <ele>67</ele>
        <time>2021-08-31T15:22:48.000Z</time>
      </trkpt>
      <trkpt lat="47.14851" lon="-1.55518">
        <ele>67</ele>
        <time>2021-08-31T15:22:50.000Z</time>
      </trkpt>
      <trkpt lat="47.1484" lon="-1.55505">
        <ele>67</ele>
        <time>2021-08-31T15:22:52.000Z</time>
      </trkpt>
      <trkpt lat="47.14828" lon="-1.55491">
        <ele>67</ele>
        <time>2021-08-31T15:22:54.000Z</time>
      </trkpt>
      <trkpt lat="47.14817" lon="-1.55479">
        <ele>67</ele>
        <time>2021-08-31T15:22:56.000Z</time>
      </trkpt>
      <trkpt lat="47.14806" lon="-1.55466">
        <ele>67</ele>
        <time>2021-08-31T15:22:58.000Z</time>
      </trkpt>
      <trkpt lat="47.14794" lon="-1.55454">
        <ele>67</ele>
        <time>2021-08-31T15:23:00.000Z</time>
      </trkpt>
      <trkpt lat="47.14781" lon="-1.55443">
        <ele>67</ele>
        <time>2021-08-31T15:23:02.000Z</time>
      </trkpt>
      <trkpt lat="47.14769" lon="-1.55431">
        <ele>67</ele>
        <time>2021-08-31T15:23:04.000Z</time>
      </trkpt>
      <trkpt lat="47.14756" lon="-1.55419">
        <ele>66</ele>
        <time>2021-08-31T15:23:06.000Z</time>
      </trkpt>
      <trkpt lat="47.14744" lon="-1.55408">
        <ele>66</ele>
        <time>2021-08-31T15:23:08.000Z</time>
      </trkpt>
      <trkpt lat="47.14732" lon="-1.55397">
        <ele>66</ele>
        <time>2021-08-31T15:23:10.000Z</time>
      </trkpt>
      <trkpt lat="47.1472" lon="-1.55386">
        <ele>66</ele>
        <time>2021-08-31T15:23:12.000Z</time>
      </trkpt>
      <trkpt lat="47.14708" lon="-1.55374">
        <ele>66</ele>
        <time>2021-08-31T15:23:14.000Z</time>
      </trkpt>
      <trkpt lat="47.14697" lon="-1.55362">
        <ele>66</ele>
        <time>2021-08-31T15:23:16.000Z</time>
      </trkpt>
      <trkpt lat="47.14686" lon="-1.55348">
        <ele>66</ele>
        <time>2021-08-31T15:23:18.000Z</time>
      </trkpt>
      <trkpt lat="47.14676" lon="-1.55334">
        <ele>66</ele>
        <time>2021-08-31T15:23:20.000Z</time>
      </trkpt>
      <trkpt lat="47.14666" lon="-1.5532">
        <ele>66</ele>
        <time>2021-08-31T15:23:22.000Z</time>
      </trkpt>
      <trkpt lat="47.14656" lon="-1.55307">
        <ele>66</ele>
        <time>2021-08-31T15:23:24.000Z</time>
      </trkpt>
      <trkpt lat="47.14646" lon="-1.55293">
        <ele>65</ele>
        <time>2021-08-31T15:23:26.000Z</time>
      </trkpt>
      <trkpt lat="47.14635" lon="-1.55278">
        <ele>65</ele>
        <time>2021-08-31T15:23:28.000Z</time>
      </trkpt>
      <trkpt lat="47.14625" lon="-1.55263">
        <ele>65</ele>
        <time>2021-08-31T15:23:30.000Z</time>
      </trkpt>
      <trkpt lat="47.14615" lon="-1.55247">
        <ele>65</ele>
        <time>2021-08-31T15:23:32.000Z</time>
      </trkpt>
      <trkpt lat="47.14606" lon="-1.55231">
        <ele>65</ele>
        <time>2021-08-31T15:23:34.000Z</time>
      </trkpt>
      <trkpt lat="47.14597" lon="-1.55214">
        <ele>65</ele>
        <time>2021-08-31T15:23:36.000Z</time>
      </trkpt>
      <trkpt lat="47.14588" lon="-1.55197">
        <ele>65</ele>
        <time>2021-08-31T15:23:38.000Z</time>
      </trkpt>
      <trkpt lat="47.14579" lon="-1.55181">
        <ele>64</ele>
        <time>2021-08-31T15:23:40.000Z</time>
      </trkpt>
      <trkpt lat="47.1457" lon="-1.55163">
        <ele>64</ele>
        <time>2021-08-31T15:23:42.000Z</time>
      </trkpt>
      <trkpt lat="47.14561" lon="-1.55146">
        <ele>64</ele>
        <time>2021-08-31T15:23:44.000Z</time>
      </trkpt>
      <trkpt lat="47.14551" lon="-1.5513">
        <ele>63</ele>
        <time>2021-08-31T15:23:46.000Z</time>
      </trkpt>
      <trkpt lat="47.14542" lon="-1.55112">
        <ele>62</ele>
        <time>2021-08-31T15:23:48.000Z</time>
      </trkpt>
      <trkpt lat="47.14533" lon="-1.55094">
        <ele>62</ele>
        <time>2021-08-31T15:23:50.000Z</time>
      </trkpt>
      <trkpt lat="47.14523" lon="-1.55075">
        <ele>61</ele>
        <time>2021-08-31T15:23:52.000Z</time>
      </trkpt>
      <trkpt lat="47.14515" lon="-1.55056">
        <ele>61</ele>
        <time>2021-08-31T15:23:54.000Z</time>
      </trkpt>
      <trkpt lat="47.14507" lon="-1.55037">
        <ele>61</ele>
        <time>2021-08-31T15:23:56.000Z</time>
      </trkpt>
      <trkpt lat="47.14498" lon="-1.55019">
        <ele>61</ele>
        <time>2021-08-31T15:23:58.000Z</time>
      </trkpt>
      <trkpt lat="47.14489" lon="-1.55003">
        <ele>62</ele>
        <time>2021-08-31T15:24:00.000Z</time>
      </trkpt>
      <trkpt lat="47.14479" lon="-1.54988">
        <ele>62</ele>
        <time>2021-08-31T15:24:02.000Z</time>
      </trkpt>
      <trkpt lat="47.14468" lon="-1.54976">
        <ele>63</ele>
        <time>2021-08-31T15:24:04.000Z</time>
      </trkpt>
      <trkpt lat="47.14458" lon="-1.54964">
        <ele>64</ele>
        <time>2021-08-31T15:24:06.000Z</time>
      </trkpt>
      <trkpt lat="47.14446" lon="-1.54952">
        <ele>64</ele>
        <time>2021-08-31T15:24:08.000Z</time>
      </trkpt>
      <trkpt lat="47.14434" lon="-1.5494">
        <ele>63</ele>
        <time>2021-08-31T15:24:10.000Z</time>
      </trkpt>
      <trkpt lat="47.14423" lon="-1.54929">
        <ele>63</ele>
        <time>2021-08-31T15:24:12.000Z</time>
      </trkpt>
      <trkpt lat="47.14411" lon="-1.54917">
        <ele>63</ele>
        <time>2021-08-31T15:24:14.000Z</time>
      </trkpt>
      <trkpt lat="47.14399" lon="-1.54905">
        <ele>63</ele>
        <time>2021-08-31T15:24:16.000Z</time>
      </trkpt>
      <trkpt lat="47.14387" lon="-1.54894">
        <ele>62</ele>
        <time>2021-08-31T15:24:18.000Z</time>
      </trkpt>
      <trkpt lat="47.14376" lon="-1.54882">
        <ele>62</ele>
        <time>2021-08-31T15:24:20.000Z</time>
      </trkpt>
      <trkpt lat="47.14365" lon="-1.5487">
        <ele>62</ele>
        <time>2021-08-31T15:24:22.000Z</time>
      </trkpt>
      <trkpt lat="47.14353" lon="-1.54859">
        <ele>62</ele>
        <time>2021-08-31T15:24:24.000Z</time>
      </trkpt>
      <trkpt lat="47.14342" lon="-1.54847">
        <ele>62</ele>
        <time>2021-08-31T15:24:26.000Z</time>
      </trkpt>
      <trkpt lat="47.1433" lon="-1.54837">
        <ele>62</ele>
        <time>2021-08-31T15:24:28.000Z</time>
      </trkpt>
      <trkpt lat="47.14317" lon="-1.54826">
        <ele>62</ele>
        <time>2021-08-31T15:24:30.000Z</time>
      </trkpt>
      <trkpt lat="47.14304" lon="-1.54817">
        <ele>62</ele>
        <time>2021-08-31T15:24:32.000Z</time>
      </trkpt>
      <trkpt lat="47.14292" lon="-1.54807">
        <ele>62</ele>
        <time>2021-08-31T15:24:34.000Z</time>
      </trkpt>
      <trkpt lat="47.1428" lon="-1.54798">
        <ele>62</ele>
        <time>2021-08-31T15:24:36.000Z</time>
      </trkpt>
      <trkpt lat="47.14267" lon="-1.5479">
        <ele>62</ele>
        <time>2021-08-31T15:24:38.000Z</time>
      </trkpt>
      <trkpt lat="47.14255" lon="-1.54781">
        <ele>62</ele>
        <time>2021-08-31T15:24:40.000Z</time>
      </trkpt>
      <trkpt lat="47.14243" lon="-1.54772">
        <ele>62</ele>
        <time>2021-08-31T15:24:42.000Z</time>
      </trkpt>
      <trkpt lat="47.14233" lon="-1.54764">
        <ele>62</ele>
        <time>2021-08-31T15:24:44.000Z</time>
      </trkpt>
      <trkpt lat="47.14222" lon="-1.54756">
        <ele>62</ele>
        <time>2021-08-31T15:24:46.000Z</time>
      </trkpt>
      <trkpt lat="47.14212" lon="-1.54748">
        <ele>62</ele>
        <time>2021-08-31T15:24:48.000Z</time>
      </trkpt>
      <trkpt lat="47.14203" lon="-1.54741">
        <ele>61</ele>
        <time>2021-08-31T15:24:50.000Z</time>
      </trkpt>
      <trkpt lat="47.14193" lon="-1.54733">
        <ele>62</ele>
        <time>2021-08-31T15:24:53.000Z</time>
      </trkpt>
      <trkpt lat="47.14188" lon="-1.54719">
        <ele>62</ele>
        <time>2021-08-31T15:24:56.000Z</time>
      </trkpt>
      <trkpt lat="47.14191" lon="-1.54703">
        <ele>62</ele>
        <time>2021-08-31T15:24:58.000Z</time>
      </trkpt>
      <trkpt lat="47.14194" lon="-1.54688">
        <ele>63</ele>
        <time>2021-08-31T15:25:00.000Z</time>
      </trkpt>
      <trkpt lat="47.14196" lon="-1.54673">
        <ele>63</ele>
        <time>2021-08-31T15:25:02.000Z</time>
      </trkpt>
      <trkpt lat="47.14192" lon="-1.54657">
        <ele>64</ele>
        <time>2021-08-31T15:25:04.000Z</time>
      </trkpt>
      <trkpt lat="47.14182" lon="-1.54645">
        <ele>64</ele>
        <time>2021-08-31T15:25:06.000Z</time>
      </trkpt>
      <trkpt lat="47.14172" lon="-1.54634">
        <ele>64</ele>
        <time>2021-08-31T15:25:08.000Z</time>
      </trkpt>
      <trkpt lat="47.14163" lon="-1.54621">
        <ele>64</ele>
        <time>2021-08-31T15:25:10.000Z</time>
      </trkpt>
      <trkpt lat="47.14153" lon="-1.54609">
        <ele>64</ele>
        <time>2021-08-31T15:25:12.000Z</time>
      </trkpt>
      <trkpt lat="47.14143" lon="-1.54597">
        <ele>64</ele>
        <time>2021-08-31T15:25:14.000Z</time>
      </trkpt>
      <trkpt lat="47.14133" lon="-1.54585">
        <ele>64</ele>
        <time>2021-08-31T15:25:16.000Z</time>
      </trkpt>
      <trkpt lat="47.14123" lon="-1.54573">
        <ele>63</ele>
        <time>2021-08-31T15:25:18.000Z</time>
      </trkpt>
      <trkpt lat="47.14113" lon="-1.54561">
        <ele>63</ele>
        <time>2021-08-31T15:25:20.000Z</time>
      </trkpt>
      <trkpt lat="47.14104" lon="-1.54549">
        <ele>64</ele>
        <time>2021-08-31T15:25:22.000Z</time>
      </trkpt>
      <trkpt lat="47.14094" lon="-1.54537">
        <ele>65</ele>
        <time>2021-08-31T15:25:24.000Z</time>
      </trkpt>
      <trkpt lat="47.14086" lon="-1.54525">
        <ele>66</ele>
        <time>2021-08-31T15:25:26.000Z</time>
      </trkpt>
      <trkpt lat="47.14076" lon="-1.54514">
        <ele>66</ele>
        <time>2021-08-31T15:25:28.000Z</time>
      </trkpt>
      <trkpt lat="47.14065" lon="-1.54504">
        <ele>66</ele>
        <time>2021-08-31T15:25:30.000Z</time>
      </trkpt>
      <trkpt lat="47.14055" lon="-1.54494">
        <ele>66</ele>
        <time>2021-08-31T15:25:32.000Z</time>
      </trkpt>
      <trkpt lat="47.14044" lon="-1.54486">
        <ele>67</ele>
        <time>2021-08-31T15:25:34.000Z</time>
      </trkpt>
      <trkpt lat="47.14034" lon="-1.54477">
        <ele>67</ele>
        <time>2021-08-31T15:25:36.000Z</time>
      </trkpt>
      <trkpt lat="47.14023" lon="-1.54468">
        <ele>67</ele>
        <time>2021-08-31T15:25:38.000Z</time>
      </trkpt>
      <trkpt lat="47.14012" lon="-1.54459">
        <ele>67</ele>
        <time>2021-08-31T15:25:40.000Z</time>
      </trkpt>
      <trkpt lat="47.14002" lon="-1.54451">
        <ele>68</ele>
        <time>2021-08-31T15:25:42.000Z</time>
      </trkpt>
      <trkpt lat="47.13991" lon="-1.54443">
        <ele>68</ele>
        <time>2021-08-31T15:25:44.000Z</time>
      </trkpt>
      <trkpt lat="47.1398" lon="-1.54434">
        <ele>67</ele>
        <time>2021-08-31T15:25:46.000Z</time>
      </trkpt>
      <trkpt lat="47.13968" lon="-1.54424">
        <ele>67</ele>
        <time>2021-08-31T15:25:48.000Z</time>
      </trkpt>
      <trkpt lat="47.13956" lon="-1.54414">
        <ele>68</ele>
        <time>2021-08-31T15:25:50.000Z</time>
      </trkpt>
      <trkpt lat="47.13945" lon="-1.54405">
        <ele>68</ele>
        <time>2021-08-31T15:25:52.000Z</time>
      </trkpt>
      <trkpt lat="47.13933" lon="-1.54396">
        <ele>68</ele>
        <time>2021-08-31T15:25:54.000Z</time>
      </trkpt>
      <trkpt lat="47.13922" lon="-1.54387">
        <ele>68</ele>
        <time>2021-08-31T15:25:56.000Z</time>
      </trkpt>
      <trkpt lat="47.13912" lon="-1.54378">
        <ele>69</ele>
        <time>2021-08-31T15:25:58.000Z</time>
      </trkpt>
      <trkpt lat="47.13901" lon="-1.5437">
        <ele>69</ele>
        <time>2021-08-31T15:26:00.000Z</time>
      </trkpt>
      <trkpt lat="47.1389" lon="-1.54361">
        <ele>70</ele>
        <time>2021-08-31T15:26:02.000Z</time>
      </trkpt>
      <trkpt lat="47.13879" lon="-1.54351">
        <ele>70</ele>
        <time>2021-08-31T15:26:04.000Z</time>
      </trkpt>
      <trkpt lat="47.13867" lon="-1.54342">
        <ele>70</ele>
        <time>2021-08-31T15:26:06.000Z</time>
      </trkpt>
      <trkpt lat="47.13856" lon="-1.54333">
        <ele>71</ele>
        <time>2021-08-31T15:26:08.000Z</time>
      </trkpt>
      <trkpt lat="47.13844" lon="-1.54324">
        <ele>71</ele>
        <time>2021-08-31T15:26:10.000Z</time>
      </trkpt>
      <trkpt lat="47.13832" lon="-1.54317">
        <ele>71</ele>
        <time>2021-08-31T15:26:12.000Z</time>
      </trkpt>
      <trkpt lat="47.13821" lon="-1.54311">
        <ele>71</ele>
        <time>2021-08-31T15:26:14.000Z</time>
      </trkpt>
      <trkpt lat="47.13809" lon="-1.54305">
        <ele>71</ele>
        <time>2021-08-31T15:26:16.000Z</time>
      </trkpt>
      <trkpt lat="47.13797" lon="-1.543">
        <ele>72</ele>
        <time>2021-08-31T15:26:18.000Z</time>
      </trkpt>
      <trkpt lat="47.13784" lon="-1.54294">
        <ele>72</ele>
        <time>2021-08-31T15:26:20.000Z</time>
      </trkpt>
      <trkpt lat="47.13773" lon="-1.54289">
        <ele>73</ele>
        <time>2021-08-31T15:26:22.000Z</time>
      </trkpt>
      <trkpt lat="47.13761" lon="-1.54284">
        <ele>73</ele>
        <time>2021-08-31T15:26:24.000Z</time>
      </trkpt>
      <trkpt lat="47.13749" lon="-1.54279">
        <ele>74</ele>
        <time>2021-08-31T15:26:26.000Z</time>
      </trkpt>
      <trkpt lat="47.13736" lon="-1.54272">
        <ele>73</ele>
        <time>2021-08-31T15:26:28.000Z</time>
      </trkpt>
      <trkpt lat="47.13725" lon="-1.54266">
        <ele>72</ele>
        <time>2021-08-31T15:26:30.000Z</time>
      </trkpt>
      <trkpt lat="47.13712" lon="-1.54261">
        <ele>72</ele>
        <time>2021-08-31T15:26:32.000Z</time>
      </trkpt>
      <trkpt lat="47.13699" lon="-1.54254">
        <ele>71</ele>
        <time>2021-08-31T15:26:34.000Z</time>
      </trkpt>
      <trkpt lat="47.13686" lon="-1.54247">
        <ele>70</ele>
        <time>2021-08-31T15:26:36.000Z</time>
      </trkpt>
      <trkpt lat="47.13673" lon="-1.5424">
        <ele>70</ele>
        <time>2021-08-31T15:26:38.000Z</time>
      </trkpt>
      <trkpt lat="47.1366" lon="-1.54233">
        <ele>70</ele>
        <time>2021-08-31T15:26:40.000Z</time>
      </trkpt>
      <trkpt lat="47.13647" lon="-1.54226">
        <ele>69</ele>
        <time>2021-08-31T15:26:42.000Z</time>
      </trkpt>
      <trkpt lat="47.13634" lon="-1.54219">
        <ele>69</ele>
        <time>2021-08-31T15:26:44.000Z</time>
      </trkpt>
      <trkpt lat="47.13622" lon="-1.54212">
        <ele>69</ele>
        <time>2021-08-31T15:26:46.000Z</time>
      </trkpt>
      <trkpt lat="47.1361" lon="-1.54205">
        <ele>68</ele>
        <time>2021-08-31T15:26:48.000Z</time>
      </trkpt>
      <trkpt lat="47.13598" lon="-1.54196">
        <ele>68</ele>
        <time>2021-08-31T15:26:50.000Z</time>
      </trkpt>
      <trkpt lat="47.13587" lon="-1.54186">
        <ele>68</ele>
        <time>2021-08-31T15:26:52.000Z</time>
      </trkpt>
      <trkpt lat="47.13576" lon="-1.54175">
        <ele>67</ele>
        <time>2021-08-31T15:26:54.000Z</time>
      </trkpt>
      <trkpt lat="47.13566" lon="-1.54161">
        <ele>66</ele>
        <time>2021-08-31T15:26:56.000Z</time>
      </trkpt>
      <trkpt lat="47.13556" lon="-1.54146">
        <ele>66</ele>
        <time>2021-08-31T15:26:58.000Z</time>
      </trkpt>
      <trkpt lat="47.13547" lon="-1.54132">
        <ele>66</ele>
        <time>2021-08-31T15:27:00.000Z</time>
      </trkpt>
      <trkpt lat="47.13537" lon="-1.54118">
        <ele>67</ele>
        <time>2021-08-31T15:27:02.000Z</time>
      </trkpt>
      <trkpt lat="47.13528" lon="-1.54104">
        <ele>67</ele>
        <time>2021-08-31T15:27:04.000Z</time>
      </trkpt>
      <trkpt lat="47.13519" lon="-1.5409">
        <ele>68</ele>
        <time>2021-08-31T15:27:06.000Z</time>
      </trkpt>
      <trkpt lat="47.1351" lon="-1.54076">
        <ele>67</ele>
        <time>2021-08-31T15:27:08.000Z</time>
      </trkpt>
      <trkpt lat="47.13501" lon="-1.54062">
        <ele>67</ele>
        <time>2021-08-31T15:27:10.000Z</time>
      </trkpt>
      <trkpt lat="47.13492" lon="-1.54048">
        <ele>67</ele>
        <time>2021-08-31T15:27:12.000Z</time>
      </trkpt>
      <trkpt lat="47.13482" lon="-1.54034">
        <ele>68</ele>
        <time>2021-08-31T15:27:14.000Z</time>
      </trkpt>
      <trkpt lat="47.13474" lon="-1.5402">
        <ele>68</ele>
        <time>2021-08-31T15:27:16.000Z</time>
      </trkpt>
      <trkpt lat="47.13466" lon="-1.54005">
        <ele>68</ele>
        <time>2021-08-31T15:27:18.000Z</time>
      </trkpt>
      <trkpt lat="47.13458" lon="-1.53989">
        <ele>67</ele>
        <time>2021-08-31T15:27:20.000Z</time>
      </trkpt>
      <trkpt lat="47.1345" lon="-1.53974">
        <ele>67</ele>
        <time>2021-08-31T15:27:22.000Z</time>
      </trkpt>
      <trkpt lat="47.13442" lon="-1.53959">
        <ele>67</ele>
        <time>2021-08-31T15:27:24.000Z</time>
      </trkpt>
      <trkpt lat="47.13434" lon="-1.53943">
        <ele>67</ele>
        <time>2021-08-31T15:27:26.000Z</time>
      </trkpt>
      <trkpt lat="47.13426" lon="-1.53927">
        <ele>66</ele>
        <time>2021-08-31T15:27:28.000Z</time>
      </trkpt>
      <trkpt lat="47.13417" lon="-1.53912">
        <ele>66</ele>
        <time>2021-08-31T15:27:30.000Z</time>
      </trkpt>
      <trkpt lat="47.13408" lon="-1.53897">
        <ele>66</ele>
        <time>2021-08-31T15:27:32.000Z</time>
      </trkpt>
      <trkpt lat="47.134" lon="-1.53881">
        <ele>67</ele>
        <time>2021-08-31T15:27:34.000Z</time>
      </trkpt>
      <trkpt lat="47.13392" lon="-1.53865">
        <ele>68</ele>
        <time>2021-08-31T15:27:36.000Z</time>
      </trkpt>
      <trkpt lat="47.13384" lon="-1.5385">
        <ele>68</ele>
        <time>2021-08-31T15:27:38.000Z</time>
      </trkpt>
      <trkpt lat="47.13375" lon="-1.53834">
        <ele>68</ele>
        <time>2021-08-31T15:27:40.000Z</time>
      </trkpt>
      <trkpt lat="47.13367" lon="-1.53819">
        <ele>68</ele>
        <time>2021-08-31T15:27:42.000Z</time>
      </trkpt>
      <trkpt lat="47.1336" lon="-1.53804">
        <ele>69</ele>
        <time>2021-08-31T15:27:44.000Z</time>
      </trkpt>
      <trkpt lat="47.13352" lon="-1.53788">
        <ele>69</ele>
        <time>2021-08-31T15:27:46.000Z</time>
      </trkpt>
      <trkpt lat="47.13345" lon="-1.53773">
        <ele>70</ele>
        <time>2021-08-31T15:27:48.000Z</time>
      </trkpt>
      <trkpt lat="47.13336" lon="-1.53758">
        <ele>70</ele>
        <time>2021-08-31T15:27:50.000Z</time>
      </trkpt>
      <trkpt lat="47.13329" lon="-1.53742">
        <ele>70</ele>
        <time>2021-08-31T15:27:52.000Z</time>
      </trkpt>
      <trkpt lat="47.13321" lon="-1.53727">
        <ele>70</ele>
        <time>2021-08-31T15:27:54.000Z</time>
      </trkpt>
      <trkpt lat="47.13314" lon="-1.53711">
        <ele>70</ele>
        <time>2021-08-31T15:27:56.000Z</time>
      </trkpt>
      <trkpt lat="47.13307" lon="-1.53696">
        <ele>70</ele>
        <time>2021-08-31T15:27:58.000Z</time>
      </trkpt>
      <trkpt lat="47.13301" lon="-1.5368">
        <ele>70</ele>
        <time>2021-08-31T15:28:00.000Z</time>
      </trkpt>
      <trkpt lat="47.13295" lon="-1.53663">
        <ele>70</ele>
        <time>2021-08-31T15:28:02.000Z</time>
      </trkpt>
      <trkpt lat="47.13289" lon="-1.53646">
        <ele>70</ele>
        <time>2021-08-31T15:28:04.000Z</time>
      </trkpt>
      <trkpt lat="47.13284" lon="-1.53629">
        <ele>70</ele>
        <time>2021-08-31T15:28:06.000Z</time>
      </trkpt>
      <trkpt lat="47.13279" lon="-1.53613">
        <ele>70</ele>
        <time>2021-08-31T15:28:08.000Z</time>
      </trkpt>
      <trkpt lat="47.13273" lon="-1.53596">
        <ele>70</ele>
        <time>2021-08-31T15:28:10.000Z</time>
      </trkpt>
      <trkpt lat="47.13267" lon="-1.53579">
        <ele>70</ele>
        <time>2021-08-31T15:28:12.000Z</time>
      </trkpt>
      <trkpt lat="47.13262" lon="-1.53561">
        <ele>70</ele>
        <time>2021-08-31T15:28:14.000Z</time>
      </trkpt>
      <trkpt lat="47.13257" lon="-1.53545">
        <ele>70</ele>
        <time>2021-08-31T15:28:16.000Z</time>
      </trkpt>
      <trkpt lat="47.13251" lon="-1.53528">
        <ele>70</ele>
        <time>2021-08-31T15:28:18.000Z</time>
      </trkpt>
      <trkpt lat="47.13246" lon="-1.53512">
        <ele>70</ele>
        <time>2021-08-31T15:28:20.000Z</time>
      </trkpt>
      <trkpt lat="47.13241" lon="-1.53496">
        <ele>70</ele>
        <time>2021-08-31T15:28:22.000Z</time>
      </trkpt>
      <trkpt lat="47.13235" lon="-1.5348">
        <ele>70</ele>
        <time>2021-08-31T15:28:24.000Z</time>
      </trkpt>
      <trkpt lat="47.1323" lon="-1.53464">
        <ele>69</ele>
        <time>2021-08-31T15:28:26.000Z</time>
      </trkpt>
      <trkpt lat="47.13225" lon="-1.53447">
        <ele>70</ele>
        <time>2021-08-31T15:28:28.000Z</time>
      </trkpt>
      <trkpt lat="47.13219" lon="-1.5343">
        <ele>70</ele>
        <time>2021-08-31T15:28:30.000Z</time>
      </trkpt>
      <trkpt lat="47.13214" lon="-1.53414">
        <ele>70</ele>
        <time>2021-08-31T15:28:32.000Z</time>
      </trkpt>
      <trkpt lat="47.13209" lon="-1.53397">
        <ele>70</ele>
        <time>2021-08-31T15:28:34.000Z</time>
      </trkpt>
      <trkpt lat="47.13203" lon="-1.5338">
        <ele>69</ele>
        <time>2021-08-31T15:28:36.000Z</time>
      </trkpt>
      <trkpt lat="47.13198" lon="-1.53364">
        <ele>70</ele>
        <time>2021-08-31T15:28:38.000Z</time>
      </trkpt>
      <trkpt lat="47.13193" lon="-1.53346">
        <ele>69</ele>
        <time>2021-08-31T15:28:40.000Z</time>
      </trkpt>
      <trkpt lat="47.13187" lon="-1.53328">
        <ele>69</ele>
        <time>2021-08-31T15:28:42.000Z</time>
      </trkpt>
      <trkpt lat="47.13182" lon="-1.53311">
        <ele>69</ele>
        <time>2021-08-31T15:28:44.000Z</time>
      </trkpt>
      <trkpt lat="47.13176" lon="-1.53294">
        <ele>69</ele>
        <time>2021-08-31T15:28:46.000Z</time>
      </trkpt>
      <trkpt lat="47.13171" lon="-1.53277">
        <ele>69</ele>
        <time>2021-08-31T15:28:48.000Z</time>
      </trkpt>
      <trkpt lat="47.13166" lon="-1.53261">
        <ele>69</ele>
        <time>2021-08-31T15:28:50.000Z</time>
      </trkpt>
      <trkpt lat="47.13161" lon="-1.53246">
        <ele>69</ele>
        <time>2021-08-31T15:28:52.000Z</time>
      </trkpt>
      <trkpt lat="47.13156" lon="-1.5323">
        <ele>69</ele>
        <time>2021-08-31T15:28:55.000Z</time>
      </trkpt>
      <trkpt lat="47.13157" lon="-1.53215">
        <ele>69</ele>
        <time>2021-08-31T15:28:58.000Z</time>
      </trkpt>
      <trkpt lat="47.13167" lon="-1.53209">
        <ele>69</ele>
        <time>2021-08-31T15:29:00.000Z</time>
      </trkpt>
      <trkpt lat="47.13178" lon="-1.53206">
        <ele>70</ele>
        <time>2021-08-31T15:29:02.000Z</time>
      </trkpt>
      <trkpt lat="47.1319" lon="-1.53201">
        <ele>70</ele>
        <time>2021-08-31T15:29:04.000Z</time>
      </trkpt>
      <trkpt lat="47.13202" lon="-1.53196">
        <ele>70</ele>
        <time>2021-08-31T15:29:06.000Z</time>
      </trkpt>
      <trkpt lat="47.13214" lon="-1.53192">
        <ele>70</ele>
        <time>2021-08-31T15:29:08.000Z</time>
      </trkpt>
      <trkpt lat="47.13226" lon="-1.53187">
        <ele>71</ele>
        <time>2021-08-31T15:29:10.000Z</time>
      </trkpt>
      <trkpt lat="47.13238" lon="-1.53182">
        <ele>71</ele>
        <time>2021-08-31T15:29:12.000Z</time>
      </trkpt>
      <trkpt lat="47.1325" lon="-1.53177">
        <ele>71</ele>
        <time>2021-08-31T15:29:14.000Z</time>
      </trkpt>
      <trkpt lat="47.13262" lon="-1.53173">
        <ele>72</ele>
        <time>2021-08-31T15:29:16.000Z</time>
      </trkpt>
      <trkpt lat="47.13274" lon="-1.53168">
        <ele>72</ele>
        <time>2021-08-31T15:29:18.000Z</time>
      </trkpt>
      <trkpt lat="47.13285" lon="-1.53163">
        <ele>72</ele>
        <time>2021-08-31T15:29:20.000Z</time>
      </trkpt>
      <trkpt lat="47.13296" lon="-1.53157">
        <ele>73</ele>
        <time>2021-08-31T15:29:22.000Z</time>
      </trkpt>
      <trkpt lat="47.13308" lon="-1.53153">
        <ele>73</ele>
        <time>2021-08-31T15:29:24.000Z</time>
      </trkpt>
      <trkpt lat="47.1332" lon="-1.5315">
        <ele>73</ele>
        <time>2021-08-31T15:29:26.000Z</time>
      </trkpt>
      <trkpt lat="47.13332" lon="-1.53147">
        <ele>73</ele>
        <time>2021-08-31T15:29:28.000Z</time>
      </trkpt>
      <trkpt lat="47.13344" lon="-1.53143">
        <ele>73</ele>
        <time>2021-08-31T15:29:30.000Z</time>
      </trkpt>
      <trkpt lat="47.13355" lon="-1.53141">
        <ele>73</ele>
        <time>2021-08-31T15:29:32.000Z</time>
      </trkpt>
      <trkpt lat="47.13367" lon="-1.53139">
        <ele>74</ele>
        <time>2021-08-31T15:29:34.000Z</time>
      </trkpt>
      <trkpt lat="47.13378" lon="-1.53138">
        <ele>74</ele>
        <time>2021-08-31T15:29:36.000Z</time>
      </trkpt>
      <trkpt lat="47.13389" lon="-1.53137">
        <ele>74</ele>
        <time>2021-08-31T15:29:38.000Z</time>
      </trkpt>
      <trkpt lat="47.13398" lon="-1.53138">
        <ele>74</ele>
        <time>2021-08-31T15:29:40.000Z</time>
      </trkpt>
      <trkpt lat="47.13411" lon="-1.53139">
        <ele>74</ele>
        <time>2021-08-31T15:29:43.000Z</time>
      </trkpt>
      <trkpt lat="47.13424" lon="-1.53137">
        <ele>75</ele>
        <time>2021-08-31T15:29:46.000Z</time>
      </trkpt>
      <trkpt lat="47.13432" lon="-1.53126">
        <ele>75</ele>
        <time>2021-08-31T15:29:48.000Z</time>
      </trkpt>
      <trkpt lat="47.13438" lon="-1.53112">
        <ele>75</ele>
        <time>2021-08-31T15:29:50.000Z</time>
      </trkpt>
      <trkpt lat="47.13444" lon="-1.53097">
        <ele>75</ele>
        <time>2021-08-31T15:29:52.000Z</time>
      </trkpt>
      <trkpt lat="47.1345" lon="-1.53082">
        <ele>75</ele>
        <time>2021-08-31T15:29:54.000Z</time>
      </trkpt>
      <trkpt lat="47.13456" lon="-1.53068">
        <ele>75</ele>
        <time>2021-08-31T15:29:56.000Z</time>
      </trkpt>
      <trkpt lat="47.13463" lon="-1.53054">
        <ele>76</ele>
        <time>2021-08-31T15:29:58.000Z</time>
      </trkpt>
      <trkpt lat="47.1347" lon="-1.5304">
        <ele>76</ele>
        <time>2021-08-31T15:30:00.000Z</time>
      </trkpt>
      <trkpt lat="47.13476" lon="-1.53027">
        <ele>76</ele>
        <time>2021-08-31T15:30:02.000Z</time>
      </trkpt>
      <trkpt lat="47.13485" lon="-1.53008">
        <ele>76</ele>
        <time>2021-08-31T15:30:05.000Z</time>
      </trkpt>
      <trkpt lat="47.1349" lon="-1.52995">
        <ele>76</ele>
        <time>2021-08-31T15:30:07.000Z</time>
      </trkpt>
      <trkpt lat="47.13496" lon="-1.52981">
        <ele>76</ele>
        <time>2021-08-31T15:30:09.000Z</time>
      </trkpt>
      <trkpt lat="47.13506" lon="-1.52961">
        <ele>76</ele>
        <time>2021-08-31T15:30:12.000Z</time>
      </trkpt>
      <trkpt lat="47.13512" lon="-1.52947">
        <ele>76</ele>
        <time>2021-08-31T15:30:14.000Z</time>
      </trkpt>
      <trkpt lat="47.13518" lon="-1.52934">
        <ele>76</ele>
        <time>2021-08-31T15:30:16.000Z</time>
      </trkpt>
      <trkpt lat="47.13525" lon="-1.52921">
        <ele>76</ele>
        <time>2021-08-31T15:30:18.000Z</time>
      </trkpt>
      <trkpt lat="47.13534" lon="-1.52901">
        <ele>76</ele>
        <time>2021-08-31T15:30:21.000Z</time>
      </trkpt>
      <trkpt lat="47.13539" lon="-1.52887">
        <ele>76</ele>
        <time>2021-08-31T15:30:23.000Z</time>
      </trkpt>
      <trkpt lat="47.13545" lon="-1.52874">
        <ele>76</ele>
        <time>2021-08-31T15:30:25.000Z</time>
      </trkpt>
      <trkpt lat="47.13555" lon="-1.52853">
        <ele>76</ele>
        <time>2021-08-31T15:30:28.000Z</time>
      </trkpt>
      <trkpt lat="47.13561" lon="-1.52839">
        <ele>77</ele>
        <time>2021-08-31T15:30:30.000Z</time>
      </trkpt>
      <trkpt lat="47.13567" lon="-1.52826">
        <ele>77</ele>
        <time>2021-08-31T15:30:32.000Z</time>
      </trkpt>
      <trkpt lat="47.13573" lon="-1.52813">
        <ele>77</ele>
        <time>2021-08-31T15:30:34.000Z</time>
      </trkpt>
      <trkpt lat="47.1358" lon="-1.52799">
        <ele>77</ele>
        <time>2021-08-31T15:30:36.000Z</time>
      </trkpt>
      <trkpt lat="47.13586" lon="-1.52786">
        <ele>76</ele>
        <time>2021-08-31T15:30:38.000Z</time>
      </trkpt>
      <trkpt lat="47.13592" lon="-1.52773">
        <ele>77</ele>
        <time>2021-08-31T15:30:40.000Z</time>
      </trkpt>
      <trkpt lat="47.13598" lon="-1.5276">
        <ele>77</ele>
        <time>2021-08-31T15:30:42.000Z</time>
      </trkpt>
      <trkpt lat="47.13605" lon="-1.52749">
        <ele>77</ele>
        <time>2021-08-31T15:30:44.000Z</time>
      </trkpt>
      <trkpt lat="47.13612" lon="-1.52736">
        <ele>77</ele>
        <time>2021-08-31T15:30:46.000Z</time>
      </trkpt>
      <trkpt lat="47.13619" lon="-1.52724">
        <ele>77</ele>
        <time>2021-08-31T15:30:48.000Z</time>
      </trkpt>
      <trkpt lat="47.13626" lon="-1.52712">
        <ele>77</ele>
        <time>2021-08-31T15:30:50.000Z</time>
      </trkpt>
      <trkpt lat="47.13633" lon="-1.52701">
        <ele>77</ele>
        <time>2021-08-31T15:30:52.000Z</time>
      </trkpt>
      <trkpt lat="47.1364" lon="-1.52689">
        <ele>78</ele>
        <time>2021-08-31T15:30:54.000Z</time>
      </trkpt>
      <trkpt lat="47.13647" lon="-1.52678">
        <ele>78</ele>
        <time>2021-08-31T15:30:56.000Z</time>
      </trkpt>
      <trkpt lat="47.13655" lon="-1.52666">
        <ele>78</ele>
        <time>2021-08-31T15:30:58.000Z</time>
      </trkpt>
      <trkpt lat="47.13662" lon="-1.52654">
        <ele>78</ele>
        <time>2021-08-31T15:31:00.000Z</time>
      </trkpt>
      <trkpt lat="47.13669" lon="-1.52642">
        <ele>78</ele>
        <time>2021-08-31T15:31:02.000Z</time>
      </trkpt>
      <trkpt lat="47.13677" lon="-1.5263">
        <ele>78</ele>
        <time>2021-08-31T15:31:04.000Z</time>
      </trkpt>
      <trkpt lat="47.13684" lon="-1.52618">
        <ele>78</ele>
        <time>2021-08-31T15:31:06.000Z</time>
      </trkpt>
      <trkpt lat="47.13692" lon="-1.52605">
        <ele>78</ele>
        <time>2021-08-31T15:31:08.000Z</time>
      </trkpt>
      <trkpt lat="47.13699" lon="-1.52593">
        <ele>78</ele>
        <time>2021-08-31T15:31:10.000Z</time>
      </trkpt>
      <trkpt lat="47.13707" lon="-1.5258">
        <ele>78</ele>
        <time>2021-08-31T15:31:12.000Z</time>
      </trkpt>
      <trkpt lat="47.13715" lon="-1.52568">
        <ele>78</ele>
        <time>2021-08-31T15:31:14.000Z</time>
      </trkpt>
      <trkpt lat="47.13722" lon="-1.52556">
        <ele>78</ele>
        <time>2021-08-31T15:31:16.000Z</time>
      </trkpt>
      <trkpt lat="47.13729" lon="-1.52544">
        <ele>78</ele>
        <time>2021-08-31T15:31:18.000Z</time>
      </trkpt>
      <trkpt lat="47.13737" lon="-1.52533">
        <ele>78</ele>
        <time>2021-08-31T15:31:20.000Z</time>
      </trkpt>
      <trkpt lat="47.13744" lon="-1.52521">
        <ele>78</ele>
        <time>2021-08-31T15:31:22.000Z</time>
      </trkpt>
      <trkpt lat="47.13752" lon="-1.52509">
        <ele>78</ele>
        <time>2021-08-31T15:31:24.000Z</time>
      </trkpt>
      <trkpt lat="47.13759" lon="-1.52498">
        <ele>77</ele>
        <time>2021-08-31T15:31:26.000Z</time>
      </trkpt>
      <trkpt lat="47.13767" lon="-1.52486">
        <ele>77</ele>
        <time>2021-08-31T15:31:28.000Z</time>
      </trkpt>
      <trkpt lat="47.13775" lon="-1.52474">
        <ele>77</ele>
        <time>2021-08-31T15:31:30.000Z</time>
      </trkpt>
      <trkpt lat="47.13783" lon="-1.52462">
        <ele>77</ele>
        <time>2021-08-31T15:31:32.000Z</time>
      </trkpt>
      <trkpt lat="47.13791" lon="-1.5245">
        <ele>78</ele>
        <time>2021-08-31T15:31:34.000Z</time>
      </trkpt>
      <trkpt lat="47.138" lon="-1.52437">
        <ele>78</ele>
        <time>2021-08-31T15:31:36.000Z</time>
      </trkpt>
      <trkpt lat="47.13809" lon="-1.52424">
        <ele>78</ele>
        <time>2021-08-31T15:31:38.000Z</time>
      </trkpt>
      <trkpt lat="47.13817" lon="-1.52411">
        <ele>77</ele>
        <time>2021-08-31T15:31:40.000Z</time>
      </trkpt>
      <trkpt lat="47.13825" lon="-1.52398">
        <ele>77</ele>
        <time>2021-08-31T15:31:42.000Z</time>
      </trkpt>
      <trkpt lat="47.13834" lon="-1.52385">
        <ele>77</ele>
        <time>2021-08-31T15:31:44.000Z</time>
      </trkpt>
      <trkpt lat="47.13842" lon="-1.52372">
        <ele>78</ele>
        <time>2021-08-31T15:31:46.000Z</time>
      </trkpt>
      <trkpt lat="47.1385" lon="-1.52359">
        <ele>77</ele>
        <time>2021-08-31T15:31:48.000Z</time>
      </trkpt>
      <trkpt lat="47.13857" lon="-1.52346">
        <ele>77</ele>
        <time>2021-08-31T15:31:50.000Z</time>
      </trkpt>
      <trkpt lat="47.13861" lon="-1.52331">
        <ele>78</ele>
        <time>2021-08-31T15:31:54.000Z</time>
      </trkpt>
      <trkpt lat="47.13864" lon="-1.52318">
        <ele>78</ele>
        <time>2021-08-31T15:31:56.000Z</time>
      </trkpt>
      <trkpt lat="47.13873" lon="-1.52308">
        <ele>77</ele>
        <time>2021-08-31T15:31:58.000Z</time>
      </trkpt>
      <trkpt lat="47.13884" lon="-1.52302">
        <ele>78</ele>
        <time>2021-08-31T15:32:00.000Z</time>
      </trkpt>
      <trkpt lat="47.13895" lon="-1.52293">
        <ele>77</ele>
        <time>2021-08-31T15:32:02.000Z</time>
      </trkpt>
      <trkpt lat="47.13904" lon="-1.52281">
        <ele>78</ele>
        <time>2021-08-31T15:32:04.000Z</time>
      </trkpt>
      <trkpt lat="47.13912" lon="-1.5227">
        <ele>78</ele>
        <time>2021-08-31T15:32:06.000Z</time>
      </trkpt>
      <trkpt lat="47.1392" lon="-1.52259">
        <ele>78</ele>
        <time>2021-08-31T15:32:08.000Z</time>
      </trkpt>
      <trkpt lat="47.13928" lon="-1.52247">
        <ele>78</ele>
        <time>2021-08-31T15:32:10.000Z</time>
      </trkpt>
      <trkpt lat="47.13936" lon="-1.52234">
        <ele>78</ele>
        <time>2021-08-31T15:32:12.000Z</time>
      </trkpt>
      <trkpt lat="47.13945" lon="-1.52222">
        <ele>78</ele>
        <time>2021-08-31T15:32:14.000Z</time>
      </trkpt>
      <trkpt lat="47.13953" lon="-1.5221">
        <ele>78</ele>
        <time>2021-08-31T15:32:16.000Z</time>
      </trkpt>
      <trkpt lat="47.13961" lon="-1.52198">
        <ele>79</ele>
        <time>2021-08-31T15:32:18.000Z</time>
      </trkpt>
      <trkpt lat="47.1397" lon="-1.52186">
        <ele>79</ele>
        <time>2021-08-31T15:32:20.000Z</time>
      </trkpt>
      <trkpt lat="47.13978" lon="-1.52175">
        <ele>79</ele>
        <time>2021-08-31T15:32:22.000Z</time>
      </trkpt>
      <trkpt lat="47.13986" lon="-1.52165">
        <ele>79</ele>
        <time>2021-08-31T15:32:24.000Z</time>
      </trkpt>
      <trkpt lat="47.13994" lon="-1.52156">
        <ele>79</ele>
        <time>2021-08-31T15:32:26.000Z</time>
      </trkpt>
      <trkpt lat="47.14003" lon="-1.52148">
        <ele>79</ele>
        <time>2021-08-31T15:32:28.000Z</time>
      </trkpt>
      <trkpt lat="47.14012" lon="-1.52139">
        <ele>79</ele>
        <time>2021-08-31T15:32:30.000Z</time>
      </trkpt>
      <trkpt lat="47.14019" lon="-1.52128">
        <ele>79</ele>
        <time>2021-08-31T15:32:32.000Z</time>
      </trkpt>
      <trkpt lat="47.14026" lon="-1.52114">
        <ele>80</ele>
        <time>2021-08-31T15:32:35.000Z</time>
      </trkpt>
      <trkpt lat="47.14034" lon="-1.52101">
        <ele>81</ele>
        <time>2021-08-31T15:32:41.000Z</time>
      </trkpt>
      <trkpt lat="47.14042" lon="-1.52095">
        <ele>81</ele>
        <time>2021-08-31T15:32:43.000Z</time>
      </trkpt>
      <trkpt lat="47.14053" lon="-1.52088">
        <ele>80</ele>
        <time>2021-08-31T15:32:45.000Z</time>
      </trkpt>
      <trkpt lat="47.14064" lon="-1.52079">
        <ele>81</ele>
        <time>2021-08-31T15:32:47.000Z</time>
      </trkpt>
      <trkpt lat="47.14073" lon="-1.52067">
        <ele>81</ele>
        <time>2021-08-31T15:32:49.000Z</time>
      </trkpt>
      <trkpt lat="47.14083" lon="-1.52056">
        <ele>80</ele>
        <time>2021-08-31T15:32:51.000Z</time>
      </trkpt>
      <trkpt lat="47.14092" lon="-1.52046">
        <ele>80</ele>
        <time>2021-08-31T15:32:53.000Z</time>
      </trkpt>
      <trkpt lat="47.14102" lon="-1.52037">
        <ele>80</ele>
        <time>2021-08-31T15:32:55.000Z</time>
      </trkpt>
      <trkpt lat="47.14112" lon="-1.52027">
        <ele>80</ele>
        <time>2021-08-31T15:32:57.000Z</time>
      </trkpt>
      <trkpt lat="47.14121" lon="-1.52018">
        <ele>80</ele>
        <time>2021-08-31T15:32:59.000Z</time>
      </trkpt>
      <trkpt lat="47.14131" lon="-1.52009">
        <ele>80</ele>
        <time>2021-08-31T15:33:01.000Z</time>
      </trkpt>
      <trkpt lat="47.14142" lon="-1.52">
        <ele>80</ele>
        <time>2021-08-31T15:33:03.000Z</time>
      </trkpt>
      <trkpt lat="47.14152" lon="-1.5199">
        <ele>80</ele>
        <time>2021-08-31T15:33:05.000Z</time>
      </trkpt>
      <trkpt lat="47.14162" lon="-1.51981">
        <ele>80</ele>
        <time>2021-08-31T15:33:07.000Z</time>
      </trkpt>
      <trkpt lat="47.14172" lon="-1.51971">
        <ele>80</ele>
        <time>2021-08-31T15:33:09.000Z</time>
      </trkpt>
      <trkpt lat="47.14182" lon="-1.51961">
        <ele>80</ele>
        <time>2021-08-31T15:33:11.000Z</time>
      </trkpt>
      <trkpt lat="47.14191" lon="-1.51952">
        <ele>80</ele>
        <time>2021-08-31T15:33:13.000Z</time>
      </trkpt>
      <trkpt lat="47.14201" lon="-1.51943">
        <ele>80</ele>
        <time>2021-08-31T15:33:15.000Z</time>
      </trkpt>
      <trkpt lat="47.1421" lon="-1.51934">
        <ele>81</ele>
        <time>2021-08-31T15:33:17.000Z</time>
      </trkpt>
      <trkpt lat="47.1422" lon="-1.51925">
        <ele>81</ele>
        <time>2021-08-31T15:33:19.000Z</time>
      </trkpt>
      <trkpt lat="47.14229" lon="-1.51916">
        <ele>81</ele>
        <time>2021-08-31T15:33:21.000Z</time>
      </trkpt>
      <trkpt lat="47.14238" lon="-1.51907">
        <ele>81</ele>
        <time>2021-08-31T15:33:23.000Z</time>
      </trkpt>
      <trkpt lat="47.14247" lon="-1.51898">
        <ele>81</ele>
        <time>2021-08-31T15:33:25.000Z</time>
      </trkpt>
      <trkpt lat="47.14256" lon="-1.51889">
        <ele>81</ele>
        <time>2021-08-31T15:33:27.000Z</time>
      </trkpt>
      <trkpt lat="47.14265" lon="-1.5188">
        <ele>80</ele>
        <time>2021-08-31T15:33:29.000Z</time>
      </trkpt>
      <trkpt lat="47.14275" lon="-1.5187">
        <ele>80</ele>
        <time>2021-08-31T15:33:31.000Z</time>
      </trkpt>
      <trkpt lat="47.14284" lon="-1.51861">
        <ele>80</ele>
        <time>2021-08-31T15:33:33.000Z</time>
      </trkpt>
      <trkpt lat="47.14293" lon="-1.51852">
        <ele>80</ele>
        <time>2021-08-31T15:33:35.000Z</time>
      </trkpt>
      <trkpt lat="47.14302" lon="-1.51842">
        <ele>80</ele>
        <time>2021-08-31T15:33:37.000Z</time>
      </trkpt>
      <trkpt lat="47.1431" lon="-1.51833">
        <ele>80</ele>
        <time>2021-08-31T15:33:39.000Z</time>
      </trkpt>
      <trkpt lat="47.14319" lon="-1.51825">
        <ele>80</ele>
        <time>2021-08-31T15:33:41.000Z</time>
      </trkpt>
      <trkpt lat="47.14327" lon="-1.51816">
        <ele>80</ele>
        <time>2021-08-31T15:33:43.000Z</time>
      </trkpt>
      <trkpt lat="47.14336" lon="-1.51807">
        <ele>80</ele>
        <time>2021-08-31T15:33:45.000Z</time>
      </trkpt>
      <trkpt lat="47.14345" lon="-1.51798">
        <ele>80</ele>
        <time>2021-08-31T15:33:47.000Z</time>
      </trkpt>
      <trkpt lat="47.14355" lon="-1.51788">
        <ele>79</ele>
        <time>2021-08-31T15:33:49.000Z</time>
      </trkpt>
      <trkpt lat="47.14364" lon="-1.51779">
        <ele>79</ele>
        <time>2021-08-31T15:33:51.000Z</time>
      </trkpt>
      <trkpt lat="47.14373" lon="-1.51769">
        <ele>79</ele>
        <time>2021-08-31T15:33:53.000Z</time>
      </trkpt>
      <trkpt lat="47.14382" lon="-1.51759">
        <ele>79</ele>
        <time>2021-08-31T15:33:55.000Z</time>
      </trkpt>
      <trkpt lat="47.14392" lon="-1.5175">
        <ele>78</ele>
        <time>2021-08-31T15:33:57.000Z</time>
      </trkpt>
      <trkpt lat="47.144" lon="-1.51741">
        <ele>78</ele>
        <time>2021-08-31T15:33:59.000Z</time>
      </trkpt>
      <trkpt lat="47.14409" lon="-1.51733">
        <ele>78</ele>
        <time>2021-08-31T15:34:01.000Z</time>
      </trkpt>
      <trkpt lat="47.14418" lon="-1.51724">
        <ele>78</ele>
        <time>2021-08-31T15:34:03.000Z</time>
      </trkpt>
      <trkpt lat="47.14426" lon="-1.51715">
        <ele>79</ele>
        <time>2021-08-31T15:34:05.000Z</time>
      </trkpt>
      <trkpt lat="47.14435" lon="-1.51706">
        <ele>79</ele>
        <time>2021-08-31T15:34:07.000Z</time>
      </trkpt>
      <trkpt lat="47.14444" lon="-1.51697">
        <ele>79</ele>
        <time>2021-08-31T15:34:09.000Z</time>
      </trkpt>
      <trkpt lat="47.14453" lon="-1.51687">
        <ele>79</ele>
        <time>2021-08-31T15:34:11.000Z</time>
      </trkpt>
      <trkpt lat="47.14463" lon="-1.51678">
        <ele>78</ele>
        <time>2021-08-31T15:34:13.000Z</time>
      </trkpt>
      <trkpt lat="47.14472" lon="-1.51668">
        <ele>78</ele>
        <time>2021-08-31T15:34:15.000Z</time>
      </trkpt>
      <trkpt lat="47.14482" lon="-1.51657">
        <ele>78</ele>
        <time>2021-08-31T15:34:17.000Z</time>
      </trkpt>
      <trkpt lat="47.14492" lon="-1.51648">
        <ele>78</ele>
        <time>2021-08-31T15:34:19.000Z</time>
      </trkpt>
      <trkpt lat="47.14502" lon="-1.51638">
        <ele>78</ele>
        <time>2021-08-31T15:34:21.000Z</time>
      </trkpt>
      <trkpt lat="47.14511" lon="-1.51628">
        <ele>77</ele>
        <time>2021-08-31T15:34:23.000Z</time>
      </trkpt>
      <trkpt lat="47.1452" lon="-1.51617">
        <ele>77</ele>
        <time>2021-08-31T15:34:25.000Z</time>
      </trkpt>
      <trkpt lat="47.14528" lon="-1.51607">
        <ele>77</ele>
        <time>2021-08-31T15:34:27.000Z</time>
      </trkpt>
      <trkpt lat="47.14537" lon="-1.51596">
        <ele>77</ele>
        <time>2021-08-31T15:34:29.000Z</time>
      </trkpt>
      <trkpt lat="47.14545" lon="-1.51584">
        <ele>77</ele>
        <time>2021-08-31T15:34:31.000Z</time>
      </trkpt>
      <trkpt lat="47.14554" lon="-1.51574">
        <ele>77</ele>
        <time>2021-08-31T15:34:33.000Z</time>
      </trkpt>
      <trkpt lat="47.14562" lon="-1.51563">
        <ele>77</ele>
        <time>2021-08-31T15:34:35.000Z</time>
      </trkpt>
      <trkpt lat="47.1457" lon="-1.5155">
        <ele>78</ele>
        <time>2021-08-31T15:34:37.000Z</time>
      </trkpt>
      <trkpt lat="47.14577" lon="-1.51537">
        <ele>78</ele>
        <time>2021-08-31T15:34:39.000Z</time>
      </trkpt>
      <trkpt lat="47.14584" lon="-1.51525">
        <ele>78</ele>
        <time>2021-08-31T15:34:41.000Z</time>
      </trkpt>
      <trkpt lat="47.1459" lon="-1.51512">
        <ele>78</ele>
        <time>2021-08-31T15:34:43.000Z</time>
      </trkpt>
      <trkpt lat="47.14597" lon="-1.515">
        <ele>79</ele>
        <time>2021-08-31T15:34:45.000Z</time>
      </trkpt>
      <trkpt lat="47.14603" lon="-1.51487">
        <ele>79</ele>
        <time>2021-08-31T15:34:47.000Z</time>
      </trkpt>
      <trkpt lat="47.14609" lon="-1.51474">
        <ele>79</ele>
        <time>2021-08-31T15:34:49.000Z</time>
      </trkpt>
      <trkpt lat="47.14615" lon="-1.51462">
        <ele>79</ele>
        <time>2021-08-31T15:34:51.000Z</time>
      </trkpt>
      <trkpt lat="47.14622" lon="-1.5145">
        <ele>79</ele>
        <time>2021-08-31T15:34:53.000Z</time>
      </trkpt>
      <trkpt lat="47.14628" lon="-1.51437">
        <ele>79</ele>
        <time>2021-08-31T15:34:55.000Z</time>
      </trkpt>
      <trkpt lat="47.14635" lon="-1.51424">
        <ele>78</ele>
        <time>2021-08-31T15:34:57.000Z</time>
      </trkpt>
      <trkpt lat="47.14641" lon="-1.51411">
        <ele>78</ele>
        <time>2021-08-31T15:34:59.000Z</time>
      </trkpt>
      <trkpt lat="47.14648" lon="-1.51397">
        <ele>78</ele>
        <time>2021-08-31T15:35:01.000Z</time>
      </trkpt>
      <trkpt lat="47.14656" lon="-1.51383">
        <ele>77</ele>
        <time>2021-08-31T15:35:03.000Z</time>
      </trkpt>
      <trkpt lat="47.14663" lon="-1.51368">
        <ele>77</ele>
        <time>2021-08-31T15:35:05.000Z</time>
      </trkpt>
      <trkpt lat="47.1467" lon="-1.51354">
        <ele>77</ele>
        <time>2021-08-31T15:35:07.000Z</time>
      </trkpt>
      <trkpt lat="47.14677" lon="-1.5134">
        <ele>76</ele>
        <time>2021-08-31T15:35:09.000Z</time>
      </trkpt>
      <trkpt lat="47.14684" lon="-1.51326">
        <ele>76</ele>
        <time>2021-08-31T15:35:11.000Z</time>
      </trkpt>
      <trkpt lat="47.14688" lon="-1.51312">
        <ele>76</ele>
        <time>2021-08-31T15:35:13.000Z</time>
      </trkpt>
      <trkpt lat="47.14678" lon="-1.51301">
        <ele>75</ele>
        <time>2021-08-31T15:35:15.000Z</time>
      </trkpt>
      <trkpt lat="47.14666" lon="-1.513">
        <ele>75</ele>
        <time>2021-08-31T15:35:17.000Z</time>
      </trkpt>
      <trkpt lat="47.14654" lon="-1.51302">
        <ele>75</ele>
        <time>2021-08-31T15:35:19.000Z</time>
      </trkpt>
      <trkpt lat="47.14641" lon="-1.51305">
        <ele>75</ele>
        <time>2021-08-31T15:35:21.000Z</time>
      </trkpt>
      <trkpt lat="47.14627" lon="-1.51308">
        <ele>75</ele>
        <time>2021-08-31T15:35:23.000Z</time>
      </trkpt>
      <trkpt lat="47.14614" lon="-1.51311">
        <ele>75</ele>
        <time>2021-08-31T15:35:25.000Z</time>
      </trkpt>
      <trkpt lat="47.14601" lon="-1.51313">
        <ele>75</ele>
        <time>2021-08-31T15:35:27.000Z</time>
      </trkpt>
      <trkpt lat="47.14588" lon="-1.51315">
        <ele>75</ele>
        <time>2021-08-31T15:35:29.000Z</time>
      </trkpt>
      <trkpt lat="47.14575" lon="-1.51316">
        <ele>75</ele>
        <time>2021-08-31T15:35:31.000Z</time>
      </trkpt>
      <trkpt lat="47.14561" lon="-1.51315">
        <ele>75</ele>
        <time>2021-08-31T15:35:33.000Z</time>
      </trkpt>
      <trkpt lat="47.14548" lon="-1.51314">
        <ele>75</ele>
        <time>2021-08-31T15:35:35.000Z</time>
      </trkpt>
      <trkpt lat="47.14535" lon="-1.51313">
        <ele>75</ele>
        <time>2021-08-31T15:35:37.000Z</time>
      </trkpt>
      <trkpt lat="47.14522" lon="-1.51312">
        <ele>75</ele>
        <time>2021-08-31T15:35:39.000Z</time>
      </trkpt>
      <trkpt lat="47.14509" lon="-1.51311">
        <ele>75</ele>
        <time>2021-08-31T15:35:41.000Z</time>
      </trkpt>
      <trkpt lat="47.14496" lon="-1.5131">
        <ele>75</ele>
        <time>2021-08-31T15:35:43.000Z</time>
      </trkpt>
      <trkpt lat="47.14483" lon="-1.51309">
        <ele>75</ele>
        <time>2021-08-31T15:35:45.000Z</time>
      </trkpt>
      <trkpt lat="47.14471" lon="-1.51305">
        <ele>75</ele>
        <time>2021-08-31T15:35:47.000Z</time>
      </trkpt>
      <trkpt lat="47.14458" lon="-1.51302">
        <ele>76</ele>
        <time>2021-08-31T15:35:49.000Z</time>
      </trkpt>
      <trkpt lat="47.14445" lon="-1.51297">
        <ele>76</ele>
        <time>2021-08-31T15:35:51.000Z</time>
      </trkpt>
      <trkpt lat="47.14434" lon="-1.51289">
        <ele>76</ele>
        <time>2021-08-31T15:35:53.000Z</time>
      </trkpt>
      <trkpt lat="47.14424" lon="-1.51277">
        <ele>76</ele>
        <time>2021-08-31T15:35:55.000Z</time>
      </trkpt>
      <trkpt lat="47.14415" lon="-1.51263">
        <ele>76</ele>
        <time>2021-08-31T15:35:57.000Z</time>
      </trkpt>
      <trkpt lat="47.14408" lon="-1.51247">
        <ele>76</ele>
        <time>2021-08-31T15:35:59.000Z</time>
      </trkpt>
      <trkpt lat="47.14402" lon="-1.51231">
        <ele>76</ele>
        <time>2021-08-31T15:36:01.000Z</time>
      </trkpt>
      <trkpt lat="47.14396" lon="-1.51215">
        <ele>76</ele>
        <time>2021-08-31T15:36:03.000Z</time>
      </trkpt>
      <trkpt lat="47.1439" lon="-1.51199">
        <ele>76</ele>
        <time>2021-08-31T15:36:05.000Z</time>
      </trkpt>
      <trkpt lat="47.14384" lon="-1.51183">
        <ele>76</ele>
        <time>2021-08-31T15:36:07.000Z</time>
      </trkpt>
      <trkpt lat="47.14378" lon="-1.51167">
        <ele>76</ele>
        <time>2021-08-31T15:36:09.000Z</time>
      </trkpt>
      <trkpt lat="47.14372" lon="-1.5115">
        <ele>76</ele>
        <time>2021-08-31T15:36:11.000Z</time>
      </trkpt>
      <trkpt lat="47.14367" lon="-1.51134">
        <ele>76</ele>
        <time>2021-08-31T15:36:13.000Z</time>
      </trkpt>
      <trkpt lat="47.14361" lon="-1.51119">
        <ele>76</ele>
        <time>2021-08-31T15:36:15.000Z</time>
      </trkpt>
      <trkpt lat="47.14354" lon="-1.51103">
        <ele>76</ele>
        <time>2021-08-31T15:36:17.000Z</time>
      </trkpt>
      <trkpt lat="47.14347" lon="-1.51087">
        <ele>76</ele>
        <time>2021-08-31T15:36:19.000Z</time>
      </trkpt>
      <trkpt lat="47.14341" lon="-1.5107">
        <ele>75</ele>
        <time>2021-08-31T15:36:21.000Z</time>
      </trkpt>
      <trkpt lat="47.14335" lon="-1.51053">
        <ele>75</ele>
        <time>2021-08-31T15:36:23.000Z</time>
      </trkpt>
      <trkpt lat="47.14329" lon="-1.51036">
        <ele>76</ele>
        <time>2021-08-31T15:36:25.000Z</time>
      </trkpt>
      <trkpt lat="47.14323" lon="-1.51018">
        <ele>76</ele>
        <time>2021-08-31T15:36:27.000Z</time>
      </trkpt>
      <trkpt lat="47.14318" lon="-1.51001">
        <ele>76</ele>
        <time>2021-08-31T15:36:29.000Z</time>
      </trkpt>
      <trkpt lat="47.14312" lon="-1.50984">
        <ele>76</ele>
        <time>2021-08-31T15:36:31.000Z</time>
      </trkpt>
      <trkpt lat="47.14306" lon="-1.50967">
        <ele>76</ele>
        <time>2021-08-31T15:36:33.000Z</time>
      </trkpt>
      <trkpt lat="47.14302" lon="-1.5095">
        <ele>77</ele>
        <time>2021-08-31T15:36:35.000Z</time>
      </trkpt>
      <trkpt lat="47.14296" lon="-1.50933">
        <ele>77</ele>
        <time>2021-08-31T15:36:37.000Z</time>
      </trkpt>
      <trkpt lat="47.14291" lon="-1.50915">
        <ele>77</ele>
        <time>2021-08-31T15:36:39.000Z</time>
      </trkpt>
      <trkpt lat="47.14286" lon="-1.50897">
        <ele>77</ele>
        <time>2021-08-31T15:36:41.000Z</time>
      </trkpt>
      <trkpt lat="47.14281" lon="-1.5088">
        <ele>77</ele>
        <time>2021-08-31T15:36:43.000Z</time>
      </trkpt>
      <trkpt lat="47.14276" lon="-1.50863">
        <ele>76</ele>
        <time>2021-08-31T15:36:45.000Z</time>
      </trkpt>
      <trkpt lat="47.14271" lon="-1.50845">
        <ele>76</ele>
        <time>2021-08-31T15:36:47.000Z</time>
      </trkpt>
      <trkpt lat="47.14267" lon="-1.50829">
        <ele>76</ele>
        <time>2021-08-31T15:36:49.000Z</time>
      </trkpt>
      <trkpt lat="47.14263" lon="-1.50811">
        <ele>76</ele>
        <time>2021-08-31T15:36:51.000Z</time>
      </trkpt>
      <trkpt lat="47.14259" lon="-1.50794">
        <ele>77</ele>
        <time>2021-08-31T15:36:53.000Z</time>
      </trkpt>
      <trkpt lat="47.14254" lon="-1.50777">
        <ele>76</ele>
        <time>2021-08-31T15:36:55.000Z</time>
      </trkpt>
      <trkpt lat="47.14249" lon="-1.50758">
        <ele>76</ele>
        <time>2021-08-31T15:36:57.000Z</time>
      </trkpt>
      <trkpt lat="47.14244" lon="-1.5074">
        <ele>76</ele>
        <time>2021-08-31T15:36:59.000Z</time>
      </trkpt>
      <trkpt lat="47.1424" lon="-1.50722">
        <ele>77</ele>
        <time>2021-08-31T15:37:01.000Z</time>
      </trkpt>
      <trkpt lat="47.14236" lon="-1.50704">
        <ele>77</ele>
        <time>2021-08-31T15:37:03.000Z</time>
      </trkpt>
      <trkpt lat="47.14232" lon="-1.50686">
        <ele>77</ele>
        <time>2021-08-31T15:37:05.000Z</time>
      </trkpt>
      <trkpt lat="47.14229" lon="-1.50668">
        <ele>77</ele>
        <time>2021-08-31T15:37:07.000Z</time>
      </trkpt>
      <trkpt lat="47.14225" lon="-1.5065">
        <ele>77</ele>
        <time>2021-08-31T15:37:09.000Z</time>
      </trkpt>
      <trkpt lat="47.14221" lon="-1.50632">
        <ele>77</ele>
        <time>2021-08-31T15:37:11.000Z</time>
      </trkpt>
      <trkpt lat="47.14217" lon="-1.50614">
        <ele>77</ele>
        <time>2021-08-31T15:37:13.000Z</time>
      </trkpt>
      <trkpt lat="47.14213" lon="-1.50596">
        <ele>77</ele>
        <time>2021-08-31T15:37:15.000Z</time>
      </trkpt>
      <trkpt lat="47.1421" lon="-1.50579">
        <ele>77</ele>
        <time>2021-08-31T15:37:17.000Z</time>
      </trkpt>
      <trkpt lat="47.14206" lon="-1.5056">
        <ele>77</ele>
        <time>2021-08-31T15:37:19.000Z</time>
      </trkpt>
      <trkpt lat="47.14203" lon="-1.50543">
        <ele>76</ele>
        <time>2021-08-31T15:37:21.000Z</time>
      </trkpt>
      <trkpt lat="47.14199" lon="-1.50526">
        <ele>76</ele>
        <time>2021-08-31T15:37:23.000Z</time>
      </trkpt>
      <trkpt lat="47.14196" lon="-1.50508">
        <ele>76</ele>
        <time>2021-08-31T15:37:25.000Z</time>
      </trkpt>
      <trkpt lat="47.14192" lon="-1.50491">
        <ele>76</ele>
        <time>2021-08-31T15:37:27.000Z</time>
      </trkpt>
      <trkpt lat="47.14189" lon="-1.50474">
        <ele>77</ele>
        <time>2021-08-31T15:37:29.000Z</time>
      </trkpt>
      <trkpt lat="47.14185" lon="-1.50456">
        <ele>77</ele>
        <time>2021-08-31T15:37:31.000Z</time>
      </trkpt>
      <trkpt lat="47.14181" lon="-1.50438">
        <ele>77</ele>
        <time>2021-08-31T15:37:33.000Z</time>
      </trkpt>
      <trkpt lat="47.14177" lon="-1.5042">
        <ele>77</ele>
        <time>2021-08-31T15:37:35.000Z</time>
      </trkpt>
      <trkpt lat="47.14174" lon="-1.50403">
        <ele>77</ele>
        <time>2021-08-31T15:37:37.000Z</time>
      </trkpt>
      <trkpt lat="47.14171" lon="-1.50386">
        <ele>77</ele>
        <time>2021-08-31T15:37:39.000Z</time>
      </trkpt>
      <trkpt lat="47.14169" lon="-1.50368">
        <ele>78</ele>
        <time>2021-08-31T15:37:41.000Z</time>
      </trkpt>
      <trkpt lat="47.14166" lon="-1.50351">
        <ele>78</ele>
        <time>2021-08-31T15:37:43.000Z</time>
      </trkpt>
      <trkpt lat="47.14164" lon="-1.50333">
        <ele>78</ele>
        <time>2021-08-31T15:37:45.000Z</time>
      </trkpt>
      <trkpt lat="47.14163" lon="-1.50315">
        <ele>78</ele>
        <time>2021-08-31T15:37:47.000Z</time>
      </trkpt>
      <trkpt lat="47.14161" lon="-1.50299">
        <ele>78</ele>
        <time>2021-08-31T15:37:49.000Z</time>
      </trkpt>
      <trkpt lat="47.14161" lon="-1.50282">
        <ele>78</ele>
        <time>2021-08-31T15:37:51.000Z</time>
      </trkpt>
      <trkpt lat="47.1416" lon="-1.50265">
        <ele>78</ele>
        <time>2021-08-31T15:37:53.000Z</time>
      </trkpt>
      <trkpt lat="47.14158" lon="-1.50248">
        <ele>78</ele>
        <time>2021-08-31T15:37:55.000Z</time>
      </trkpt>
      <trkpt lat="47.14158" lon="-1.5023">
        <ele>79</ele>
        <time>2021-08-31T15:37:57.000Z</time>
      </trkpt>
      <trkpt lat="47.14156" lon="-1.50211">
        <ele>79</ele>
        <time>2021-08-31T15:37:59.000Z</time>
      </trkpt>
      <trkpt lat="47.14155" lon="-1.50194">
        <ele>79</ele>
        <time>2021-08-31T15:38:01.000Z</time>
      </trkpt>
      <trkpt lat="47.14152" lon="-1.50177">
        <ele>79</ele>
        <time>2021-08-31T15:38:03.000Z</time>
      </trkpt>
      <trkpt lat="47.1415" lon="-1.50159">
        <ele>79</ele>
        <time>2021-08-31T15:38:05.000Z</time>
      </trkpt>
      <trkpt lat="47.14147" lon="-1.50142">
        <ele>79</ele>
        <time>2021-08-31T15:38:07.000Z</time>
      </trkpt>
      <trkpt lat="47.14144" lon="-1.50125">
        <ele>79</ele>
        <time>2021-08-31T15:38:09.000Z</time>
      </trkpt>
      <trkpt lat="47.14141" lon="-1.50108">
        <ele>79</ele>
        <time>2021-08-31T15:38:11.000Z</time>
      </trkpt>
      <trkpt lat="47.14138" lon="-1.50091">
        <ele>79</ele>
        <time>2021-08-31T15:38:13.000Z</time>
      </trkpt>
      <trkpt lat="47.14135" lon="-1.50074">
        <ele>79</ele>
        <time>2021-08-31T15:38:15.000Z</time>
      </trkpt>
      <trkpt lat="47.14132" lon="-1.50057">
        <ele>79</ele>
        <time>2021-08-31T15:38:17.000Z</time>
      </trkpt>
      <trkpt lat="47.14129" lon="-1.50039">
        <ele>79</ele>
        <time>2021-08-31T15:38:19.000Z</time>
      </trkpt>
      <trkpt lat="47.14126" lon="-1.50022">
        <ele>79</ele>
        <time>2021-08-31T15:38:21.000Z</time>
      </trkpt>
      <trkpt lat="47.14124" lon="-1.50005">
        <ele>79</ele>
        <time>2021-08-31T15:38:23.000Z</time>
      </trkpt>
      <trkpt lat="47.14121" lon="-1.49987">
        <ele>79</ele>
        <time>2021-08-31T15:38:25.000Z</time>
      </trkpt>
      <trkpt lat="47.14118" lon="-1.4997">
        <ele>79</ele>
        <time>2021-08-31T15:38:27.000Z</time>
      </trkpt>
      <trkpt lat="47.14116" lon="-1.49954">
        <ele>80</ele>
        <time>2021-08-31T15:38:29.000Z</time>
      </trkpt>
      <trkpt lat="47.14113" lon="-1.49937">
        <ele>80</ele>
        <time>2021-08-31T15:38:31.000Z</time>
      </trkpt>
      <trkpt lat="47.1411" lon="-1.4992">
        <ele>80</ele>
        <time>2021-08-31T15:38:33.000Z</time>
      </trkpt>
      <trkpt lat="47.14106" lon="-1.49903">
        <ele>80</ele>
        <time>2021-08-31T15:38:35.000Z</time>
      </trkpt>
      <trkpt lat="47.14104" lon="-1.49886">
        <ele>80</ele>
        <time>2021-08-31T15:38:37.000Z</time>
      </trkpt>
      <trkpt lat="47.14101" lon="-1.49869">
        <ele>80</ele>
        <time>2021-08-31T15:38:39.000Z</time>
      </trkpt>
      <trkpt lat="47.14099" lon="-1.49851">
        <ele>80</ele>
        <time>2021-08-31T15:38:41.000Z</time>
      </trkpt>
      <trkpt lat="47.14097" lon="-1.49834">
        <ele>80</ele>
        <time>2021-08-31T15:38:43.000Z</time>
      </trkpt>
      <trkpt lat="47.14096" lon="-1.49816">
        <ele>80</ele>
        <time>2021-08-31T15:38:45.000Z</time>
      </trkpt>
      <trkpt lat="47.14096" lon="-1.49799">
        <ele>80</ele>
        <time>2021-08-31T15:38:47.000Z</time>
      </trkpt>
      <trkpt lat="47.14096" lon="-1.49782">
        <ele>81</ele>
        <time>2021-08-31T15:38:49.000Z</time>
      </trkpt>
      <trkpt lat="47.14096" lon="-1.49765">
        <ele>81</ele>
        <time>2021-08-31T15:38:51.000Z</time>
      </trkpt>
      <trkpt lat="47.14096" lon="-1.49748">
        <ele>81</ele>
        <time>2021-08-31T15:38:53.000Z</time>
      </trkpt>
      <trkpt lat="47.14095" lon="-1.49731">
        <ele>82</ele>
        <time>2021-08-31T15:38:55.000Z</time>
      </trkpt>
      <trkpt lat="47.14095" lon="-1.49713">
        <ele>82</ele>
        <time>2021-08-31T15:38:57.000Z</time>
      </trkpt>
      <trkpt lat="47.14095" lon="-1.49696">
        <ele>82</ele>
        <time>2021-08-31T15:38:59.000Z</time>
      </trkpt>
      <trkpt lat="47.14095" lon="-1.49679">
        <ele>82</ele>
        <time>2021-08-31T15:39:01.000Z</time>
      </trkpt>
      <trkpt lat="47.14095" lon="-1.49661">
        <ele>82</ele>
        <time>2021-08-31T15:39:03.000Z</time>
      </trkpt>
      <trkpt lat="47.14095" lon="-1.49644">
        <ele>83</ele>
        <time>2021-08-31T15:39:05.000Z</time>
      </trkpt>
      <trkpt lat="47.14096" lon="-1.49627">
        <ele>83</ele>
        <time>2021-08-31T15:39:07.000Z</time>
      </trkpt>
      <trkpt lat="47.14096" lon="-1.49611">
        <ele>83</ele>
        <time>2021-08-31T15:39:09.000Z</time>
      </trkpt>
      <trkpt lat="47.14095" lon="-1.49594">
        <ele>83</ele>
        <time>2021-08-31T15:39:11.000Z</time>
      </trkpt>
      <trkpt lat="47.14095" lon="-1.49578">
        <ele>84</ele>
        <time>2021-08-31T15:39:13.000Z</time>
      </trkpt>
      <trkpt lat="47.14095" lon="-1.49561">
        <ele>84</ele>
        <time>2021-08-31T15:39:15.000Z</time>
      </trkpt>
      <trkpt lat="47.14096" lon="-1.49544">
        <ele>84</ele>
        <time>2021-08-31T15:39:17.000Z</time>
      </trkpt>
      <trkpt lat="47.14096" lon="-1.49527">
        <ele>84</ele>
        <time>2021-08-31T15:39:19.000Z</time>
      </trkpt>
      <trkpt lat="47.14095" lon="-1.49511">
        <ele>84</ele>
        <time>2021-08-31T15:39:21.000Z</time>
      </trkpt>
      <trkpt lat="47.14095" lon="-1.49493">
        <ele>84</ele>
        <time>2021-08-31T15:39:23.000Z</time>
      </trkpt>
      <trkpt lat="47.14095" lon="-1.49476">
        <ele>84</ele>
        <time>2021-08-31T15:39:25.000Z</time>
      </trkpt>
      <trkpt lat="47.14096" lon="-1.49459">
        <ele>85</ele>
        <time>2021-08-31T15:39:27.000Z</time>
      </trkpt>
      <trkpt lat="47.14096" lon="-1.49442">
        <ele>85</ele>
        <time>2021-08-31T15:39:29.000Z</time>
      </trkpt>
      <trkpt lat="47.14096" lon="-1.49425">
        <ele>85</ele>
        <time>2021-08-31T15:39:31.000Z</time>
      </trkpt>
      <trkpt lat="47.14096" lon="-1.49408">
        <ele>85</ele>
        <time>2021-08-31T15:39:33.000Z</time>
      </trkpt>
      <trkpt lat="47.14096" lon="-1.4939">
        <ele>85</ele>
        <time>2021-08-31T15:39:35.000Z</time>
      </trkpt>
      <trkpt lat="47.14096" lon="-1.49373">
        <ele>86</ele>
        <time>2021-08-31T15:39:37.000Z</time>
      </trkpt>
      <trkpt lat="47.14097" lon="-1.49356">
        <ele>86</ele>
        <time>2021-08-31T15:39:39.000Z</time>
      </trkpt>
      <trkpt lat="47.14097" lon="-1.49339">
        <ele>86</ele>
        <time>2021-08-31T15:39:41.000Z</time>
      </trkpt>
      <trkpt lat="47.14097" lon="-1.49321">
        <ele>86</ele>
        <time>2021-08-31T15:39:43.000Z</time>
      </trkpt>
      <trkpt lat="47.14097" lon="-1.49304">
        <ele>86</ele>
        <time>2021-08-31T15:39:45.000Z</time>
      </trkpt>
      <trkpt lat="47.14097" lon="-1.49287">
        <ele>86</ele>
        <time>2021-08-31T15:39:47.000Z</time>
      </trkpt>
      <trkpt lat="47.14097" lon="-1.49269">
        <ele>87</ele>
        <time>2021-08-31T15:39:49.000Z</time>
      </trkpt>
      <trkpt lat="47.14097" lon="-1.49252">
        <ele>87</ele>
        <time>2021-08-31T15:39:51.000Z</time>
      </trkpt>
      <trkpt lat="47.14097" lon="-1.49236">
        <ele>87</ele>
        <time>2021-08-31T15:39:53.000Z</time>
      </trkpt>
      <trkpt lat="47.14097" lon="-1.49219">
        <ele>87</ele>
        <time>2021-08-31T15:39:55.000Z</time>
      </trkpt>
      <trkpt lat="47.14097" lon="-1.49203">
        <ele>87</ele>
        <time>2021-08-31T15:39:57.000Z</time>
      </trkpt>
      <trkpt lat="47.14097" lon="-1.49187">
        <ele>87</ele>
        <time>2021-08-31T15:39:59.000Z</time>
      </trkpt>
      <trkpt lat="47.14098" lon="-1.49171">
        <ele>87</ele>
        <time>2021-08-31T15:40:01.000Z</time>
      </trkpt>
      <trkpt lat="47.14098" lon="-1.49155">
        <ele>87</ele>
        <time>2021-08-31T15:40:03.000Z</time>
      </trkpt>
      <trkpt lat="47.14098" lon="-1.49138">
        <ele>87</ele>
        <time>2021-08-31T15:40:05.000Z</time>
      </trkpt>
      <trkpt lat="47.14098" lon="-1.49123">
        <ele>86</ele>
        <time>2021-08-31T15:40:07.000Z</time>
      </trkpt>
      <trkpt lat="47.14098" lon="-1.49106">
        <ele>87</ele>
        <time>2021-08-31T15:40:09.000Z</time>
      </trkpt>
      <trkpt lat="47.14098" lon="-1.49091">
        <ele>87</ele>
        <time>2021-08-31T15:40:11.000Z</time>
      </trkpt>
      <trkpt lat="47.14098" lon="-1.49075">
        <ele>87</ele>
        <time>2021-08-31T15:40:13.000Z</time>
      </trkpt>
      <trkpt lat="47.14098" lon="-1.4906">
        <ele>87</ele>
        <time>2021-08-31T15:40:15.000Z</time>
      </trkpt>
      <trkpt lat="47.14097" lon="-1.49045">
        <ele>87</ele>
        <time>2021-08-31T15:40:17.000Z</time>
      </trkpt>
      <trkpt lat="47.14095" lon="-1.49029">
        <ele>86</ele>
        <time>2021-08-31T15:40:19.000Z</time>
      </trkpt>
      <trkpt lat="47.14093" lon="-1.49014">
        <ele>87</ele>
        <time>2021-08-31T15:40:21.000Z</time>
      </trkpt>
      <trkpt lat="47.1409" lon="-1.48999">
        <ele>86</ele>
        <time>2021-08-31T15:40:23.000Z</time>
      </trkpt>
      <trkpt lat="47.14086" lon="-1.48983">
        <ele>87</ele>
        <time>2021-08-31T15:40:25.000Z</time>
      </trkpt>
      <trkpt lat="47.14083" lon="-1.48968">
        <ele>87</ele>
        <time>2021-08-31T15:40:27.000Z</time>
      </trkpt>
      <trkpt lat="47.14079" lon="-1.48952">
        <ele>86</ele>
        <time>2021-08-31T15:40:29.000Z</time>
      </trkpt>
      <trkpt lat="47.14076" lon="-1.48936">
        <ele>87</ele>
        <time>2021-08-31T15:40:31.000Z</time>
      </trkpt>
      <trkpt lat="47.14072" lon="-1.4892">
        <ele>87</ele>
        <time>2021-08-31T15:40:33.000Z</time>
      </trkpt>
      <trkpt lat="47.14069" lon="-1.48905">
        <ele>87</ele>
        <time>2021-08-31T15:40:35.000Z</time>
      </trkpt>
      <trkpt lat="47.14066" lon="-1.4889">
        <ele>87</ele>
        <time>2021-08-31T15:40:37.000Z</time>
      </trkpt>
      <trkpt lat="47.14063" lon="-1.48875">
        <ele>88</ele>
        <time>2021-08-31T15:40:39.000Z</time>
      </trkpt>
      <trkpt lat="47.1406" lon="-1.4886">
        <ele>88</ele>
        <time>2021-08-31T15:40:41.000Z</time>
      </trkpt>
      <trkpt lat="47.14056" lon="-1.48844">
        <ele>89</ele>
        <time>2021-08-31T15:40:43.000Z</time>
      </trkpt>
      <trkpt lat="47.14053" lon="-1.48829">
        <ele>89</ele>
        <time>2021-08-31T15:40:45.000Z</time>
      </trkpt>
      <trkpt lat="47.14049" lon="-1.48813">
        <ele>89</ele>
        <time>2021-08-31T15:40:47.000Z</time>
      </trkpt>
      <trkpt lat="47.14046" lon="-1.48797">
        <ele>89</ele>
        <time>2021-08-31T15:40:49.000Z</time>
      </trkpt>
      <trkpt lat="47.14044" lon="-1.48781">
        <ele>89</ele>
        <time>2021-08-31T15:40:51.000Z</time>
      </trkpt>
      <trkpt lat="47.14042" lon="-1.48764">
        <ele>89</ele>
        <time>2021-08-31T15:40:53.000Z</time>
      </trkpt>
      <trkpt lat="47.14039" lon="-1.48748">
        <ele>89</ele>
        <time>2021-08-31T15:40:55.000Z</time>
      </trkpt>
      <trkpt lat="47.14037" lon="-1.48731">
        <ele>89</ele>
        <time>2021-08-31T15:40:57.000Z</time>
      </trkpt>
      <trkpt lat="47.14035" lon="-1.48714">
        <ele>89</ele>
        <time>2021-08-31T15:40:59.000Z</time>
      </trkpt>
      <trkpt lat="47.14032" lon="-1.48698">
        <ele>89</ele>
        <time>2021-08-31T15:41:01.000Z</time>
      </trkpt>
      <trkpt lat="47.1403" lon="-1.48681">
        <ele>89</ele>
        <time>2021-08-31T15:41:03.000Z</time>
      </trkpt>
      <trkpt lat="47.14028" lon="-1.48664">
        <ele>89</ele>
        <time>2021-08-31T15:41:05.000Z</time>
      </trkpt>
      <trkpt lat="47.14026" lon="-1.48647">
        <ele>89</ele>
        <time>2021-08-31T15:41:07.000Z</time>
      </trkpt>
      <trkpt lat="47.14023" lon="-1.48629">
        <ele>89</ele>
        <time>2021-08-31T15:41:09.000Z</time>
      </trkpt>
      <trkpt lat="47.1402" lon="-1.48611">
        <ele>89</ele>
        <time>2021-08-31T15:41:11.000Z</time>
      </trkpt>
      <trkpt lat="47.14016" lon="-1.48594">
        <ele>89</ele>
        <time>2021-08-31T15:41:13.000Z</time>
      </trkpt>
      <trkpt lat="47.14013" lon="-1.48577">
        <ele>89</ele>
        <time>2021-08-31T15:41:15.000Z</time>
      </trkpt>
      <trkpt lat="47.14011" lon="-1.4856">
        <ele>88</ele>
        <time>2021-08-31T15:41:17.000Z</time>
      </trkpt>
      <trkpt lat="47.14008" lon="-1.48543">
        <ele>88</ele>
        <time>2021-08-31T15:41:19.000Z</time>
      </trkpt>
      <trkpt lat="47.14005" lon="-1.48526">
        <ele>88</ele>
        <time>2021-08-31T15:41:21.000Z</time>
      </trkpt>
      <trkpt lat="47.14003" lon="-1.48508">
        <ele>88</ele>
        <time>2021-08-31T15:41:23.000Z</time>
      </trkpt>
      <trkpt lat="47.14" lon="-1.48491">
        <ele>88</ele>
        <time>2021-08-31T15:41:25.000Z</time>
      </trkpt>
      <trkpt lat="47.13998" lon="-1.48473">
        <ele>89</ele>
        <time>2021-08-31T15:41:27.000Z</time>
      </trkpt>
      <trkpt lat="47.13995" lon="-1.48456">
        <ele>89</ele>
        <time>2021-08-31T15:41:29.000Z</time>
      </trkpt>
      <trkpt lat="47.13994" lon="-1.48439">
        <ele>89</ele>
        <time>2021-08-31T15:41:31.000Z</time>
      </trkpt>
      <trkpt lat="47.13993" lon="-1.48422">
        <ele>89</ele>
        <time>2021-08-31T15:41:33.000Z</time>
      </trkpt>
      <trkpt lat="47.13992" lon="-1.48404">
        <ele>89</ele>
        <time>2021-08-31T15:41:35.000Z</time>
      </trkpt>
      <trkpt lat="47.13992" lon="-1.48386">
        <ele>89</ele>
        <time>2021-08-31T15:41:37.000Z</time>
      </trkpt>
      <trkpt lat="47.1399" lon="-1.48368">
        <ele>89</ele>
        <time>2021-08-31T15:41:39.000Z</time>
      </trkpt>
      <trkpt lat="47.13989" lon="-1.48349">
        <ele>89</ele>
        <time>2021-08-31T15:41:41.000Z</time>
      </trkpt>
      <trkpt lat="47.13989" lon="-1.4833">
        <ele>89</ele>
        <time>2021-08-31T15:41:43.000Z</time>
      </trkpt>
      <trkpt lat="47.13988" lon="-1.48311">
        <ele>90</ele>
        <time>2021-08-31T15:41:45.000Z</time>
      </trkpt>
      <trkpt lat="47.13988" lon="-1.48292">
        <ele>90</ele>
        <time>2021-08-31T15:41:47.000Z</time>
      </trkpt>
      <trkpt lat="47.13987" lon="-1.48273">
        <ele>90</ele>
        <time>2021-08-31T15:41:49.000Z</time>
      </trkpt>
      <trkpt lat="47.13987" lon="-1.48254">
        <ele>90</ele>
        <time>2021-08-31T15:41:51.000Z</time>
      </trkpt>
      <trkpt lat="47.13986" lon="-1.48234">
        <ele>91</ele>
        <time>2021-08-31T15:41:53.000Z</time>
      </trkpt>
      <trkpt lat="47.13986" lon="-1.48216">
        <ele>91</ele>
        <time>2021-08-31T15:41:55.000Z</time>
      </trkpt>
      <trkpt lat="47.13985" lon="-1.48197">
        <ele>91</ele>
        <time>2021-08-31T15:41:57.000Z</time>
      </trkpt>
      <trkpt lat="47.13984" lon="-1.48177">
        <ele>90</ele>
        <time>2021-08-31T15:41:59.000Z</time>
      </trkpt>
      <trkpt lat="47.13984" lon="-1.48159">
        <ele>90</ele>
        <time>2021-08-31T15:42:01.000Z</time>
      </trkpt>
      <trkpt lat="47.13983" lon="-1.4814">
        <ele>90</ele>
        <time>2021-08-31T15:42:03.000Z</time>
      </trkpt>
      <trkpt lat="47.13983" lon="-1.48121">
        <ele>90</ele>
        <time>2021-08-31T15:42:05.000Z</time>
      </trkpt>
      <trkpt lat="47.13982" lon="-1.48103">
        <ele>90</ele>
        <time>2021-08-31T15:42:07.000Z</time>
      </trkpt>
      <trkpt lat="47.13982" lon="-1.48084">
        <ele>90</ele>
        <time>2021-08-31T15:42:09.000Z</time>
      </trkpt>
      <trkpt lat="47.13981" lon="-1.48066">
        <ele>91</ele>
        <time>2021-08-31T15:42:11.000Z</time>
      </trkpt>
      <trkpt lat="47.1398" lon="-1.48046">
        <ele>91</ele>
        <time>2021-08-31T15:42:13.000Z</time>
      </trkpt>
      <trkpt lat="47.1398" lon="-1.48027">
        <ele>91</ele>
        <time>2021-08-31T15:42:15.000Z</time>
      </trkpt>
      <trkpt lat="47.13979" lon="-1.48008">
        <ele>90</ele>
        <time>2021-08-31T15:42:17.000Z</time>
      </trkpt>
      <trkpt lat="47.13978" lon="-1.4799">
        <ele>91</ele>
        <time>2021-08-31T15:42:19.000Z</time>
      </trkpt>
      <trkpt lat="47.13976" lon="-1.47971">
        <ele>91</ele>
        <time>2021-08-31T15:42:21.000Z</time>
      </trkpt>
      <trkpt lat="47.13974" lon="-1.47953">
        <ele>91</ele>
        <time>2021-08-31T15:42:23.000Z</time>
      </trkpt>
      <trkpt lat="47.13972" lon="-1.47935">
        <ele>91</ele>
        <time>2021-08-31T15:42:25.000Z</time>
      </trkpt>
      <trkpt lat="47.13968" lon="-1.47918">
        <ele>91</ele>
        <time>2021-08-31T15:42:27.000Z</time>
      </trkpt>
      <trkpt lat="47.13964" lon="-1.479">
        <ele>91</ele>
        <time>2021-08-31T15:42:29.000Z</time>
      </trkpt>
      <trkpt lat="47.13959" lon="-1.47884">
        <ele>91</ele>
        <time>2021-08-31T15:42:31.000Z</time>
      </trkpt>
      <trkpt lat="47.13954" lon="-1.47867">
        <ele>91</ele>
        <time>2021-08-31T15:42:33.000Z</time>
      </trkpt>
      <trkpt lat="47.1395" lon="-1.4785">
        <ele>91</ele>
        <time>2021-08-31T15:42:35.000Z</time>
      </trkpt>
      <trkpt lat="47.13945" lon="-1.47833">
        <ele>91</ele>
        <time>2021-08-31T15:42:37.000Z</time>
      </trkpt>
      <trkpt lat="47.13941" lon="-1.47816">
        <ele>91</ele>
        <time>2021-08-31T15:42:39.000Z</time>
      </trkpt>
      <trkpt lat="47.13937" lon="-1.47799">
        <ele>91</ele>
        <time>2021-08-31T15:42:41.000Z</time>
      </trkpt>
      <trkpt lat="47.13931" lon="-1.47782">
        <ele>92</ele>
        <time>2021-08-31T15:42:43.000Z</time>
      </trkpt>
      <trkpt lat="47.13926" lon="-1.47764">
        <ele>92</ele>
        <time>2021-08-31T15:42:45.000Z</time>
      </trkpt>
      <trkpt lat="47.13921" lon="-1.47746">
        <ele>92</ele>
        <time>2021-08-31T15:42:47.000Z</time>
      </trkpt>
      <trkpt lat="47.13916" lon="-1.47728">
        <ele>92</ele>
        <time>2021-08-31T15:42:49.000Z</time>
      </trkpt>
      <trkpt lat="47.13911" lon="-1.4771">
        <ele>92</ele>
        <time>2021-08-31T15:42:51.000Z</time>
      </trkpt>
      <trkpt lat="47.13906" lon="-1.47692">
        <ele>92</ele>
        <time>2021-08-31T15:42:53.000Z</time>
      </trkpt>
      <trkpt lat="47.13901" lon="-1.47674">
        <ele>92</ele>
        <time>2021-08-31T15:42:55.000Z</time>
      </trkpt>
      <trkpt lat="47.13897" lon="-1.47656">
        <ele>92</ele>
        <time>2021-08-31T15:42:57.000Z</time>
      </trkpt>
      <trkpt lat="47.13893" lon="-1.47639">
        <ele>92</ele>
        <time>2021-08-31T15:42:59.000Z</time>
      </trkpt>
      <trkpt lat="47.13888" lon="-1.47622">
        <ele>93</ele>
        <time>2021-08-31T15:43:01.000Z</time>
      </trkpt>
      <trkpt lat="47.13884" lon="-1.47604">
        <ele>93</ele>
        <time>2021-08-31T15:43:03.000Z</time>
      </trkpt>
      <trkpt lat="47.1388" lon="-1.47587">
        <ele>93</ele>
        <time>2021-08-31T15:43:05.000Z</time>
      </trkpt>
      <trkpt lat="47.13875" lon="-1.47569">
        <ele>93</ele>
        <time>2021-08-31T15:43:07.000Z</time>
      </trkpt>
      <trkpt lat="47.1387" lon="-1.47553">
        <ele>92</ele>
        <time>2021-08-31T15:43:09.000Z</time>
      </trkpt>
      <trkpt lat="47.13866" lon="-1.47536">
        <ele>92</ele>
        <time>2021-08-31T15:43:11.000Z</time>
      </trkpt>
      <trkpt lat="47.13861" lon="-1.4752">
        <ele>92</ele>
        <time>2021-08-31T15:43:13.000Z</time>
      </trkpt>
      <trkpt lat="47.13855" lon="-1.47494">
        <ele>93</ele>
        <time>2021-08-31T15:43:16.000Z</time>
      </trkpt>
      <trkpt lat="47.13848" lon="-1.47469">
        <ele>93</ele>
        <time>2021-08-31T15:43:19.000Z</time>
      </trkpt>
      <trkpt lat="47.13842" lon="-1.47453">
        <ele>93</ele>
        <time>2021-08-31T15:43:21.000Z</time>
      </trkpt>
      <trkpt lat="47.13837" lon="-1.47437">
        <ele>93</ele>
        <time>2021-08-31T15:43:23.000Z</time>
      </trkpt>
      <trkpt lat="47.13833" lon="-1.4742">
        <ele>93</ele>
        <time>2021-08-31T15:43:25.000Z</time>
      </trkpt>
      <trkpt lat="47.13828" lon="-1.47403">
        <ele>93</ele>
        <time>2021-08-31T15:43:27.000Z</time>
      </trkpt>
      <trkpt lat="47.13823" lon="-1.47386">
        <ele>92</ele>
        <time>2021-08-31T15:43:29.000Z</time>
      </trkpt>
      <trkpt lat="47.13818" lon="-1.47368">
        <ele>92</ele>
        <time>2021-08-31T15:43:31.000Z</time>
      </trkpt>
      <trkpt lat="47.13813" lon="-1.4735">
        <ele>92</ele>
        <time>2021-08-31T15:43:33.000Z</time>
      </trkpt>
      <trkpt lat="47.13809" lon="-1.47333">
        <ele>92</ele>
        <time>2021-08-31T15:43:35.000Z</time>
      </trkpt>
      <trkpt lat="47.13804" lon="-1.47315">
        <ele>92</ele>
        <time>2021-08-31T15:43:37.000Z</time>
      </trkpt>
      <trkpt lat="47.13799" lon="-1.47298">
        <ele>91</ele>
        <time>2021-08-31T15:43:39.000Z</time>
      </trkpt>
      <trkpt lat="47.13794" lon="-1.47281">
        <ele>91</ele>
        <time>2021-08-31T15:43:41.000Z</time>
      </trkpt>
      <trkpt lat="47.1379" lon="-1.47264">
        <ele>91</ele>
        <time>2021-08-31T15:43:43.000Z</time>
      </trkpt>
      <trkpt lat="47.13786" lon="-1.47246">
        <ele>91</ele>
        <time>2021-08-31T15:43:45.000Z</time>
      </trkpt>
      <trkpt lat="47.13782" lon="-1.4723">
        <ele>91</ele>
        <time>2021-08-31T15:43:47.000Z</time>
      </trkpt>
      <trkpt lat="47.13779" lon="-1.47212">
        <ele>91</ele>
        <time>2021-08-31T15:43:49.000Z</time>
      </trkpt>
      <trkpt lat="47.13777" lon="-1.47193">
        <ele>91</ele>
        <time>2021-08-31T15:43:51.000Z</time>
      </trkpt>
      <trkpt lat="47.13777" lon="-1.47175">
        <ele>91</ele>
        <time>2021-08-31T15:43:53.000Z</time>
      </trkpt>
      <trkpt lat="47.13777" lon="-1.47156">
        <ele>91</ele>
        <time>2021-08-31T15:43:55.000Z</time>
      </trkpt>
      <trkpt lat="47.13778" lon="-1.47138">
        <ele>91</ele>
        <time>2021-08-31T15:43:57.000Z</time>
      </trkpt>
      <trkpt lat="47.13779" lon="-1.47119">
        <ele>91</ele>
        <time>2021-08-31T15:43:59.000Z</time>
      </trkpt>
      <trkpt lat="47.1378" lon="-1.471">
        <ele>91</ele>
        <time>2021-08-31T15:44:01.000Z</time>
      </trkpt>
      <trkpt lat="47.13782" lon="-1.47082">
        <ele>91</ele>
        <time>2021-08-31T15:44:03.000Z</time>
      </trkpt>
      <trkpt lat="47.13783" lon="-1.47064">
        <ele>91</ele>
        <time>2021-08-31T15:44:05.000Z</time>
      </trkpt>
      <trkpt lat="47.13783" lon="-1.47045">
        <ele>92</ele>
        <time>2021-08-31T15:44:07.000Z</time>
      </trkpt>
      <trkpt lat="47.13782" lon="-1.47027">
        <ele>92</ele>
        <time>2021-08-31T15:44:09.000Z</time>
      </trkpt>
      <trkpt lat="47.13781" lon="-1.4701">
        <ele>92</ele>
        <time>2021-08-31T15:44:11.000Z</time>
      </trkpt>
      <trkpt lat="47.1378" lon="-1.46993">
        <ele>92</ele>
        <time>2021-08-31T15:44:13.000Z</time>
      </trkpt>
      <trkpt lat="47.13778" lon="-1.46975">
        <ele>92</ele>
        <time>2021-08-31T15:44:15.000Z</time>
      </trkpt>
      <trkpt lat="47.13777" lon="-1.46958">
        <ele>93</ele>
        <time>2021-08-31T15:44:17.000Z</time>
      </trkpt>
      <trkpt lat="47.13776" lon="-1.4694">
        <ele>93</ele>
        <time>2021-08-31T15:44:19.000Z</time>
      </trkpt>
      <trkpt lat="47.13773" lon="-1.46922">
        <ele>93</ele>
        <time>2021-08-31T15:44:21.000Z</time>
      </trkpt>
      <trkpt lat="47.13772" lon="-1.46904">
        <ele>93</ele>
        <time>2021-08-31T15:44:23.000Z</time>
      </trkpt>
      <trkpt lat="47.1377" lon="-1.46886">
        <ele>93</ele>
        <time>2021-08-31T15:44:25.000Z</time>
      </trkpt>
      <trkpt lat="47.13768" lon="-1.46869">
        <ele>93</ele>
        <time>2021-08-31T15:44:27.000Z</time>
      </trkpt>
      <trkpt lat="47.13765" lon="-1.46852">
        <ele>93</ele>
        <time>2021-08-31T15:44:29.000Z</time>
      </trkpt>
      <trkpt lat="47.13762" lon="-1.46835">
        <ele>93</ele>
        <time>2021-08-31T15:44:31.000Z</time>
      </trkpt>
      <trkpt lat="47.13759" lon="-1.4682">
        <ele>94</ele>
        <time>2021-08-31T15:44:33.000Z</time>
      </trkpt>
      <trkpt lat="47.13757" lon="-1.46807">
        <ele>94</ele>
        <time>2021-08-31T15:44:35.000Z</time>
      </trkpt>
      <trkpt lat="47.13754" lon="-1.46791">
        <ele>94</ele>
        <time>2021-08-31T15:44:38.000Z</time>
      </trkpt>
      <trkpt lat="47.13751" lon="-1.46778">
        <ele>94</ele>
        <time>2021-08-31T15:44:42.000Z</time>
      </trkpt>
      <trkpt lat="47.13748" lon="-1.46761">
        <ele>94</ele>
        <time>2021-08-31T15:44:46.000Z</time>
      </trkpt>
      <trkpt lat="47.13747" lon="-1.46746">
        <ele>94</ele>
        <time>2021-08-31T15:44:48.000Z</time>
      </trkpt>
      <trkpt lat="47.13742" lon="-1.46729">
        <ele>94</ele>
        <time>2021-08-31T15:44:50.000Z</time>
      </trkpt>
      <trkpt lat="47.13739" lon="-1.46712">
        <ele>94</ele>
        <time>2021-08-31T15:44:52.000Z</time>
      </trkpt>
      <trkpt lat="47.13736" lon="-1.46695">
        <ele>94</ele>
        <time>2021-08-31T15:44:54.000Z</time>
      </trkpt>
      <trkpt lat="47.13732" lon="-1.46677">
        <ele>94</ele>
        <time>2021-08-31T15:44:56.000Z</time>
      </trkpt>
      <trkpt lat="47.13729" lon="-1.4666">
        <ele>94</ele>
        <time>2021-08-31T15:44:58.000Z</time>
      </trkpt>
      <trkpt lat="47.13725" lon="-1.46644">
        <ele>95</ele>
        <time>2021-08-31T15:45:00.000Z</time>
      </trkpt>
      <trkpt lat="47.13722" lon="-1.46627">
        <ele>95</ele>
        <time>2021-08-31T15:45:02.000Z</time>
      </trkpt>
      <trkpt lat="47.13719" lon="-1.4661">
        <ele>95</ele>
        <time>2021-08-31T15:45:04.000Z</time>
      </trkpt>
      <trkpt lat="47.13716" lon="-1.46593">
        <ele>95</ele>
        <time>2021-08-31T15:45:06.000Z</time>
      </trkpt>
      <trkpt lat="47.13712" lon="-1.46577">
        <ele>96</ele>
        <time>2021-08-31T15:45:08.000Z</time>
      </trkpt>
      <trkpt lat="47.13706" lon="-1.46562">
        <ele>96</ele>
        <time>2021-08-31T15:45:10.000Z</time>
      </trkpt>
      <trkpt lat="47.137" lon="-1.46547">
        <ele>96</ele>
        <time>2021-08-31T15:45:12.000Z</time>
      </trkpt>
      <trkpt lat="47.13694" lon="-1.46531">
        <ele>96</ele>
        <time>2021-08-31T15:45:14.000Z</time>
      </trkpt>
      <trkpt lat="47.13689" lon="-1.46516">
        <ele>96</ele>
        <time>2021-08-31T15:45:16.000Z</time>
      </trkpt>
      <trkpt lat="47.13684" lon="-1.465">
        <ele>96</ele>
        <time>2021-08-31T15:45:18.000Z</time>
      </trkpt>
      <trkpt lat="47.13679" lon="-1.46484">
        <ele>97</ele>
        <time>2021-08-31T15:45:20.000Z</time>
      </trkpt>
      <trkpt lat="47.13673" lon="-1.46469">
        <ele>97</ele>
        <time>2021-08-31T15:45:22.000Z</time>
      </trkpt>
      <trkpt lat="47.1367" lon="-1.46452">
        <ele>97</ele>
        <time>2021-08-31T15:45:24.000Z</time>
      </trkpt>
      <trkpt lat="47.1367" lon="-1.46434">
        <ele>97</ele>
        <time>2021-08-31T15:45:26.000Z</time>
      </trkpt>
      <trkpt lat="47.13671" lon="-1.46416">
        <ele>97</ele>
        <time>2021-08-31T15:45:28.000Z</time>
      </trkpt>
      <trkpt lat="47.13674" lon="-1.46399">
        <ele>98</ele>
        <time>2021-08-31T15:45:30.000Z</time>
      </trkpt>
      <trkpt lat="47.13675" lon="-1.46382">
        <ele>98</ele>
        <time>2021-08-31T15:45:32.000Z</time>
      </trkpt>
      <trkpt lat="47.13677" lon="-1.46365">
        <ele>98</ele>
        <time>2021-08-31T15:45:34.000Z</time>
      </trkpt>
      <trkpt lat="47.13675" lon="-1.46347">
        <ele>98</ele>
        <time>2021-08-31T15:45:36.000Z</time>
      </trkpt>
      <trkpt lat="47.13673" lon="-1.4633">
        <ele>98</ele>
        <time>2021-08-31T15:45:38.000Z</time>
      </trkpt>
      <trkpt lat="47.1367" lon="-1.46314">
        <ele>98</ele>
        <time>2021-08-31T15:45:40.000Z</time>
      </trkpt>
      <trkpt lat="47.13667" lon="-1.46297">
        <ele>98</ele>
        <time>2021-08-31T15:45:42.000Z</time>
      </trkpt>
      <trkpt lat="47.13662" lon="-1.46282">
        <ele>99</ele>
        <time>2021-08-31T15:45:44.000Z</time>
      </trkpt>
      <trkpt lat="47.13657" lon="-1.46265">
        <ele>99</ele>
        <time>2021-08-31T15:45:46.000Z</time>
      </trkpt>
      <trkpt lat="47.13652" lon="-1.46249">
        <ele>98</ele>
        <time>2021-08-31T15:45:48.000Z</time>
      </trkpt>
      <trkpt lat="47.13647" lon="-1.46232">
        <ele>98</ele>
        <time>2021-08-31T15:45:50.000Z</time>
      </trkpt>
      <trkpt lat="47.13642" lon="-1.46216">
        <ele>98</ele>
        <time>2021-08-31T15:45:52.000Z</time>
      </trkpt>
      <trkpt lat="47.13638" lon="-1.462">
        <ele>99</ele>
        <time>2021-08-31T15:45:54.000Z</time>
      </trkpt>
      <trkpt lat="47.13633" lon="-1.46184">
        <ele>99</ele>
        <time>2021-08-31T15:45:56.000Z</time>
      </trkpt>
      <trkpt lat="47.13628" lon="-1.46169">
        <ele>99</ele>
        <time>2021-08-31T15:45:58.000Z</time>
      </trkpt>
      <trkpt lat="47.13622" lon="-1.46153">
        <ele>99</ele>
        <time>2021-08-31T15:46:00.000Z</time>
      </trkpt>
      <trkpt lat="47.13617" lon="-1.46137">
        <ele>99</ele>
        <time>2021-08-31T15:46:02.000Z</time>
      </trkpt>
      <trkpt lat="47.13612" lon="-1.46121">
        <ele>99</ele>
        <time>2021-08-31T15:46:04.000Z</time>
      </trkpt>
      <trkpt lat="47.13607" lon="-1.46105">
        <ele>99</ele>
        <time>2021-08-31T15:46:06.000Z</time>
      </trkpt>
      <trkpt lat="47.13601" lon="-1.46088">
        <ele>99</ele>
        <time>2021-08-31T15:46:08.000Z</time>
      </trkpt>
      <trkpt lat="47.13596" lon="-1.46072">
        <ele>99</ele>
        <time>2021-08-31T15:46:10.000Z</time>
      </trkpt>
      <trkpt lat="47.13591" lon="-1.46055">
        <ele>99</ele>
        <time>2021-08-31T15:46:12.000Z</time>
      </trkpt>
      <trkpt lat="47.13587" lon="-1.46039">
        <ele>99</ele>
        <time>2021-08-31T15:46:14.000Z</time>
      </trkpt>
      <trkpt lat="47.13583" lon="-1.46023">
        <ele>99</ele>
        <time>2021-08-31T15:46:16.000Z</time>
      </trkpt>
      <trkpt lat="47.13578" lon="-1.46007">
        <ele>99</ele>
        <time>2021-08-31T15:46:18.000Z</time>
      </trkpt>
      <trkpt lat="47.13573" lon="-1.45991">
        <ele>99</ele>
        <time>2021-08-31T15:46:20.000Z</time>
      </trkpt>
      <trkpt lat="47.13567" lon="-1.45975">
        <ele>99</ele>
        <time>2021-08-31T15:46:22.000Z</time>
      </trkpt>
      <trkpt lat="47.13561" lon="-1.45959">
        <ele>99</ele>
        <time>2021-08-31T15:46:24.000Z</time>
      </trkpt>
      <trkpt lat="47.13554" lon="-1.45944">
        <ele>99</ele>
        <time>2021-08-31T15:46:26.000Z</time>
      </trkpt>
      <trkpt lat="47.13546" lon="-1.4593">
        <ele>99</ele>
        <time>2021-08-31T15:46:28.000Z</time>
      </trkpt>
      <trkpt lat="47.13538" lon="-1.45916">
        <ele>99</ele>
        <time>2021-08-31T15:46:30.000Z</time>
      </trkpt>
      <trkpt lat="47.13529" lon="-1.45903">
        <ele>99</ele>
        <time>2021-08-31T15:46:32.000Z</time>
      </trkpt>
      <trkpt lat="47.13521" lon="-1.4589">
        <ele>99</ele>
        <time>2021-08-31T15:46:34.000Z</time>
      </trkpt>
      <trkpt lat="47.13512" lon="-1.45877">
        <ele>98</ele>
        <time>2021-08-31T15:46:36.000Z</time>
      </trkpt>
      <trkpt lat="47.13503" lon="-1.45864">
        <ele>98</ele>
        <time>2021-08-31T15:46:38.000Z</time>
      </trkpt>
      <trkpt lat="47.13494" lon="-1.45851">
        <ele>98</ele>
        <time>2021-08-31T15:46:40.000Z</time>
      </trkpt>
      <trkpt lat="47.13485" lon="-1.45838">
        <ele>98</ele>
        <time>2021-08-31T15:46:42.000Z</time>
      </trkpt>
      <trkpt lat="47.13476" lon="-1.45825">
        <ele>98</ele>
        <time>2021-08-31T15:46:44.000Z</time>
      </trkpt>
      <trkpt lat="47.13467" lon="-1.45811">
        <ele>98</ele>
        <time>2021-08-31T15:46:46.000Z</time>
      </trkpt>
      <trkpt lat="47.13458" lon="-1.45798">
        <ele>97</ele>
        <time>2021-08-31T15:46:48.000Z</time>
      </trkpt>
      <trkpt lat="47.13448" lon="-1.45783">
        <ele>97</ele>
        <time>2021-08-31T15:46:50.000Z</time>
      </trkpt>
      <trkpt lat="47.13437" lon="-1.45769">
        <ele>97</ele>
        <time>2021-08-31T15:46:52.000Z</time>
      </trkpt>
      <trkpt lat="47.13427" lon="-1.45754">
        <ele>96</ele>
        <time>2021-08-31T15:46:54.000Z</time>
      </trkpt>
      <trkpt lat="47.13417" lon="-1.45739">
        <ele>96</ele>
        <time>2021-08-31T15:46:56.000Z</time>
      </trkpt>
      <trkpt lat="47.13407" lon="-1.45724">
        <ele>96</ele>
        <time>2021-08-31T15:46:58.000Z</time>
      </trkpt>
      <trkpt lat="47.13396" lon="-1.45708">
        <ele>96</ele>
        <time>2021-08-31T15:47:00.000Z</time>
      </trkpt>
      <trkpt lat="47.13386" lon="-1.45693">
        <ele>95</ele>
        <time>2021-08-31T15:47:02.000Z</time>
      </trkpt>
      <trkpt lat="47.13375" lon="-1.45677">
        <ele>95</ele>
        <time>2021-08-31T15:47:04.000Z</time>
      </trkpt>
      <trkpt lat="47.13365" lon="-1.45661">
        <ele>95</ele>
        <time>2021-08-31T15:47:06.000Z</time>
      </trkpt>
      <trkpt lat="47.13355" lon="-1.45645">
        <ele>95</ele>
        <time>2021-08-31T15:47:08.000Z</time>
      </trkpt>
      <trkpt lat="47.13345" lon="-1.4563">
        <ele>95</ele>
        <time>2021-08-31T15:47:10.000Z</time>
      </trkpt>
      <trkpt lat="47.13335" lon="-1.45615">
        <ele>95</ele>
        <time>2021-08-31T15:47:12.000Z</time>
      </trkpt>
      <trkpt lat="47.13327" lon="-1.456">
        <ele>95</ele>
        <time>2021-08-31T15:47:14.000Z</time>
      </trkpt>
      <trkpt lat="47.13318" lon="-1.45586">
        <ele>95</ele>
        <time>2021-08-31T15:47:16.000Z</time>
      </trkpt>
      <trkpt lat="47.13309" lon="-1.45571">
        <ele>95</ele>
        <time>2021-08-31T15:47:18.000Z</time>
      </trkpt>
      <trkpt lat="47.133" lon="-1.45557">
        <ele>96</ele>
        <time>2021-08-31T15:47:20.000Z</time>
      </trkpt>
      <trkpt lat="47.13291" lon="-1.45544">
        <ele>96</ele>
        <time>2021-08-31T15:47:22.000Z</time>
      </trkpt>
      <trkpt lat="47.13283" lon="-1.4553">
        <ele>96</ele>
        <time>2021-08-31T15:47:24.000Z</time>
      </trkpt>
      <trkpt lat="47.13274" lon="-1.45516">
        <ele>96</ele>
        <time>2021-08-31T15:47:26.000Z</time>
      </trkpt>
      <trkpt lat="47.13266" lon="-1.45502">
        <ele>97</ele>
        <time>2021-08-31T15:47:28.000Z</time>
      </trkpt>
      <trkpt lat="47.13257" lon="-1.45489">
        <ele>97</ele>
        <time>2021-08-31T15:47:30.000Z</time>
      </trkpt>
      <trkpt lat="47.13249" lon="-1.45475">
        <ele>97</ele>
        <time>2021-08-31T15:47:32.000Z</time>
      </trkpt>
      <trkpt lat="47.1324" lon="-1.45462">
        <ele>97</ele>
        <time>2021-08-31T15:47:34.000Z</time>
      </trkpt>
      <trkpt lat="47.13231" lon="-1.45449">
        <ele>97</ele>
        <time>2021-08-31T15:47:36.000Z</time>
      </trkpt>
      <trkpt lat="47.13222" lon="-1.45435">
        <ele>97</ele>
        <time>2021-08-31T15:47:38.000Z</time>
      </trkpt>
      <trkpt lat="47.13213" lon="-1.45422">
        <ele>98</ele>
        <time>2021-08-31T15:47:40.000Z</time>
      </trkpt>
      <trkpt lat="47.13205" lon="-1.45409">
        <ele>98</ele>
        <time>2021-08-31T15:47:42.000Z</time>
      </trkpt>
      <trkpt lat="47.13195" lon="-1.45396">
        <ele>98</ele>
        <time>2021-08-31T15:47:44.000Z</time>
      </trkpt>
      <trkpt lat="47.13185" lon="-1.45384">
        <ele>98</ele>
        <time>2021-08-31T15:47:46.000Z</time>
      </trkpt>
      <trkpt lat="47.13176" lon="-1.45373">
        <ele>98</ele>
        <time>2021-08-31T15:47:48.000Z</time>
      </trkpt>
      <trkpt lat="47.13166" lon="-1.45362">
        <ele>98</ele>
        <time>2021-08-31T15:47:50.000Z</time>
      </trkpt>
      <trkpt lat="47.13157" lon="-1.45351">
        <ele>98</ele>
        <time>2021-08-31T15:47:52.000Z</time>
      </trkpt>
      <trkpt lat="47.13147" lon="-1.45341">
        <ele>97</ele>
        <time>2021-08-31T15:47:54.000Z</time>
      </trkpt>
      <trkpt lat="47.13137" lon="-1.45332">
        <ele>97</ele>
        <time>2021-08-31T15:47:56.000Z</time>
      </trkpt>
      <trkpt lat="47.13127" lon="-1.45323">
        <ele>97</ele>
        <time>2021-08-31T15:47:58.000Z</time>
      </trkpt>
      <trkpt lat="47.13116" lon="-1.45313">
        <ele>98</ele>
        <time>2021-08-31T15:48:00.000Z</time>
      </trkpt>
      <trkpt lat="47.13105" lon="-1.45303">
        <ele>98</ele>
        <time>2021-08-31T15:48:02.000Z</time>
      </trkpt>
      <trkpt lat="47.13095" lon="-1.45294">
        <ele>98</ele>
        <time>2021-08-31T15:48:04.000Z</time>
      </trkpt>
      <trkpt lat="47.13084" lon="-1.45286">
        <ele>98</ele>
        <time>2021-08-31T15:48:06.000Z</time>
      </trkpt>
      <trkpt lat="47.13077" lon="-1.45272">
        <ele>98</ele>
        <time>2021-08-31T15:48:08.000Z</time>
      </trkpt>
      <trkpt lat="47.13076" lon="-1.45254">
        <ele>98</ele>
        <time>2021-08-31T15:48:10.000Z</time>
      </trkpt>
      <trkpt lat="47.13078" lon="-1.45235">
        <ele>98</ele>
        <time>2021-08-31T15:48:12.000Z</time>
      </trkpt>
      <trkpt lat="47.1308" lon="-1.45217">
        <ele>97</ele>
        <time>2021-08-31T15:48:14.000Z</time>
      </trkpt>
      <trkpt lat="47.13081" lon="-1.45199">
        <ele>98</ele>
        <time>2021-08-31T15:48:16.000Z</time>
      </trkpt>
      <trkpt lat="47.13085" lon="-1.45181">
        <ele>98</ele>
        <time>2021-08-31T15:48:18.000Z</time>
      </trkpt>
      <trkpt lat="47.13089" lon="-1.45163">
        <ele>98</ele>
        <time>2021-08-31T15:48:20.000Z</time>
      </trkpt>
      <trkpt lat="47.13093" lon="-1.45145">
        <ele>98</ele>
        <time>2021-08-31T15:48:22.000Z</time>
      </trkpt>
      <trkpt lat="47.13097" lon="-1.45127">
        <ele>97</ele>
        <time>2021-08-31T15:48:24.000Z</time>
      </trkpt>
      <trkpt lat="47.13101" lon="-1.45108">
        <ele>97</ele>
        <time>2021-08-31T15:48:26.000Z</time>
      </trkpt>
      <trkpt lat="47.13104" lon="-1.4509">
        <ele>96</ele>
        <time>2021-08-31T15:48:28.000Z</time>
      </trkpt>
      <trkpt lat="47.13106" lon="-1.45071">
        <ele>96</ele>
        <time>2021-08-31T15:48:30.000Z</time>
      </trkpt>
      <trkpt lat="47.13107" lon="-1.45052">
        <ele>96</ele>
        <time>2021-08-31T15:48:32.000Z</time>
      </trkpt>
      <trkpt lat="47.13109" lon="-1.45034">
        <ele>96</ele>
        <time>2021-08-31T15:48:34.000Z</time>
      </trkpt>
      <trkpt lat="47.1311" lon="-1.45016">
        <ele>96</ele>
        <time>2021-08-31T15:48:36.000Z</time>
      </trkpt>
      <trkpt lat="47.13112" lon="-1.44998">
        <ele>96</ele>
        <time>2021-08-31T15:48:38.000Z</time>
      </trkpt>
      <trkpt lat="47.13114" lon="-1.4498">
        <ele>95</ele>
        <time>2021-08-31T15:48:40.000Z</time>
      </trkpt>
      <trkpt lat="47.13117" lon="-1.44962">
        <ele>95</ele>
        <time>2021-08-31T15:48:42.000Z</time>
      </trkpt>
      <trkpt lat="47.13119" lon="-1.44944">
        <ele>95</ele>
        <time>2021-08-31T15:48:44.000Z</time>
      </trkpt>
      <trkpt lat="47.13121" lon="-1.44926">
        <ele>95</ele>
        <time>2021-08-31T15:48:46.000Z</time>
      </trkpt>
      <trkpt lat="47.13124" lon="-1.44908">
        <ele>95</ele>
        <time>2021-08-31T15:48:48.000Z</time>
      </trkpt>
      <trkpt lat="47.13126" lon="-1.4489">
        <ele>95</ele>
        <time>2021-08-31T15:48:50.000Z</time>
      </trkpt>
      <trkpt lat="47.13129" lon="-1.44872">
        <ele>95</ele>
        <time>2021-08-31T15:48:52.000Z</time>
      </trkpt>
      <trkpt lat="47.13131" lon="-1.44854">
        <ele>95</ele>
        <time>2021-08-31T15:48:54.000Z</time>
      </trkpt>
      <trkpt lat="47.13132" lon="-1.44835">
        <ele>95</ele>
        <time>2021-08-31T15:48:56.000Z</time>
      </trkpt>
      <trkpt lat="47.13131" lon="-1.44817">
        <ele>95</ele>
        <time>2021-08-31T15:48:58.000Z</time>
      </trkpt>
      <trkpt lat="47.13128" lon="-1.44797">
        <ele>94</ele>
        <time>2021-08-31T15:49:00.000Z</time>
      </trkpt>
      <trkpt lat="47.13124" lon="-1.44779">
        <ele>95</ele>
        <time>2021-08-31T15:49:02.000Z</time>
      </trkpt>
      <trkpt lat="47.1312" lon="-1.44762">
        <ele>94</ele>
        <time>2021-08-31T15:49:04.000Z</time>
      </trkpt>
      <trkpt lat="47.13116" lon="-1.44744">
        <ele>95</ele>
        <time>2021-08-31T15:49:06.000Z</time>
      </trkpt>
      <trkpt lat="47.13112" lon="-1.44726">
        <ele>95</ele>
        <time>2021-08-31T15:49:08.000Z</time>
      </trkpt>
      <trkpt lat="47.13109" lon="-1.44709">
        <ele>95</ele>
        <time>2021-08-31T15:49:10.000Z</time>
      </trkpt>
      <trkpt lat="47.13106" lon="-1.4469">
        <ele>95</ele>
        <time>2021-08-31T15:49:12.000Z</time>
      </trkpt>
      <trkpt lat="47.13104" lon="-1.44671">
        <ele>94</ele>
        <time>2021-08-31T15:49:14.000Z</time>
      </trkpt>
      <trkpt lat="47.13103" lon="-1.44653">
        <ele>94</ele>
        <time>2021-08-31T15:49:16.000Z</time>
      </trkpt>
      <trkpt lat="47.13102" lon="-1.44635">
        <ele>95</ele>
        <time>2021-08-31T15:49:18.000Z</time>
      </trkpt>
      <trkpt lat="47.13101" lon="-1.44617">
        <ele>95</ele>
        <time>2021-08-31T15:49:20.000Z</time>
      </trkpt>
      <trkpt lat="47.13101" lon="-1.446">
        <ele>95</ele>
        <time>2021-08-31T15:49:22.000Z</time>
      </trkpt>
      <trkpt lat="47.131" lon="-1.44583">
        <ele>95</ele>
        <time>2021-08-31T15:49:24.000Z</time>
      </trkpt>
      <trkpt lat="47.13099" lon="-1.44566">
        <ele>95</ele>
        <time>2021-08-31T15:49:26.000Z</time>
      </trkpt>
      <trkpt lat="47.13097" lon="-1.44548">
        <ele>95</ele>
        <time>2021-08-31T15:49:28.000Z</time>
      </trkpt>
      <trkpt lat="47.13093" lon="-1.44531">
        <ele>95</ele>
        <time>2021-08-31T15:49:30.000Z</time>
      </trkpt>
      <trkpt lat="47.13088" lon="-1.44515">
        <ele>95</ele>
        <time>2021-08-31T15:49:32.000Z</time>
      </trkpt>
      <trkpt lat="47.13083" lon="-1.44499">
        <ele>95</ele>
        <time>2021-08-31T15:49:34.000Z</time>
      </trkpt>
      <trkpt lat="47.13078" lon="-1.44483">
        <ele>95</ele>
        <time>2021-08-31T15:49:36.000Z</time>
      </trkpt>
      <trkpt lat="47.13073" lon="-1.44468">
        <ele>95</ele>
        <time>2021-08-31T15:49:38.000Z</time>
      </trkpt>
      <trkpt lat="47.13067" lon="-1.44452">
        <ele>95</ele>
        <time>2021-08-31T15:49:40.000Z</time>
      </trkpt>
      <trkpt lat="47.13062" lon="-1.44437">
        <ele>95</ele>
        <time>2021-08-31T15:49:42.000Z</time>
      </trkpt>
      <trkpt lat="47.13057" lon="-1.44421">
        <ele>95</ele>
        <time>2021-08-31T15:49:44.000Z</time>
      </trkpt>
      <trkpt lat="47.13053" lon="-1.44406">
        <ele>95</ele>
        <time>2021-08-31T15:49:46.000Z</time>
      </trkpt>
      <trkpt lat="47.13049" lon="-1.44389">
        <ele>95</ele>
        <time>2021-08-31T15:49:48.000Z</time>
      </trkpt>
      <trkpt lat="47.13046" lon="-1.44372">
        <ele>95</ele>
        <time>2021-08-31T15:49:50.000Z</time>
      </trkpt>
      <trkpt lat="47.13045" lon="-1.44356">
        <ele>95</ele>
        <time>2021-08-31T15:49:52.000Z</time>
      </trkpt>
      <trkpt lat="47.13042" lon="-1.44341">
        <ele>95</ele>
        <time>2021-08-31T15:49:54.000Z</time>
      </trkpt>
      <trkpt lat="47.13039" lon="-1.44323">
        <ele>96</ele>
        <time>2021-08-31T15:49:57.000Z</time>
      </trkpt>
      <trkpt lat="47.13037" lon="-1.44308">
        <ele>96</ele>
        <time>2021-08-31T15:49:59.000Z</time>
      </trkpt>
      <trkpt lat="47.13033" lon="-1.4429">
        <ele>96</ele>
        <time>2021-08-31T15:50:01.000Z</time>
      </trkpt>
      <trkpt lat="47.13029" lon="-1.44273">
        <ele>96</ele>
        <time>2021-08-31T15:50:03.000Z</time>
      </trkpt>
      <trkpt lat="47.13025" lon="-1.44256">
        <ele>96</ele>
        <time>2021-08-31T15:50:05.000Z</time>
      </trkpt>
      <trkpt lat="47.13021" lon="-1.44239">
        <ele>96</ele>
        <time>2021-08-31T15:50:07.000Z</time>
      </trkpt>
      <trkpt lat="47.13017" lon="-1.44221">
        <ele>96</ele>
        <time>2021-08-31T15:50:09.000Z</time>
      </trkpt>
      <trkpt lat="47.13012" lon="-1.44204">
        <ele>96</ele>
        <time>2021-08-31T15:50:11.000Z</time>
      </trkpt>
      <trkpt lat="47.13008" lon="-1.44187">
        <ele>96</ele>
        <time>2021-08-31T15:50:13.000Z</time>
      </trkpt>
      <trkpt lat="47.13003" lon="-1.4417">
        <ele>96</ele>
        <time>2021-08-31T15:50:15.000Z</time>
      </trkpt>
      <trkpt lat="47.12997" lon="-1.44154">
        <ele>96</ele>
        <time>2021-08-31T15:50:17.000Z</time>
      </trkpt>
      <trkpt lat="47.12991" lon="-1.44138">
        <ele>96</ele>
        <time>2021-08-31T15:50:19.000Z</time>
      </trkpt>
      <trkpt lat="47.12985" lon="-1.44122">
        <ele>96</ele>
        <time>2021-08-31T15:50:21.000Z</time>
      </trkpt>
      <trkpt lat="47.12978" lon="-1.44106">
        <ele>96</ele>
        <time>2021-08-31T15:50:23.000Z</time>
      </trkpt>
      <trkpt lat="47.12972" lon="-1.44091">
        <ele>96</ele>
        <time>2021-08-31T15:50:25.000Z</time>
      </trkpt>
      <trkpt lat="47.12966" lon="-1.44075">
        <ele>96</ele>
        <time>2021-08-31T15:50:27.000Z</time>
      </trkpt>
      <trkpt lat="47.1296" lon="-1.4406">
        <ele>96</ele>
        <time>2021-08-31T15:50:29.000Z</time>
      </trkpt>
      <trkpt lat="47.12955" lon="-1.44045">
        <ele>97</ele>
        <time>2021-08-31T15:50:31.000Z</time>
      </trkpt>
      <trkpt lat="47.12948" lon="-1.4403">
        <ele>96</ele>
        <time>2021-08-31T15:50:33.000Z</time>
      </trkpt>
      <trkpt lat="47.12942" lon="-1.44015">
        <ele>97</ele>
        <time>2021-08-31T15:50:35.000Z</time>
      </trkpt>
      <trkpt lat="47.12936" lon="-1.44">
        <ele>97</ele>
        <time>2021-08-31T15:50:37.000Z</time>
      </trkpt>
      <trkpt lat="47.1293" lon="-1.43986">
        <ele>97</ele>
        <time>2021-08-31T15:50:39.000Z</time>
      </trkpt>
      <trkpt lat="47.12924" lon="-1.43972">
        <ele>96</ele>
        <time>2021-08-31T15:50:41.000Z</time>
      </trkpt>
      <trkpt lat="47.12918" lon="-1.43957">
        <ele>96</ele>
        <time>2021-08-31T15:50:43.000Z</time>
      </trkpt>
      <trkpt lat="47.12911" lon="-1.43943">
        <ele>96</ele>
        <time>2021-08-31T15:50:45.000Z</time>
      </trkpt>
      <trkpt lat="47.12905" lon="-1.43928">
        <ele>97</ele>
        <time>2021-08-31T15:50:47.000Z</time>
      </trkpt>
      <trkpt lat="47.129" lon="-1.43913">
        <ele>97</ele>
        <time>2021-08-31T15:50:49.000Z</time>
      </trkpt>
      <trkpt lat="47.12893" lon="-1.43899">
        <ele>97</ele>
        <time>2021-08-31T15:50:51.000Z</time>
      </trkpt>
      <trkpt lat="47.12888" lon="-1.43884">
        <ele>97</ele>
        <time>2021-08-31T15:50:53.000Z</time>
      </trkpt>
      <trkpt lat="47.12882" lon="-1.43868">
        <ele>97</ele>
        <time>2021-08-31T15:50:55.000Z</time>
      </trkpt>
      <trkpt lat="47.12877" lon="-1.43853">
        <ele>97</ele>
        <time>2021-08-31T15:50:57.000Z</time>
      </trkpt>
      <trkpt lat="47.12872" lon="-1.43836">
        <ele>97</ele>
        <time>2021-08-31T15:50:59.000Z</time>
      </trkpt>
      <trkpt lat="47.12867" lon="-1.4382">
        <ele>98</ele>
        <time>2021-08-31T15:51:01.000Z</time>
      </trkpt>
      <trkpt lat="47.12862" lon="-1.43804">
        <ele>98</ele>
        <time>2021-08-31T15:51:03.000Z</time>
      </trkpt>
      <trkpt lat="47.12857" lon="-1.43787">
        <ele>98</ele>
        <time>2021-08-31T15:51:05.000Z</time>
      </trkpt>
      <trkpt lat="47.12853" lon="-1.4377">
        <ele>98</ele>
        <time>2021-08-31T15:51:07.000Z</time>
      </trkpt>
      <trkpt lat="47.12848" lon="-1.43754">
        <ele>99</ele>
        <time>2021-08-31T15:51:09.000Z</time>
      </trkpt>
      <trkpt lat="47.12843" lon="-1.43738">
        <ele>99</ele>
        <time>2021-08-31T15:51:11.000Z</time>
      </trkpt>
      <trkpt lat="47.12838" lon="-1.43723">
        <ele>99</ele>
        <time>2021-08-31T15:51:13.000Z</time>
      </trkpt>
      <trkpt lat="47.12833" lon="-1.43707">
        <ele>99</ele>
        <time>2021-08-31T15:51:15.000Z</time>
      </trkpt>
      <trkpt lat="47.12828" lon="-1.43693">
        <ele>100</ele>
        <time>2021-08-31T15:51:17.000Z</time>
      </trkpt>
      <trkpt lat="47.12823" lon="-1.43678">
        <ele>100</ele>
        <time>2021-08-31T15:51:19.000Z</time>
      </trkpt>
      <trkpt lat="47.12817" lon="-1.43663">
        <ele>100</ele>
        <time>2021-08-31T15:51:21.000Z</time>
      </trkpt>
      <trkpt lat="47.12811" lon="-1.43648">
        <ele>100</ele>
        <time>2021-08-31T15:51:23.000Z</time>
      </trkpt>
      <trkpt lat="47.12806" lon="-1.43634">
        <ele>100</ele>
        <time>2021-08-31T15:51:25.000Z</time>
      </trkpt>
      <trkpt lat="47.128" lon="-1.4362">
        <ele>100</ele>
        <time>2021-08-31T15:51:27.000Z</time>
      </trkpt>
      <trkpt lat="47.12796" lon="-1.43604">
        <ele>100</ele>
        <time>2021-08-31T15:51:29.000Z</time>
      </trkpt>
      <trkpt lat="47.12791" lon="-1.43588">
        <ele>100</ele>
        <time>2021-08-31T15:51:31.000Z</time>
      </trkpt>
      <trkpt lat="47.12786" lon="-1.43571">
        <ele>100</ele>
        <time>2021-08-31T15:51:33.000Z</time>
      </trkpt>
      <trkpt lat="47.12781" lon="-1.43555">
        <ele>100</ele>
        <time>2021-08-31T15:51:35.000Z</time>
      </trkpt>
      <trkpt lat="47.12776" lon="-1.43538">
        <ele>100</ele>
        <time>2021-08-31T15:51:37.000Z</time>
      </trkpt>
      <trkpt lat="47.12771" lon="-1.43522">
        <ele>101</ele>
        <time>2021-08-31T15:51:39.000Z</time>
      </trkpt>
      <trkpt lat="47.12765" lon="-1.43506">
        <ele>100</ele>
        <time>2021-08-31T15:51:41.000Z</time>
      </trkpt>
      <trkpt lat="47.1276" lon="-1.4349">
        <ele>101</ele>
        <time>2021-08-31T15:51:43.000Z</time>
      </trkpt>
      <trkpt lat="47.12754" lon="-1.43475">
        <ele>101</ele>
        <time>2021-08-31T15:51:45.000Z</time>
      </trkpt>
      <trkpt lat="47.12748" lon="-1.4346">
        <ele>101</ele>
        <time>2021-08-31T15:51:47.000Z</time>
      </trkpt>
      <trkpt lat="47.12742" lon="-1.43445">
        <ele>102</ele>
        <time>2021-08-31T15:51:49.000Z</time>
      </trkpt>
      <trkpt lat="47.12735" lon="-1.4343">
        <ele>102</ele>
        <time>2021-08-31T15:51:51.000Z</time>
      </trkpt>
      <trkpt lat="47.12729" lon="-1.43415">
        <ele>102</ele>
        <time>2021-08-31T15:51:53.000Z</time>
      </trkpt>
      <trkpt lat="47.12723" lon="-1.434">
        <ele>102</ele>
        <time>2021-08-31T15:51:55.000Z</time>
      </trkpt>
      <trkpt lat="47.12716" lon="-1.43385">
        <ele>102</ele>
        <time>2021-08-31T15:51:57.000Z</time>
      </trkpt>
      <trkpt lat="47.1271" lon="-1.4337">
        <ele>102</ele>
        <time>2021-08-31T15:51:59.000Z</time>
      </trkpt>
      <trkpt lat="47.12704" lon="-1.43355">
        <ele>102</ele>
        <time>2021-08-31T15:52:01.000Z</time>
      </trkpt>
      <trkpt lat="47.12697" lon="-1.43341">
        <ele>102</ele>
        <time>2021-08-31T15:52:03.000Z</time>
      </trkpt>
      <trkpt lat="47.12691" lon="-1.43326">
        <ele>102</ele>
        <time>2021-08-31T15:52:05.000Z</time>
      </trkpt>
      <trkpt lat="47.12685" lon="-1.43311">
        <ele>102</ele>
        <time>2021-08-31T15:52:07.000Z</time>
      </trkpt>
      <trkpt lat="47.12679" lon="-1.43296">
        <ele>102</ele>
        <time>2021-08-31T15:52:09.000Z</time>
      </trkpt>
      <trkpt lat="47.12673" lon="-1.4328">
        <ele>102</ele>
        <time>2021-08-31T15:52:11.000Z</time>
      </trkpt>
      <trkpt lat="47.12668" lon="-1.43264">
        <ele>103</ele>
        <time>2021-08-31T15:52:13.000Z</time>
      </trkpt>
      <trkpt lat="47.12663" lon="-1.43248">
        <ele>103</ele>
        <time>2021-08-31T15:52:15.000Z</time>
      </trkpt>
      <trkpt lat="47.12659" lon="-1.43232">
        <ele>103</ele>
        <time>2021-08-31T15:52:17.000Z</time>
      </trkpt>
      <trkpt lat="47.12655" lon="-1.43214">
        <ele>102</ele>
        <time>2021-08-31T15:52:19.000Z</time>
      </trkpt>
      <trkpt lat="47.12651" lon="-1.43197">
        <ele>103</ele>
        <time>2021-08-31T15:52:21.000Z</time>
      </trkpt>
      <trkpt lat="47.12648" lon="-1.43181">
        <ele>103</ele>
        <time>2021-08-31T15:52:23.000Z</time>
      </trkpt>
      <trkpt lat="47.12643" lon="-1.43164">
        <ele>103</ele>
        <time>2021-08-31T15:52:25.000Z</time>
      </trkpt>
      <trkpt lat="47.12638" lon="-1.43148">
        <ele>103</ele>
        <time>2021-08-31T15:52:27.000Z</time>
      </trkpt>
      <trkpt lat="47.12632" lon="-1.43133">
        <ele>103</ele>
        <time>2021-08-31T15:52:29.000Z</time>
      </trkpt>
      <trkpt lat="47.12626" lon="-1.43117">
        <ele>103</ele>
        <time>2021-08-31T15:52:31.000Z</time>
      </trkpt>
      <trkpt lat="47.1262" lon="-1.43102">
        <ele>103</ele>
        <time>2021-08-31T15:52:33.000Z</time>
      </trkpt>
      <trkpt lat="47.12614" lon="-1.43087">
        <ele>103</ele>
        <time>2021-08-31T15:52:35.000Z</time>
      </trkpt>
      <trkpt lat="47.12608" lon="-1.43072">
        <ele>103</ele>
        <time>2021-08-31T15:52:37.000Z</time>
      </trkpt>
      <trkpt lat="47.12602" lon="-1.43056">
        <ele>103</ele>
        <time>2021-08-31T15:52:39.000Z</time>
      </trkpt>
      <trkpt lat="47.12595" lon="-1.43041">
        <ele>103</ele>
        <time>2021-08-31T15:52:41.000Z</time>
      </trkpt>
      <trkpt lat="47.12589" lon="-1.43025">
        <ele>103</ele>
        <time>2021-08-31T15:52:43.000Z</time>
      </trkpt>
      <trkpt lat="47.12582" lon="-1.43009">
        <ele>103</ele>
        <time>2021-08-31T15:52:45.000Z</time>
      </trkpt>
      <trkpt lat="47.12576" lon="-1.42994">
        <ele>103</ele>
        <time>2021-08-31T15:52:47.000Z</time>
      </trkpt>
      <trkpt lat="47.12569" lon="-1.42979">
        <ele>103</ele>
        <time>2021-08-31T15:52:49.000Z</time>
      </trkpt>
      <trkpt lat="47.12562" lon="-1.42964">
        <ele>103</ele>
        <time>2021-08-31T15:52:51.000Z</time>
      </trkpt>
      <trkpt lat="47.12555" lon="-1.42949">
        <ele>102</ele>
        <time>2021-08-31T15:52:53.000Z</time>
      </trkpt>
      <trkpt lat="47.12548" lon="-1.42934">
        <ele>102</ele>
        <time>2021-08-31T15:52:55.000Z</time>
      </trkpt>
      <trkpt lat="47.12541" lon="-1.4292">
        <ele>102</ele>
        <time>2021-08-31T15:52:57.000Z</time>
      </trkpt>
      <trkpt lat="47.12534" lon="-1.42905">
        <ele>102</ele>
        <time>2021-08-31T15:52:59.000Z</time>
      </trkpt>
      <trkpt lat="47.12526" lon="-1.4289">
        <ele>102</ele>
        <time>2021-08-31T15:53:01.000Z</time>
      </trkpt>
      <trkpt lat="47.12519" lon="-1.42877">
        <ele>102</ele>
        <time>2021-08-31T15:53:03.000Z</time>
      </trkpt>
      <trkpt lat="47.12512" lon="-1.42861">
        <ele>102</ele>
        <time>2021-08-31T15:53:05.000Z</time>
      </trkpt>
      <trkpt lat="47.12504" lon="-1.42846">
        <ele>102</ele>
        <time>2021-08-31T15:53:07.000Z</time>
      </trkpt>
      <trkpt lat="47.12497" lon="-1.42831">
        <ele>102</ele>
        <time>2021-08-31T15:53:09.000Z</time>
      </trkpt>
      <trkpt lat="47.1249" lon="-1.42817">
        <ele>102</ele>
        <time>2021-08-31T15:53:11.000Z</time>
      </trkpt>
      <trkpt lat="47.12483" lon="-1.42802">
        <ele>102</ele>
        <time>2021-08-31T15:53:13.000Z</time>
      </trkpt>
      <trkpt lat="47.12475" lon="-1.42788">
        <ele>102</ele>
        <time>2021-08-31T15:53:15.000Z</time>
      </trkpt>
      <trkpt lat="47.12469" lon="-1.42774">
        <ele>102</ele>
        <time>2021-08-31T15:53:17.000Z</time>
      </trkpt>
      <trkpt lat="47.12463" lon="-1.42758">
        <ele>102</ele>
        <time>2021-08-31T15:53:19.000Z</time>
      </trkpt>
      <trkpt lat="47.12459" lon="-1.42741">
        <ele>102</ele>
        <time>2021-08-31T15:53:21.000Z</time>
      </trkpt>
      <trkpt lat="47.12455" lon="-1.42724">
        <ele>102</ele>
        <time>2021-08-31T15:53:23.000Z</time>
      </trkpt>
      <trkpt lat="47.12454" lon="-1.42706">
        <ele>102</ele>
        <time>2021-08-31T15:53:25.000Z</time>
      </trkpt>
      <trkpt lat="47.12455" lon="-1.42687">
        <ele>102</ele>
        <time>2021-08-31T15:53:27.000Z</time>
      </trkpt>
      <trkpt lat="47.12455" lon="-1.42669">
        <ele>102</ele>
        <time>2021-08-31T15:53:29.000Z</time>
      </trkpt>
      <trkpt lat="47.12456" lon="-1.42651">
        <ele>101</ele>
        <time>2021-08-31T15:53:31.000Z</time>
      </trkpt>
      <trkpt lat="47.12457" lon="-1.42634">
        <ele>101</ele>
        <time>2021-08-31T15:53:33.000Z</time>
      </trkpt>
      <trkpt lat="47.12458" lon="-1.42616">
        <ele>101</ele>
        <time>2021-08-31T15:53:35.000Z</time>
      </trkpt>
      <trkpt lat="47.12457" lon="-1.42598">
        <ele>101</ele>
        <time>2021-08-31T15:53:37.000Z</time>
      </trkpt>
      <trkpt lat="47.12456" lon="-1.4258">
        <ele>101</ele>
        <time>2021-08-31T15:53:39.000Z</time>
      </trkpt>
      <trkpt lat="47.12456" lon="-1.42563">
        <ele>101</ele>
        <time>2021-08-31T15:53:41.000Z</time>
      </trkpt>
      <trkpt lat="47.12455" lon="-1.42546">
        <ele>101</ele>
        <time>2021-08-31T15:53:43.000Z</time>
      </trkpt>
      <trkpt lat="47.12454" lon="-1.42529">
        <ele>101</ele>
        <time>2021-08-31T15:53:45.000Z</time>
      </trkpt>
      <trkpt lat="47.12454" lon="-1.42511">
        <ele>101</ele>
        <time>2021-08-31T15:53:47.000Z</time>
      </trkpt>
      <trkpt lat="47.12453" lon="-1.42493">
        <ele>101</ele>
        <time>2021-08-31T15:53:49.000Z</time>
      </trkpt>
      <trkpt lat="47.12452" lon="-1.42475">
        <ele>102</ele>
        <time>2021-08-31T15:53:51.000Z</time>
      </trkpt>
      <trkpt lat="47.1245" lon="-1.42458">
        <ele>101</ele>
        <time>2021-08-31T15:53:53.000Z</time>
      </trkpt>
      <trkpt lat="47.12448" lon="-1.42442">
        <ele>101</ele>
        <time>2021-08-31T15:53:55.000Z</time>
      </trkpt>
      <trkpt lat="47.12445" lon="-1.42426">
        <ele>102</ele>
        <time>2021-08-31T15:53:57.000Z</time>
      </trkpt>
      <trkpt lat="47.12443" lon="-1.42409">
        <ele>101</ele>
        <time>2021-08-31T15:53:59.000Z</time>
      </trkpt>
      <trkpt lat="47.12441" lon="-1.42392">
        <ele>101</ele>
        <time>2021-08-31T15:54:01.000Z</time>
      </trkpt>
      <trkpt lat="47.12437" lon="-1.42376">
        <ele>101</ele>
        <time>2021-08-31T15:54:03.000Z</time>
      </trkpt>
      <trkpt lat="47.12431" lon="-1.4236">
        <ele>101</ele>
        <time>2021-08-31T15:54:05.000Z</time>
      </trkpt>
      <trkpt lat="47.1243" lon="-1.42343">
        <ele>101</ele>
        <time>2021-08-31T15:54:07.000Z</time>
      </trkpt>
      <trkpt lat="47.12429" lon="-1.42326">
        <ele>101</ele>
        <time>2021-08-31T15:54:09.000Z</time>
      </trkpt>
      <trkpt lat="47.12425" lon="-1.42309">
        <ele>101</ele>
        <time>2021-08-31T15:54:11.000Z</time>
      </trkpt>
      <trkpt lat="47.12421" lon="-1.42292">
        <ele>101</ele>
        <time>2021-08-31T15:54:13.000Z</time>
      </trkpt>
      <trkpt lat="47.12417" lon="-1.42275">
        <ele>101</ele>
        <time>2021-08-31T15:54:15.000Z</time>
      </trkpt>
      <trkpt lat="47.12413" lon="-1.42258">
        <ele>101</ele>
        <time>2021-08-31T15:54:17.000Z</time>
      </trkpt>
      <trkpt lat="47.12408" lon="-1.42241">
        <ele>100</ele>
        <time>2021-08-31T15:54:19.000Z</time>
      </trkpt>
      <trkpt lat="47.12404" lon="-1.42223">
        <ele>100</ele>
        <time>2021-08-31T15:54:21.000Z</time>
      </trkpt>
      <trkpt lat="47.124" lon="-1.42206">
        <ele>101</ele>
        <time>2021-08-31T15:54:23.000Z</time>
      </trkpt>
      <trkpt lat="47.12396" lon="-1.42189">
        <ele>101</ele>
        <time>2021-08-31T15:54:25.000Z</time>
      </trkpt>
      <trkpt lat="47.12392" lon="-1.42172">
        <ele>101</ele>
        <time>2021-08-31T15:54:27.000Z</time>
      </trkpt>
      <trkpt lat="47.12389" lon="-1.42155">
        <ele>100</ele>
        <time>2021-08-31T15:54:29.000Z</time>
      </trkpt>
      <trkpt lat="47.12384" lon="-1.42139">
        <ele>100</ele>
        <time>2021-08-31T15:54:31.000Z</time>
      </trkpt>
      <trkpt lat="47.12378" lon="-1.42123">
        <ele>101</ele>
        <time>2021-08-31T15:54:33.000Z</time>
      </trkpt>
      <trkpt lat="47.1237" lon="-1.42109">
        <ele>100</ele>
        <time>2021-08-31T15:54:35.000Z</time>
      </trkpt>
      <trkpt lat="47.12362" lon="-1.42093">
        <ele>100</ele>
        <time>2021-08-31T15:54:37.000Z</time>
      </trkpt>
      <trkpt lat="47.12354" lon="-1.42079">
        <ele>100</ele>
        <time>2021-08-31T15:54:39.000Z</time>
      </trkpt>
      <trkpt lat="47.12346" lon="-1.42066">
        <ele>100</ele>
        <time>2021-08-31T15:54:41.000Z</time>
      </trkpt>
      <trkpt lat="47.12344" lon="-1.42052">
        <ele>99</ele>
        <time>2021-08-31T15:54:43.000Z</time>
      </trkpt>
      <trkpt lat="47.12354" lon="-1.42043">
        <ele>99</ele>
        <time>2021-08-31T15:54:45.000Z</time>
      </trkpt>
      <trkpt lat="47.12364" lon="-1.42036">
        <ele>99</ele>
        <time>2021-08-31T15:54:47.000Z</time>
      </trkpt>
      <trkpt lat="47.12375" lon="-1.42027">
        <ele>98</ele>
        <time>2021-08-31T15:54:49.000Z</time>
      </trkpt>
      <trkpt lat="47.12385" lon="-1.42019">
        <ele>99</ele>
        <time>2021-08-31T15:54:51.000Z</time>
      </trkpt>
      <trkpt lat="47.12395" lon="-1.42008">
        <ele>99</ele>
        <time>2021-08-31T15:54:53.000Z</time>
      </trkpt>
      <trkpt lat="47.12404" lon="-1.41997">
        <ele>99</ele>
        <time>2021-08-31T15:54:55.000Z</time>
      </trkpt>
      <trkpt lat="47.12412" lon="-1.41984">
        <ele>100</ele>
        <time>2021-08-31T15:54:57.000Z</time>
      </trkpt>
      <trkpt lat="47.1242" lon="-1.4197">
        <ele>99</ele>
        <time>2021-08-31T15:54:59.000Z</time>
      </trkpt>
      <trkpt lat="47.12429" lon="-1.41955">
        <ele>99</ele>
        <time>2021-08-31T15:55:01.000Z</time>
      </trkpt>
      <trkpt lat="47.12438" lon="-1.41941">
        <ele>99</ele>
        <time>2021-08-31T15:55:03.000Z</time>
      </trkpt>
      <trkpt lat="47.12448" lon="-1.41927">
        <ele>99</ele>
        <time>2021-08-31T15:55:05.000Z</time>
      </trkpt>
      <trkpt lat="47.12458" lon="-1.41913">
        <ele>99</ele>
        <time>2021-08-31T15:55:07.000Z</time>
      </trkpt>
      <trkpt lat="47.12469" lon="-1.41902">
        <ele>98</ele>
        <time>2021-08-31T15:55:09.000Z</time>
      </trkpt>
      <trkpt lat="47.12479" lon="-1.41892">
        <ele>98</ele>
        <time>2021-08-31T15:55:11.000Z</time>
      </trkpt>
      <trkpt lat="47.1249" lon="-1.41882">
        <ele>97</ele>
        <time>2021-08-31T15:55:13.000Z</time>
      </trkpt>
      <trkpt lat="47.12502" lon="-1.41874">
        <ele>96</ele>
        <time>2021-08-31T15:55:15.000Z</time>
      </trkpt>
      <trkpt lat="47.12514" lon="-1.41867">
        <ele>95</ele>
        <time>2021-08-31T15:55:17.000Z</time>
      </trkpt>
      <trkpt lat="47.12528" lon="-1.4186">
        <ele>94</ele>
        <time>2021-08-31T15:55:19.000Z</time>
      </trkpt>
      <trkpt lat="47.12542" lon="-1.41855">
        <ele>94</ele>
        <time>2021-08-31T15:55:21.000Z</time>
      </trkpt>
      <trkpt lat="47.12556" lon="-1.41847">
        <ele>93</ele>
        <time>2021-08-31T15:55:23.000Z</time>
      </trkpt>
      <trkpt lat="47.12568" lon="-1.41835">
        <ele>92</ele>
        <time>2021-08-31T15:55:25.000Z</time>
      </trkpt>
      <trkpt lat="47.12575" lon="-1.41815">
        <ele>91</ele>
        <time>2021-08-31T15:55:27.000Z</time>
      </trkpt>
      <trkpt lat="47.12579" lon="-1.41793">
        <ele>90</ele>
        <time>2021-08-31T15:55:29.000Z</time>
      </trkpt>
      <trkpt lat="47.12584" lon="-1.4177">
        <ele>89</ele>
        <time>2021-08-31T15:55:31.000Z</time>
      </trkpt>
      <trkpt lat="47.1259" lon="-1.41749">
        <ele>88</ele>
        <time>2021-08-31T15:55:33.000Z</time>
      </trkpt>
      <trkpt lat="47.12602" lon="-1.41733">
        <ele>87</ele>
        <time>2021-08-31T15:55:35.000Z</time>
      </trkpt>
      <trkpt lat="47.1262" lon="-1.41726">
        <ele>87</ele>
        <time>2021-08-31T15:55:37.000Z</time>
      </trkpt>
      <trkpt lat="47.12629" lon="-1.41723">
        <ele>86</ele>
        <time>2021-08-31T15:55:38.000Z</time>
      </trkpt>
      <trkpt lat="47.12638" lon="-1.4172">
        <ele>85</ele>
        <time>2021-08-31T15:55:39.000Z</time>
      </trkpt>
      <trkpt lat="47.12656" lon="-1.41712">
        <ele>84</ele>
        <time>2021-08-31T15:55:41.000Z</time>
      </trkpt>
      <trkpt lat="47.12664" lon="-1.41706">
        <ele>84</ele>
        <time>2021-08-31T15:55:42.000Z</time>
      </trkpt>
      <trkpt lat="47.12673" lon="-1.41699">
        <ele>83</ele>
        <time>2021-08-31T15:55:43.000Z</time>
      </trkpt>
      <trkpt lat="47.12681" lon="-1.41692">
        <ele>83</ele>
        <time>2021-08-31T15:55:44.000Z</time>
      </trkpt>
      <trkpt lat="47.12699" lon="-1.41679">
        <ele>82</ele>
        <time>2021-08-31T15:55:46.000Z</time>
      </trkpt>
      <trkpt lat="47.12708" lon="-1.41674">
        <ele>81</ele>
        <time>2021-08-31T15:55:47.000Z</time>
      </trkpt>
      <trkpt lat="47.12727" lon="-1.4167">
        <ele>80</ele>
        <time>2021-08-31T15:55:49.000Z</time>
      </trkpt>
      <trkpt lat="47.12736" lon="-1.4167">
        <ele>79</ele>
        <time>2021-08-31T15:55:50.000Z</time>
      </trkpt>
      <trkpt lat="47.12746" lon="-1.4167">
        <ele>78</ele>
        <time>2021-08-31T15:55:51.000Z</time>
      </trkpt>
      <trkpt lat="47.12764" lon="-1.41665">
        <ele>76</ele>
        <time>2021-08-31T15:55:53.000Z</time>
      </trkpt>
      <trkpt lat="47.12771" lon="-1.41657">
        <ele>75</ele>
        <time>2021-08-31T15:55:54.000Z</time>
      </trkpt>
      <trkpt lat="47.12776" lon="-1.41646">
        <ele>75</ele>
        <time>2021-08-31T15:55:55.000Z</time>
      </trkpt>
      <trkpt lat="47.1278" lon="-1.41633">
        <ele>74</ele>
        <time>2021-08-31T15:55:56.000Z</time>
      </trkpt>
      <trkpt lat="47.1278" lon="-1.41619">
        <ele>73</ele>
        <time>2021-08-31T15:55:57.000Z</time>
      </trkpt>
      <trkpt lat="47.12777" lon="-1.41605">
        <ele>73</ele>
        <time>2021-08-31T15:55:58.000Z</time>
      </trkpt>
      <trkpt lat="47.12761" lon="-1.41587">
        <ele>72</ele>
        <time>2021-08-31T15:56:00.000Z</time>
      </trkpt>
      <trkpt lat="47.12751" lon="-1.41585">
        <ele>71</ele>
        <time>2021-08-31T15:56:01.000Z</time>
      </trkpt>
      <trkpt lat="47.1273" lon="-1.41592">
        <ele>69</ele>
        <time>2021-08-31T15:56:03.000Z</time>
      </trkpt>
      <trkpt lat="47.1272" lon="-1.41595">
        <ele>69</ele>
        <time>2021-08-31T15:56:04.000Z</time>
      </trkpt>
      <trkpt lat="47.127" lon="-1.41588">
        <ele>69</ele>
        <time>2021-08-31T15:56:06.000Z</time>
      </trkpt>
      <trkpt lat="47.12681" lon="-1.41575">
        <ele>68</ele>
        <time>2021-08-31T15:56:08.000Z</time>
      </trkpt>
      <trkpt lat="47.12672" lon="-1.41569">
        <ele>67</ele>
        <time>2021-08-31T15:56:09.000Z</time>
      </trkpt>
      <trkpt lat="47.12663" lon="-1.41569">
        <ele>67</ele>
        <time>2021-08-31T15:56:10.000Z</time>
      </trkpt>
      <trkpt lat="47.12653" lon="-1.41572">
        <ele>68</ele>
        <time>2021-08-31T15:56:11.000Z</time>
      </trkpt>
      <trkpt lat="47.12642" lon="-1.41576">
        <ele>69</ele>
        <time>2021-08-31T15:56:12.000Z</time>
      </trkpt>
      <trkpt lat="47.12621" lon="-1.41574">
        <ele>69</ele>
        <time>2021-08-31T15:56:14.000Z</time>
      </trkpt>
      <trkpt lat="47.12603" lon="-1.41557">
        <ele>66</ele>
        <time>2021-08-31T15:56:16.000Z</time>
      </trkpt>
      <trkpt lat="47.12595" lon="-1.41546">
        <ele>64</ele>
        <time>2021-08-31T15:56:17.000Z</time>
      </trkpt>
      <trkpt lat="47.12588" lon="-1.41535">
        <ele>62</ele>
        <time>2021-08-31T15:56:18.000Z</time>
      </trkpt>
      <trkpt lat="47.12577" lon="-1.41515">
        <ele>59</ele>
        <time>2021-08-31T15:56:20.000Z</time>
      </trkpt>
      <trkpt lat="47.12567" lon="-1.41497">
        <ele>57</ele>
        <time>2021-08-31T15:56:22.000Z</time>
      </trkpt>
      <trkpt lat="47.12558" lon="-1.41479">
        <ele>56</ele>
        <time>2021-08-31T15:56:24.000Z</time>
      </trkpt>
      <trkpt lat="47.12549" lon="-1.41463">
        <ele>56</ele>
        <time>2021-08-31T15:56:26.000Z</time>
      </trkpt>
      <trkpt lat="47.1254" lon="-1.41447">
        <ele>56</ele>
        <time>2021-08-31T15:56:28.000Z</time>
      </trkpt>
      <trkpt lat="47.12531" lon="-1.41434">
        <ele>57</ele>
        <time>2021-08-31T15:56:30.000Z</time>
      </trkpt>
      <trkpt lat="47.1253" lon="-1.41416">
        <ele>56</ele>
        <time>2021-08-31T15:56:32.000Z</time>
      </trkpt>
      <trkpt lat="47.12536" lon="-1.414">
        <ele>57</ele>
        <time>2021-08-31T15:56:34.000Z</time>
      </trkpt>
      <trkpt lat="47.12544" lon="-1.41387">
        <ele>57</ele>
        <time>2021-08-31T15:56:36.000Z</time>
      </trkpt>
      <trkpt lat="47.12551" lon="-1.41376">
        <ele>58</ele>
        <time>2021-08-31T15:56:38.000Z</time>
      </trkpt>
      <trkpt lat="47.12558" lon="-1.41365">
        <ele>58</ele>
        <time>2021-08-31T15:56:40.000Z</time>
      </trkpt>
      <trkpt lat="47.12565" lon="-1.41355">
        <ele>59</ele>
        <time>2021-08-31T15:56:42.000Z</time>
      </trkpt>
      <trkpt lat="47.12572" lon="-1.41343">
        <ele>59</ele>
        <time>2021-08-31T15:56:44.000Z</time>
      </trkpt>
      <trkpt lat="47.12578" lon="-1.41333">
        <ele>60</ele>
        <time>2021-08-31T15:56:46.000Z</time>
      </trkpt>
      <trkpt lat="47.12585" lon="-1.41322">
        <ele>61</ele>
        <time>2021-08-31T15:56:48.000Z</time>
      </trkpt>
      <trkpt lat="47.12593" lon="-1.41306">
        <ele>62</ele>
        <time>2021-08-31T15:56:51.000Z</time>
      </trkpt>
      <trkpt lat="47.12599" lon="-1.41295">
        <ele>62</ele>
        <time>2021-08-31T15:56:53.000Z</time>
      </trkpt>
      <trkpt lat="47.12605" lon="-1.41284">
        <ele>63</ele>
        <time>2021-08-31T15:56:55.000Z</time>
      </trkpt>
      <trkpt lat="47.12612" lon="-1.41275">
        <ele>64</ele>
        <time>2021-08-31T15:56:57.000Z</time>
      </trkpt>
      <trkpt lat="47.1262" lon="-1.41269">
        <ele>64</ele>
        <time>2021-08-31T15:56:59.000Z</time>
      </trkpt>
      <trkpt lat="47.12633" lon="-1.41263">
        <ele>65</ele>
        <time>2021-08-31T15:57:02.000Z</time>
      </trkpt>
      <trkpt lat="47.12642" lon="-1.41257">
        <ele>66</ele>
        <time>2021-08-31T15:57:04.000Z</time>
      </trkpt>
      <trkpt lat="47.12652" lon="-1.41249">
        <ele>67</ele>
        <time>2021-08-31T15:57:07.000Z</time>
      </trkpt>
      <trkpt lat="47.12661" lon="-1.41246">
        <ele>68</ele>
        <time>2021-08-31T15:57:09.000Z</time>
      </trkpt>
      <trkpt lat="47.1267" lon="-1.41244">
        <ele>69</ele>
        <time>2021-08-31T15:57:11.000Z</time>
      </trkpt>
      <trkpt lat="47.1268" lon="-1.41241">
        <ele>70</ele>
        <time>2021-08-31T15:57:13.000Z</time>
      </trkpt>
      <trkpt lat="47.12688" lon="-1.41236">
        <ele>70</ele>
        <time>2021-08-31T15:57:15.000Z</time>
      </trkpt>
      <trkpt lat="47.127" lon="-1.41229">
        <ele>72</ele>
        <time>2021-08-31T15:57:18.000Z</time>
      </trkpt>
      <trkpt lat="47.12708" lon="-1.41222">
        <ele>73</ele>
        <time>2021-08-31T15:57:20.000Z</time>
      </trkpt>
      <trkpt lat="47.12716" lon="-1.41216">
        <ele>73</ele>
        <time>2021-08-31T15:57:22.000Z</time>
      </trkpt>
      <trkpt lat="47.12724" lon="-1.41209">
        <ele>74</ele>
        <time>2021-08-31T15:57:24.000Z</time>
      </trkpt>
      <trkpt lat="47.12736" lon="-1.412">
        <ele>75</ele>
        <time>2021-08-31T15:57:27.000Z</time>
      </trkpt>
      <trkpt lat="47.12746" lon="-1.41187">
        <ele>76</ele>
        <time>2021-08-31T15:57:30.000Z</time>
      </trkpt>
      <trkpt lat="47.12755" lon="-1.41173">
        <ele>78</ele>
        <time>2021-08-31T15:57:33.000Z</time>
      </trkpt>
      <trkpt lat="47.1276" lon="-1.41162">
        <ele>78</ele>
        <time>2021-08-31T15:57:35.000Z</time>
      </trkpt>
      <trkpt lat="47.12769" lon="-1.41148">
        <ele>79</ele>
        <time>2021-08-31T15:57:38.000Z</time>
      </trkpt>
      <trkpt lat="47.12776" lon="-1.41134">
        <ele>81</ele>
        <time>2021-08-31T15:57:41.000Z</time>
      </trkpt>
      <trkpt lat="47.12784" lon="-1.4112">
        <ele>82</ele>
        <time>2021-08-31T15:57:44.000Z</time>
      </trkpt>
      <trkpt lat="47.12792" lon="-1.41106">
        <ele>83</ele>
        <time>2021-08-31T15:57:47.000Z</time>
      </trkpt>
      <trkpt lat="47.12801" lon="-1.41093">
        <ele>84</ele>
        <time>2021-08-31T15:57:50.000Z</time>
      </trkpt>
      <trkpt lat="47.12808" lon="-1.41076">
        <ele>84</ele>
        <time>2021-08-31T15:57:53.000Z</time>
      </trkpt>
      <trkpt lat="47.12812" lon="-1.41064">
        <ele>84</ele>
        <time>2021-08-31T15:57:55.000Z</time>
      </trkpt>
      <trkpt lat="47.12815" lon="-1.4105">
        <ele>84</ele>
        <time>2021-08-31T15:57:57.000Z</time>
      </trkpt>
      <trkpt lat="47.12813" lon="-1.41037">
        <ele>85</ele>
        <time>2021-08-31T15:57:59.000Z</time>
      </trkpt>
      <trkpt lat="47.1281" lon="-1.41024">
        <ele>86</ele>
        <time>2021-08-31T15:58:01.000Z</time>
      </trkpt>
      <trkpt lat="47.12805" lon="-1.41012">
        <ele>85</ele>
        <time>2021-08-31T15:58:03.000Z</time>
      </trkpt>
      <trkpt lat="47.12798" lon="-1.40995">
        <ele>86</ele>
        <time>2021-08-31T15:58:06.000Z</time>
      </trkpt>
      <trkpt lat="47.12792" lon="-1.4098">
        <ele>87</ele>
        <time>2021-08-31T15:58:09.000Z</time>
      </trkpt>
      <trkpt lat="47.12785" lon="-1.40964">
        <ele>87</ele>
        <time>2021-08-31T15:58:12.000Z</time>
      </trkpt>
      <trkpt lat="47.12778" lon="-1.40948">
        <ele>88</ele>
        <time>2021-08-31T15:58:15.000Z</time>
      </trkpt>
      <trkpt lat="47.1277" lon="-1.40933">
        <ele>89</ele>
        <time>2021-08-31T15:58:18.000Z</time>
      </trkpt>
      <trkpt lat="47.1276" lon="-1.40922">
        <ele>90</ele>
        <time>2021-08-31T15:58:21.000Z</time>
      </trkpt>
      <trkpt lat="47.12752" lon="-1.40916">
        <ele>89</ele>
        <time>2021-08-31T15:58:23.000Z</time>
      </trkpt>
      <trkpt lat="47.12739" lon="-1.40912">
        <ele>90</ele>
        <time>2021-08-31T15:58:26.000Z</time>
      </trkpt>
      <trkpt lat="47.12727" lon="-1.40909">
        <ele>91</ele>
        <time>2021-08-31T15:58:29.000Z</time>
      </trkpt>
      <trkpt lat="47.12713" lon="-1.40906">
        <ele>92</ele>
        <time>2021-08-31T15:58:32.000Z</time>
      </trkpt>
      <trkpt lat="47.127" lon="-1.40904">
        <ele>93</ele>
        <time>2021-08-31T15:58:35.000Z</time>
      </trkpt>
      <trkpt lat="47.12691" lon="-1.40902">
        <ele>93</ele>
        <time>2021-08-31T15:58:37.000Z</time>
      </trkpt>
      <trkpt lat="47.12682" lon="-1.409">
        <ele>94</ele>
        <time>2021-08-31T15:58:39.000Z</time>
      </trkpt>
      <trkpt lat="47.12669" lon="-1.40897">
        <ele>95</ele>
        <time>2021-08-31T15:58:42.000Z</time>
      </trkpt>
      <trkpt lat="47.1266" lon="-1.40895">
        <ele>96</ele>
        <time>2021-08-31T15:58:44.000Z</time>
      </trkpt>
      <trkpt lat="47.1265" lon="-1.40893">
        <ele>96</ele>
        <time>2021-08-31T15:58:46.000Z</time>
      </trkpt>
      <trkpt lat="47.12641" lon="-1.40891">
        <ele>97</ele>
        <time>2021-08-31T15:58:48.000Z</time>
      </trkpt>
      <trkpt lat="47.12631" lon="-1.40888">
        <ele>97</ele>
        <time>2021-08-31T15:58:50.000Z</time>
      </trkpt>
      <trkpt lat="47.12621" lon="-1.40886">
        <ele>98</ele>
        <time>2021-08-31T15:58:52.000Z</time>
      </trkpt>
      <trkpt lat="47.1261" lon="-1.40884">
        <ele>98</ele>
        <time>2021-08-31T15:58:54.000Z</time>
      </trkpt>
      <trkpt lat="47.126" lon="-1.40882">
        <ele>99</ele>
        <time>2021-08-31T15:58:56.000Z</time>
      </trkpt>
      <trkpt lat="47.1259" lon="-1.4088">
        <ele>99</ele>
        <time>2021-08-31T15:58:58.000Z</time>
      </trkpt>
      <trkpt lat="47.12579" lon="-1.40877">
        <ele>99</ele>
        <time>2021-08-31T15:59:00.000Z</time>
      </trkpt>
      <trkpt lat="47.12567" lon="-1.40875">
        <ele>100</ele>
        <time>2021-08-31T15:59:02.000Z</time>
      </trkpt>
      <trkpt lat="47.12556" lon="-1.40872">
        <ele>100</ele>
        <time>2021-08-31T15:59:04.000Z</time>
      </trkpt>
      <trkpt lat="47.12545" lon="-1.4087">
        <ele>101</ele>
        <time>2021-08-31T15:59:06.000Z</time>
      </trkpt>
      <trkpt lat="47.12533" lon="-1.40867">
        <ele>101</ele>
        <time>2021-08-31T15:59:08.000Z</time>
      </trkpt>
      <trkpt lat="47.12521" lon="-1.40864">
        <ele>101</ele>
        <time>2021-08-31T15:59:10.000Z</time>
      </trkpt>
      <trkpt lat="47.12509" lon="-1.40862">
        <ele>101</ele>
        <time>2021-08-31T15:59:12.000Z</time>
      </trkpt>
      <trkpt lat="47.12497" lon="-1.40859">
        <ele>101</ele>
        <time>2021-08-31T15:59:14.000Z</time>
      </trkpt>
      <trkpt lat="47.12485" lon="-1.40856">
        <ele>101</ele>
        <time>2021-08-31T15:59:16.000Z</time>
      </trkpt>
      <trkpt lat="47.12473" lon="-1.40852">
        <ele>102</ele>
        <time>2021-08-31T15:59:18.000Z</time>
      </trkpt>
      <trkpt lat="47.12461" lon="-1.40847">
        <ele>102</ele>
        <time>2021-08-31T15:59:20.000Z</time>
      </trkpt>
      <trkpt lat="47.12449" lon="-1.40841">
        <ele>101</ele>
        <time>2021-08-31T15:59:22.000Z</time>
      </trkpt>
      <trkpt lat="47.12438" lon="-1.40832">
        <ele>102</ele>
        <time>2021-08-31T15:59:24.000Z</time>
      </trkpt>
      <trkpt lat="47.12428" lon="-1.40821">
        <ele>102</ele>
        <time>2021-08-31T15:59:26.000Z</time>
      </trkpt>
      <trkpt lat="47.1242" lon="-1.40809">
        <ele>102</ele>
        <time>2021-08-31T15:59:28.000Z</time>
      </trkpt>
      <trkpt lat="47.12412" lon="-1.40797">
        <ele>102</ele>
        <time>2021-08-31T15:59:30.000Z</time>
      </trkpt>
      <trkpt lat="47.12404" lon="-1.40785">
        <ele>102</ele>
        <time>2021-08-31T15:59:32.000Z</time>
      </trkpt>
      <trkpt lat="47.12396" lon="-1.40773">
        <ele>103</ele>
        <time>2021-08-31T15:59:34.000Z</time>
      </trkpt>
      <trkpt lat="47.12388" lon="-1.40761">
        <ele>103</ele>
        <time>2021-08-31T15:59:36.000Z</time>
      </trkpt>
      <trkpt lat="47.12381" lon="-1.40748">
        <ele>103</ele>
        <time>2021-08-31T15:59:38.000Z</time>
      </trkpt>
      <trkpt lat="47.12372" lon="-1.40735">
        <ele>103</ele>
        <time>2021-08-31T15:59:40.000Z</time>
      </trkpt>
      <trkpt lat="47.12364" lon="-1.40723">
        <ele>103</ele>
        <time>2021-08-31T15:59:42.000Z</time>
      </trkpt>
      <trkpt lat="47.12355" lon="-1.40712">
        <ele>104</ele>
        <time>2021-08-31T15:59:44.000Z</time>
      </trkpt>
      <trkpt lat="47.12346" lon="-1.40703">
        <ele>103</ele>
        <time>2021-08-31T15:59:46.000Z</time>
      </trkpt>
      <trkpt lat="47.12335" lon="-1.40697">
        <ele>104</ele>
        <time>2021-08-31T15:59:48.000Z</time>
      </trkpt>
      <trkpt lat="47.12324" lon="-1.40691">
        <ele>104</ele>
        <time>2021-08-31T15:59:50.000Z</time>
      </trkpt>
      <trkpt lat="47.12313" lon="-1.40686">
        <ele>104</ele>
        <time>2021-08-31T15:59:52.000Z</time>
      </trkpt>
      <trkpt lat="47.12301" lon="-1.4068">
        <ele>104</ele>
        <time>2021-08-31T15:59:54.000Z</time>
      </trkpt>
      <trkpt lat="47.12289" lon="-1.40673">
        <ele>103</ele>
        <time>2021-08-31T15:59:56.000Z</time>
      </trkpt>
      <trkpt lat="47.1228" lon="-1.40662">
        <ele>104</ele>
        <time>2021-08-31T15:59:58.000Z</time>
      </trkpt>
      <trkpt lat="47.12274" lon="-1.40648">
        <ele>104</ele>
        <time>2021-08-31T16:00:00.000Z</time>
      </trkpt>
      <trkpt lat="47.12268" lon="-1.40633">
        <ele>104</ele>
        <time>2021-08-31T16:00:02.000Z</time>
      </trkpt>
      <trkpt lat="47.12262" lon="-1.40618">
        <ele>103</ele>
        <time>2021-08-31T16:00:04.000Z</time>
      </trkpt>
      <trkpt lat="47.12257" lon="-1.40603">
        <ele>104</ele>
        <time>2021-08-31T16:00:06.000Z</time>
      </trkpt>
      <trkpt lat="47.12252" lon="-1.40587">
        <ele>103</ele>
        <time>2021-08-31T16:00:08.000Z</time>
      </trkpt>
      <trkpt lat="47.12246" lon="-1.40571">
        <ele>103</ele>
        <time>2021-08-31T16:00:10.000Z</time>
      </trkpt>
      <trkpt lat="47.1224" lon="-1.40555">
        <ele>103</ele>
        <time>2021-08-31T16:00:12.000Z</time>
      </trkpt>
      <trkpt lat="47.12236" lon="-1.40538">
        <ele>103</ele>
        <time>2021-08-31T16:00:14.000Z</time>
      </trkpt>
      <trkpt lat="47.12232" lon="-1.40521">
        <ele>103</ele>
        <time>2021-08-31T16:00:16.000Z</time>
      </trkpt>
      <trkpt lat="47.12228" lon="-1.40504">
        <ele>104</ele>
        <time>2021-08-31T16:00:18.000Z</time>
      </trkpt>
      <trkpt lat="47.12224" lon="-1.40487">
        <ele>103</ele>
        <time>2021-08-31T16:00:20.000Z</time>
      </trkpt>
      <trkpt lat="47.12221" lon="-1.4047">
        <ele>103</ele>
        <time>2021-08-31T16:00:22.000Z</time>
      </trkpt>
      <trkpt lat="47.12218" lon="-1.40453">
        <ele>103</ele>
        <time>2021-08-31T16:00:24.000Z</time>
      </trkpt>
      <trkpt lat="47.12214" lon="-1.40436">
        <ele>104</ele>
        <time>2021-08-31T16:00:26.000Z</time>
      </trkpt>
      <trkpt lat="47.1221" lon="-1.40419">
        <ele>103</ele>
        <time>2021-08-31T16:00:28.000Z</time>
      </trkpt>
      <trkpt lat="47.12206" lon="-1.40403">
        <ele>104</ele>
        <time>2021-08-31T16:00:30.000Z</time>
      </trkpt>
      <trkpt lat="47.12203" lon="-1.40386">
        <ele>104</ele>
        <time>2021-08-31T16:00:32.000Z</time>
      </trkpt>
      <trkpt lat="47.122" lon="-1.4037">
        <ele>104</ele>
        <time>2021-08-31T16:00:34.000Z</time>
      </trkpt>
      <trkpt lat="47.12196" lon="-1.40354">
        <ele>104</ele>
        <time>2021-08-31T16:00:36.000Z</time>
      </trkpt>
      <trkpt lat="47.12193" lon="-1.40338">
        <ele>103</ele>
        <time>2021-08-31T16:00:38.000Z</time>
      </trkpt>
      <trkpt lat="47.1219" lon="-1.40324">
        <ele>103</ele>
        <time>2021-08-31T16:00:40.000Z</time>
      </trkpt>
      <trkpt lat="47.12188" lon="-1.40307">
        <ele>104</ele>
        <time>2021-08-31T16:00:43.000Z</time>
      </trkpt>
      <trkpt lat="47.12193" lon="-1.40295">
        <ele>103</ele>
        <time>2021-08-31T16:00:45.000Z</time>
      </trkpt>
      <trkpt lat="47.12204" lon="-1.40288">
        <ele>104</ele>
        <time>2021-08-31T16:00:47.000Z</time>
      </trkpt>
      <trkpt lat="47.12214" lon="-1.40284">
        <ele>103</ele>
        <time>2021-08-31T16:00:49.000Z</time>
      </trkpt>
      <trkpt lat="47.12225" lon="-1.40279">
        <ele>104</ele>
        <time>2021-08-31T16:00:51.000Z</time>
      </trkpt>
      <trkpt lat="47.12235" lon="-1.40274">
        <ele>104</ele>
        <time>2021-08-31T16:00:53.000Z</time>
      </trkpt>
      <trkpt lat="47.12243" lon="-1.40263">
        <ele>103</ele>
        <time>2021-08-31T16:00:55.000Z</time>
      </trkpt>
      <trkpt lat="47.12239" lon="-1.40244">
        <ele>103</ele>
        <time>2021-08-31T16:00:57.000Z</time>
      </trkpt>
      <trkpt lat="47.12234" lon="-1.40228">
        <ele>103</ele>
        <time>2021-08-31T16:00:59.000Z</time>
      </trkpt>
      <trkpt lat="47.12228" lon="-1.40213">
        <ele>103</ele>
        <time>2021-08-31T16:01:01.000Z</time>
      </trkpt>
      <trkpt lat="47.12223" lon="-1.40197">
        <ele>103</ele>
        <time>2021-08-31T16:01:03.000Z</time>
      </trkpt>
      <trkpt lat="47.12218" lon="-1.40182">
        <ele>103</ele>
        <time>2021-08-31T16:01:05.000Z</time>
      </trkpt>
      <trkpt lat="47.12212" lon="-1.40167">
        <ele>103</ele>
        <time>2021-08-31T16:01:07.000Z</time>
      </trkpt>
      <trkpt lat="47.12207" lon="-1.40152">
        <ele>103</ele>
        <time>2021-08-31T16:01:09.000Z</time>
      </trkpt>
      <trkpt lat="47.12202" lon="-1.40136">
        <ele>103</ele>
        <time>2021-08-31T16:01:11.000Z</time>
      </trkpt>
      <trkpt lat="47.12196" lon="-1.4012">
        <ele>103</ele>
        <time>2021-08-31T16:01:13.000Z</time>
      </trkpt>
      <trkpt lat="47.12191" lon="-1.40104">
        <ele>103</ele>
        <time>2021-08-31T16:01:15.000Z</time>
      </trkpt>
      <trkpt lat="47.12185" lon="-1.40088">
        <ele>103</ele>
        <time>2021-08-31T16:01:17.000Z</time>
      </trkpt>
      <trkpt lat="47.1218" lon="-1.40073">
        <ele>104</ele>
        <time>2021-08-31T16:01:19.000Z</time>
      </trkpt>
      <trkpt lat="47.12176" lon="-1.40058">
        <ele>103</ele>
        <time>2021-08-31T16:01:21.000Z</time>
      </trkpt>
      <trkpt lat="47.12172" lon="-1.40042">
        <ele>103</ele>
        <time>2021-08-31T16:01:23.000Z</time>
      </trkpt>
      <trkpt lat="47.12168" lon="-1.40026">
        <ele>103</ele>
        <time>2021-08-31T16:01:25.000Z</time>
      </trkpt>
      <trkpt lat="47.12165" lon="-1.4001">
        <ele>104</ele>
        <time>2021-08-31T16:01:27.000Z</time>
      </trkpt>
      <trkpt lat="47.12162" lon="-1.39993">
        <ele>104</ele>
        <time>2021-08-31T16:01:29.000Z</time>
      </trkpt>
      <trkpt lat="47.12159" lon="-1.39976">
        <ele>103</ele>
        <time>2021-08-31T16:01:31.000Z</time>
      </trkpt>
      <trkpt lat="47.12156" lon="-1.39959">
        <ele>103</ele>
        <time>2021-08-31T16:01:33.000Z</time>
      </trkpt>
      <trkpt lat="47.12153" lon="-1.39943">
        <ele>103</ele>
        <time>2021-08-31T16:01:35.000Z</time>
      </trkpt>
      <trkpt lat="47.1215" lon="-1.39926">
        <ele>104</ele>
        <time>2021-08-31T16:01:37.000Z</time>
      </trkpt>
      <trkpt lat="47.12146" lon="-1.39909">
        <ele>103</ele>
        <time>2021-08-31T16:01:39.000Z</time>
      </trkpt>
      <trkpt lat="47.12142" lon="-1.39892">
        <ele>103</ele>
        <time>2021-08-31T16:01:41.000Z</time>
      </trkpt>
      <trkpt lat="47.12138" lon="-1.39875">
        <ele>103</ele>
        <time>2021-08-31T16:01:43.000Z</time>
      </trkpt>
      <trkpt lat="47.12133" lon="-1.39858">
        <ele>103</ele>
        <time>2021-08-31T16:01:45.000Z</time>
      </trkpt>
      <trkpt lat="47.12128" lon="-1.39842">
        <ele>103</ele>
        <time>2021-08-31T16:01:47.000Z</time>
      </trkpt>
      <trkpt lat="47.12123" lon="-1.39826">
        <ele>103</ele>
        <time>2021-08-31T16:01:49.000Z</time>
      </trkpt>
      <trkpt lat="47.12117" lon="-1.3981">
        <ele>103</ele>
        <time>2021-08-31T16:01:51.000Z</time>
      </trkpt>
      <trkpt lat="47.12112" lon="-1.39793">
        <ele>103</ele>
        <time>2021-08-31T16:01:53.000Z</time>
      </trkpt>
      <trkpt lat="47.12107" lon="-1.39776">
        <ele>103</ele>
        <time>2021-08-31T16:01:55.000Z</time>
      </trkpt>
      <trkpt lat="47.12102" lon="-1.39759">
        <ele>103</ele>
        <time>2021-08-31T16:01:57.000Z</time>
      </trkpt>
      <trkpt lat="47.12098" lon="-1.39741">
        <ele>103</ele>
        <time>2021-08-31T16:01:59.000Z</time>
      </trkpt>
      <trkpt lat="47.12095" lon="-1.39723">
        <ele>103</ele>
        <time>2021-08-31T16:02:01.000Z</time>
      </trkpt>
      <trkpt lat="47.12091" lon="-1.39706">
        <ele>103</ele>
        <time>2021-08-31T16:02:03.000Z</time>
      </trkpt>
      <trkpt lat="47.12088" lon="-1.39688">
        <ele>103</ele>
        <time>2021-08-31T16:02:05.000Z</time>
      </trkpt>
      <trkpt lat="47.12084" lon="-1.3967">
        <ele>103</ele>
        <time>2021-08-31T16:02:07.000Z</time>
      </trkpt>
      <trkpt lat="47.12081" lon="-1.39652">
        <ele>104</ele>
        <time>2021-08-31T16:02:09.000Z</time>
      </trkpt>
      <trkpt lat="47.12077" lon="-1.39635">
        <ele>104</ele>
        <time>2021-08-31T16:02:11.000Z</time>
      </trkpt>
      <trkpt lat="47.12073" lon="-1.39618">
        <ele>104</ele>
        <time>2021-08-31T16:02:13.000Z</time>
      </trkpt>
      <trkpt lat="47.12069" lon="-1.396">
        <ele>104</ele>
        <time>2021-08-31T16:02:15.000Z</time>
      </trkpt>
      <trkpt lat="47.12065" lon="-1.39582">
        <ele>104</ele>
        <time>2021-08-31T16:02:17.000Z</time>
      </trkpt>
      <trkpt lat="47.12061" lon="-1.39564">
        <ele>103</ele>
        <time>2021-08-31T16:02:19.000Z</time>
      </trkpt>
      <trkpt lat="47.12057" lon="-1.39546">
        <ele>102</ele>
        <time>2021-08-31T16:02:21.000Z</time>
      </trkpt>
      <trkpt lat="47.12054" lon="-1.39528">
        <ele>101</ele>
        <time>2021-08-31T16:02:23.000Z</time>
      </trkpt>
      <trkpt lat="47.12049" lon="-1.3951">
        <ele>101</ele>
        <time>2021-08-31T16:02:25.000Z</time>
      </trkpt>
      <trkpt lat="47.12045" lon="-1.39492">
        <ele>101</ele>
        <time>2021-08-31T16:02:27.000Z</time>
      </trkpt>
      <trkpt lat="47.1204" lon="-1.39474">
        <ele>101</ele>
        <time>2021-08-31T16:02:29.000Z</time>
      </trkpt>
      <trkpt lat="47.12034" lon="-1.39457">
        <ele>101</ele>
        <time>2021-08-31T16:02:31.000Z</time>
      </trkpt>
      <trkpt lat="47.12029" lon="-1.39439">
        <ele>101</ele>
        <time>2021-08-31T16:02:33.000Z</time>
      </trkpt>
      <trkpt lat="47.12023" lon="-1.39421">
        <ele>101</ele>
        <time>2021-08-31T16:02:35.000Z</time>
      </trkpt>
      <trkpt lat="47.12017" lon="-1.39403">
        <ele>101</ele>
        <time>2021-08-31T16:02:37.000Z</time>
      </trkpt>
      <trkpt lat="47.12011" lon="-1.39384">
        <ele>101</ele>
        <time>2021-08-31T16:02:39.000Z</time>
      </trkpt>
      <trkpt lat="47.12005" lon="-1.39365">
        <ele>101</ele>
        <time>2021-08-31T16:02:41.000Z</time>
      </trkpt>
      <trkpt lat="47.12" lon="-1.39348">
        <ele>100</ele>
        <time>2021-08-31T16:02:43.000Z</time>
      </trkpt>
      <trkpt lat="47.11994" lon="-1.39331">
        <ele>100</ele>
        <time>2021-08-31T16:02:45.000Z</time>
      </trkpt>
      <trkpt lat="47.11988" lon="-1.39313">
        <ele>99</ele>
        <time>2021-08-31T16:02:47.000Z</time>
      </trkpt>
      <trkpt lat="47.11983" lon="-1.39296">
        <ele>99</ele>
        <time>2021-08-31T16:02:49.000Z</time>
      </trkpt>
      <trkpt lat="47.11977" lon="-1.39278">
        <ele>99</ele>
        <time>2021-08-31T16:02:51.000Z</time>
      </trkpt>
      <trkpt lat="47.11972" lon="-1.3926">
        <ele>98</ele>
        <time>2021-08-31T16:02:53.000Z</time>
      </trkpt>
      <trkpt lat="47.11966" lon="-1.39243">
        <ele>99</ele>
        <time>2021-08-31T16:02:55.000Z</time>
      </trkpt>
      <trkpt lat="47.11959" lon="-1.39225">
        <ele>99</ele>
        <time>2021-08-31T16:02:57.000Z</time>
      </trkpt>
      <trkpt lat="47.11952" lon="-1.39208">
        <ele>99</ele>
        <time>2021-08-31T16:02:59.000Z</time>
      </trkpt>
      <trkpt lat="47.11944" lon="-1.39191">
        <ele>99</ele>
        <time>2021-08-31T16:03:01.000Z</time>
      </trkpt>
      <trkpt lat="47.11936" lon="-1.39175">
        <ele>99</ele>
        <time>2021-08-31T16:03:03.000Z</time>
      </trkpt>
      <trkpt lat="47.11926" lon="-1.39159">
        <ele>99</ele>
        <time>2021-08-31T16:03:05.000Z</time>
      </trkpt>
      <trkpt lat="47.11916" lon="-1.39144">
        <ele>99</ele>
        <time>2021-08-31T16:03:07.000Z</time>
      </trkpt>
      <trkpt lat="47.11906" lon="-1.39129">
        <ele>98</ele>
        <time>2021-08-31T16:03:09.000Z</time>
      </trkpt>
      <trkpt lat="47.11897" lon="-1.39114">
        <ele>98</ele>
        <time>2021-08-31T16:03:11.000Z</time>
      </trkpt>
      <trkpt lat="47.11889" lon="-1.39097">
        <ele>98</ele>
        <time>2021-08-31T16:03:13.000Z</time>
      </trkpt>
      <trkpt lat="47.11883" lon="-1.39078">
        <ele>97</ele>
        <time>2021-08-31T16:03:15.000Z</time>
      </trkpt>
      <trkpt lat="47.11879" lon="-1.39059">
        <ele>97</ele>
        <time>2021-08-31T16:03:17.000Z</time>
      </trkpt>
      <trkpt lat="47.11876" lon="-1.39039">
        <ele>97</ele>
        <time>2021-08-31T16:03:19.000Z</time>
      </trkpt>
      <trkpt lat="47.11874" lon="-1.39019">
        <ele>96</ele>
        <time>2021-08-31T16:03:21.000Z</time>
      </trkpt>
      <trkpt lat="47.11871" lon="-1.38999">
        <ele>96</ele>
        <time>2021-08-31T16:03:23.000Z</time>
      </trkpt>
      <trkpt lat="47.11869" lon="-1.38979">
        <ele>95</ele>
        <time>2021-08-31T16:03:25.000Z</time>
      </trkpt>
      <trkpt lat="47.11866" lon="-1.38958">
        <ele>94</ele>
        <time>2021-08-31T16:03:27.000Z</time>
      </trkpt>
      <trkpt lat="47.11864" lon="-1.38935">
        <ele>93</ele>
        <time>2021-08-31T16:03:29.000Z</time>
      </trkpt>
      <trkpt lat="47.1186" lon="-1.38912">
        <ele>92</ele>
        <time>2021-08-31T16:03:31.000Z</time>
      </trkpt>
      <trkpt lat="47.11857" lon="-1.38889">
        <ele>92</ele>
        <time>2021-08-31T16:03:33.000Z</time>
      </trkpt>
      <trkpt lat="47.11854" lon="-1.38866">
        <ele>92</ele>
        <time>2021-08-31T16:03:35.000Z</time>
      </trkpt>
      <trkpt lat="47.11852" lon="-1.38845">
        <ele>92</ele>
        <time>2021-08-31T16:03:37.000Z</time>
      </trkpt>
      <trkpt lat="47.11848" lon="-1.38825">
        <ele>92</ele>
        <time>2021-08-31T16:03:39.000Z</time>
      </trkpt>
      <trkpt lat="47.11841" lon="-1.38806">
        <ele>93</ele>
        <time>2021-08-31T16:03:41.000Z</time>
      </trkpt>
      <trkpt lat="47.11833" lon="-1.3879">
        <ele>93</ele>
        <time>2021-08-31T16:03:43.000Z</time>
      </trkpt>
      <trkpt lat="47.11825" lon="-1.38777">
        <ele>94</ele>
        <time>2021-08-31T16:03:45.000Z</time>
      </trkpt>
      <trkpt lat="47.11815" lon="-1.38766">
        <ele>95</ele>
        <time>2021-08-31T16:03:47.000Z</time>
      </trkpt>
      <trkpt lat="47.11805" lon="-1.38755">
        <ele>96</ele>
        <time>2021-08-31T16:03:49.000Z</time>
      </trkpt>
      <trkpt lat="47.11794" lon="-1.38747">
        <ele>95</ele>
        <time>2021-08-31T16:03:51.000Z</time>
      </trkpt>
      <trkpt lat="47.11782" lon="-1.38742">
        <ele>96</ele>
        <time>2021-08-31T16:03:53.000Z</time>
      </trkpt>
      <trkpt lat="47.1177" lon="-1.38741">
        <ele>96</ele>
        <time>2021-08-31T16:03:55.000Z</time>
      </trkpt>
      <trkpt lat="47.11757" lon="-1.38738">
        <ele>95</ele>
        <time>2021-08-31T16:03:57.000Z</time>
      </trkpt>
      <trkpt lat="47.11747" lon="-1.38728">
        <ele>95</ele>
        <time>2021-08-31T16:03:59.000Z</time>
      </trkpt>
      <trkpt lat="47.11741" lon="-1.38712">
        <ele>96</ele>
        <time>2021-08-31T16:04:01.000Z</time>
      </trkpt>
      <trkpt lat="47.11734" lon="-1.38697">
        <ele>97</ele>
        <time>2021-08-31T16:04:03.000Z</time>
      </trkpt>
      <trkpt lat="47.11727" lon="-1.38683">
        <ele>97</ele>
        <time>2021-08-31T16:04:05.000Z</time>
      </trkpt>
      <trkpt lat="47.11718" lon="-1.38672">
        <ele>97</ele>
        <time>2021-08-31T16:04:07.000Z</time>
      </trkpt>
      <trkpt lat="47.11708" lon="-1.38662">
        <ele>98</ele>
        <time>2021-08-31T16:04:09.000Z</time>
      </trkpt>
      <trkpt lat="47.11698" lon="-1.38653">
        <ele>98</ele>
        <time>2021-08-31T16:04:11.000Z</time>
      </trkpt>
      <trkpt lat="47.11689" lon="-1.38643">
        <ele>98</ele>
        <time>2021-08-31T16:04:13.000Z</time>
      </trkpt>
      <trkpt lat="47.1168" lon="-1.38631">
        <ele>98</ele>
        <time>2021-08-31T16:04:15.000Z</time>
      </trkpt>
      <trkpt lat="47.11671" lon="-1.38618">
        <ele>98</ele>
        <time>2021-08-31T16:04:17.000Z</time>
      </trkpt>
      <trkpt lat="47.11663" lon="-1.38606">
        <ele>98</ele>
        <time>2021-08-31T16:04:19.000Z</time>
      </trkpt>
      <trkpt lat="47.11655" lon="-1.38593">
        <ele>99</ele>
        <time>2021-08-31T16:04:21.000Z</time>
      </trkpt>
      <trkpt lat="47.11647" lon="-1.3858">
        <ele>99</ele>
        <time>2021-08-31T16:04:23.000Z</time>
      </trkpt>
      <trkpt lat="47.11639" lon="-1.38568">
        <ele>99</ele>
        <time>2021-08-31T16:04:25.000Z</time>
      </trkpt>
      <trkpt lat="47.11632" lon="-1.38556">
        <ele>100</ele>
        <time>2021-08-31T16:04:27.000Z</time>
      </trkpt>
      <trkpt lat="47.11625" lon="-1.38543">
        <ele>100</ele>
        <time>2021-08-31T16:04:29.000Z</time>
      </trkpt>
      <trkpt lat="47.11619" lon="-1.3853">
        <ele>100</ele>
        <time>2021-08-31T16:04:31.000Z</time>
      </trkpt>
      <trkpt lat="47.11611" lon="-1.38517">
        <ele>100</ele>
        <time>2021-08-31T16:04:33.000Z</time>
      </trkpt>
      <trkpt lat="47.11604" lon="-1.38503">
        <ele>99</ele>
        <time>2021-08-31T16:04:35.000Z</time>
      </trkpt>
      <trkpt lat="47.11597" lon="-1.3849">
        <ele>100</ele>
        <time>2021-08-31T16:04:37.000Z</time>
      </trkpt>
      <trkpt lat="47.11589" lon="-1.38477">
        <ele>100</ele>
        <time>2021-08-31T16:04:39.000Z</time>
      </trkpt>
      <trkpt lat="47.11583" lon="-1.38463">
        <ele>100</ele>
        <time>2021-08-31T16:04:41.000Z</time>
      </trkpt>
      <trkpt lat="47.11577" lon="-1.38449">
        <ele>100</ele>
        <time>2021-08-31T16:04:43.000Z</time>
      </trkpt>
      <trkpt lat="47.11572" lon="-1.38435">
        <ele>100</ele>
        <time>2021-08-31T16:04:45.000Z</time>
      </trkpt>
      <trkpt lat="47.11567" lon="-1.38421">
        <ele>100</ele>
        <time>2021-08-31T16:04:47.000Z</time>
      </trkpt>
      <trkpt lat="47.11562" lon="-1.38408">
        <ele>100</ele>
        <time>2021-08-31T16:04:49.000Z</time>
      </trkpt>
      <trkpt lat="47.11557" lon="-1.38391">
        <ele>100</ele>
        <time>2021-08-31T16:04:52.000Z</time>
      </trkpt>
      <trkpt lat="47.11553" lon="-1.38376">
        <ele>100</ele>
        <time>2021-08-31T16:04:55.000Z</time>
      </trkpt>
      <trkpt lat="47.11549" lon="-1.38363">
        <ele>100</ele>
        <time>2021-08-31T16:04:57.000Z</time>
      </trkpt>
      <trkpt lat="47.11545" lon="-1.38348">
        <ele>100</ele>
        <time>2021-08-31T16:04:59.000Z</time>
      </trkpt>
      <trkpt lat="47.11542" lon="-1.38332">
        <ele>100</ele>
        <time>2021-08-31T16:05:01.000Z</time>
      </trkpt>
      <trkpt lat="47.11538" lon="-1.38317">
        <ele>100</ele>
        <time>2021-08-31T16:05:03.000Z</time>
      </trkpt>
      <trkpt lat="47.11534" lon="-1.38302">
        <ele>101</ele>
        <time>2021-08-31T16:05:05.000Z</time>
      </trkpt>
      <trkpt lat="47.11529" lon="-1.38288">
        <ele>101</ele>
        <time>2021-08-31T16:05:07.000Z</time>
      </trkpt>
      <trkpt lat="47.11526" lon="-1.38275">
        <ele>101</ele>
        <time>2021-08-31T16:05:09.000Z</time>
      </trkpt>
      <trkpt lat="47.11522" lon="-1.38261">
        <ele>101</ele>
        <time>2021-08-31T16:05:11.000Z</time>
      </trkpt>
      <trkpt lat="47.11519" lon="-1.38248">
        <ele>102</ele>
        <time>2021-08-31T16:05:13.000Z</time>
      </trkpt>
      <trkpt lat="47.11515" lon="-1.38235">
        <ele>102</ele>
        <time>2021-08-31T16:05:15.000Z</time>
      </trkpt>
      <trkpt lat="47.11512" lon="-1.38223">
        <ele>102</ele>
        <time>2021-08-31T16:05:17.000Z</time>
      </trkpt>
      <trkpt lat="47.11509" lon="-1.3821">
        <ele>102</ele>
        <time>2021-08-31T16:05:19.000Z</time>
      </trkpt>
      <trkpt lat="47.11505" lon="-1.38197">
        <ele>103</ele>
        <time>2021-08-31T16:05:21.000Z</time>
      </trkpt>
      <trkpt lat="47.11502" lon="-1.38183">
        <ele>103</ele>
        <time>2021-08-31T16:05:23.000Z</time>
      </trkpt>
      <trkpt lat="47.11499" lon="-1.38169">
        <ele>104</ele>
        <time>2021-08-31T16:05:25.000Z</time>
      </trkpt>
      <trkpt lat="47.11496" lon="-1.38155">
        <ele>104</ele>
        <time>2021-08-31T16:05:27.000Z</time>
      </trkpt>
      <trkpt lat="47.11494" lon="-1.38142">
        <ele>104</ele>
        <time>2021-08-31T16:05:29.000Z</time>
      </trkpt>
      <trkpt lat="47.11491" lon="-1.38128">
        <ele>104</ele>
        <time>2021-08-31T16:05:31.000Z</time>
      </trkpt>
      <trkpt lat="47.11487" lon="-1.38115">
        <ele>104</ele>
        <time>2021-08-31T16:05:33.000Z</time>
      </trkpt>
      <trkpt lat="47.11482" lon="-1.38101">
        <ele>105</ele>
        <time>2021-08-31T16:05:35.000Z</time>
      </trkpt>
      <trkpt lat="47.11476" lon="-1.38089">
        <ele>105</ele>
        <time>2021-08-31T16:05:37.000Z</time>
      </trkpt>
      <trkpt lat="47.11469" lon="-1.38078">
        <ele>105</ele>
        <time>2021-08-31T16:05:39.000Z</time>
      </trkpt>
      <trkpt lat="47.11461" lon="-1.38067">
        <ele>105</ele>
        <time>2021-08-31T16:05:41.000Z</time>
      </trkpt>
      <trkpt lat="47.11452" lon="-1.38057">
        <ele>106</ele>
        <time>2021-08-31T16:05:43.000Z</time>
      </trkpt>
      <trkpt lat="47.11444" lon="-1.38047">
        <ele>106</ele>
        <time>2021-08-31T16:05:45.000Z</time>
      </trkpt>
      <trkpt lat="47.11436" lon="-1.38037">
        <ele>106</ele>
        <time>2021-08-31T16:05:47.000Z</time>
      </trkpt>
      <trkpt lat="47.11427" lon="-1.38026">
        <ele>106</ele>
        <time>2021-08-31T16:05:49.000Z</time>
      </trkpt>
      <trkpt lat="47.11419" lon="-1.38013">
        <ele>106</ele>
        <time>2021-08-31T16:05:51.000Z</time>
      </trkpt>
      <trkpt lat="47.11414" lon="-1.37999">
        <ele>106</ele>
        <time>2021-08-31T16:05:53.000Z</time>
      </trkpt>
      <trkpt lat="47.11412" lon="-1.37984">
        <ele>106</ele>
        <time>2021-08-31T16:05:55.000Z</time>
      </trkpt>
      <trkpt lat="47.11415" lon="-1.37968">
        <ele>106</ele>
        <time>2021-08-31T16:05:57.000Z</time>
      </trkpt>
      <trkpt lat="47.11421" lon="-1.37955">
        <ele>106</ele>
        <time>2021-08-31T16:05:59.000Z</time>
      </trkpt>
      <trkpt lat="47.1143" lon="-1.37945">
        <ele>105</ele>
        <time>2021-08-31T16:06:01.000Z</time>
      </trkpt>
      <trkpt lat="47.1144" lon="-1.37935">
        <ele>105</ele>
        <time>2021-08-31T16:06:03.000Z</time>
      </trkpt>
      <trkpt lat="47.1145" lon="-1.37927">
        <ele>104</ele>
        <time>2021-08-31T16:06:05.000Z</time>
      </trkpt>
      <trkpt lat="47.1146" lon="-1.37918">
        <ele>104</ele>
        <time>2021-08-31T16:06:07.000Z</time>
      </trkpt>
      <trkpt lat="47.11469" lon="-1.37909">
        <ele>104</ele>
        <time>2021-08-31T16:06:09.000Z</time>
      </trkpt>
      <trkpt lat="47.1148" lon="-1.37899">
        <ele>103</ele>
        <time>2021-08-31T16:06:11.000Z</time>
      </trkpt>
      <trkpt lat="47.1149" lon="-1.37888">
        <ele>103</ele>
        <time>2021-08-31T16:06:13.000Z</time>
      </trkpt>
      <trkpt lat="47.115" lon="-1.37876">
        <ele>102</ele>
        <time>2021-08-31T16:06:15.000Z</time>
      </trkpt>
      <trkpt lat="47.11509" lon="-1.37863">
        <ele>102</ele>
        <time>2021-08-31T16:06:17.000Z</time>
      </trkpt>
      <trkpt lat="47.11518" lon="-1.37849">
        <ele>102</ele>
        <time>2021-08-31T16:06:19.000Z</time>
      </trkpt>
      <trkpt lat="47.11526" lon="-1.37835">
        <ele>102</ele>
        <time>2021-08-31T16:06:21.000Z</time>
      </trkpt>
      <trkpt lat="47.11535" lon="-1.37819">
        <ele>101</ele>
        <time>2021-08-31T16:06:23.000Z</time>
      </trkpt>
      <trkpt lat="47.11541" lon="-1.37801">
        <ele>101</ele>
        <time>2021-08-31T16:06:25.000Z</time>
      </trkpt>
      <trkpt lat="47.11545" lon="-1.37781">
        <ele>100</ele>
        <time>2021-08-31T16:06:27.000Z</time>
      </trkpt>
      <trkpt lat="47.11549" lon="-1.37763">
        <ele>99</ele>
        <time>2021-08-31T16:06:29.000Z</time>
      </trkpt>
      <trkpt lat="47.11554" lon="-1.37744">
        <ele>99</ele>
        <time>2021-08-31T16:06:31.000Z</time>
      </trkpt>
      <trkpt lat="47.1156" lon="-1.37726">
        <ele>99</ele>
        <time>2021-08-31T16:06:33.000Z</time>
      </trkpt>
      <trkpt lat="47.11564" lon="-1.37709">
        <ele>99</ele>
        <time>2021-08-31T16:06:35.000Z</time>
      </trkpt>
      <trkpt lat="47.11567" lon="-1.37689">
        <ele>98</ele>
        <time>2021-08-31T16:06:37.000Z</time>
      </trkpt>
      <trkpt lat="47.11566" lon="-1.37668">
        <ele>98</ele>
        <time>2021-08-31T16:06:39.000Z</time>
      </trkpt>
      <trkpt lat="47.11562" lon="-1.3765">
        <ele>98</ele>
        <time>2021-08-31T16:06:41.000Z</time>
      </trkpt>
      <trkpt lat="47.11555" lon="-1.37633">
        <ele>98</ele>
        <time>2021-08-31T16:06:43.000Z</time>
      </trkpt>
      <trkpt lat="47.11549" lon="-1.37617">
        <ele>98</ele>
        <time>2021-08-31T16:06:45.000Z</time>
      </trkpt>
      <trkpt lat="47.11542" lon="-1.37601">
        <ele>98</ele>
        <time>2021-08-31T16:06:47.000Z</time>
      </trkpt>
      <trkpt lat="47.11535" lon="-1.37587">
        <ele>97</ele>
        <time>2021-08-31T16:06:49.000Z</time>
      </trkpt>
      <trkpt lat="47.11525" lon="-1.37575">
        <ele>97</ele>
        <time>2021-08-31T16:06:51.000Z</time>
      </trkpt>
      <trkpt lat="47.11513" lon="-1.37569">
        <ele>97</ele>
        <time>2021-08-31T16:06:53.000Z</time>
      </trkpt>
      <trkpt lat="47.11501" lon="-1.37566">
        <ele>96</ele>
        <time>2021-08-31T16:06:55.000Z</time>
      </trkpt>
      <trkpt lat="47.1149" lon="-1.37561">
        <ele>97</ele>
        <time>2021-08-31T16:06:57.000Z</time>
      </trkpt>
      <trkpt lat="47.11482" lon="-1.37548">
        <ele>97</ele>
        <time>2021-08-31T16:06:59.000Z</time>
      </trkpt>
      <trkpt lat="47.11479" lon="-1.37531">
        <ele>97</ele>
        <time>2021-08-31T16:07:01.000Z</time>
      </trkpt>
      <trkpt lat="47.11477" lon="-1.37513">
        <ele>97</ele>
        <time>2021-08-31T16:07:03.000Z</time>
      </trkpt>
      <trkpt lat="47.11475" lon="-1.37495">
        <ele>97</ele>
        <time>2021-08-31T16:07:05.000Z</time>
      </trkpt>
      <trkpt lat="47.11473" lon="-1.37476">
        <ele>97</ele>
        <time>2021-08-31T16:07:07.000Z</time>
      </trkpt>
      <trkpt lat="47.1147" lon="-1.37458">
        <ele>97</ele>
        <time>2021-08-31T16:07:09.000Z</time>
      </trkpt>
      <trkpt lat="47.11466" lon="-1.37441">
        <ele>97</ele>
        <time>2021-08-31T16:07:11.000Z</time>
      </trkpt>
      <trkpt lat="47.11462" lon="-1.37424">
        <ele>98</ele>
        <time>2021-08-31T16:07:13.000Z</time>
      </trkpt>
      <trkpt lat="47.11458" lon="-1.37408">
        <ele>98</ele>
        <time>2021-08-31T16:07:15.000Z</time>
      </trkpt>
      <trkpt lat="47.11453" lon="-1.37392">
        <ele>98</ele>
        <time>2021-08-31T16:07:17.000Z</time>
      </trkpt>
      <trkpt lat="47.11447" lon="-1.37377">
        <ele>98</ele>
        <time>2021-08-31T16:07:19.000Z</time>
      </trkpt>
      <trkpt lat="47.11438" lon="-1.37366">
        <ele>98</ele>
        <time>2021-08-31T16:07:21.000Z</time>
      </trkpt>
      <trkpt lat="47.1143" lon="-1.37357">
        <ele>98</ele>
        <time>2021-08-31T16:07:23.000Z</time>
      </trkpt>
      <trkpt lat="47.11421" lon="-1.37349">
        <ele>99</ele>
        <time>2021-08-31T16:07:25.000Z</time>
      </trkpt>
      <trkpt lat="47.11412" lon="-1.37341">
        <ele>99</ele>
        <time>2021-08-31T16:07:27.000Z</time>
      </trkpt>
      <trkpt lat="47.11404" lon="-1.37332">
        <ele>100</ele>
        <time>2021-08-31T16:07:29.000Z</time>
      </trkpt>
      <trkpt lat="47.11396" lon="-1.37321">
        <ele>100</ele>
        <time>2021-08-31T16:07:31.000Z</time>
      </trkpt>
      <trkpt lat="47.1139" lon="-1.37308">
        <ele>100</ele>
        <time>2021-08-31T16:07:33.000Z</time>
      </trkpt>
      <trkpt lat="47.11385" lon="-1.37293">
        <ele>101</ele>
        <time>2021-08-31T16:07:35.000Z</time>
      </trkpt>
      <trkpt lat="47.1138" lon="-1.37278">
        <ele>101</ele>
        <time>2021-08-31T16:07:37.000Z</time>
      </trkpt>
      <trkpt lat="47.11375" lon="-1.37263">
        <ele>101</ele>
        <time>2021-08-31T16:07:39.000Z</time>
      </trkpt>
      <trkpt lat="47.11371" lon="-1.37249">
        <ele>102</ele>
        <time>2021-08-31T16:07:41.000Z</time>
      </trkpt>
      <trkpt lat="47.11367" lon="-1.37235">
        <ele>102</ele>
        <time>2021-08-31T16:07:43.000Z</time>
      </trkpt>
      <trkpt lat="47.11364" lon="-1.3722">
        <ele>102</ele>
        <time>2021-08-31T16:07:45.000Z</time>
      </trkpt>
      <trkpt lat="47.11362" lon="-1.37203">
        <ele>102</ele>
        <time>2021-08-31T16:07:47.000Z</time>
      </trkpt>
      <trkpt lat="47.1136" lon="-1.37186">
        <ele>102</ele>
        <time>2021-08-31T16:07:49.000Z</time>
      </trkpt>
      <trkpt lat="47.1136" lon="-1.37168">
        <ele>102</ele>
        <time>2021-08-31T16:07:51.000Z</time>
      </trkpt>
      <trkpt lat="47.1136" lon="-1.37151">
        <ele>101</ele>
        <time>2021-08-31T16:07:53.000Z</time>
      </trkpt>
      <trkpt lat="47.1136" lon="-1.37134">
        <ele>101</ele>
        <time>2021-08-31T16:07:55.000Z</time>
      </trkpt>
      <trkpt lat="47.11361" lon="-1.37117">
        <ele>101</ele>
        <time>2021-08-31T16:07:57.000Z</time>
      </trkpt>
      <trkpt lat="47.11361" lon="-1.371">
        <ele>101</ele>
        <time>2021-08-31T16:07:59.000Z</time>
      </trkpt>
      <trkpt lat="47.11361" lon="-1.37083">
        <ele>100</ele>
        <time>2021-08-31T16:08:01.000Z</time>
      </trkpt>
      <trkpt lat="47.11362" lon="-1.37066">
        <ele>100</ele>
        <time>2021-08-31T16:08:03.000Z</time>
      </trkpt>
      <trkpt lat="47.11362" lon="-1.3705">
        <ele>100</ele>
        <time>2021-08-31T16:08:05.000Z</time>
      </trkpt>
      <trkpt lat="47.11363" lon="-1.37035">
        <ele>99</ele>
        <time>2021-08-31T16:08:07.000Z</time>
      </trkpt>
      <trkpt lat="47.11362" lon="-1.3702">
        <ele>99</ele>
        <time>2021-08-31T16:08:09.000Z</time>
      </trkpt>
      <trkpt lat="47.11361" lon="-1.37003">
        <ele>99</ele>
        <time>2021-08-31T16:08:12.000Z</time>
      </trkpt>
      <trkpt lat="47.11362" lon="-1.36986">
        <ele>99</ele>
        <time>2021-08-31T16:08:17.000Z</time>
      </trkpt>
      <trkpt lat="47.11371" lon="-1.36976">
        <ele>98</ele>
        <time>2021-08-31T16:08:19.000Z</time>
      </trkpt>
      <trkpt lat="47.11381" lon="-1.36968">
        <ele>98</ele>
        <time>2021-08-31T16:08:21.000Z</time>
      </trkpt>
      <trkpt lat="47.11391" lon="-1.36958">
        <ele>98</ele>
        <time>2021-08-31T16:08:23.000Z</time>
      </trkpt>
      <trkpt lat="47.11401" lon="-1.36946">
        <ele>98</ele>
        <time>2021-08-31T16:08:25.000Z</time>
      </trkpt>
      <trkpt lat="47.11409" lon="-1.36932">
        <ele>98</ele>
        <time>2021-08-31T16:08:27.000Z</time>
      </trkpt>
      <trkpt lat="47.11416" lon="-1.36917">
        <ele>98</ele>
        <time>2021-08-31T16:08:29.000Z</time>
      </trkpt>
      <trkpt lat="47.11426" lon="-1.36892">
        <ele>97</ele>
        <time>2021-08-31T16:08:32.000Z</time>
      </trkpt>
      <trkpt lat="47.11432" lon="-1.36874">
        <ele>97</ele>
        <time>2021-08-31T16:08:34.000Z</time>
      </trkpt>
      <trkpt lat="47.11438" lon="-1.36857">
        <ele>97</ele>
        <time>2021-08-31T16:08:36.000Z</time>
      </trkpt>
      <trkpt lat="47.11445" lon="-1.36841">
        <ele>97</ele>
        <time>2021-08-31T16:08:38.000Z</time>
      </trkpt>
      <trkpt lat="47.11453" lon="-1.36825">
        <ele>97</ele>
        <time>2021-08-31T16:08:40.000Z</time>
      </trkpt>
      <trkpt lat="47.11461" lon="-1.36809">
        <ele>97</ele>
        <time>2021-08-31T16:08:42.000Z</time>
      </trkpt>
      <trkpt lat="47.11471" lon="-1.36795">
        <ele>97</ele>
        <time>2021-08-31T16:08:44.000Z</time>
      </trkpt>
      <trkpt lat="47.11487" lon="-1.36776">
        <ele>97</ele>
        <time>2021-08-31T16:08:47.000Z</time>
      </trkpt>
      <trkpt lat="47.11504" lon="-1.36758">
        <ele>97</ele>
        <time>2021-08-31T16:08:50.000Z</time>
      </trkpt>
      <trkpt lat="47.11521" lon="-1.36741">
        <ele>97</ele>
        <time>2021-08-31T16:08:53.000Z</time>
      </trkpt>
      <trkpt lat="47.11533" lon="-1.3673">
        <ele>96</ele>
        <time>2021-08-31T16:08:55.000Z</time>
      </trkpt>
      <trkpt lat="47.11545" lon="-1.36719">
        <ele>97</ele>
        <time>2021-08-31T16:08:57.000Z</time>
      </trkpt>
      <trkpt lat="47.11562" lon="-1.36702">
        <ele>98</ele>
        <time>2021-08-31T16:09:00.000Z</time>
      </trkpt>
      <trkpt lat="47.11574" lon="-1.3669">
        <ele>97</ele>
        <time>2021-08-31T16:09:02.000Z</time>
      </trkpt>
      <trkpt lat="47.11585" lon="-1.36679">
        <ele>98</ele>
        <time>2021-08-31T16:09:04.000Z</time>
      </trkpt>
      <trkpt lat="47.11602" lon="-1.36663">
        <ele>98</ele>
        <time>2021-08-31T16:09:07.000Z</time>
      </trkpt>
      <trkpt lat="47.11619" lon="-1.36648">
        <ele>98</ele>
        <time>2021-08-31T16:09:10.000Z</time>
      </trkpt>
      <trkpt lat="47.11635" lon="-1.36632">
        <ele>99</ele>
        <time>2021-08-31T16:09:13.000Z</time>
      </trkpt>
      <trkpt lat="47.11645" lon="-1.36623">
        <ele>99</ele>
        <time>2021-08-31T16:09:15.000Z</time>
      </trkpt>
      <trkpt lat="47.11655" lon="-1.36613">
        <ele>99</ele>
        <time>2021-08-31T16:09:17.000Z</time>
      </trkpt>
      <trkpt lat="47.11666" lon="-1.36603">
        <ele>99</ele>
        <time>2021-08-31T16:09:19.000Z</time>
      </trkpt>
      <trkpt lat="47.11677" lon="-1.36593">
        <ele>99</ele>
        <time>2021-08-31T16:09:21.000Z</time>
      </trkpt>
      <trkpt lat="47.11687" lon="-1.36583">
        <ele>99</ele>
        <time>2021-08-31T16:09:23.000Z</time>
      </trkpt>
      <trkpt lat="47.11698" lon="-1.36572">
        <ele>99</ele>
        <time>2021-08-31T16:09:25.000Z</time>
      </trkpt>
      <trkpt lat="47.11708" lon="-1.36562">
        <ele>99</ele>
        <time>2021-08-31T16:09:27.000Z</time>
      </trkpt>
      <trkpt lat="47.11718" lon="-1.36552">
        <ele>99</ele>
        <time>2021-08-31T16:09:29.000Z</time>
      </trkpt>
      <trkpt lat="47.11729" lon="-1.36543">
        <ele>100</ele>
        <time>2021-08-31T16:09:31.000Z</time>
      </trkpt>
      <trkpt lat="47.11739" lon="-1.36533">
        <ele>100</ele>
        <time>2021-08-31T16:09:33.000Z</time>
      </trkpt>
      <trkpt lat="47.1175" lon="-1.36524">
        <ele>100</ele>
        <time>2021-08-31T16:09:35.000Z</time>
      </trkpt>
      <trkpt lat="47.11761" lon="-1.36517">
        <ele>100</ele>
        <time>2021-08-31T16:09:37.000Z</time>
      </trkpt>
      <trkpt lat="47.11772" lon="-1.36509">
        <ele>100</ele>
        <time>2021-08-31T16:09:39.000Z</time>
      </trkpt>
      <trkpt lat="47.11784" lon="-1.36502">
        <ele>100</ele>
        <time>2021-08-31T16:09:41.000Z</time>
      </trkpt>
      <trkpt lat="47.11796" lon="-1.36495">
        <ele>100</ele>
        <time>2021-08-31T16:09:43.000Z</time>
      </trkpt>
      <trkpt lat="47.11813" lon="-1.36485">
        <ele>100</ele>
        <time>2021-08-31T16:09:46.000Z</time>
      </trkpt>
      <trkpt lat="47.11825" lon="-1.36477">
        <ele>99</ele>
        <time>2021-08-31T16:09:48.000Z</time>
      </trkpt>
      <trkpt lat="47.11836" lon="-1.3647">
        <ele>98</ele>
        <time>2021-08-31T16:09:50.000Z</time>
      </trkpt>
      <trkpt lat="47.11847" lon="-1.36462">
        <ele>98</ele>
        <time>2021-08-31T16:09:52.000Z</time>
      </trkpt>
      <trkpt lat="47.11857" lon="-1.36455">
        <ele>97</ele>
        <time>2021-08-31T16:09:54.000Z</time>
      </trkpt>
      <trkpt lat="47.11866" lon="-1.36447">
        <ele>97</ele>
        <time>2021-08-31T16:09:56.000Z</time>
      </trkpt>
      <trkpt lat="47.11877" lon="-1.36439">
        <ele>97</ele>
        <time>2021-08-31T16:09:59.000Z</time>
      </trkpt>
      <trkpt lat="47.11886" lon="-1.36436">
        <ele>97</ele>
        <time>2021-08-31T16:10:01.000Z</time>
      </trkpt>
      <trkpt lat="47.11898" lon="-1.36431">
        <ele>97</ele>
        <time>2021-08-31T16:10:03.000Z</time>
      </trkpt>
      <trkpt lat="47.11909" lon="-1.36424">
        <ele>96</ele>
        <time>2021-08-31T16:10:05.000Z</time>
      </trkpt>
      <trkpt lat="47.11921" lon="-1.36417">
        <ele>96</ele>
        <time>2021-08-31T16:10:07.000Z</time>
      </trkpt>
      <trkpt lat="47.11933" lon="-1.3641">
        <ele>96</ele>
        <time>2021-08-31T16:10:09.000Z</time>
      </trkpt>
      <trkpt lat="47.11944" lon="-1.36403">
        <ele>95</ele>
        <time>2021-08-31T16:10:11.000Z</time>
      </trkpt>
      <trkpt lat="47.11956" lon="-1.36396">
        <ele>95</ele>
        <time>2021-08-31T16:10:13.000Z</time>
      </trkpt>
      <trkpt lat="47.11969" lon="-1.36388">
        <ele>95</ele>
        <time>2021-08-31T16:10:15.000Z</time>
      </trkpt>
      <trkpt lat="47.11981" lon="-1.3638">
        <ele>94</ele>
        <time>2021-08-31T16:10:17.000Z</time>
      </trkpt>
      <trkpt lat="47.11993" lon="-1.36372">
        <ele>93</ele>
        <time>2021-08-31T16:10:19.000Z</time>
      </trkpt>
      <trkpt lat="47.12005" lon="-1.36365">
        <ele>93</ele>
        <time>2021-08-31T16:10:21.000Z</time>
      </trkpt>
      <trkpt lat="47.12018" lon="-1.36357">
        <ele>93</ele>
        <time>2021-08-31T16:10:23.000Z</time>
      </trkpt>
      <trkpt lat="47.1203" lon="-1.3635">
        <ele>92</ele>
        <time>2021-08-31T16:10:25.000Z</time>
      </trkpt>
      <trkpt lat="47.12043" lon="-1.36343">
        <ele>92</ele>
        <time>2021-08-31T16:10:27.000Z</time>
      </trkpt>
      <trkpt lat="47.12055" lon="-1.36335">
        <ele>92</ele>
        <time>2021-08-31T16:10:29.000Z</time>
      </trkpt>
      <trkpt lat="47.12068" lon="-1.36328">
        <ele>92</ele>
        <time>2021-08-31T16:10:31.000Z</time>
      </trkpt>
      <trkpt lat="47.1208" lon="-1.3632">
        <ele>92</ele>
        <time>2021-08-31T16:10:33.000Z</time>
      </trkpt>
      <trkpt lat="47.12093" lon="-1.36313">
        <ele>92</ele>
        <time>2021-08-31T16:10:35.000Z</time>
      </trkpt>
      <trkpt lat="47.12105" lon="-1.36305">
        <ele>91</ele>
        <time>2021-08-31T16:10:37.000Z</time>
      </trkpt>
      <trkpt lat="47.12117" lon="-1.36297">
        <ele>91</ele>
        <time>2021-08-31T16:10:39.000Z</time>
      </trkpt>
      <trkpt lat="47.1213" lon="-1.3629">
        <ele>91</ele>
        <time>2021-08-31T16:10:41.000Z</time>
      </trkpt>
      <trkpt lat="47.12142" lon="-1.36282">
        <ele>91</ele>
        <time>2021-08-31T16:10:43.000Z</time>
      </trkpt>
      <trkpt lat="47.12154" lon="-1.36274">
        <ele>91</ele>
        <time>2021-08-31T16:10:45.000Z</time>
      </trkpt>
      <trkpt lat="47.12166" lon="-1.36267">
        <ele>91</ele>
        <time>2021-08-31T16:10:47.000Z</time>
      </trkpt>
      <trkpt lat="47.12178" lon="-1.3626">
        <ele>91</ele>
        <time>2021-08-31T16:10:49.000Z</time>
      </trkpt>
      <trkpt lat="47.1219" lon="-1.36253">
        <ele>92</ele>
        <time>2021-08-31T16:10:51.000Z</time>
      </trkpt>
      <trkpt lat="47.12202" lon="-1.36246">
        <ele>93</ele>
        <time>2021-08-31T16:10:53.000Z</time>
      </trkpt>
      <trkpt lat="47.12214" lon="-1.36239">
        <ele>93</ele>
        <time>2021-08-31T16:10:55.000Z</time>
      </trkpt>
      <trkpt lat="47.12226" lon="-1.36232">
        <ele>93</ele>
        <time>2021-08-31T16:10:57.000Z</time>
      </trkpt>
      <trkpt lat="47.12238" lon="-1.36224">
        <ele>92</ele>
        <time>2021-08-31T16:10:59.000Z</time>
      </trkpt>
      <trkpt lat="47.1225" lon="-1.36216">
        <ele>92</ele>
        <time>2021-08-31T16:11:01.000Z</time>
      </trkpt>
      <trkpt lat="47.12262" lon="-1.36209">
        <ele>92</ele>
        <time>2021-08-31T16:11:03.000Z</time>
      </trkpt>
      <trkpt lat="47.12273" lon="-1.36201">
        <ele>93</ele>
        <time>2021-08-31T16:11:05.000Z</time>
      </trkpt>
      <trkpt lat="47.12285" lon="-1.36193">
        <ele>94</ele>
        <time>2021-08-31T16:11:07.000Z</time>
      </trkpt>
      <trkpt lat="47.12297" lon="-1.36186">
        <ele>94</ele>
        <time>2021-08-31T16:11:09.000Z</time>
      </trkpt>
      <trkpt lat="47.12309" lon="-1.36179">
        <ele>94</ele>
        <time>2021-08-31T16:11:11.000Z</time>
      </trkpt>
      <trkpt lat="47.12321" lon="-1.36171">
        <ele>93</ele>
        <time>2021-08-31T16:11:13.000Z</time>
      </trkpt>
      <trkpt lat="47.12333" lon="-1.36163">
        <ele>93</ele>
        <time>2021-08-31T16:11:15.000Z</time>
      </trkpt>
      <trkpt lat="47.12345" lon="-1.36156">
        <ele>93</ele>
        <time>2021-08-31T16:11:17.000Z</time>
      </trkpt>
      <trkpt lat="47.12356" lon="-1.36148">
        <ele>94</ele>
        <time>2021-08-31T16:11:19.000Z</time>
      </trkpt>
      <trkpt lat="47.12368" lon="-1.36141">
        <ele>94</ele>
        <time>2021-08-31T16:11:21.000Z</time>
      </trkpt>
      <trkpt lat="47.12379" lon="-1.36133">
        <ele>94</ele>
        <time>2021-08-31T16:11:23.000Z</time>
      </trkpt>
      <trkpt lat="47.1239" lon="-1.36125">
        <ele>94</ele>
        <time>2021-08-31T16:11:25.000Z</time>
      </trkpt>
      <trkpt lat="47.124" lon="-1.36116">
        <ele>94</ele>
        <time>2021-08-31T16:11:27.000Z</time>
      </trkpt>
      <trkpt lat="47.12411" lon="-1.36108">
        <ele>94</ele>
        <time>2021-08-31T16:11:29.000Z</time>
      </trkpt>
      <trkpt lat="47.12421" lon="-1.36099">
        <ele>94</ele>
        <time>2021-08-31T16:11:31.000Z</time>
      </trkpt>
      <trkpt lat="47.12432" lon="-1.3609">
        <ele>93</ele>
        <time>2021-08-31T16:11:33.000Z</time>
      </trkpt>
      <trkpt lat="47.12442" lon="-1.36081">
        <ele>93</ele>
        <time>2021-08-31T16:11:35.000Z</time>
      </trkpt>
      <trkpt lat="47.12452" lon="-1.36072">
        <ele>93</ele>
        <time>2021-08-31T16:11:37.000Z</time>
      </trkpt>
      <trkpt lat="47.12463" lon="-1.36063">
        <ele>92</ele>
        <time>2021-08-31T16:11:39.000Z</time>
      </trkpt>
      <trkpt lat="47.12474" lon="-1.36054">
        <ele>92</ele>
        <time>2021-08-31T16:11:41.000Z</time>
      </trkpt>
      <trkpt lat="47.12484" lon="-1.36044">
        <ele>92</ele>
        <time>2021-08-31T16:11:43.000Z</time>
      </trkpt>
      <trkpt lat="47.12495" lon="-1.36035">
        <ele>92</ele>
        <time>2021-08-31T16:11:45.000Z</time>
      </trkpt>
      <trkpt lat="47.12505" lon="-1.36026">
        <ele>91</ele>
        <time>2021-08-31T16:11:47.000Z</time>
      </trkpt>
      <trkpt lat="47.12515" lon="-1.36016">
        <ele>91</ele>
        <time>2021-08-31T16:11:49.000Z</time>
      </trkpt>
      <trkpt lat="47.12526" lon="-1.36007">
        <ele>90</ele>
        <time>2021-08-31T16:11:51.000Z</time>
      </trkpt>
      <trkpt lat="47.12537" lon="-1.35997">
        <ele>90</ele>
        <time>2021-08-31T16:11:53.000Z</time>
      </trkpt>
      <trkpt lat="47.12547" lon="-1.35988">
        <ele>90</ele>
        <time>2021-08-31T16:11:55.000Z</time>
      </trkpt>
      <trkpt lat="47.12558" lon="-1.35978">
        <ele>89</ele>
        <time>2021-08-31T16:11:57.000Z</time>
      </trkpt>
      <trkpt lat="47.12569" lon="-1.35969">
        <ele>89</ele>
        <time>2021-08-31T16:11:59.000Z</time>
      </trkpt>
      <trkpt lat="47.12579" lon="-1.3596">
        <ele>89</ele>
        <time>2021-08-31T16:12:01.000Z</time>
      </trkpt>
      <trkpt lat="47.12589" lon="-1.35951">
        <ele>89</ele>
        <time>2021-08-31T16:12:03.000Z</time>
      </trkpt>
      <trkpt lat="47.126" lon="-1.35942">
        <ele>88</ele>
        <time>2021-08-31T16:12:05.000Z</time>
      </trkpt>
      <trkpt lat="47.1261" lon="-1.35932">
        <ele>88</ele>
        <time>2021-08-31T16:12:07.000Z</time>
      </trkpt>
      <trkpt lat="47.1262" lon="-1.35923">
        <ele>87</ele>
        <time>2021-08-31T16:12:09.000Z</time>
      </trkpt>
      <trkpt lat="47.12631" lon="-1.35913">
        <ele>87</ele>
        <time>2021-08-31T16:12:11.000Z</time>
      </trkpt>
      <trkpt lat="47.12642" lon="-1.35904">
        <ele>87</ele>
        <time>2021-08-31T16:12:13.000Z</time>
      </trkpt>
      <trkpt lat="47.12652" lon="-1.35894">
        <ele>86</ele>
        <time>2021-08-31T16:12:15.000Z</time>
      </trkpt>
      <trkpt lat="47.12663" lon="-1.35885">
        <ele>86</ele>
        <time>2021-08-31T16:12:17.000Z</time>
      </trkpt>
      <trkpt lat="47.12674" lon="-1.35876">
        <ele>85</ele>
        <time>2021-08-31T16:12:19.000Z</time>
      </trkpt>
      <trkpt lat="47.12685" lon="-1.35865">
        <ele>84</ele>
        <time>2021-08-31T16:12:21.000Z</time>
      </trkpt>
      <trkpt lat="47.12696" lon="-1.35856">
        <ele>84</ele>
        <time>2021-08-31T16:12:23.000Z</time>
      </trkpt>
      <trkpt lat="47.12707" lon="-1.35844">
        <ele>83</ele>
        <time>2021-08-31T16:12:25.000Z</time>
      </trkpt>
      <trkpt lat="47.12718" lon="-1.35832">
        <ele>83</ele>
        <time>2021-08-31T16:12:27.000Z</time>
      </trkpt>
      <trkpt lat="47.12729" lon="-1.35821">
        <ele>83</ele>
        <time>2021-08-31T16:12:29.000Z</time>
      </trkpt>
      <trkpt lat="47.12741" lon="-1.3581">
        <ele>82</ele>
        <time>2021-08-31T16:12:31.000Z</time>
      </trkpt>
      <trkpt lat="47.12754" lon="-1.35801">
        <ele>82</ele>
        <time>2021-08-31T16:12:33.000Z</time>
      </trkpt>
      <trkpt lat="47.12766" lon="-1.35793">
        <ele>81</ele>
        <time>2021-08-31T16:12:35.000Z</time>
      </trkpt>
      <trkpt lat="47.12778" lon="-1.35784">
        <ele>81</ele>
        <time>2021-08-31T16:12:37.000Z</time>
      </trkpt>
      <trkpt lat="47.12791" lon="-1.35778">
        <ele>81</ele>
        <time>2021-08-31T16:12:39.000Z</time>
      </trkpt>
      <trkpt lat="47.12803" lon="-1.35772">
        <ele>81</ele>
        <time>2021-08-31T16:12:41.000Z</time>
      </trkpt>
      <trkpt lat="47.12816" lon="-1.35767">
        <ele>81</ele>
        <time>2021-08-31T16:12:43.000Z</time>
      </trkpt>
      <trkpt lat="47.12828" lon="-1.35762">
        <ele>81</ele>
        <time>2021-08-31T16:12:45.000Z</time>
      </trkpt>
      <trkpt lat="47.12841" lon="-1.35758">
        <ele>80</ele>
        <time>2021-08-31T16:12:47.000Z</time>
      </trkpt>
      <trkpt lat="47.12853" lon="-1.35753">
        <ele>80</ele>
        <time>2021-08-31T16:12:49.000Z</time>
      </trkpt>
      <trkpt lat="47.12866" lon="-1.35748">
        <ele>80</ele>
        <time>2021-08-31T16:12:51.000Z</time>
      </trkpt>
      <trkpt lat="47.12878" lon="-1.35743">
        <ele>80</ele>
        <time>2021-08-31T16:12:53.000Z</time>
      </trkpt>
      <trkpt lat="47.12891" lon="-1.35738">
        <ele>80</ele>
        <time>2021-08-31T16:12:55.000Z</time>
      </trkpt>
      <trkpt lat="47.12903" lon="-1.35733">
        <ele>80</ele>
        <time>2021-08-31T16:12:57.000Z</time>
      </trkpt>
      <trkpt lat="47.12916" lon="-1.35729">
        <ele>80</ele>
        <time>2021-08-31T16:12:59.000Z</time>
      </trkpt>
      <trkpt lat="47.12929" lon="-1.35725">
        <ele>80</ele>
        <time>2021-08-31T16:13:01.000Z</time>
      </trkpt>
      <trkpt lat="47.12941" lon="-1.35721">
        <ele>80</ele>
        <time>2021-08-31T16:13:03.000Z</time>
      </trkpt>
      <trkpt lat="47.12953" lon="-1.35716">
        <ele>81</ele>
        <time>2021-08-31T16:13:05.000Z</time>
      </trkpt>
      <trkpt lat="47.12965" lon="-1.35712">
        <ele>80</ele>
        <time>2021-08-31T16:13:07.000Z</time>
      </trkpt>
      <trkpt lat="47.12977" lon="-1.35707">
        <ele>80</ele>
        <time>2021-08-31T16:13:09.000Z</time>
      </trkpt>
      <trkpt lat="47.12989" lon="-1.35703">
        <ele>80</ele>
        <time>2021-08-31T16:13:11.000Z</time>
      </trkpt>
      <trkpt lat="47.13" lon="-1.35698">
        <ele>80</ele>
        <time>2021-08-31T16:13:13.000Z</time>
      </trkpt>
      <trkpt lat="47.1301" lon="-1.35693">
        <ele>80</ele>
        <time>2021-08-31T16:13:15.000Z</time>
      </trkpt>
      <trkpt lat="47.13022" lon="-1.35688">
        <ele>80</ele>
        <time>2021-08-31T16:13:17.000Z</time>
      </trkpt>
      <trkpt lat="47.13033" lon="-1.35683">
        <ele>80</ele>
        <time>2021-08-31T16:13:19.000Z</time>
      </trkpt>
      <trkpt lat="47.13045" lon="-1.35679">
        <ele>80</ele>
        <time>2021-08-31T16:13:21.000Z</time>
      </trkpt>
      <trkpt lat="47.13056" lon="-1.35675">
        <ele>80</ele>
        <time>2021-08-31T16:13:23.000Z</time>
      </trkpt>
      <trkpt lat="47.13067" lon="-1.35671">
        <ele>79</ele>
        <time>2021-08-31T16:13:25.000Z</time>
      </trkpt>
      <trkpt lat="47.13078" lon="-1.35665">
        <ele>79</ele>
        <time>2021-08-31T16:13:27.000Z</time>
      </trkpt>
      <trkpt lat="47.1309" lon="-1.35659">
        <ele>79</ele>
        <time>2021-08-31T16:13:29.000Z</time>
      </trkpt>
      <trkpt lat="47.13101" lon="-1.35653">
        <ele>78</ele>
        <time>2021-08-31T16:13:31.000Z</time>
      </trkpt>
      <trkpt lat="47.13112" lon="-1.35645">
        <ele>78</ele>
        <time>2021-08-31T16:13:33.000Z</time>
      </trkpt>
      <trkpt lat="47.13123" lon="-1.35635">
        <ele>78</ele>
        <time>2021-08-31T16:13:35.000Z</time>
      </trkpt>
      <trkpt lat="47.13132" lon="-1.35624">
        <ele>78</ele>
        <time>2021-08-31T16:13:37.000Z</time>
      </trkpt>
      <trkpt lat="47.1314" lon="-1.35611">
        <ele>78</ele>
        <time>2021-08-31T16:13:39.000Z</time>
      </trkpt>
      <trkpt lat="47.13145" lon="-1.35596">
        <ele>78</ele>
        <time>2021-08-31T16:13:41.000Z</time>
      </trkpt>
      <trkpt lat="47.13148" lon="-1.35581">
        <ele>78</ele>
        <time>2021-08-31T16:13:43.000Z</time>
      </trkpt>
      <trkpt lat="47.13151" lon="-1.35566">
        <ele>78</ele>
        <time>2021-08-31T16:13:45.000Z</time>
      </trkpt>
      <trkpt lat="47.13156" lon="-1.35553">
        <ele>78</ele>
        <time>2021-08-31T16:13:47.000Z</time>
      </trkpt>
      <trkpt lat="47.13163" lon="-1.35542">
        <ele>78</ele>
        <time>2021-08-31T16:13:49.000Z</time>
      </trkpt>
      <trkpt lat="47.13173" lon="-1.35534">
        <ele>78</ele>
        <time>2021-08-31T16:13:51.000Z</time>
      </trkpt>
      <trkpt lat="47.13183" lon="-1.35523">
        <ele>78</ele>
        <time>2021-08-31T16:13:53.000Z</time>
      </trkpt>
      <trkpt lat="47.13192" lon="-1.35512">
        <ele>76</ele>
        <time>2021-08-31T16:13:55.000Z</time>
      </trkpt>
      <trkpt lat="47.13202" lon="-1.35499">
        <ele>76</ele>
        <time>2021-08-31T16:13:57.000Z</time>
      </trkpt>
      <trkpt lat="47.13212" lon="-1.35487">
        <ele>75</ele>
        <time>2021-08-31T16:13:59.000Z</time>
      </trkpt>
      <trkpt lat="47.13222" lon="-1.35476">
        <ele>75</ele>
        <time>2021-08-31T16:14:01.000Z</time>
      </trkpt>
      <trkpt lat="47.13232" lon="-1.35464">
        <ele>75</ele>
        <time>2021-08-31T16:14:03.000Z</time>
      </trkpt>
      <trkpt lat="47.13242" lon="-1.35452">
        <ele>75</ele>
        <time>2021-08-31T16:14:05.000Z</time>
      </trkpt>
      <trkpt lat="47.13251" lon="-1.3544">
        <ele>76</ele>
        <time>2021-08-31T16:14:07.000Z</time>
      </trkpt>
      <trkpt lat="47.13261" lon="-1.35428">
        <ele>76</ele>
        <time>2021-08-31T16:14:09.000Z</time>
      </trkpt>
      <trkpt lat="47.1327" lon="-1.35417">
        <ele>75</ele>
        <time>2021-08-31T16:14:11.000Z</time>
      </trkpt>
      <trkpt lat="47.13279" lon="-1.35405">
        <ele>75</ele>
        <time>2021-08-31T16:14:13.000Z</time>
      </trkpt>
      <trkpt lat="47.13288" lon="-1.35392">
        <ele>75</ele>
        <time>2021-08-31T16:14:15.000Z</time>
      </trkpt>
      <trkpt lat="47.13298" lon="-1.35382">
        <ele>74</ele>
        <time>2021-08-31T16:14:17.000Z</time>
      </trkpt>
      <trkpt lat="47.1331" lon="-1.35373">
        <ele>73</ele>
        <time>2021-08-31T16:14:19.000Z</time>
      </trkpt>
      <trkpt lat="47.13322" lon="-1.35365">
        <ele>73</ele>
        <time>2021-08-31T16:14:21.000Z</time>
      </trkpt>
      <trkpt lat="47.13335" lon="-1.35358">
        <ele>72</ele>
        <time>2021-08-31T16:14:23.000Z</time>
      </trkpt>
      <trkpt lat="47.13347" lon="-1.35352">
        <ele>72</ele>
        <time>2021-08-31T16:14:25.000Z</time>
      </trkpt>
      <trkpt lat="47.13361" lon="-1.35347">
        <ele>71</ele>
        <time>2021-08-31T16:14:27.000Z</time>
      </trkpt>
      <trkpt lat="47.13374" lon="-1.35343">
        <ele>71</ele>
        <time>2021-08-31T16:14:29.000Z</time>
      </trkpt>
      <trkpt lat="47.13388" lon="-1.35339">
        <ele>70</ele>
        <time>2021-08-31T16:14:31.000Z</time>
      </trkpt>
      <trkpt lat="47.13401" lon="-1.35337">
        <ele>69</ele>
        <time>2021-08-31T16:14:33.000Z</time>
      </trkpt>
      <trkpt lat="47.13415" lon="-1.35336">
        <ele>69</ele>
        <time>2021-08-31T16:14:35.000Z</time>
      </trkpt>
      <trkpt lat="47.13429" lon="-1.35334">
        <ele>68</ele>
        <time>2021-08-31T16:14:37.000Z</time>
      </trkpt>
      <trkpt lat="47.13443" lon="-1.35332">
        <ele>67</ele>
        <time>2021-08-31T16:14:39.000Z</time>
      </trkpt>
      <trkpt lat="47.13458" lon="-1.35331">
        <ele>66</ele>
        <time>2021-08-31T16:14:41.000Z</time>
      </trkpt>
      <trkpt lat="47.13473" lon="-1.35332">
        <ele>65</ele>
        <time>2021-08-31T16:14:43.000Z</time>
      </trkpt>
      <trkpt lat="47.13488" lon="-1.35333">
        <ele>65</ele>
        <time>2021-08-31T16:14:45.000Z</time>
      </trkpt>
      <trkpt lat="47.13503" lon="-1.35337">
        <ele>64</ele>
        <time>2021-08-31T16:14:47.000Z</time>
      </trkpt>
      <trkpt lat="47.13517" lon="-1.35342">
        <ele>64</ele>
        <time>2021-08-31T16:14:49.000Z</time>
      </trkpt>
      <trkpt lat="47.13532" lon="-1.35347">
        <ele>63</ele>
        <time>2021-08-31T16:14:51.000Z</time>
      </trkpt>
      <trkpt lat="47.13546" lon="-1.35351">
        <ele>63</ele>
        <time>2021-08-31T16:14:53.000Z</time>
      </trkpt>
      <trkpt lat="47.13559" lon="-1.35355">
        <ele>62</ele>
        <time>2021-08-31T16:14:55.000Z</time>
      </trkpt>
      <trkpt lat="47.13573" lon="-1.3536">
        <ele>62</ele>
        <time>2021-08-31T16:14:57.000Z</time>
      </trkpt>
      <trkpt lat="47.13586" lon="-1.35364">
        <ele>61</ele>
        <time>2021-08-31T16:14:59.000Z</time>
      </trkpt>
      <trkpt lat="47.136" lon="-1.35366">
        <ele>61</ele>
        <time>2021-08-31T16:15:01.000Z</time>
      </trkpt>
      <trkpt lat="47.13614" lon="-1.35368">
        <ele>60</ele>
        <time>2021-08-31T16:15:03.000Z</time>
      </trkpt>
      <trkpt lat="47.13628" lon="-1.35368">
        <ele>60</ele>
        <time>2021-08-31T16:15:05.000Z</time>
      </trkpt>
      <trkpt lat="47.13643" lon="-1.35368">
        <ele>59</ele>
        <time>2021-08-31T16:15:07.000Z</time>
      </trkpt>
      <trkpt lat="47.13657" lon="-1.35366">
        <ele>58</ele>
        <time>2021-08-31T16:15:09.000Z</time>
      </trkpt>
      <trkpt lat="47.13671" lon="-1.35366">
        <ele>58</ele>
        <time>2021-08-31T16:15:11.000Z</time>
      </trkpt>
      <trkpt lat="47.13685" lon="-1.35364">
        <ele>58</ele>
        <time>2021-08-31T16:15:13.000Z</time>
      </trkpt>
      <trkpt lat="47.137" lon="-1.35363">
        <ele>58</ele>
        <time>2021-08-31T16:15:15.000Z</time>
      </trkpt>
      <trkpt lat="47.13714" lon="-1.35363">
        <ele>58</ele>
        <time>2021-08-31T16:15:17.000Z</time>
      </trkpt>
      <trkpt lat="47.13726" lon="-1.35362">
        <ele>59</ele>
        <time>2021-08-31T16:15:19.000Z</time>
      </trkpt>
      <trkpt lat="47.13738" lon="-1.35361">
        <ele>59</ele>
        <time>2021-08-31T16:15:21.000Z</time>
      </trkpt>
      <trkpt lat="47.13749" lon="-1.3536">
        <ele>59</ele>
        <time>2021-08-31T16:15:23.000Z</time>
      </trkpt>
      <trkpt lat="47.1376" lon="-1.35359">
        <ele>59</ele>
        <time>2021-08-31T16:15:25.000Z</time>
      </trkpt>
      <trkpt lat="47.13772" lon="-1.35358">
        <ele>59</ele>
        <time>2021-08-31T16:15:27.000Z</time>
      </trkpt>
      <trkpt lat="47.13783" lon="-1.35357">
        <ele>59</ele>
        <time>2021-08-31T16:15:29.000Z</time>
      </trkpt>
      <trkpt lat="47.13795" lon="-1.35356">
        <ele>58</ele>
        <time>2021-08-31T16:15:31.000Z</time>
      </trkpt>
      <trkpt lat="47.13807" lon="-1.35355">
        <ele>57</ele>
        <time>2021-08-31T16:15:33.000Z</time>
      </trkpt>
      <trkpt lat="47.13821" lon="-1.35354">
        <ele>57</ele>
        <time>2021-08-31T16:15:35.000Z</time>
      </trkpt>
      <trkpt lat="47.13834" lon="-1.35355">
        <ele>56</ele>
        <time>2021-08-31T16:15:37.000Z</time>
      </trkpt>
      <trkpt lat="47.13846" lon="-1.35362">
        <ele>57</ele>
        <time>2021-08-31T16:15:39.000Z</time>
      </trkpt>
      <trkpt lat="47.13857" lon="-1.35373">
        <ele>57</ele>
        <time>2021-08-31T16:15:41.000Z</time>
      </trkpt>
      <trkpt lat="47.13867" lon="-1.35386">
        <ele>57</ele>
        <time>2021-08-31T16:15:43.000Z</time>
      </trkpt>
      <trkpt lat="47.13878" lon="-1.35399">
        <ele>57</ele>
        <time>2021-08-31T16:15:45.000Z</time>
      </trkpt>
      <trkpt lat="47.13889" lon="-1.35412">
        <ele>57</ele>
        <time>2021-08-31T16:15:47.000Z</time>
      </trkpt>
      <trkpt lat="47.13898" lon="-1.35424">
        <ele>57</ele>
        <time>2021-08-31T16:15:49.000Z</time>
      </trkpt>
      <trkpt lat="47.13909" lon="-1.35436">
        <ele>57</ele>
        <time>2021-08-31T16:15:51.000Z</time>
      </trkpt>
      <trkpt lat="47.1392" lon="-1.35447">
        <ele>57</ele>
        <time>2021-08-31T16:15:53.000Z</time>
      </trkpt>
      <trkpt lat="47.13931" lon="-1.35456">
        <ele>57</ele>
        <time>2021-08-31T16:15:55.000Z</time>
      </trkpt>
      <trkpt lat="47.13944" lon="-1.35463">
        <ele>57</ele>
        <time>2021-08-31T16:15:57.000Z</time>
      </trkpt>
      <trkpt lat="47.13957" lon="-1.35467">
        <ele>58</ele>
        <time>2021-08-31T16:15:59.000Z</time>
      </trkpt>
      <trkpt lat="47.1397" lon="-1.35469">
        <ele>59</ele>
        <time>2021-08-31T16:16:01.000Z</time>
      </trkpt>
      <trkpt lat="47.13982" lon="-1.3547">
        <ele>59</ele>
        <time>2021-08-31T16:16:03.000Z</time>
      </trkpt>
      <trkpt lat="47.13993" lon="-1.3547">
        <ele>59</ele>
        <time>2021-08-31T16:16:05.000Z</time>
      </trkpt>
      <trkpt lat="47.14004" lon="-1.35469">
        <ele>59</ele>
        <time>2021-08-31T16:16:07.000Z</time>
      </trkpt>
      <trkpt lat="47.14014" lon="-1.3547">
        <ele>59</ele>
        <time>2021-08-31T16:16:09.000Z</time>
      </trkpt>
      <trkpt lat="47.14024" lon="-1.3547">
        <ele>60</ele>
        <time>2021-08-31T16:16:11.000Z</time>
      </trkpt>
      <trkpt lat="47.14034" lon="-1.35469">
        <ele>60</ele>
        <time>2021-08-31T16:16:13.000Z</time>
      </trkpt>
      <trkpt lat="47.14043" lon="-1.35469">
        <ele>60</ele>
        <time>2021-08-31T16:16:15.000Z</time>
      </trkpt>
      <trkpt lat="47.14053" lon="-1.35469">
        <ele>61</ele>
        <time>2021-08-31T16:16:17.000Z</time>
      </trkpt>
      <trkpt lat="47.14062" lon="-1.35469">
        <ele>62</ele>
        <time>2021-08-31T16:16:19.000Z</time>
      </trkpt>
      <trkpt lat="47.14072" lon="-1.35469">
        <ele>62</ele>
        <time>2021-08-31T16:16:21.000Z</time>
      </trkpt>
      <trkpt lat="47.14081" lon="-1.35469">
        <ele>63</ele>
        <time>2021-08-31T16:16:23.000Z</time>
      </trkpt>
      <trkpt lat="47.1409" lon="-1.35468">
        <ele>63</ele>
        <time>2021-08-31T16:16:25.000Z</time>
      </trkpt>
      <trkpt lat="47.14099" lon="-1.35469">
        <ele>64</ele>
        <time>2021-08-31T16:16:27.000Z</time>
      </trkpt>
      <trkpt lat="47.14109" lon="-1.35469">
        <ele>64</ele>
        <time>2021-08-31T16:16:29.000Z</time>
      </trkpt>
      <trkpt lat="47.14118" lon="-1.35469">
        <ele>65</ele>
        <time>2021-08-31T16:16:31.000Z</time>
      </trkpt>
      <trkpt lat="47.14127" lon="-1.3547">
        <ele>66</ele>
        <time>2021-08-31T16:16:33.000Z</time>
      </trkpt>
      <trkpt lat="47.14136" lon="-1.3547">
        <ele>66</ele>
        <time>2021-08-31T16:16:35.000Z</time>
      </trkpt>
      <trkpt lat="47.14146" lon="-1.3547">
        <ele>66</ele>
        <time>2021-08-31T16:16:37.000Z</time>
      </trkpt>
      <trkpt lat="47.14159" lon="-1.3547">
        <ele>67</ele>
        <time>2021-08-31T16:16:40.000Z</time>
      </trkpt>
      <trkpt lat="47.14169" lon="-1.35471">
        <ele>67</ele>
        <time>2021-08-31T16:16:42.000Z</time>
      </trkpt>
      <trkpt lat="47.14178" lon="-1.35471">
        <ele>67</ele>
        <time>2021-08-31T16:16:44.000Z</time>
      </trkpt>
      <trkpt lat="47.14188" lon="-1.35471">
        <ele>68</ele>
        <time>2021-08-31T16:16:46.000Z</time>
      </trkpt>
      <trkpt lat="47.14197" lon="-1.35471">
        <ele>68</ele>
        <time>2021-08-31T16:16:48.000Z</time>
      </trkpt>
      <trkpt lat="47.14206" lon="-1.35471">
        <ele>69</ele>
        <time>2021-08-31T16:16:50.000Z</time>
      </trkpt>
      <trkpt lat="47.14219" lon="-1.3547">
        <ele>69</ele>
        <time>2021-08-31T16:16:53.000Z</time>
      </trkpt>
      <trkpt lat="47.14232" lon="-1.35468">
        <ele>70</ele>
        <time>2021-08-31T16:16:56.000Z</time>
      </trkpt>
      <trkpt lat="47.14244" lon="-1.35465">
        <ele>71</ele>
        <time>2021-08-31T16:16:59.000Z</time>
      </trkpt>
      <trkpt lat="47.14257" lon="-1.3546">
        <ele>71</ele>
        <time>2021-08-31T16:17:02.000Z</time>
      </trkpt>
      <trkpt lat="47.1427" lon="-1.35454">
        <ele>72</ele>
        <time>2021-08-31T16:17:05.000Z</time>
      </trkpt>
      <trkpt lat="47.14278" lon="-1.3545">
        <ele>72</ele>
        <time>2021-08-31T16:17:07.000Z</time>
      </trkpt>
      <trkpt lat="47.14291" lon="-1.35443">
        <ele>73</ele>
        <time>2021-08-31T16:17:10.000Z</time>
      </trkpt>
      <trkpt lat="47.143" lon="-1.35438">
        <ele>73</ele>
        <time>2021-08-31T16:17:12.000Z</time>
      </trkpt>
      <trkpt lat="47.14308" lon="-1.35433">
        <ele>74</ele>
        <time>2021-08-31T16:17:14.000Z</time>
      </trkpt>
      <trkpt lat="47.14318" lon="-1.35428">
        <ele>74</ele>
        <time>2021-08-31T16:17:16.000Z</time>
      </trkpt>
      <trkpt lat="47.14326" lon="-1.35423">
        <ele>74</ele>
        <time>2021-08-31T16:17:18.000Z</time>
      </trkpt>
      <trkpt lat="47.14335" lon="-1.35417">
        <ele>75</ele>
        <time>2021-08-31T16:17:20.000Z</time>
      </trkpt>
      <trkpt lat="47.14344" lon="-1.35412">
        <ele>75</ele>
        <time>2021-08-31T16:17:22.000Z</time>
      </trkpt>
      <trkpt lat="47.14353" lon="-1.35407">
        <ele>75</ele>
        <time>2021-08-31T16:17:24.000Z</time>
      </trkpt>
      <trkpt lat="47.14362" lon="-1.35401">
        <ele>75</ele>
        <time>2021-08-31T16:17:26.000Z</time>
      </trkpt>
      <trkpt lat="47.14371" lon="-1.35396">
        <ele>76</ele>
        <time>2021-08-31T16:17:28.000Z</time>
      </trkpt>
      <trkpt lat="47.1438" lon="-1.35392">
        <ele>76</ele>
        <time>2021-08-31T16:17:30.000Z</time>
      </trkpt>
      <trkpt lat="47.14389" lon="-1.35386">
        <ele>76</ele>
        <time>2021-08-31T16:17:32.000Z</time>
      </trkpt>
      <trkpt lat="47.14397" lon="-1.35381">
        <ele>77</ele>
        <time>2021-08-31T16:17:34.000Z</time>
      </trkpt>
      <trkpt lat="47.14406" lon="-1.35377">
        <ele>77</ele>
        <time>2021-08-31T16:17:36.000Z</time>
      </trkpt>
      <trkpt lat="47.14415" lon="-1.35372">
        <ele>77</ele>
        <time>2021-08-31T16:17:38.000Z</time>
      </trkpt>
      <trkpt lat="47.14423" lon="-1.35367">
        <ele>77</ele>
        <time>2021-08-31T16:17:40.000Z</time>
      </trkpt>
      <trkpt lat="47.14432" lon="-1.35362">
        <ele>77</ele>
        <time>2021-08-31T16:17:42.000Z</time>
      </trkpt>
      <trkpt lat="47.1444" lon="-1.35358">
        <ele>78</ele>
        <time>2021-08-31T16:17:44.000Z</time>
      </trkpt>
      <trkpt lat="47.14449" lon="-1.35353">
        <ele>78</ele>
        <time>2021-08-31T16:17:46.000Z</time>
      </trkpt>
      <trkpt lat="47.14458" lon="-1.35347">
        <ele>78</ele>
        <time>2021-08-31T16:17:48.000Z</time>
      </trkpt>
      <trkpt lat="47.14467" lon="-1.35342">
        <ele>78</ele>
        <time>2021-08-31T16:17:50.000Z</time>
      </trkpt>
      <trkpt lat="47.14476" lon="-1.35338">
        <ele>78</ele>
        <time>2021-08-31T16:17:52.000Z</time>
      </trkpt>
      <trkpt lat="47.14485" lon="-1.35332">
        <ele>78</ele>
        <time>2021-08-31T16:17:54.000Z</time>
      </trkpt>
      <trkpt lat="47.14493" lon="-1.35328">
        <ele>79</ele>
        <time>2021-08-31T16:17:56.000Z</time>
      </trkpt>
      <trkpt lat="47.14502" lon="-1.35323">
        <ele>79</ele>
        <time>2021-08-31T16:17:58.000Z</time>
      </trkpt>
      <trkpt lat="47.14511" lon="-1.35318">
        <ele>79</ele>
        <time>2021-08-31T16:18:00.000Z</time>
      </trkpt>
      <trkpt lat="47.1452" lon="-1.35313">
        <ele>79</ele>
        <time>2021-08-31T16:18:02.000Z</time>
      </trkpt>
      <trkpt lat="47.1453" lon="-1.35307">
        <ele>79</ele>
        <time>2021-08-31T16:18:04.000Z</time>
      </trkpt>
      <trkpt lat="47.14539" lon="-1.35302">
        <ele>79</ele>
        <time>2021-08-31T16:18:06.000Z</time>
      </trkpt>
      <trkpt lat="47.14549" lon="-1.35297">
        <ele>79</ele>
        <time>2021-08-31T16:18:08.000Z</time>
      </trkpt>
      <trkpt lat="47.14558" lon="-1.35291">
        <ele>78</ele>
        <time>2021-08-31T16:18:10.000Z</time>
      </trkpt>
      <trkpt lat="47.14568" lon="-1.35285">
        <ele>78</ele>
        <time>2021-08-31T16:18:12.000Z</time>
      </trkpt>
      <trkpt lat="47.14577" lon="-1.35279">
        <ele>78</ele>
        <time>2021-08-31T16:18:14.000Z</time>
      </trkpt>
      <trkpt lat="47.14586" lon="-1.35274">
        <ele>78</ele>
        <time>2021-08-31T16:18:16.000Z</time>
      </trkpt>
      <trkpt lat="47.14593" lon="-1.35265">
        <ele>79</ele>
        <time>2021-08-31T16:18:18.000Z</time>
      </trkpt>
      <trkpt lat="47.14599" lon="-1.35254">
        <ele>79</ele>
        <time>2021-08-31T16:18:20.000Z</time>
      </trkpt>
      <trkpt lat="47.14608" lon="-1.35248">
        <ele>79</ele>
        <time>2021-08-31T16:18:22.000Z</time>
      </trkpt>
      <trkpt lat="47.14618" lon="-1.35244">
        <ele>79</ele>
        <time>2021-08-31T16:18:24.000Z</time>
      </trkpt>
      <trkpt lat="47.14628" lon="-1.3524">
        <ele>79</ele>
        <time>2021-08-31T16:18:26.000Z</time>
      </trkpt>
      <trkpt lat="47.14637" lon="-1.35234">
        <ele>79</ele>
        <time>2021-08-31T16:18:28.000Z</time>
      </trkpt>
      <trkpt lat="47.14646" lon="-1.35228">
        <ele>79</ele>
        <time>2021-08-31T16:18:30.000Z</time>
      </trkpt>
      <trkpt lat="47.14654" lon="-1.3522">
        <ele>80</ele>
        <time>2021-08-31T16:18:32.000Z</time>
      </trkpt>
      <trkpt lat="47.14663" lon="-1.35212">
        <ele>80</ele>
        <time>2021-08-31T16:18:34.000Z</time>
      </trkpt>
      <trkpt lat="47.14672" lon="-1.35204">
        <ele>80</ele>
        <time>2021-08-31T16:18:36.000Z</time>
      </trkpt>
      <trkpt lat="47.14682" lon="-1.35194">
        <ele>80</ele>
        <time>2021-08-31T16:18:38.000Z</time>
      </trkpt>
      <trkpt lat="47.14692" lon="-1.35185">
        <ele>79</ele>
        <time>2021-08-31T16:18:40.000Z</time>
      </trkpt>
      <trkpt lat="47.14703" lon="-1.35176">
        <ele>79</ele>
        <time>2021-08-31T16:18:42.000Z</time>
      </trkpt>
      <trkpt lat="47.14713" lon="-1.35166">
        <ele>79</ele>
        <time>2021-08-31T16:18:44.000Z</time>
      </trkpt>
      <trkpt lat="47.14724" lon="-1.35155">
        <ele>79</ele>
        <time>2021-08-31T16:18:46.000Z</time>
      </trkpt>
      <trkpt lat="47.14736" lon="-1.35144">
        <ele>78</ele>
        <time>2021-08-31T16:18:48.000Z</time>
      </trkpt>
      <trkpt lat="47.14748" lon="-1.35132">
        <ele>78</ele>
        <time>2021-08-31T16:18:50.000Z</time>
      </trkpt>
      <trkpt lat="47.14761" lon="-1.3512">
        <ele>77</ele>
        <time>2021-08-31T16:18:52.000Z</time>
      </trkpt>
      <trkpt lat="47.14774" lon="-1.35109">
        <ele>77</ele>
        <time>2021-08-31T16:18:54.000Z</time>
      </trkpt>
      <trkpt lat="47.14786" lon="-1.35097">
        <ele>77</ele>
        <time>2021-08-31T16:18:56.000Z</time>
      </trkpt>
      <trkpt lat="47.14798" lon="-1.35086">
        <ele>76</ele>
        <time>2021-08-31T16:18:58.000Z</time>
      </trkpt>
      <trkpt lat="47.1481" lon="-1.35075">
        <ele>76</ele>
        <time>2021-08-31T16:19:00.000Z</time>
      </trkpt>
      <trkpt lat="47.14822" lon="-1.35063">
        <ele>76</ele>
        <time>2021-08-31T16:19:02.000Z</time>
      </trkpt>
      <trkpt lat="47.14834" lon="-1.35051">
        <ele>76</ele>
        <time>2021-08-31T16:19:04.000Z</time>
      </trkpt>
      <trkpt lat="47.14845" lon="-1.3504">
        <ele>76</ele>
        <time>2021-08-31T16:19:06.000Z</time>
      </trkpt>
      <trkpt lat="47.14857" lon="-1.3503">
        <ele>76</ele>
        <time>2021-08-31T16:19:08.000Z</time>
      </trkpt>
      <trkpt lat="47.14868" lon="-1.35018">
        <ele>75</ele>
        <time>2021-08-31T16:19:10.000Z</time>
      </trkpt>
      <trkpt lat="47.1488" lon="-1.35006">
        <ele>75</ele>
        <time>2021-08-31T16:19:12.000Z</time>
      </trkpt>
      <trkpt lat="47.14892" lon="-1.34995">
        <ele>75</ele>
        <time>2021-08-31T16:19:14.000Z</time>
      </trkpt>
      <trkpt lat="47.14903" lon="-1.34984">
        <ele>75</ele>
        <time>2021-08-31T16:19:16.000Z</time>
      </trkpt>
      <trkpt lat="47.14914" lon="-1.34972">
        <ele>75</ele>
        <time>2021-08-31T16:19:18.000Z</time>
      </trkpt>
      <trkpt lat="47.14925" lon="-1.34961">
        <ele>75</ele>
        <time>2021-08-31T16:19:20.000Z</time>
      </trkpt>
      <trkpt lat="47.14936" lon="-1.3495">
        <ele>75</ele>
        <time>2021-08-31T16:19:22.000Z</time>
      </trkpt>
      <trkpt lat="47.14946" lon="-1.3494">
        <ele>74</ele>
        <time>2021-08-31T16:19:24.000Z</time>
      </trkpt>
      <trkpt lat="47.14956" lon="-1.34928">
        <ele>75</ele>
        <time>2021-08-31T16:19:26.000Z</time>
      </trkpt>
      <trkpt lat="47.14966" lon="-1.34915">
        <ele>75</ele>
        <time>2021-08-31T16:19:28.000Z</time>
      </trkpt>
      <trkpt lat="47.14976" lon="-1.34903">
        <ele>75</ele>
        <time>2021-08-31T16:19:30.000Z</time>
      </trkpt>
      <trkpt lat="47.14986" lon="-1.3489">
        <ele>75</ele>
        <time>2021-08-31T16:19:32.000Z</time>
      </trkpt>
      <trkpt lat="47.14996" lon="-1.34877">
        <ele>75</ele>
        <time>2021-08-31T16:19:34.000Z</time>
      </trkpt>
      <trkpt lat="47.15005" lon="-1.34865">
        <ele>75</ele>
        <time>2021-08-31T16:19:36.000Z</time>
      </trkpt>
      <trkpt lat="47.15015" lon="-1.34853">
        <ele>74</ele>
        <time>2021-08-31T16:19:38.000Z</time>
      </trkpt>
      <trkpt lat="47.15024" lon="-1.34841">
        <ele>74</ele>
        <time>2021-08-31T16:19:40.000Z</time>
      </trkpt>
      <trkpt lat="47.15034" lon="-1.34828">
        <ele>74</ele>
        <time>2021-08-31T16:19:42.000Z</time>
      </trkpt>
      <trkpt lat="47.15044" lon="-1.34816">
        <ele>73</ele>
        <time>2021-08-31T16:19:44.000Z</time>
      </trkpt>
      <trkpt lat="47.15053" lon="-1.34803">
        <ele>73</ele>
        <time>2021-08-31T16:19:46.000Z</time>
      </trkpt>
      <trkpt lat="47.15063" lon="-1.34791">
        <ele>73</ele>
        <time>2021-08-31T16:19:48.000Z</time>
      </trkpt>
      <trkpt lat="47.15073" lon="-1.34778">
        <ele>73</ele>
        <time>2021-08-31T16:19:50.000Z</time>
      </trkpt>
      <trkpt lat="47.15083" lon="-1.34766">
        <ele>73</ele>
        <time>2021-08-31T16:19:52.000Z</time>
      </trkpt>
      <trkpt lat="47.15093" lon="-1.34754">
        <ele>74</ele>
        <time>2021-08-31T16:19:54.000Z</time>
      </trkpt>
      <trkpt lat="47.15103" lon="-1.34742">
        <ele>74</ele>
        <time>2021-08-31T16:19:56.000Z</time>
      </trkpt>
      <trkpt lat="47.15112" lon="-1.34729">
        <ele>74</ele>
        <time>2021-08-31T16:19:58.000Z</time>
      </trkpt>
      <trkpt lat="47.15122" lon="-1.34718">
        <ele>74</ele>
        <time>2021-08-31T16:20:00.000Z</time>
      </trkpt>
      <trkpt lat="47.15131" lon="-1.34706">
        <ele>74</ele>
        <time>2021-08-31T16:20:02.000Z</time>
      </trkpt>
      <trkpt lat="47.1514" lon="-1.34695">
        <ele>75</ele>
        <time>2021-08-31T16:20:04.000Z</time>
      </trkpt>
      <trkpt lat="47.15149" lon="-1.34683">
        <ele>75</ele>
        <time>2021-08-31T16:20:06.000Z</time>
      </trkpt>
      <trkpt lat="47.15158" lon="-1.34671">
        <ele>75</ele>
        <time>2021-08-31T16:20:08.000Z</time>
      </trkpt>
      <trkpt lat="47.15167" lon="-1.34659">
        <ele>75</ele>
        <time>2021-08-31T16:20:10.000Z</time>
      </trkpt>
      <trkpt lat="47.15176" lon="-1.34648">
        <ele>75</ele>
        <time>2021-08-31T16:20:12.000Z</time>
      </trkpt>
      <trkpt lat="47.15185" lon="-1.34636">
        <ele>75</ele>
        <time>2021-08-31T16:20:14.000Z</time>
      </trkpt>
      <trkpt lat="47.15194" lon="-1.34625">
        <ele>75</ele>
        <time>2021-08-31T16:20:16.000Z</time>
      </trkpt>
      <trkpt lat="47.15203" lon="-1.34614">
        <ele>76</ele>
        <time>2021-08-31T16:20:18.000Z</time>
      </trkpt>
      <trkpt lat="47.15212" lon="-1.34603">
        <ele>76</ele>
        <time>2021-08-31T16:20:20.000Z</time>
      </trkpt>
      <trkpt lat="47.15221" lon="-1.34591">
        <ele>76</ele>
        <time>2021-08-31T16:20:22.000Z</time>
      </trkpt>
      <trkpt lat="47.1523" lon="-1.34579">
        <ele>76</ele>
        <time>2021-08-31T16:20:24.000Z</time>
      </trkpt>
      <trkpt lat="47.15239" lon="-1.34568">
        <ele>76</ele>
        <time>2021-08-31T16:20:26.000Z</time>
      </trkpt>
      <trkpt lat="47.15248" lon="-1.34556">
        <ele>76</ele>
        <time>2021-08-31T16:20:28.000Z</time>
      </trkpt>
      <trkpt lat="47.15257" lon="-1.34545">
        <ele>76</ele>
        <time>2021-08-31T16:20:30.000Z</time>
      </trkpt>
      <trkpt lat="47.15266" lon="-1.34533">
        <ele>76</ele>
        <time>2021-08-31T16:20:32.000Z</time>
      </trkpt>
      <trkpt lat="47.15276" lon="-1.34522">
        <ele>76</ele>
        <time>2021-08-31T16:20:34.000Z</time>
      </trkpt>
      <trkpt lat="47.15285" lon="-1.34511">
        <ele>76</ele>
        <time>2021-08-31T16:20:36.000Z</time>
      </trkpt>
      <trkpt lat="47.15294" lon="-1.34499">
        <ele>77</ele>
        <time>2021-08-31T16:20:38.000Z</time>
      </trkpt>
      <trkpt lat="47.15304" lon="-1.34487">
        <ele>77</ele>
        <time>2021-08-31T16:20:40.000Z</time>
      </trkpt>
      <trkpt lat="47.15313" lon="-1.34476">
        <ele>77</ele>
        <time>2021-08-31T16:20:42.000Z</time>
      </trkpt>
      <trkpt lat="47.15323" lon="-1.34464">
        <ele>77</ele>
        <time>2021-08-31T16:20:44.000Z</time>
      </trkpt>
      <trkpt lat="47.15333" lon="-1.34454">
        <ele>77</ele>
        <time>2021-08-31T16:20:46.000Z</time>
      </trkpt>
      <trkpt lat="47.15343" lon="-1.34445">
        <ele>77</ele>
        <time>2021-08-31T16:20:48.000Z</time>
      </trkpt>
      <trkpt lat="47.15353" lon="-1.34436">
        <ele>77</ele>
        <time>2021-08-31T16:20:50.000Z</time>
      </trkpt>
      <trkpt lat="47.15364" lon="-1.34429">
        <ele>77</ele>
        <time>2021-08-31T16:20:52.000Z</time>
      </trkpt>
      <trkpt lat="47.15375" lon="-1.34423">
        <ele>77</ele>
        <time>2021-08-31T16:20:54.000Z</time>
      </trkpt>
      <trkpt lat="47.15387" lon="-1.34418">
        <ele>77</ele>
        <time>2021-08-31T16:20:56.000Z</time>
      </trkpt>
      <trkpt lat="47.15399" lon="-1.34414">
        <ele>76</ele>
        <time>2021-08-31T16:20:58.000Z</time>
      </trkpt>
      <trkpt lat="47.15411" lon="-1.34413">
        <ele>76</ele>
        <time>2021-08-31T16:21:00.000Z</time>
      </trkpt>
      <trkpt lat="47.15423" lon="-1.34414">
        <ele>76</ele>
        <time>2021-08-31T16:21:02.000Z</time>
      </trkpt>
      <trkpt lat="47.15435" lon="-1.34415">
        <ele>76</ele>
        <time>2021-08-31T16:21:04.000Z</time>
      </trkpt>
      <trkpt lat="47.15447" lon="-1.34417">
        <ele>76</ele>
        <time>2021-08-31T16:21:06.000Z</time>
      </trkpt>
      <trkpt lat="47.1546" lon="-1.3442">
        <ele>76</ele>
        <time>2021-08-31T16:21:08.000Z</time>
      </trkpt>
      <trkpt lat="47.15472" lon="-1.34423">
        <ele>76</ele>
        <time>2021-08-31T16:21:10.000Z</time>
      </trkpt>
      <trkpt lat="47.15484" lon="-1.34426">
        <ele>76</ele>
        <time>2021-08-31T16:21:12.000Z</time>
      </trkpt>
      <trkpt lat="47.15495" lon="-1.34429">
        <ele>76</ele>
        <time>2021-08-31T16:21:14.000Z</time>
      </trkpt>
      <trkpt lat="47.15507" lon="-1.34433">
        <ele>77</ele>
        <time>2021-08-31T16:21:16.000Z</time>
      </trkpt>
      <trkpt lat="47.15519" lon="-1.34436">
        <ele>77</ele>
        <time>2021-08-31T16:21:18.000Z</time>
      </trkpt>
      <trkpt lat="47.1553" lon="-1.34439">
        <ele>77</ele>
        <time>2021-08-31T16:21:20.000Z</time>
      </trkpt>
      <trkpt lat="47.15541" lon="-1.34441">
        <ele>77</ele>
        <time>2021-08-31T16:21:22.000Z</time>
      </trkpt>
      <trkpt lat="47.15552" lon="-1.34444">
        <ele>78</ele>
        <time>2021-08-31T16:21:24.000Z</time>
      </trkpt>
      <trkpt lat="47.15562" lon="-1.34447">
        <ele>78</ele>
        <time>2021-08-31T16:21:26.000Z</time>
      </trkpt>
      <trkpt lat="47.15577" lon="-1.34451">
        <ele>78</ele>
        <time>2021-08-31T16:21:29.000Z</time>
      </trkpt>
      <trkpt lat="47.15587" lon="-1.34454">
        <ele>78</ele>
        <time>2021-08-31T16:21:31.000Z</time>
      </trkpt>
      <trkpt lat="47.15598" lon="-1.34456">
        <ele>78</ele>
        <time>2021-08-31T16:21:33.000Z</time>
      </trkpt>
      <trkpt lat="47.15608" lon="-1.34457">
        <ele>78</ele>
        <time>2021-08-31T16:21:35.000Z</time>
      </trkpt>
      <trkpt lat="47.15619" lon="-1.34458">
        <ele>78</ele>
        <time>2021-08-31T16:21:37.000Z</time>
      </trkpt>
      <trkpt lat="47.15629" lon="-1.34456">
        <ele>78</ele>
        <time>2021-08-31T16:21:39.000Z</time>
      </trkpt>
      <trkpt lat="47.1564" lon="-1.34453">
        <ele>79</ele>
        <time>2021-08-31T16:21:41.000Z</time>
      </trkpt>
      <trkpt lat="47.1565" lon="-1.34449">
        <ele>79</ele>
        <time>2021-08-31T16:21:43.000Z</time>
      </trkpt>
      <trkpt lat="47.1566" lon="-1.34442">
        <ele>79</ele>
        <time>2021-08-31T16:21:45.000Z</time>
      </trkpt>
      <trkpt lat="47.15669" lon="-1.34435">
        <ele>79</ele>
        <time>2021-08-31T16:21:47.000Z</time>
      </trkpt>
      <trkpt lat="47.15677" lon="-1.34425">
        <ele>80</ele>
        <time>2021-08-31T16:21:49.000Z</time>
      </trkpt>
      <trkpt lat="47.15685" lon="-1.34415">
        <ele>80</ele>
        <time>2021-08-31T16:21:51.000Z</time>
      </trkpt>
      <trkpt lat="47.15693" lon="-1.34404">
        <ele>79</ele>
        <time>2021-08-31T16:21:53.000Z</time>
      </trkpt>
      <trkpt lat="47.15701" lon="-1.34394">
        <ele>80</ele>
        <time>2021-08-31T16:21:55.000Z</time>
      </trkpt>
      <trkpt lat="47.15713" lon="-1.34378">
        <ele>80</ele>
        <time>2021-08-31T16:21:58.000Z</time>
      </trkpt>
      <trkpt lat="47.15721" lon="-1.34368">
        <ele>80</ele>
        <time>2021-08-31T16:22:00.000Z</time>
      </trkpt>
      <trkpt lat="47.15729" lon="-1.34358">
        <ele>80</ele>
        <time>2021-08-31T16:22:02.000Z</time>
      </trkpt>
      <trkpt lat="47.15737" lon="-1.34349">
        <ele>80</ele>
        <time>2021-08-31T16:22:04.000Z</time>
      </trkpt>
      <trkpt lat="47.15746" lon="-1.3434">
        <ele>80</ele>
        <time>2021-08-31T16:22:06.000Z</time>
      </trkpt>
      <trkpt lat="47.15754" lon="-1.34331">
        <ele>80</ele>
        <time>2021-08-31T16:22:08.000Z</time>
      </trkpt>
      <trkpt lat="47.15763" lon="-1.34322">
        <ele>81</ele>
        <time>2021-08-31T16:22:10.000Z</time>
      </trkpt>
      <trkpt lat="47.15771" lon="-1.34314">
        <ele>81</ele>
        <time>2021-08-31T16:22:12.000Z</time>
      </trkpt>
      <trkpt lat="47.15784" lon="-1.34302">
        <ele>81</ele>
        <time>2021-08-31T16:22:15.000Z</time>
      </trkpt>
      <trkpt lat="47.15793" lon="-1.34295">
        <ele>82</ele>
        <time>2021-08-31T16:22:17.000Z</time>
      </trkpt>
      <trkpt lat="47.15801" lon="-1.34288">
        <ele>82</ele>
        <time>2021-08-31T16:22:19.000Z</time>
      </trkpt>
      <trkpt lat="47.1581" lon="-1.34281">
        <ele>83</ele>
        <time>2021-08-31T16:22:21.000Z</time>
      </trkpt>
      <trkpt lat="47.1582" lon="-1.34275">
        <ele>83</ele>
        <time>2021-08-31T16:22:23.000Z</time>
      </trkpt>
      <trkpt lat="47.15829" lon="-1.34268">
        <ele>83</ele>
        <time>2021-08-31T16:22:25.000Z</time>
      </trkpt>
      <trkpt lat="47.15838" lon="-1.34262">
        <ele>84</ele>
        <time>2021-08-31T16:22:27.000Z</time>
      </trkpt>
      <trkpt lat="47.15847" lon="-1.34256">
        <ele>84</ele>
        <time>2021-08-31T16:22:29.000Z</time>
      </trkpt>
      <trkpt lat="47.15856" lon="-1.3425">
        <ele>84</ele>
        <time>2021-08-31T16:22:31.000Z</time>
      </trkpt>
      <trkpt lat="47.15865" lon="-1.34245">
        <ele>84</ele>
        <time>2021-08-31T16:22:33.000Z</time>
      </trkpt>
      <trkpt lat="47.15875" lon="-1.3424">
        <ele>84</ele>
        <time>2021-08-31T16:22:35.000Z</time>
      </trkpt>
      <trkpt lat="47.15884" lon="-1.34235">
        <ele>85</ele>
        <time>2021-08-31T16:22:37.000Z</time>
      </trkpt>
      <trkpt lat="47.15894" lon="-1.3423">
        <ele>85</ele>
        <time>2021-08-31T16:22:39.000Z</time>
      </trkpt>
      <trkpt lat="47.15903" lon="-1.34224">
        <ele>85</ele>
        <time>2021-08-31T16:22:41.000Z</time>
      </trkpt>
      <trkpt lat="47.15913" lon="-1.34219">
        <ele>85</ele>
        <time>2021-08-31T16:22:43.000Z</time>
      </trkpt>
      <trkpt lat="47.15923" lon="-1.34213">
        <ele>85</ele>
        <time>2021-08-31T16:22:45.000Z</time>
      </trkpt>
      <trkpt lat="47.15933" lon="-1.34208">
        <ele>85</ele>
        <time>2021-08-31T16:22:47.000Z</time>
      </trkpt>
      <trkpt lat="47.15943" lon="-1.34202">
        <ele>84</ele>
        <time>2021-08-31T16:22:49.000Z</time>
      </trkpt>
      <trkpt lat="47.15954" lon="-1.34196">
        <ele>84</ele>
        <time>2021-08-31T16:22:51.000Z</time>
      </trkpt>
      <trkpt lat="47.15965" lon="-1.3419">
        <ele>84</ele>
        <time>2021-08-31T16:22:53.000Z</time>
      </trkpt>
      <trkpt lat="47.15975" lon="-1.34184">
        <ele>84</ele>
        <time>2021-08-31T16:22:55.000Z</time>
      </trkpt>
      <trkpt lat="47.15986" lon="-1.34178">
        <ele>83</ele>
        <time>2021-08-31T16:22:57.000Z</time>
      </trkpt>
      <trkpt lat="47.15997" lon="-1.34172">
        <ele>83</ele>
        <time>2021-08-31T16:22:59.000Z</time>
      </trkpt>
      <trkpt lat="47.16009" lon="-1.34167">
        <ele>83</ele>
        <time>2021-08-31T16:23:01.000Z</time>
      </trkpt>
      <trkpt lat="47.16021" lon="-1.34161">
        <ele>82</ele>
        <time>2021-08-31T16:23:03.000Z</time>
      </trkpt>
      <trkpt lat="47.16033" lon="-1.34156">
        <ele>82</ele>
        <time>2021-08-31T16:23:05.000Z</time>
      </trkpt>
      <trkpt lat="47.16045" lon="-1.34152">
        <ele>82</ele>
        <time>2021-08-31T16:23:07.000Z</time>
      </trkpt>
      <trkpt lat="47.16058" lon="-1.34148">
        <ele>81</ele>
        <time>2021-08-31T16:23:09.000Z</time>
      </trkpt>
      <trkpt lat="47.16071" lon="-1.34144">
        <ele>81</ele>
        <time>2021-08-31T16:23:11.000Z</time>
      </trkpt>
      <trkpt lat="47.16083" lon="-1.34141">
        <ele>80</ele>
        <time>2021-08-31T16:23:13.000Z</time>
      </trkpt>
      <trkpt lat="47.16095" lon="-1.34138">
        <ele>80</ele>
        <time>2021-08-31T16:23:15.000Z</time>
      </trkpt>
      <trkpt lat="47.16108" lon="-1.34136">
        <ele>80</ele>
        <time>2021-08-31T16:23:17.000Z</time>
      </trkpt>
      <trkpt lat="47.1612" lon="-1.34134">
        <ele>79</ele>
        <time>2021-08-31T16:23:19.000Z</time>
      </trkpt>
      <trkpt lat="47.16132" lon="-1.34131">
        <ele>79</ele>
        <time>2021-08-31T16:23:21.000Z</time>
      </trkpt>
      <trkpt lat="47.16145" lon="-1.3413">
        <ele>79</ele>
        <time>2021-08-31T16:23:23.000Z</time>
      </trkpt>
      <trkpt lat="47.16157" lon="-1.3413">
        <ele>79</ele>
        <time>2021-08-31T16:23:25.000Z</time>
      </trkpt>
      <trkpt lat="47.1617" lon="-1.3413">
        <ele>78</ele>
        <time>2021-08-31T16:23:27.000Z</time>
      </trkpt>
      <trkpt lat="47.16183" lon="-1.34131">
        <ele>78</ele>
        <time>2021-08-31T16:23:29.000Z</time>
      </trkpt>
      <trkpt lat="47.16195" lon="-1.34131">
        <ele>78</ele>
        <time>2021-08-31T16:23:31.000Z</time>
      </trkpt>
      <trkpt lat="47.16209" lon="-1.34132">
        <ele>78</ele>
        <time>2021-08-31T16:23:33.000Z</time>
      </trkpt>
      <trkpt lat="47.16222" lon="-1.34132">
        <ele>78</ele>
        <time>2021-08-31T16:23:35.000Z</time>
      </trkpt>
      <trkpt lat="47.16235" lon="-1.34133">
        <ele>77</ele>
        <time>2021-08-31T16:23:37.000Z</time>
      </trkpt>
      <trkpt lat="47.16248" lon="-1.34134">
        <ele>77</ele>
        <time>2021-08-31T16:23:39.000Z</time>
      </trkpt>
      <trkpt lat="47.16261" lon="-1.34135">
        <ele>77</ele>
        <time>2021-08-31T16:23:41.000Z</time>
      </trkpt>
      <trkpt lat="47.16274" lon="-1.34136">
        <ele>77</ele>
        <time>2021-08-31T16:23:43.000Z</time>
      </trkpt>
      <trkpt lat="47.16287" lon="-1.34137">
        <ele>77</ele>
        <time>2021-08-31T16:23:45.000Z</time>
      </trkpt>
      <trkpt lat="47.163" lon="-1.34139">
        <ele>76</ele>
        <time>2021-08-31T16:23:47.000Z</time>
      </trkpt>
      <trkpt lat="47.16313" lon="-1.34139">
        <ele>76</ele>
        <time>2021-08-31T16:23:49.000Z</time>
      </trkpt>
      <trkpt lat="47.16327" lon="-1.3414">
        <ele>76</ele>
        <time>2021-08-31T16:23:51.000Z</time>
      </trkpt>
      <trkpt lat="47.1634" lon="-1.3414">
        <ele>75</ele>
        <time>2021-08-31T16:23:53.000Z</time>
      </trkpt>
      <trkpt lat="47.16353" lon="-1.34139">
        <ele>75</ele>
        <time>2021-08-31T16:23:55.000Z</time>
      </trkpt>
      <trkpt lat="47.16367" lon="-1.34138">
        <ele>75</ele>
        <time>2021-08-31T16:23:57.000Z</time>
      </trkpt>
      <trkpt lat="47.1638" lon="-1.34135">
        <ele>75</ele>
        <time>2021-08-31T16:23:59.000Z</time>
      </trkpt>
      <trkpt lat="47.16393" lon="-1.34133">
        <ele>74</ele>
        <time>2021-08-31T16:24:01.000Z</time>
      </trkpt>
      <trkpt lat="47.16406" lon="-1.34131">
        <ele>74</ele>
        <time>2021-08-31T16:24:03.000Z</time>
      </trkpt>
      <trkpt lat="47.16419" lon="-1.34129">
        <ele>74</ele>
        <time>2021-08-31T16:24:05.000Z</time>
      </trkpt>
      <trkpt lat="47.16432" lon="-1.34129">
        <ele>74</ele>
        <time>2021-08-31T16:24:07.000Z</time>
      </trkpt>
      <trkpt lat="47.16445" lon="-1.34129">
        <ele>74</ele>
        <time>2021-08-31T16:24:09.000Z</time>
      </trkpt>
      <trkpt lat="47.16459" lon="-1.3413">
        <ele>73</ele>
        <time>2021-08-31T16:24:11.000Z</time>
      </trkpt>
      <trkpt lat="47.16473" lon="-1.34131">
        <ele>73</ele>
        <time>2021-08-31T16:24:13.000Z</time>
      </trkpt>
      <trkpt lat="47.16487" lon="-1.34133">
        <ele>73</ele>
        <time>2021-08-31T16:24:15.000Z</time>
      </trkpt>
      <trkpt lat="47.165" lon="-1.34134">
        <ele>73</ele>
        <time>2021-08-31T16:24:17.000Z</time>
      </trkpt>
      <trkpt lat="47.16513" lon="-1.34135">
        <ele>72</ele>
        <time>2021-08-31T16:24:19.000Z</time>
      </trkpt>
      <trkpt lat="47.16527" lon="-1.34136">
        <ele>72</ele>
        <time>2021-08-31T16:24:21.000Z</time>
      </trkpt>
      <trkpt lat="47.1654" lon="-1.34137">
        <ele>72</ele>
        <time>2021-08-31T16:24:23.000Z</time>
      </trkpt>
      <trkpt lat="47.16553" lon="-1.34138">
        <ele>71</ele>
        <time>2021-08-31T16:24:25.000Z</time>
      </trkpt>
      <trkpt lat="47.16566" lon="-1.34139">
        <ele>71</ele>
        <time>2021-08-31T16:24:27.000Z</time>
      </trkpt>
      <trkpt lat="47.16579" lon="-1.3414">
        <ele>70</ele>
        <time>2021-08-31T16:24:29.000Z</time>
      </trkpt>
      <trkpt lat="47.16593" lon="-1.34141">
        <ele>70</ele>
        <time>2021-08-31T16:24:31.000Z</time>
      </trkpt>
      <trkpt lat="47.16606" lon="-1.34142">
        <ele>70</ele>
        <time>2021-08-31T16:24:33.000Z</time>
      </trkpt>
      <trkpt lat="47.16619" lon="-1.34144">
        <ele>70</ele>
        <time>2021-08-31T16:24:35.000Z</time>
      </trkpt>
      <trkpt lat="47.16633" lon="-1.34145">
        <ele>70</ele>
        <time>2021-08-31T16:24:37.000Z</time>
      </trkpt>
      <trkpt lat="47.16646" lon="-1.34146">
        <ele>71</ele>
        <time>2021-08-31T16:24:39.000Z</time>
      </trkpt>
      <trkpt lat="47.1666" lon="-1.34147">
        <ele>70</ele>
        <time>2021-08-31T16:24:41.000Z</time>
      </trkpt>
      <trkpt lat="47.16673" lon="-1.34148">
        <ele>70</ele>
        <time>2021-08-31T16:24:43.000Z</time>
      </trkpt>
      <trkpt lat="47.16687" lon="-1.34149">
        <ele>70</ele>
        <time>2021-08-31T16:24:45.000Z</time>
      </trkpt>
      <trkpt lat="47.167" lon="-1.3415">
        <ele>70</ele>
        <time>2021-08-31T16:24:47.000Z</time>
      </trkpt>
      <trkpt lat="47.16713" lon="-1.34152">
        <ele>70</ele>
        <time>2021-08-31T16:24:49.000Z</time>
      </trkpt>
      <trkpt lat="47.16726" lon="-1.34153">
        <ele>70</ele>
        <time>2021-08-31T16:24:51.000Z</time>
      </trkpt>
      <trkpt lat="47.16739" lon="-1.34154">
        <ele>70</ele>
        <time>2021-08-31T16:24:53.000Z</time>
      </trkpt>
      <trkpt lat="47.16752" lon="-1.34156">
        <ele>69</ele>
        <time>2021-08-31T16:24:55.000Z</time>
      </trkpt>
      <trkpt lat="47.16764" lon="-1.34156">
        <ele>69</ele>
        <time>2021-08-31T16:24:57.000Z</time>
      </trkpt>
      <trkpt lat="47.16777" lon="-1.34158">
        <ele>69</ele>
        <time>2021-08-31T16:24:59.000Z</time>
      </trkpt>
      <trkpt lat="47.16789" lon="-1.34158">
        <ele>69</ele>
        <time>2021-08-31T16:25:01.000Z</time>
      </trkpt>
      <trkpt lat="47.16802" lon="-1.3416">
        <ele>69</ele>
        <time>2021-08-31T16:25:03.000Z</time>
      </trkpt>
      <trkpt lat="47.16815" lon="-1.34161">
        <ele>69</ele>
        <time>2021-08-31T16:25:05.000Z</time>
      </trkpt>
      <trkpt lat="47.16828" lon="-1.34162">
        <ele>69</ele>
        <time>2021-08-31T16:25:07.000Z</time>
      </trkpt>
      <trkpt lat="47.16841" lon="-1.34163">
        <ele>69</ele>
        <time>2021-08-31T16:25:09.000Z</time>
      </trkpt>
      <trkpt lat="47.16853" lon="-1.34164">
        <ele>69</ele>
        <time>2021-08-31T16:25:11.000Z</time>
      </trkpt>
      <trkpt lat="47.16866" lon="-1.34165">
        <ele>68</ele>
        <time>2021-08-31T16:25:13.000Z</time>
      </trkpt>
      <trkpt lat="47.16878" lon="-1.34166">
        <ele>68</ele>
        <time>2021-08-31T16:25:15.000Z</time>
      </trkpt>
      <trkpt lat="47.16891" lon="-1.34167">
        <ele>68</ele>
        <time>2021-08-31T16:25:17.000Z</time>
      </trkpt>
      <trkpt lat="47.16903" lon="-1.34168">
        <ele>68</ele>
        <time>2021-08-31T16:25:19.000Z</time>
      </trkpt>
      <trkpt lat="47.16916" lon="-1.34169">
        <ele>68</ele>
        <time>2021-08-31T16:25:21.000Z</time>
      </trkpt>
      <trkpt lat="47.16929" lon="-1.34171">
        <ele>68</ele>
        <time>2021-08-31T16:25:23.000Z</time>
      </trkpt>
      <trkpt lat="47.16942" lon="-1.34172">
        <ele>68</ele>
        <time>2021-08-31T16:25:25.000Z</time>
      </trkpt>
      <trkpt lat="47.16955" lon="-1.34173">
        <ele>67</ele>
        <time>2021-08-31T16:25:27.000Z</time>
      </trkpt>
      <trkpt lat="47.16968" lon="-1.34174">
        <ele>67</ele>
        <time>2021-08-31T16:25:29.000Z</time>
      </trkpt>
      <trkpt lat="47.16981" lon="-1.34175">
        <ele>67</ele>
        <time>2021-08-31T16:25:31.000Z</time>
      </trkpt>
      <trkpt lat="47.16994" lon="-1.34176">
        <ele>67</ele>
        <time>2021-08-31T16:25:33.000Z</time>
      </trkpt>
      <trkpt lat="47.17007" lon="-1.34177">
        <ele>67</ele>
        <time>2021-08-31T16:25:35.000Z</time>
      </trkpt>
      <trkpt lat="47.17019" lon="-1.34178">
        <ele>67</ele>
        <time>2021-08-31T16:25:37.000Z</time>
      </trkpt>
      <trkpt lat="47.17032" lon="-1.34178">
        <ele>66</ele>
        <time>2021-08-31T16:25:39.000Z</time>
      </trkpt>
      <trkpt lat="47.17045" lon="-1.34179">
        <ele>67</ele>
        <time>2021-08-31T16:25:41.000Z</time>
      </trkpt>
      <trkpt lat="47.17058" lon="-1.3418">
        <ele>66</ele>
        <time>2021-08-31T16:25:43.000Z</time>
      </trkpt>
      <trkpt lat="47.17071" lon="-1.34181">
        <ele>66</ele>
        <time>2021-08-31T16:25:45.000Z</time>
      </trkpt>
      <trkpt lat="47.17084" lon="-1.34183">
        <ele>66</ele>
        <time>2021-08-31T16:25:47.000Z</time>
      </trkpt>
      <trkpt lat="47.17097" lon="-1.34184">
        <ele>66</ele>
        <time>2021-08-31T16:25:49.000Z</time>
      </trkpt>
      <trkpt lat="47.1711" lon="-1.34185">
        <ele>66</ele>
        <time>2021-08-31T16:25:51.000Z</time>
      </trkpt>
      <trkpt lat="47.17123" lon="-1.34186">
        <ele>66</ele>
        <time>2021-08-31T16:25:53.000Z</time>
      </trkpt>
      <trkpt lat="47.17136" lon="-1.34187">
        <ele>66</ele>
        <time>2021-08-31T16:25:55.000Z</time>
      </trkpt>
      <trkpt lat="47.17149" lon="-1.34188">
        <ele>66</ele>
        <time>2021-08-31T16:25:57.000Z</time>
      </trkpt>
      <trkpt lat="47.17161" lon="-1.34189">
        <ele>66</ele>
        <time>2021-08-31T16:25:59.000Z</time>
      </trkpt>
      <trkpt lat="47.17174" lon="-1.3419">
        <ele>66</ele>
        <time>2021-08-31T16:26:01.000Z</time>
      </trkpt>
      <trkpt lat="47.17187" lon="-1.34191">
        <ele>66</ele>
        <time>2021-08-31T16:26:03.000Z</time>
      </trkpt>
      <trkpt lat="47.17201" lon="-1.34193">
        <ele>66</ele>
        <time>2021-08-31T16:26:05.000Z</time>
      </trkpt>
      <trkpt lat="47.17214" lon="-1.34195">
        <ele>66</ele>
        <time>2021-08-31T16:26:07.000Z</time>
      </trkpt>
      <trkpt lat="47.17227" lon="-1.34197">
        <ele>66</ele>
        <time>2021-08-31T16:26:09.000Z</time>
      </trkpt>
      <trkpt lat="47.1724" lon="-1.34199">
        <ele>66</ele>
        <time>2021-08-31T16:26:11.000Z</time>
      </trkpt>
      <trkpt lat="47.17253" lon="-1.34201">
        <ele>66</ele>
        <time>2021-08-31T16:26:13.000Z</time>
      </trkpt>
      <trkpt lat="47.17266" lon="-1.34203">
        <ele>66</ele>
        <time>2021-08-31T16:26:15.000Z</time>
      </trkpt>
      <trkpt lat="47.17279" lon="-1.34205">
        <ele>66</ele>
        <time>2021-08-31T16:26:17.000Z</time>
      </trkpt>
      <trkpt lat="47.17291" lon="-1.34206">
        <ele>65</ele>
        <time>2021-08-31T16:26:19.000Z</time>
      </trkpt>
      <trkpt lat="47.17304" lon="-1.34209">
        <ele>65</ele>
        <time>2021-08-31T16:26:21.000Z</time>
      </trkpt>
      <trkpt lat="47.17317" lon="-1.3421">
        <ele>65</ele>
        <time>2021-08-31T16:26:23.000Z</time>
      </trkpt>
      <trkpt lat="47.1733" lon="-1.34212">
        <ele>65</ele>
        <time>2021-08-31T16:26:25.000Z</time>
      </trkpt>
      <trkpt lat="47.17342" lon="-1.34211">
        <ele>65</ele>
        <time>2021-08-31T16:26:27.000Z</time>
      </trkpt>
      <trkpt lat="47.17355" lon="-1.34206">
        <ele>65</ele>
        <time>2021-08-31T16:26:29.000Z</time>
      </trkpt>
      <trkpt lat="47.17367" lon="-1.3421">
        <ele>64</ele>
        <time>2021-08-31T16:26:31.000Z</time>
      </trkpt>
      <trkpt lat="47.17379" lon="-1.34218">
        <ele>64</ele>
        <time>2021-08-31T16:26:33.000Z</time>
      </trkpt>
      <trkpt lat="47.17392" lon="-1.34221">
        <ele>64</ele>
        <time>2021-08-31T16:26:35.000Z</time>
      </trkpt>
      <trkpt lat="47.17405" lon="-1.34223">
        <ele>64</ele>
        <time>2021-08-31T16:26:37.000Z</time>
      </trkpt>
      <trkpt lat="47.17418" lon="-1.34225">
        <ele>64</ele>
        <time>2021-08-31T16:26:39.000Z</time>
      </trkpt>
      <trkpt lat="47.17432" lon="-1.34227">
        <ele>64</ele>
        <time>2021-08-31T16:26:41.000Z</time>
      </trkpt>
      <trkpt lat="47.17445" lon="-1.34225">
        <ele>64</ele>
        <time>2021-08-31T16:26:43.000Z</time>
      </trkpt>
      <trkpt lat="47.17458" lon="-1.34223">
        <ele>64</ele>
        <time>2021-08-31T16:26:45.000Z</time>
      </trkpt>
      <trkpt lat="47.17472" lon="-1.34219">
        <ele>64</ele>
        <time>2021-08-31T16:26:47.000Z</time>
      </trkpt>
      <trkpt lat="47.17485" lon="-1.34216">
        <ele>63</ele>
        <time>2021-08-31T16:26:49.000Z</time>
      </trkpt>
      <trkpt lat="47.17497" lon="-1.34214">
        <ele>63</ele>
        <time>2021-08-31T16:26:51.000Z</time>
      </trkpt>
      <trkpt lat="47.17507" lon="-1.34212">
        <ele>63</ele>
        <time>2021-08-31T16:26:53.000Z</time>
      </trkpt>
      <trkpt lat="47.17516" lon="-1.34204">
        <ele>63</ele>
        <time>2021-08-31T16:26:55.000Z</time>
      </trkpt>
      <trkpt lat="47.17521" lon="-1.34187">
        <ele>63</ele>
        <time>2021-08-31T16:26:57.000Z</time>
      </trkpt>
      <trkpt lat="47.17526" lon="-1.3417">
        <ele>63</ele>
        <time>2021-08-31T16:26:59.000Z</time>
      </trkpt>
      <trkpt lat="47.17531" lon="-1.34152">
        <ele>62</ele>
        <time>2021-08-31T16:27:01.000Z</time>
      </trkpt>
      <trkpt lat="47.17541" lon="-1.3414">
        <ele>62</ele>
        <time>2021-08-31T16:27:03.000Z</time>
      </trkpt>
      <trkpt lat="47.17554" lon="-1.34136">
        <ele>61</ele>
        <time>2021-08-31T16:27:05.000Z</time>
      </trkpt>
      <trkpt lat="47.17567" lon="-1.34129">
        <ele>61</ele>
        <time>2021-08-31T16:27:07.000Z</time>
      </trkpt>
      <trkpt lat="47.17578" lon="-1.34118">
        <ele>61</ele>
        <time>2021-08-31T16:27:09.000Z</time>
      </trkpt>
      <trkpt lat="47.17589" lon="-1.34108">
        <ele>61</ele>
        <time>2021-08-31T16:27:11.000Z</time>
      </trkpt>
      <trkpt lat="47.17601" lon="-1.34098">
        <ele>61</ele>
        <time>2021-08-31T16:27:13.000Z</time>
      </trkpt>
      <trkpt lat="47.17612" lon="-1.34088">
        <ele>61</ele>
        <time>2021-08-31T16:27:15.000Z</time>
      </trkpt>
      <trkpt lat="47.17624" lon="-1.3408">
        <ele>61</ele>
        <time>2021-08-31T16:27:17.000Z</time>
      </trkpt>
      <trkpt lat="47.17633" lon="-1.34073">
        <ele>62</ele>
        <time>2021-08-31T16:27:19.000Z</time>
      </trkpt>
      <trkpt lat="47.17642" lon="-1.34068">
        <ele>63</ele>
        <time>2021-08-31T16:27:21.000Z</time>
      </trkpt>
      <trkpt lat="47.17652" lon="-1.34066">
        <ele>63</ele>
        <time>2021-08-31T16:27:23.000Z</time>
      </trkpt>
      <trkpt lat="47.17664" lon="-1.34067">
        <ele>63</ele>
        <time>2021-08-31T16:27:25.000Z</time>
      </trkpt>
      <trkpt lat="47.17676" lon="-1.34067">
        <ele>63</ele>
        <time>2021-08-31T16:27:27.000Z</time>
      </trkpt>
      <trkpt lat="47.17689" lon="-1.34068">
        <ele>63</ele>
        <time>2021-08-31T16:27:29.000Z</time>
      </trkpt>
      <trkpt lat="47.17702" lon="-1.34068">
        <ele>63</ele>
        <time>2021-08-31T16:27:31.000Z</time>
      </trkpt>
      <trkpt lat="47.17716" lon="-1.34069">
        <ele>63</ele>
        <time>2021-08-31T16:27:33.000Z</time>
      </trkpt>
      <trkpt lat="47.17729" lon="-1.34069">
        <ele>62</ele>
        <time>2021-08-31T16:27:35.000Z</time>
      </trkpt>
      <trkpt lat="47.17742" lon="-1.34071">
        <ele>61</ele>
        <time>2021-08-31T16:27:37.000Z</time>
      </trkpt>
      <trkpt lat="47.17755" lon="-1.34075">
        <ele>60</ele>
        <time>2021-08-31T16:27:39.000Z</time>
      </trkpt>
      <trkpt lat="47.17767" lon="-1.34082">
        <ele>60</ele>
        <time>2021-08-31T16:27:41.000Z</time>
      </trkpt>
      <trkpt lat="47.1778" lon="-1.3409">
        <ele>60</ele>
        <time>2021-08-31T16:27:43.000Z</time>
      </trkpt>
      <trkpt lat="47.17793" lon="-1.34098">
        <ele>59</ele>
        <time>2021-08-31T16:27:45.000Z</time>
      </trkpt>
      <trkpt lat="47.17805" lon="-1.34106">
        <ele>58</ele>
        <time>2021-08-31T16:27:47.000Z</time>
      </trkpt>
      <trkpt lat="47.17818" lon="-1.34114">
        <ele>58</ele>
        <time>2021-08-31T16:27:49.000Z</time>
      </trkpt>
      <trkpt lat="47.17832" lon="-1.34121">
        <ele>57</ele>
        <time>2021-08-31T16:27:51.000Z</time>
      </trkpt>
      <trkpt lat="47.17846" lon="-1.34126">
        <ele>57</ele>
        <time>2021-08-31T16:27:53.000Z</time>
      </trkpt>
      <trkpt lat="47.1786" lon="-1.3413">
        <ele>58</ele>
        <time>2021-08-31T16:27:55.000Z</time>
      </trkpt>
      <trkpt lat="47.17874" lon="-1.34132">
        <ele>57</ele>
        <time>2021-08-31T16:27:57.000Z</time>
      </trkpt>
      <trkpt lat="47.17888" lon="-1.34132">
        <ele>57</ele>
        <time>2021-08-31T16:27:59.000Z</time>
      </trkpt>
      <trkpt lat="47.17902" lon="-1.34131">
        <ele>57</ele>
        <time>2021-08-31T16:28:01.000Z</time>
      </trkpt>
      <trkpt lat="47.17915" lon="-1.34128">
        <ele>57</ele>
        <time>2021-08-31T16:28:03.000Z</time>
      </trkpt>
      <trkpt lat="47.17928" lon="-1.34121">
        <ele>56</ele>
        <time>2021-08-31T16:28:05.000Z</time>
      </trkpt>
      <trkpt lat="47.17941" lon="-1.34114">
        <ele>56</ele>
        <time>2021-08-31T16:28:07.000Z</time>
      </trkpt>
      <trkpt lat="47.17952" lon="-1.34104">
        <ele>56</ele>
        <time>2021-08-31T16:28:09.000Z</time>
      </trkpt>
      <trkpt lat="47.17962" lon="-1.34093">
        <ele>56</ele>
        <time>2021-08-31T16:28:11.000Z</time>
      </trkpt>
      <trkpt lat="47.17972" lon="-1.34081">
        <ele>55</ele>
        <time>2021-08-31T16:28:13.000Z</time>
      </trkpt>
      <trkpt lat="47.1798" lon="-1.3407">
        <ele>56</ele>
        <time>2021-08-31T16:28:15.000Z</time>
      </trkpt>
      <trkpt lat="47.17988" lon="-1.34058">
        <ele>55</ele>
        <time>2021-08-31T16:28:17.000Z</time>
      </trkpt>
      <trkpt lat="47.17996" lon="-1.34045">
        <ele>56</ele>
        <time>2021-08-31T16:28:19.000Z</time>
      </trkpt>
      <trkpt lat="47.18005" lon="-1.34036">
        <ele>56</ele>
        <time>2021-08-31T16:28:21.000Z</time>
      </trkpt>
      <trkpt lat="47.18016" lon="-1.3404">
        <ele>56</ele>
        <time>2021-08-31T16:28:23.000Z</time>
      </trkpt>
      <trkpt lat="47.18025" lon="-1.34052">
        <ele>56</ele>
        <time>2021-08-31T16:28:25.000Z</time>
      </trkpt>
      <trkpt lat="47.18037" lon="-1.34057">
        <ele>56</ele>
        <time>2021-08-31T16:28:27.000Z</time>
      </trkpt>
      <trkpt lat="47.18049" lon="-1.34061">
        <ele>56</ele>
        <time>2021-08-31T16:28:29.000Z</time>
      </trkpt>
      <trkpt lat="47.18061" lon="-1.34066">
        <ele>56</ele>
        <time>2021-08-31T16:28:31.000Z</time>
      </trkpt>
      <trkpt lat="47.18074" lon="-1.3407">
        <ele>56</ele>
        <time>2021-08-31T16:28:33.000Z</time>
      </trkpt>
      <trkpt lat="47.18086" lon="-1.34075">
        <ele>56</ele>
        <time>2021-08-31T16:28:35.000Z</time>
      </trkpt>
      <trkpt lat="47.18097" lon="-1.34079">
        <ele>56</ele>
        <time>2021-08-31T16:28:37.000Z</time>
      </trkpt>
      <trkpt lat="47.1811" lon="-1.34083">
        <ele>56</ele>
        <time>2021-08-31T16:28:39.000Z</time>
      </trkpt>
      <trkpt lat="47.18122" lon="-1.34086">
        <ele>56</ele>
        <time>2021-08-31T16:28:41.000Z</time>
      </trkpt>
      <trkpt lat="47.18134" lon="-1.34088">
        <ele>55</ele>
        <time>2021-08-31T16:28:43.000Z</time>
      </trkpt>
      <trkpt lat="47.18146" lon="-1.3409">
        <ele>55</ele>
        <time>2021-08-31T16:28:45.000Z</time>
      </trkpt>
      <trkpt lat="47.18159" lon="-1.3409">
        <ele>55</ele>
        <time>2021-08-31T16:28:47.000Z</time>
      </trkpt>
      <trkpt lat="47.18171" lon="-1.3409">
        <ele>55</ele>
        <time>2021-08-31T16:28:49.000Z</time>
      </trkpt>
      <trkpt lat="47.18183" lon="-1.34091">
        <ele>55</ele>
        <time>2021-08-31T16:28:51.000Z</time>
      </trkpt>
      <trkpt lat="47.18196" lon="-1.34092">
        <ele>55</ele>
        <time>2021-08-31T16:28:53.000Z</time>
      </trkpt>
      <trkpt lat="47.18208" lon="-1.34092">
        <ele>55</ele>
        <time>2021-08-31T16:28:55.000Z</time>
      </trkpt>
      <trkpt lat="47.18221" lon="-1.34093">
        <ele>55</ele>
        <time>2021-08-31T16:28:57.000Z</time>
      </trkpt>
      <trkpt lat="47.18234" lon="-1.34093">
        <ele>55</ele>
        <time>2021-08-31T16:28:59.000Z</time>
      </trkpt>
      <trkpt lat="47.18247" lon="-1.34094">
        <ele>55</ele>
        <time>2021-08-31T16:29:01.000Z</time>
      </trkpt>
      <trkpt lat="47.1826" lon="-1.34094">
        <ele>54</ele>
        <time>2021-08-31T16:29:03.000Z</time>
      </trkpt>
      <trkpt lat="47.18273" lon="-1.34094">
        <ele>55</ele>
        <time>2021-08-31T16:29:05.000Z</time>
      </trkpt>
      <trkpt lat="47.18286" lon="-1.34095">
        <ele>54</ele>
        <time>2021-08-31T16:29:07.000Z</time>
      </trkpt>
      <trkpt lat="47.18299" lon="-1.34095">
        <ele>54</ele>
        <time>2021-08-31T16:29:09.000Z</time>
      </trkpt>
      <trkpt lat="47.18312" lon="-1.34096">
        <ele>54</ele>
        <time>2021-08-31T16:29:11.000Z</time>
      </trkpt>
      <trkpt lat="47.18325" lon="-1.34096">
        <ele>54</ele>
        <time>2021-08-31T16:29:13.000Z</time>
      </trkpt>
      <trkpt lat="47.18338" lon="-1.34097">
        <ele>54</ele>
        <time>2021-08-31T16:29:15.000Z</time>
      </trkpt>
      <trkpt lat="47.18351" lon="-1.34098">
        <ele>54</ele>
        <time>2021-08-31T16:29:17.000Z</time>
      </trkpt>
      <trkpt lat="47.18363" lon="-1.34098">
        <ele>54</ele>
        <time>2021-08-31T16:29:19.000Z</time>
      </trkpt>
      <trkpt lat="47.18376" lon="-1.34099">
        <ele>54</ele>
        <time>2021-08-31T16:29:21.000Z</time>
      </trkpt>
      <trkpt lat="47.18387" lon="-1.34101">
        <ele>54</ele>
        <time>2021-08-31T16:29:23.000Z</time>
      </trkpt>
      <trkpt lat="47.18399" lon="-1.34105">
        <ele>53</ele>
        <time>2021-08-31T16:29:25.000Z</time>
      </trkpt>
      <trkpt lat="47.18411" lon="-1.34111">
        <ele>53</ele>
        <time>2021-08-31T16:29:27.000Z</time>
      </trkpt>
      <trkpt lat="47.18422" lon="-1.34117">
        <ele>53</ele>
        <time>2021-08-31T16:29:29.000Z</time>
      </trkpt>
      <trkpt lat="47.18433" lon="-1.34125">
        <ele>53</ele>
        <time>2021-08-31T16:29:31.000Z</time>
      </trkpt>
      <trkpt lat="47.18445" lon="-1.34135">
        <ele>53</ele>
        <time>2021-08-31T16:29:33.000Z</time>
      </trkpt>
      <trkpt lat="47.18457" lon="-1.34143">
        <ele>53</ele>
        <time>2021-08-31T16:29:35.000Z</time>
      </trkpt>
      <trkpt lat="47.18468" lon="-1.34152">
        <ele>53</ele>
        <time>2021-08-31T16:29:37.000Z</time>
      </trkpt>
      <trkpt lat="47.1848" lon="-1.3416">
        <ele>53</ele>
        <time>2021-08-31T16:29:39.000Z</time>
      </trkpt>
      <trkpt lat="47.18492" lon="-1.34169">
        <ele>52</ele>
        <time>2021-08-31T16:29:41.000Z</time>
      </trkpt>
      <trkpt lat="47.18504" lon="-1.34178">
        <ele>52</ele>
        <time>2021-08-31T16:29:43.000Z</time>
      </trkpt>
      <trkpt lat="47.18515" lon="-1.34186">
        <ele>52</ele>
        <time>2021-08-31T16:29:45.000Z</time>
      </trkpt>
      <trkpt lat="47.18528" lon="-1.34192">
        <ele>52</ele>
        <time>2021-08-31T16:29:47.000Z</time>
      </trkpt>
      <trkpt lat="47.18541" lon="-1.34195">
        <ele>52</ele>
        <time>2021-08-31T16:29:49.000Z</time>
      </trkpt>
      <trkpt lat="47.18555" lon="-1.34194">
        <ele>52</ele>
        <time>2021-08-31T16:29:51.000Z</time>
      </trkpt>
      <trkpt lat="47.18568" lon="-1.3419">
        <ele>53</ele>
        <time>2021-08-31T16:29:53.000Z</time>
      </trkpt>
      <trkpt lat="47.1858" lon="-1.34184">
        <ele>53</ele>
        <time>2021-08-31T16:29:55.000Z</time>
      </trkpt>
      <trkpt lat="47.18593" lon="-1.34178">
        <ele>53</ele>
        <time>2021-08-31T16:29:57.000Z</time>
      </trkpt>
      <trkpt lat="47.18605" lon="-1.34172">
        <ele>52</ele>
        <time>2021-08-31T16:29:59.000Z</time>
      </trkpt>
      <trkpt lat="47.18618" lon="-1.34166">
        <ele>52</ele>
        <time>2021-08-31T16:30:01.000Z</time>
      </trkpt>
      <trkpt lat="47.18631" lon="-1.34159">
        <ele>52</ele>
        <time>2021-08-31T16:30:03.000Z</time>
      </trkpt>
      <trkpt lat="47.18644" lon="-1.34153">
        <ele>52</ele>
        <time>2021-08-31T16:30:05.000Z</time>
      </trkpt>
      <trkpt lat="47.18657" lon="-1.34146">
        <ele>53</ele>
        <time>2021-08-31T16:30:07.000Z</time>
      </trkpt>
      <trkpt lat="47.18669" lon="-1.3414">
        <ele>52</ele>
        <time>2021-08-31T16:30:09.000Z</time>
      </trkpt>
      <trkpt lat="47.18681" lon="-1.34133">
        <ele>53</ele>
        <time>2021-08-31T16:30:11.000Z</time>
      </trkpt>
      <trkpt lat="47.18693" lon="-1.34128">
        <ele>53</ele>
        <time>2021-08-31T16:30:13.000Z</time>
      </trkpt>
      <trkpt lat="47.18704" lon="-1.34123">
        <ele>53</ele>
        <time>2021-08-31T16:30:15.000Z</time>
      </trkpt>
      <trkpt lat="47.18716" lon="-1.3412">
        <ele>53</ele>
        <time>2021-08-31T16:30:17.000Z</time>
      </trkpt>
      <trkpt lat="47.18727" lon="-1.34118">
        <ele>53</ele>
        <time>2021-08-31T16:30:19.000Z</time>
      </trkpt>
      <trkpt lat="47.18738" lon="-1.34119">
        <ele>53</ele>
        <time>2021-08-31T16:30:21.000Z</time>
      </trkpt>
      <trkpt lat="47.18749" lon="-1.34122">
        <ele>53</ele>
        <time>2021-08-31T16:30:23.000Z</time>
      </trkpt>
      <trkpt lat="47.18761" lon="-1.34126">
        <ele>53</ele>
        <time>2021-08-31T16:30:25.000Z</time>
      </trkpt>
      <trkpt lat="47.18772" lon="-1.34129">
        <ele>53</ele>
        <time>2021-08-31T16:30:27.000Z</time>
      </trkpt>
      <trkpt lat="47.18784" lon="-1.34132">
        <ele>53</ele>
        <time>2021-08-31T16:30:29.000Z</time>
      </trkpt>
      <trkpt lat="47.18796" lon="-1.34136">
        <ele>54</ele>
        <time>2021-08-31T16:30:31.000Z</time>
      </trkpt>
      <trkpt lat="47.18808" lon="-1.34139">
        <ele>53</ele>
        <time>2021-08-31T16:30:33.000Z</time>
      </trkpt>
      <trkpt lat="47.1882" lon="-1.34142">
        <ele>53</ele>
        <time>2021-08-31T16:30:35.000Z</time>
      </trkpt>
      <trkpt lat="47.18831" lon="-1.34146">
        <ele>53</ele>
        <time>2021-08-31T16:30:37.000Z</time>
      </trkpt>
      <trkpt lat="47.18843" lon="-1.3415">
        <ele>53</ele>
        <time>2021-08-31T16:30:39.000Z</time>
      </trkpt>
      <trkpt lat="47.18854" lon="-1.34154">
        <ele>53</ele>
        <time>2021-08-31T16:30:41.000Z</time>
      </trkpt>
      <trkpt lat="47.18865" lon="-1.34158">
        <ele>54</ele>
        <time>2021-08-31T16:30:43.000Z</time>
      </trkpt>
      <trkpt lat="47.18877" lon="-1.34163">
        <ele>54</ele>
        <time>2021-08-31T16:30:45.000Z</time>
      </trkpt>
      <trkpt lat="47.18888" lon="-1.34168">
        <ele>54</ele>
        <time>2021-08-31T16:30:47.000Z</time>
      </trkpt>
      <trkpt lat="47.18899" lon="-1.34173">
        <ele>54</ele>
        <time>2021-08-31T16:30:49.000Z</time>
      </trkpt>
      <trkpt lat="47.1891" lon="-1.34178">
        <ele>55</ele>
        <time>2021-08-31T16:30:51.000Z</time>
      </trkpt>
      <trkpt lat="47.18921" lon="-1.34183">
        <ele>55</ele>
        <time>2021-08-31T16:30:53.000Z</time>
      </trkpt>
      <trkpt lat="47.18931" lon="-1.34186">
        <ele>55</ele>
        <time>2021-08-31T16:30:55.000Z</time>
      </trkpt>
      <trkpt lat="47.18942" lon="-1.34191">
        <ele>56</ele>
        <time>2021-08-31T16:30:57.000Z</time>
      </trkpt>
      <trkpt lat="47.18952" lon="-1.34196">
        <ele>55</ele>
        <time>2021-08-31T16:30:59.000Z</time>
      </trkpt>
      <trkpt lat="47.18963" lon="-1.342">
        <ele>55</ele>
        <time>2021-08-31T16:31:01.000Z</time>
      </trkpt>
      <trkpt lat="47.18974" lon="-1.34205">
        <ele>56</ele>
        <time>2021-08-31T16:31:03.000Z</time>
      </trkpt>
      <trkpt lat="47.18985" lon="-1.3421">
        <ele>56</ele>
        <time>2021-08-31T16:31:05.000Z</time>
      </trkpt>
      <trkpt lat="47.18995" lon="-1.34214">
        <ele>56</ele>
        <time>2021-08-31T16:31:07.000Z</time>
      </trkpt>
      <trkpt lat="47.19006" lon="-1.34219">
        <ele>56</ele>
        <time>2021-08-31T16:31:09.000Z</time>
      </trkpt>
      <trkpt lat="47.19017" lon="-1.34223">
        <ele>56</ele>
        <time>2021-08-31T16:31:11.000Z</time>
      </trkpt>
      <trkpt lat="47.19028" lon="-1.34228">
        <ele>56</ele>
        <time>2021-08-31T16:31:13.000Z</time>
      </trkpt>
      <trkpt lat="47.19038" lon="-1.34232">
        <ele>56</ele>
        <time>2021-08-31T16:31:15.000Z</time>
      </trkpt>
      <trkpt lat="47.19049" lon="-1.34237">
        <ele>56</ele>
        <time>2021-08-31T16:31:17.000Z</time>
      </trkpt>
      <trkpt lat="47.1906" lon="-1.34242">
        <ele>56</ele>
        <time>2021-08-31T16:31:19.000Z</time>
      </trkpt>
      <trkpt lat="47.1907" lon="-1.34246">
        <ele>56</ele>
        <time>2021-08-31T16:31:21.000Z</time>
      </trkpt>
      <trkpt lat="47.19081" lon="-1.34251">
        <ele>56</ele>
        <time>2021-08-31T16:31:23.000Z</time>
      </trkpt>
      <trkpt lat="47.19093" lon="-1.34255">
        <ele>56</ele>
        <time>2021-08-31T16:31:25.000Z</time>
      </trkpt>
      <trkpt lat="47.19104" lon="-1.3426">
        <ele>56</ele>
        <time>2021-08-31T16:31:27.000Z</time>
      </trkpt>
      <trkpt lat="47.19115" lon="-1.34265">
        <ele>56</ele>
        <time>2021-08-31T16:31:29.000Z</time>
      </trkpt>
      <trkpt lat="47.19127" lon="-1.3427">
        <ele>55</ele>
        <time>2021-08-31T16:31:31.000Z</time>
      </trkpt>
      <trkpt lat="47.19138" lon="-1.34275">
        <ele>55</ele>
        <time>2021-08-31T16:31:33.000Z</time>
      </trkpt>
      <trkpt lat="47.1915" lon="-1.34279">
        <ele>55</ele>
        <time>2021-08-31T16:31:35.000Z</time>
      </trkpt>
      <trkpt lat="47.19161" lon="-1.34284">
        <ele>55</ele>
        <time>2021-08-31T16:31:37.000Z</time>
      </trkpt>
      <trkpt lat="47.19173" lon="-1.34289">
        <ele>55</ele>
        <time>2021-08-31T16:31:39.000Z</time>
      </trkpt>
      <trkpt lat="47.19183" lon="-1.34294">
        <ele>55</ele>
        <time>2021-08-31T16:31:41.000Z</time>
      </trkpt>
      <trkpt lat="47.19194" lon="-1.34298">
        <ele>54</ele>
        <time>2021-08-31T16:31:43.000Z</time>
      </trkpt>
      <trkpt lat="47.19206" lon="-1.34303">
        <ele>54</ele>
        <time>2021-08-31T16:31:45.000Z</time>
      </trkpt>
      <trkpt lat="47.19217" lon="-1.34308">
        <ele>54</ele>
        <time>2021-08-31T16:31:47.000Z</time>
      </trkpt>
      <trkpt lat="47.19229" lon="-1.34312">
        <ele>54</ele>
        <time>2021-08-31T16:31:49.000Z</time>
      </trkpt>
      <trkpt lat="47.1924" lon="-1.34317">
        <ele>54</ele>
        <time>2021-08-31T16:31:51.000Z</time>
      </trkpt>
      <trkpt lat="47.19251" lon="-1.34322">
        <ele>54</ele>
        <time>2021-08-31T16:31:53.000Z</time>
      </trkpt>
      <trkpt lat="47.19262" lon="-1.34328">
        <ele>54</ele>
        <time>2021-08-31T16:31:55.000Z</time>
      </trkpt>
      <trkpt lat="47.19273" lon="-1.34334">
        <ele>54</ele>
        <time>2021-08-31T16:31:57.000Z</time>
      </trkpt>
      <trkpt lat="47.19284" lon="-1.34342">
        <ele>54</ele>
        <time>2021-08-31T16:31:59.000Z</time>
      </trkpt>
      <trkpt lat="47.19294" lon="-1.3435">
        <ele>54</ele>
        <time>2021-08-31T16:32:01.000Z</time>
      </trkpt>
      <trkpt lat="47.19304" lon="-1.3436">
        <ele>54</ele>
        <time>2021-08-31T16:32:03.000Z</time>
      </trkpt>
      <trkpt lat="47.19314" lon="-1.3437">
        <ele>54</ele>
        <time>2021-08-31T16:32:05.000Z</time>
      </trkpt>
      <trkpt lat="47.19324" lon="-1.34381">
        <ele>54</ele>
        <time>2021-08-31T16:32:07.000Z</time>
      </trkpt>
      <trkpt lat="47.19334" lon="-1.34392">
        <ele>54</ele>
        <time>2021-08-31T16:32:09.000Z</time>
      </trkpt>
      <trkpt lat="47.19344" lon="-1.34402">
        <ele>54</ele>
        <time>2021-08-31T16:32:11.000Z</time>
      </trkpt>
      <trkpt lat="47.19354" lon="-1.34413">
        <ele>54</ele>
        <time>2021-08-31T16:32:13.000Z</time>
      </trkpt>
      <trkpt lat="47.19364" lon="-1.34423">
        <ele>54</ele>
        <time>2021-08-31T16:32:15.000Z</time>
      </trkpt>
      <trkpt lat="47.19374" lon="-1.34434">
        <ele>54</ele>
        <time>2021-08-31T16:32:17.000Z</time>
      </trkpt>
      <trkpt lat="47.19385" lon="-1.34445">
        <ele>54</ele>
        <time>2021-08-31T16:32:19.000Z</time>
      </trkpt>
      <trkpt lat="47.19395" lon="-1.34456">
        <ele>54</ele>
        <time>2021-08-31T16:32:21.000Z</time>
      </trkpt>
      <trkpt lat="47.19405" lon="-1.34467">
        <ele>54</ele>
        <time>2021-08-31T16:32:23.000Z</time>
      </trkpt>
      <trkpt lat="47.19415" lon="-1.34479">
        <ele>54</ele>
        <time>2021-08-31T16:32:25.000Z</time>
      </trkpt>
      <trkpt lat="47.19425" lon="-1.3449">
        <ele>54</ele>
        <time>2021-08-31T16:32:27.000Z</time>
      </trkpt>
      <trkpt lat="47.19436" lon="-1.34501">
        <ele>53</ele>
        <time>2021-08-31T16:32:29.000Z</time>
      </trkpt>
      <trkpt lat="47.19446" lon="-1.34512">
        <ele>53</ele>
        <time>2021-08-31T16:32:31.000Z</time>
      </trkpt>
      <trkpt lat="47.19456" lon="-1.34523">
        <ele>53</ele>
        <time>2021-08-31T16:32:33.000Z</time>
      </trkpt>
      <trkpt lat="47.19467" lon="-1.34534">
        <ele>53</ele>
        <time>2021-08-31T16:32:35.000Z</time>
      </trkpt>
      <trkpt lat="47.19477" lon="-1.34545">
        <ele>53</ele>
        <time>2021-08-31T16:32:37.000Z</time>
      </trkpt>
      <trkpt lat="47.19487" lon="-1.34555">
        <ele>53</ele>
        <time>2021-08-31T16:32:39.000Z</time>
      </trkpt>
      <trkpt lat="47.19498" lon="-1.34567">
        <ele>53</ele>
        <time>2021-08-31T16:32:41.000Z</time>
      </trkpt>
      <trkpt lat="47.19508" lon="-1.34579">
        <ele>53</ele>
        <time>2021-08-31T16:32:43.000Z</time>
      </trkpt>
      <trkpt lat="47.19519" lon="-1.34589">
        <ele>53</ele>
        <time>2021-08-31T16:32:45.000Z</time>
      </trkpt>
      <trkpt lat="47.1953" lon="-1.34599">
        <ele>53</ele>
        <time>2021-08-31T16:32:47.000Z</time>
      </trkpt>
      <trkpt lat="47.19541" lon="-1.34607">
        <ele>53</ele>
        <time>2021-08-31T16:32:49.000Z</time>
      </trkpt>
      <trkpt lat="47.19552" lon="-1.34615">
        <ele>53</ele>
        <time>2021-08-31T16:32:51.000Z</time>
      </trkpt>
      <trkpt lat="47.19563" lon="-1.34623">
        <ele>53</ele>
        <time>2021-08-31T16:32:53.000Z</time>
      </trkpt>
      <trkpt lat="47.19575" lon="-1.34631">
        <ele>53</ele>
        <time>2021-08-31T16:32:55.000Z</time>
      </trkpt>
      <trkpt lat="47.19586" lon="-1.34639">
        <ele>54</ele>
        <time>2021-08-31T16:32:57.000Z</time>
      </trkpt>
      <trkpt lat="47.19596" lon="-1.34646">
        <ele>54</ele>
        <time>2021-08-31T16:32:59.000Z</time>
      </trkpt>
      <trkpt lat="47.19607" lon="-1.34654">
        <ele>54</ele>
        <time>2021-08-31T16:33:01.000Z</time>
      </trkpt>
      <trkpt lat="47.19619" lon="-1.34662">
        <ele>53</ele>
        <time>2021-08-31T16:33:03.000Z</time>
      </trkpt>
      <trkpt lat="47.1963" lon="-1.3467">
        <ele>53</ele>
        <time>2021-08-31T16:33:05.000Z</time>
      </trkpt>
      <trkpt lat="47.19642" lon="-1.34679">
        <ele>53</ele>
        <time>2021-08-31T16:33:07.000Z</time>
      </trkpt>
      <trkpt lat="47.19653" lon="-1.34687">
        <ele>53</ele>
        <time>2021-08-31T16:33:09.000Z</time>
      </trkpt>
      <trkpt lat="47.19665" lon="-1.34695">
        <ele>53</ele>
        <time>2021-08-31T16:33:11.000Z</time>
      </trkpt>
      <trkpt lat="47.19677" lon="-1.34703">
        <ele>53</ele>
        <time>2021-08-31T16:33:13.000Z</time>
      </trkpt>
      <trkpt lat="47.19688" lon="-1.34711">
        <ele>52</ele>
        <time>2021-08-31T16:33:15.000Z</time>
      </trkpt>
      <trkpt lat="47.19699" lon="-1.34718">
        <ele>52</ele>
        <time>2021-08-31T16:33:17.000Z</time>
      </trkpt>
      <trkpt lat="47.1971" lon="-1.34726">
        <ele>52</ele>
        <time>2021-08-31T16:33:19.000Z</time>
      </trkpt>
      <trkpt lat="47.19722" lon="-1.34733">
        <ele>52</ele>
        <time>2021-08-31T16:33:21.000Z</time>
      </trkpt>
      <trkpt lat="47.19734" lon="-1.3474">
        <ele>52</ele>
        <time>2021-08-31T16:33:23.000Z</time>
      </trkpt>
      <trkpt lat="47.19746" lon="-1.34745">
        <ele>52</ele>
        <time>2021-08-31T16:33:25.000Z</time>
      </trkpt>
      <trkpt lat="47.19758" lon="-1.3475">
        <ele>52</ele>
        <time>2021-08-31T16:33:27.000Z</time>
      </trkpt>
      <trkpt lat="47.19771" lon="-1.34753">
        <ele>52</ele>
        <time>2021-08-31T16:33:29.000Z</time>
      </trkpt>
      <trkpt lat="47.19784" lon="-1.34756">
        <ele>52</ele>
        <time>2021-08-31T16:33:31.000Z</time>
      </trkpt>
      <trkpt lat="47.19797" lon="-1.34757">
        <ele>52</ele>
        <time>2021-08-31T16:33:33.000Z</time>
      </trkpt>
      <trkpt lat="47.19809" lon="-1.34757">
        <ele>52</ele>
        <time>2021-08-31T16:33:35.000Z</time>
      </trkpt>
      <trkpt lat="47.19822" lon="-1.34757">
        <ele>52</ele>
        <time>2021-08-31T16:33:37.000Z</time>
      </trkpt>
      <trkpt lat="47.19834" lon="-1.34756">
        <ele>52</ele>
        <time>2021-08-31T16:33:39.000Z</time>
      </trkpt>
      <trkpt lat="47.19847" lon="-1.34756">
        <ele>51</ele>
        <time>2021-08-31T16:33:41.000Z</time>
      </trkpt>
      <trkpt lat="47.1986" lon="-1.34755">
        <ele>51</ele>
        <time>2021-08-31T16:33:43.000Z</time>
      </trkpt>
      <trkpt lat="47.19872" lon="-1.34755">
        <ele>51</ele>
        <time>2021-08-31T16:33:45.000Z</time>
      </trkpt>
      <trkpt lat="47.19885" lon="-1.34755">
        <ele>51</ele>
        <time>2021-08-31T16:33:47.000Z</time>
      </trkpt>
      <trkpt lat="47.19897" lon="-1.34754">
        <ele>52</ele>
        <time>2021-08-31T16:33:49.000Z</time>
      </trkpt>
      <trkpt lat="47.1991" lon="-1.34755">
        <ele>52</ele>
        <time>2021-08-31T16:33:51.000Z</time>
      </trkpt>
      <trkpt lat="47.19922" lon="-1.34755">
        <ele>52</ele>
        <time>2021-08-31T16:33:53.000Z</time>
      </trkpt>
      <trkpt lat="47.19935" lon="-1.34757">
        <ele>52</ele>
        <time>2021-08-31T16:33:55.000Z</time>
      </trkpt>
      <trkpt lat="47.19947" lon="-1.3476">
        <ele>52</ele>
        <time>2021-08-31T16:33:57.000Z</time>
      </trkpt>
      <trkpt lat="47.19959" lon="-1.34765">
        <ele>52</ele>
        <time>2021-08-31T16:33:59.000Z</time>
      </trkpt>
      <trkpt lat="47.19971" lon="-1.3477">
        <ele>52</ele>
        <time>2021-08-31T16:34:01.000Z</time>
      </trkpt>
      <trkpt lat="47.19983" lon="-1.34777">
        <ele>52</ele>
        <time>2021-08-31T16:34:03.000Z</time>
      </trkpt>
      <trkpt lat="47.19994" lon="-1.34783">
        <ele>52</ele>
        <time>2021-08-31T16:34:05.000Z</time>
      </trkpt>
      <trkpt lat="47.20006" lon="-1.34791">
        <ele>52</ele>
        <time>2021-08-31T16:34:07.000Z</time>
      </trkpt>
      <trkpt lat="47.20018" lon="-1.34799">
        <ele>52</ele>
        <time>2021-08-31T16:34:09.000Z</time>
      </trkpt>
      <trkpt lat="47.20029" lon="-1.34805">
        <ele>52</ele>
        <time>2021-08-31T16:34:11.000Z</time>
      </trkpt>
      <trkpt lat="47.20041" lon="-1.34813">
        <ele>52</ele>
        <time>2021-08-31T16:34:13.000Z</time>
      </trkpt>
      <trkpt lat="47.20052" lon="-1.34821">
        <ele>52</ele>
        <time>2021-08-31T16:34:15.000Z</time>
      </trkpt>
      <trkpt lat="47.20064" lon="-1.34828">
        <ele>52</ele>
        <time>2021-08-31T16:34:17.000Z</time>
      </trkpt>
      <trkpt lat="47.20075" lon="-1.34835">
        <ele>52</ele>
        <time>2021-08-31T16:34:19.000Z</time>
      </trkpt>
      <trkpt lat="47.20087" lon="-1.34841">
        <ele>52</ele>
        <time>2021-08-31T16:34:21.000Z</time>
      </trkpt>
      <trkpt lat="47.20099" lon="-1.34846">
        <ele>51</ele>
        <time>2021-08-31T16:34:23.000Z</time>
      </trkpt>
      <trkpt lat="47.20117" lon="-1.34851">
        <ele>51</ele>
        <time>2021-08-31T16:34:26.000Z</time>
      </trkpt>
      <trkpt lat="47.2013" lon="-1.34854">
        <ele>51</ele>
        <time>2021-08-31T16:34:28.000Z</time>
      </trkpt>
      <trkpt lat="47.20142" lon="-1.34855">
        <ele>51</ele>
        <time>2021-08-31T16:34:30.000Z</time>
      </trkpt>
      <trkpt lat="47.20154" lon="-1.34854">
        <ele>51</ele>
        <time>2021-08-31T16:34:32.000Z</time>
      </trkpt>
      <trkpt lat="47.20166" lon="-1.34853">
        <ele>51</ele>
        <time>2021-08-31T16:34:34.000Z</time>
      </trkpt>
      <trkpt lat="47.20178" lon="-1.3485">
        <ele>50</ele>
        <time>2021-08-31T16:34:36.000Z</time>
      </trkpt>
      <trkpt lat="47.20191" lon="-1.34847">
        <ele>51</ele>
        <time>2021-08-31T16:34:38.000Z</time>
      </trkpt>
      <trkpt lat="47.20202" lon="-1.34842">
        <ele>51</ele>
        <time>2021-08-31T16:34:40.000Z</time>
      </trkpt>
      <trkpt lat="47.20213" lon="-1.34837">
        <ele>51</ele>
        <time>2021-08-31T16:34:42.000Z</time>
      </trkpt>
      <trkpt lat="47.20225" lon="-1.34833">
        <ele>51</ele>
        <time>2021-08-31T16:34:44.000Z</time>
      </trkpt>
      <trkpt lat="47.20236" lon="-1.34828">
        <ele>51</ele>
        <time>2021-08-31T16:34:46.000Z</time>
      </trkpt>
      <trkpt lat="47.20247" lon="-1.34823">
        <ele>52</ele>
        <time>2021-08-31T16:34:48.000Z</time>
      </trkpt>
      <trkpt lat="47.20258" lon="-1.34818">
        <ele>52</ele>
        <time>2021-08-31T16:34:50.000Z</time>
      </trkpt>
      <trkpt lat="47.20275" lon="-1.34811">
        <ele>52</ele>
        <time>2021-08-31T16:34:53.000Z</time>
      </trkpt>
      <trkpt lat="47.20287" lon="-1.34806">
        <ele>52</ele>
        <time>2021-08-31T16:34:55.000Z</time>
      </trkpt>
      <trkpt lat="47.20299" lon="-1.34802">
        <ele>52</ele>
        <time>2021-08-31T16:34:57.000Z</time>
      </trkpt>
      <trkpt lat="47.20317" lon="-1.34795">
        <ele>52</ele>
        <time>2021-08-31T16:35:00.000Z</time>
      </trkpt>
      <trkpt lat="47.20328" lon="-1.3479">
        <ele>53</ele>
        <time>2021-08-31T16:35:02.000Z</time>
      </trkpt>
      <trkpt lat="47.20346" lon="-1.34783">
        <ele>53</ele>
        <time>2021-08-31T16:35:05.000Z</time>
      </trkpt>
      <trkpt lat="47.20358" lon="-1.3478">
        <ele>53</ele>
        <time>2021-08-31T16:35:07.000Z</time>
      </trkpt>
      <trkpt lat="47.2037" lon="-1.34777">
        <ele>52</ele>
        <time>2021-08-31T16:35:09.000Z</time>
      </trkpt>
      <trkpt lat="47.20382" lon="-1.34776">
        <ele>52</ele>
        <time>2021-08-31T16:35:11.000Z</time>
      </trkpt>
      <trkpt lat="47.20394" lon="-1.34776">
        <ele>52</ele>
        <time>2021-08-31T16:35:13.000Z</time>
      </trkpt>
      <trkpt lat="47.20412" lon="-1.34776">
        <ele>52</ele>
        <time>2021-08-31T16:35:16.000Z</time>
      </trkpt>
      <trkpt lat="47.20423" lon="-1.34777">
        <ele>52</ele>
        <time>2021-08-31T16:35:18.000Z</time>
      </trkpt>
      <trkpt lat="47.20435" lon="-1.34778">
        <ele>52</ele>
        <time>2021-08-31T16:35:20.000Z</time>
      </trkpt>
      <trkpt lat="47.20447" lon="-1.34779">
        <ele>52</ele>
        <time>2021-08-31T16:35:22.000Z</time>
      </trkpt>
      <trkpt lat="47.20459" lon="-1.3478">
        <ele>52</ele>
        <time>2021-08-31T16:35:24.000Z</time>
      </trkpt>
      <trkpt lat="47.2047" lon="-1.3478">
        <ele>52</ele>
        <time>2021-08-31T16:35:26.000Z</time>
      </trkpt>
      <trkpt lat="47.20482" lon="-1.34781">
        <ele>52</ele>
        <time>2021-08-31T16:35:28.000Z</time>
      </trkpt>
      <trkpt lat="47.20493" lon="-1.34781">
        <ele>53</ele>
        <time>2021-08-31T16:35:30.000Z</time>
      </trkpt>
      <trkpt lat="47.2051" lon="-1.34782">
        <ele>53</ele>
        <time>2021-08-31T16:35:33.000Z</time>
      </trkpt>
      <trkpt lat="47.20521" lon="-1.34783">
        <ele>53</ele>
        <time>2021-08-31T16:35:35.000Z</time>
      </trkpt>
      <trkpt lat="47.20533" lon="-1.34783">
        <ele>53</ele>
        <time>2021-08-31T16:35:37.000Z</time>
      </trkpt>
      <trkpt lat="47.20544" lon="-1.34784">
        <ele>53</ele>
        <time>2021-08-31T16:35:39.000Z</time>
      </trkpt>
      <trkpt lat="47.20555" lon="-1.34784">
        <ele>54</ele>
        <time>2021-08-31T16:35:41.000Z</time>
      </trkpt>
      <trkpt lat="47.20566" lon="-1.34786">
        <ele>53</ele>
        <time>2021-08-31T16:35:43.000Z</time>
      </trkpt>
      <trkpt lat="47.20577" lon="-1.34788">
        <ele>53</ele>
        <time>2021-08-31T16:35:45.000Z</time>
      </trkpt>
      <trkpt lat="47.20589" lon="-1.34791">
        <ele>53</ele>
        <time>2021-08-31T16:35:47.000Z</time>
      </trkpt>
      <trkpt lat="47.206" lon="-1.34796">
        <ele>53</ele>
        <time>2021-08-31T16:35:49.000Z</time>
      </trkpt>
      <trkpt lat="47.20611" lon="-1.34802">
        <ele>53</ele>
        <time>2021-08-31T16:35:51.000Z</time>
      </trkpt>
      <trkpt lat="47.20623" lon="-1.34809">
        <ele>53</ele>
        <time>2021-08-31T16:35:53.000Z</time>
      </trkpt>
      <trkpt lat="47.20634" lon="-1.34816">
        <ele>53</ele>
        <time>2021-08-31T16:35:55.000Z</time>
      </trkpt>
      <trkpt lat="47.20644" lon="-1.34824">
        <ele>53</ele>
        <time>2021-08-31T16:35:57.000Z</time>
      </trkpt>
      <trkpt lat="47.20655" lon="-1.34833">
        <ele>53</ele>
        <time>2021-08-31T16:35:59.000Z</time>
      </trkpt>
      <trkpt lat="47.20665" lon="-1.34843">
        <ele>53</ele>
        <time>2021-08-31T16:36:01.000Z</time>
      </trkpt>
      <trkpt lat="47.20676" lon="-1.34852">
        <ele>53</ele>
        <time>2021-08-31T16:36:03.000Z</time>
      </trkpt>
      <trkpt lat="47.20686" lon="-1.34863">
        <ele>53</ele>
        <time>2021-08-31T16:36:05.000Z</time>
      </trkpt>
      <trkpt lat="47.20697" lon="-1.34872">
        <ele>53</ele>
        <time>2021-08-31T16:36:07.000Z</time>
      </trkpt>
      <trkpt lat="47.20707" lon="-1.34882">
        <ele>53</ele>
        <time>2021-08-31T16:36:09.000Z</time>
      </trkpt>
      <trkpt lat="47.20717" lon="-1.34892">
        <ele>54</ele>
        <time>2021-08-31T16:36:11.000Z</time>
      </trkpt>
      <trkpt lat="47.20728" lon="-1.34901">
        <ele>53</ele>
        <time>2021-08-31T16:36:13.000Z</time>
      </trkpt>
      <trkpt lat="47.20738" lon="-1.34911">
        <ele>54</ele>
        <time>2021-08-31T16:36:15.000Z</time>
      </trkpt>
      <trkpt lat="47.20749" lon="-1.34921">
        <ele>54</ele>
        <time>2021-08-31T16:36:17.000Z</time>
      </trkpt>
      <trkpt lat="47.20759" lon="-1.3493">
        <ele>54</ele>
        <time>2021-08-31T16:36:19.000Z</time>
      </trkpt>
      <trkpt lat="47.20768" lon="-1.34939">
        <ele>54</ele>
        <time>2021-08-31T16:36:21.000Z</time>
      </trkpt>
      <trkpt lat="47.20778" lon="-1.34948">
        <ele>55</ele>
        <time>2021-08-31T16:36:23.000Z</time>
      </trkpt>
      <trkpt lat="47.20787" lon="-1.34957">
        <ele>55</ele>
        <time>2021-08-31T16:36:25.000Z</time>
      </trkpt>
      <trkpt lat="47.20797" lon="-1.34967">
        <ele>55</ele>
        <time>2021-08-31T16:36:27.000Z</time>
      </trkpt>
      <trkpt lat="47.20806" lon="-1.34975">
        <ele>55</ele>
        <time>2021-08-31T16:36:29.000Z</time>
      </trkpt>
      <trkpt lat="47.20816" lon="-1.34985">
        <ele>56</ele>
        <time>2021-08-31T16:36:31.000Z</time>
      </trkpt>
      <trkpt lat="47.20825" lon="-1.34993">
        <ele>56</ele>
        <time>2021-08-31T16:36:33.000Z</time>
      </trkpt>
      <trkpt lat="47.20835" lon="-1.35003">
        <ele>56</ele>
        <time>2021-08-31T16:36:35.000Z</time>
      </trkpt>
      <trkpt lat="47.20845" lon="-1.35013">
        <ele>57</ele>
        <time>2021-08-31T16:36:37.000Z</time>
      </trkpt>
      <trkpt lat="47.20854" lon="-1.35023">
        <ele>57</ele>
        <time>2021-08-31T16:36:39.000Z</time>
      </trkpt>
      <trkpt lat="47.20863" lon="-1.35035">
        <ele>56</ele>
        <time>2021-08-31T16:36:41.000Z</time>
      </trkpt>
      <trkpt lat="47.20872" lon="-1.35048">
        <ele>56</ele>
        <time>2021-08-31T16:36:43.000Z</time>
      </trkpt>
      <trkpt lat="47.2088" lon="-1.35062">
        <ele>57</ele>
        <time>2021-08-31T16:36:45.000Z</time>
      </trkpt>
      <trkpt lat="47.20888" lon="-1.35075">
        <ele>57</ele>
        <time>2021-08-31T16:36:47.000Z</time>
      </trkpt>
      <trkpt lat="47.20894" lon="-1.35089">
        <ele>57</ele>
        <time>2021-08-31T16:36:49.000Z</time>
      </trkpt>
      <trkpt lat="47.20901" lon="-1.35103">
        <ele>57</ele>
        <time>2021-08-31T16:36:51.000Z</time>
      </trkpt>
      <trkpt lat="47.20907" lon="-1.35118">
        <ele>57</ele>
        <time>2021-08-31T16:36:53.000Z</time>
      </trkpt>
      <trkpt lat="47.20914" lon="-1.35132">
        <ele>57</ele>
        <time>2021-08-31T16:36:55.000Z</time>
      </trkpt>
      <trkpt lat="47.2092" lon="-1.35147">
        <ele>58</ele>
        <time>2021-08-31T16:36:57.000Z</time>
      </trkpt>
      <trkpt lat="47.20926" lon="-1.35162">
        <ele>58</ele>
        <time>2021-08-31T16:36:59.000Z</time>
      </trkpt>
      <trkpt lat="47.20933" lon="-1.35177">
        <ele>58</ele>
        <time>2021-08-31T16:37:01.000Z</time>
      </trkpt>
      <trkpt lat="47.2094" lon="-1.35192">
        <ele>57</ele>
        <time>2021-08-31T16:37:03.000Z</time>
      </trkpt>
      <trkpt lat="47.20946" lon="-1.35207">
        <ele>58</ele>
        <time>2021-08-31T16:37:05.000Z</time>
      </trkpt>
      <trkpt lat="47.20953" lon="-1.35222">
        <ele>58</ele>
        <time>2021-08-31T16:37:07.000Z</time>
      </trkpt>
      <trkpt lat="47.20959" lon="-1.35237">
        <ele>57</ele>
        <time>2021-08-31T16:37:09.000Z</time>
      </trkpt>
      <trkpt lat="47.20966" lon="-1.35252">
        <ele>57</ele>
        <time>2021-08-31T16:37:11.000Z</time>
      </trkpt>
      <trkpt lat="47.20973" lon="-1.35266">
        <ele>57</ele>
        <time>2021-08-31T16:37:13.000Z</time>
      </trkpt>
      <trkpt lat="47.20981" lon="-1.35281">
        <ele>57</ele>
        <time>2021-08-31T16:37:15.000Z</time>
      </trkpt>
      <trkpt lat="47.2099" lon="-1.35295">
        <ele>57</ele>
        <time>2021-08-31T16:37:17.000Z</time>
      </trkpt>
      <trkpt lat="47.20999" lon="-1.35308">
        <ele>57</ele>
        <time>2021-08-31T16:37:19.000Z</time>
      </trkpt>
      <trkpt lat="47.2101" lon="-1.3532">
        <ele>57</ele>
        <time>2021-08-31T16:37:21.000Z</time>
      </trkpt>
      <trkpt lat="47.21021" lon="-1.35331">
        <ele>57</ele>
        <time>2021-08-31T16:37:23.000Z</time>
      </trkpt>
      <trkpt lat="47.21033" lon="-1.3534">
        <ele>56</ele>
        <time>2021-08-31T16:37:25.000Z</time>
      </trkpt>
      <trkpt lat="47.21046" lon="-1.35346">
        <ele>56</ele>
        <time>2021-08-31T16:37:27.000Z</time>
      </trkpt>
      <trkpt lat="47.21059" lon="-1.35351">
        <ele>56</ele>
        <time>2021-08-31T16:37:29.000Z</time>
      </trkpt>
      <trkpt lat="47.21071" lon="-1.35355">
        <ele>56</ele>
        <time>2021-08-31T16:37:31.000Z</time>
      </trkpt>
      <trkpt lat="47.21083" lon="-1.35358">
        <ele>56</ele>
        <time>2021-08-31T16:37:33.000Z</time>
      </trkpt>
      <trkpt lat="47.21095" lon="-1.35361">
        <ele>55</ele>
        <time>2021-08-31T16:37:35.000Z</time>
      </trkpt>
      <trkpt lat="47.21107" lon="-1.35364">
        <ele>56</ele>
        <time>2021-08-31T16:37:37.000Z</time>
      </trkpt>
      <trkpt lat="47.2112" lon="-1.35367">
        <ele>56</ele>
        <time>2021-08-31T16:37:39.000Z</time>
      </trkpt>
      <trkpt lat="47.21133" lon="-1.3537">
        <ele>55</ele>
        <time>2021-08-31T16:37:41.000Z</time>
      </trkpt>
      <trkpt lat="47.21145" lon="-1.35373">
        <ele>55</ele>
        <time>2021-08-31T16:37:43.000Z</time>
      </trkpt>
      <trkpt lat="47.21157" lon="-1.35376">
        <ele>55</ele>
        <time>2021-08-31T16:37:45.000Z</time>
      </trkpt>
      <trkpt lat="47.21168" lon="-1.35379">
        <ele>55</ele>
        <time>2021-08-31T16:37:47.000Z</time>
      </trkpt>
      <trkpt lat="47.21179" lon="-1.35383">
        <ele>56</ele>
        <time>2021-08-31T16:37:49.000Z</time>
      </trkpt>
      <trkpt lat="47.2119" lon="-1.35386">
        <ele>56</ele>
        <time>2021-08-31T16:37:51.000Z</time>
      </trkpt>
      <trkpt lat="47.21202" lon="-1.35389">
        <ele>56</ele>
        <time>2021-08-31T16:37:53.000Z</time>
      </trkpt>
      <trkpt lat="47.21214" lon="-1.35393">
        <ele>56</ele>
        <time>2021-08-31T16:37:55.000Z</time>
      </trkpt>
      <trkpt lat="47.21227" lon="-1.35398">
        <ele>56</ele>
        <time>2021-08-31T16:37:57.000Z</time>
      </trkpt>
      <trkpt lat="47.21239" lon="-1.35404">
        <ele>56</ele>
        <time>2021-08-31T16:37:59.000Z</time>
      </trkpt>
      <trkpt lat="47.2125" lon="-1.35413">
        <ele>56</ele>
        <time>2021-08-31T16:38:01.000Z</time>
      </trkpt>
      <trkpt lat="47.2126" lon="-1.35423">
        <ele>56</ele>
        <time>2021-08-31T16:38:03.000Z</time>
      </trkpt>
      <trkpt lat="47.21269" lon="-1.35433">
        <ele>57</ele>
        <time>2021-08-31T16:38:05.000Z</time>
      </trkpt>
      <trkpt lat="47.21278" lon="-1.35442">
        <ele>57</ele>
        <time>2021-08-31T16:38:07.000Z</time>
      </trkpt>
      <trkpt lat="47.21287" lon="-1.35453">
        <ele>57</ele>
        <time>2021-08-31T16:38:09.000Z</time>
      </trkpt>
      <trkpt lat="47.21295" lon="-1.35463">
        <ele>58</ele>
        <time>2021-08-31T16:38:11.000Z</time>
      </trkpt>
      <trkpt lat="47.21304" lon="-1.35472">
        <ele>58</ele>
        <time>2021-08-31T16:38:13.000Z</time>
      </trkpt>
      <trkpt lat="47.21312" lon="-1.35483">
        <ele>59</ele>
        <time>2021-08-31T16:38:15.000Z</time>
      </trkpt>
      <trkpt lat="47.2132" lon="-1.35492">
        <ele>59</ele>
        <time>2021-08-31T16:38:17.000Z</time>
      </trkpt>
      <trkpt lat="47.21328" lon="-1.35501">
        <ele>60</ele>
        <time>2021-08-31T16:38:19.000Z</time>
      </trkpt>
      <trkpt lat="47.21336" lon="-1.3551">
        <ele>60</ele>
        <time>2021-08-31T16:38:21.000Z</time>
      </trkpt>
      <trkpt lat="47.21343" lon="-1.35519">
        <ele>61</ele>
        <time>2021-08-31T16:38:23.000Z</time>
      </trkpt>
      <trkpt lat="47.21353" lon="-1.35531">
        <ele>62</ele>
        <time>2021-08-31T16:38:26.000Z</time>
      </trkpt>
      <trkpt lat="47.21362" lon="-1.35543">
        <ele>63</ele>
        <time>2021-08-31T16:38:29.000Z</time>
      </trkpt>
      <trkpt lat="47.21372" lon="-1.35554">
        <ele>64</ele>
        <time>2021-08-31T16:38:32.000Z</time>
      </trkpt>
      <trkpt lat="47.21381" lon="-1.35565">
        <ele>66</ele>
        <time>2021-08-31T16:38:35.000Z</time>
      </trkpt>
      <trkpt lat="47.21391" lon="-1.35576">
        <ele>66</ele>
        <time>2021-08-31T16:38:38.000Z</time>
      </trkpt>
      <trkpt lat="47.21401" lon="-1.35588">
        <ele>67</ele>
        <time>2021-08-31T16:38:41.000Z</time>
      </trkpt>
      <trkpt lat="47.21412" lon="-1.35599">
        <ele>68</ele>
        <time>2021-08-31T16:38:44.000Z</time>
      </trkpt>
      <trkpt lat="47.21421" lon="-1.35611">
        <ele>69</ele>
        <time>2021-08-31T16:38:47.000Z</time>
      </trkpt>
      <trkpt lat="47.21431" lon="-1.35622">
        <ele>69</ele>
        <time>2021-08-31T16:38:50.000Z</time>
      </trkpt>
      <trkpt lat="47.2144" lon="-1.35634">
        <ele>70</ele>
        <time>2021-08-31T16:38:53.000Z</time>
      </trkpt>
      <trkpt lat="47.21451" lon="-1.35645">
        <ele>71</ele>
        <time>2021-08-31T16:38:56.000Z</time>
      </trkpt>
      <trkpt lat="47.2146" lon="-1.35657">
        <ele>72</ele>
        <time>2021-08-31T16:38:59.000Z</time>
      </trkpt>
      <trkpt lat="47.21471" lon="-1.35669">
        <ele>72</ele>
        <time>2021-08-31T16:39:02.000Z</time>
      </trkpt>
      <trkpt lat="47.21481" lon="-1.35681">
        <ele>73</ele>
        <time>2021-08-31T16:39:05.000Z</time>
      </trkpt>
      <trkpt lat="47.21491" lon="-1.35692">
        <ele>74</ele>
        <time>2021-08-31T16:39:08.000Z</time>
      </trkpt>
      <trkpt lat="47.215" lon="-1.35703">
        <ele>75</ele>
        <time>2021-08-31T16:39:11.000Z</time>
      </trkpt>
      <trkpt lat="47.2151" lon="-1.35715">
        <ele>76</ele>
        <time>2021-08-31T16:39:14.000Z</time>
      </trkpt>
      <trkpt lat="47.21519" lon="-1.35727">
        <ele>77</ele>
        <time>2021-08-31T16:39:17.000Z</time>
      </trkpt>
      <trkpt lat="47.21529" lon="-1.35738">
        <ele>78</ele>
        <time>2021-08-31T16:39:20.000Z</time>
      </trkpt>
      <trkpt lat="47.21539" lon="-1.35749">
        <ele>78</ele>
        <time>2021-08-31T16:39:23.000Z</time>
      </trkpt>
      <trkpt lat="47.21549" lon="-1.35758">
        <ele>79</ele>
        <time>2021-08-31T16:39:26.000Z</time>
      </trkpt>
      <trkpt lat="47.2156" lon="-1.35767">
        <ele>80</ele>
        <time>2021-08-31T16:39:29.000Z</time>
      </trkpt>
      <trkpt lat="47.21572" lon="-1.35774">
        <ele>80</ele>
        <time>2021-08-31T16:39:32.000Z</time>
      </trkpt>
      <trkpt lat="47.21583" lon="-1.35781">
        <ele>81</ele>
        <time>2021-08-31T16:39:35.000Z</time>
      </trkpt>
      <trkpt lat="47.21595" lon="-1.35785">
        <ele>81</ele>
        <time>2021-08-31T16:39:38.000Z</time>
      </trkpt>
      <trkpt lat="47.21604" lon="-1.35788">
        <ele>81</ele>
        <time>2021-08-31T16:39:40.000Z</time>
      </trkpt>
      <trkpt lat="47.21613" lon="-1.3579">
        <ele>81</ele>
        <time>2021-08-31T16:39:42.000Z</time>
      </trkpt>
      <trkpt lat="47.21623" lon="-1.35791">
        <ele>81</ele>
        <time>2021-08-31T16:39:44.000Z</time>
      </trkpt>
      <trkpt lat="47.21632" lon="-1.3579">
        <ele>81</ele>
        <time>2021-08-31T16:39:46.000Z</time>
      </trkpt>
      <trkpt lat="47.21642" lon="-1.35789">
        <ele>81</ele>
        <time>2021-08-31T16:39:48.000Z</time>
      </trkpt>
      <trkpt lat="47.21651" lon="-1.35787">
        <ele>81</ele>
        <time>2021-08-31T16:39:50.000Z</time>
      </trkpt>
      <trkpt lat="47.2166" lon="-1.35783">
        <ele>81</ele>
        <time>2021-08-31T16:39:52.000Z</time>
      </trkpt>
      <trkpt lat="47.2167" lon="-1.3578">
        <ele>82</ele>
        <time>2021-08-31T16:39:54.000Z</time>
      </trkpt>
      <trkpt lat="47.21679" lon="-1.35775">
        <ele>82</ele>
        <time>2021-08-31T16:39:56.000Z</time>
      </trkpt>
      <trkpt lat="47.21689" lon="-1.3577">
        <ele>82</ele>
        <time>2021-08-31T16:39:58.000Z</time>
      </trkpt>
      <trkpt lat="47.21698" lon="-1.35765">
        <ele>82</ele>
        <time>2021-08-31T16:40:00.000Z</time>
      </trkpt>
      <trkpt lat="47.21707" lon="-1.35757">
        <ele>81</ele>
        <time>2021-08-31T16:40:02.000Z</time>
      </trkpt>
      <trkpt lat="47.21716" lon="-1.35749">
        <ele>81</ele>
        <time>2021-08-31T16:40:04.000Z</time>
      </trkpt>
      <trkpt lat="47.21725" lon="-1.3574">
        <ele>80</ele>
        <time>2021-08-31T16:40:06.000Z</time>
      </trkpt>
      <trkpt lat="47.21735" lon="-1.35731">
        <ele>79</ele>
        <time>2021-08-31T16:40:08.000Z</time>
      </trkpt>
      <trkpt lat="47.21745" lon="-1.35722">
        <ele>79</ele>
        <time>2021-08-31T16:40:10.000Z</time>
      </trkpt>
      <trkpt lat="47.21755" lon="-1.35713">
        <ele>78</ele>
        <time>2021-08-31T16:40:12.000Z</time>
      </trkpt>
      <trkpt lat="47.21766" lon="-1.35704">
        <ele>77</ele>
        <time>2021-08-31T16:40:14.000Z</time>
      </trkpt>
      <trkpt lat="47.21777" lon="-1.35695">
        <ele>77</ele>
        <time>2021-08-31T16:40:16.000Z</time>
      </trkpt>
      <trkpt lat="47.21787" lon="-1.35686">
        <ele>76</ele>
        <time>2021-08-31T16:40:18.000Z</time>
      </trkpt>
      <trkpt lat="47.21799" lon="-1.35679">
        <ele>76</ele>
        <time>2021-08-31T16:40:20.000Z</time>
      </trkpt>
      <trkpt lat="47.21813" lon="-1.35673">
        <ele>75</ele>
        <time>2021-08-31T16:40:22.000Z</time>
      </trkpt>
      <trkpt lat="47.21827" lon="-1.35669">
        <ele>74</ele>
        <time>2021-08-31T16:40:24.000Z</time>
      </trkpt>
      <trkpt lat="47.21841" lon="-1.35667">
        <ele>73</ele>
        <time>2021-08-31T16:40:26.000Z</time>
      </trkpt>
      <trkpt lat="47.21855" lon="-1.35667">
        <ele>73</ele>
        <time>2021-08-31T16:40:28.000Z</time>
      </trkpt>
      <trkpt lat="47.21869" lon="-1.35668">
        <ele>73</ele>
        <time>2021-08-31T16:40:30.000Z</time>
      </trkpt>
      <trkpt lat="47.21883" lon="-1.35672">
        <ele>72</ele>
        <time>2021-08-31T16:40:32.000Z</time>
      </trkpt>
      <trkpt lat="47.21898" lon="-1.35675">
        <ele>71</ele>
        <time>2021-08-31T16:40:34.000Z</time>
      </trkpt>
      <trkpt lat="47.21913" lon="-1.35678">
        <ele>71</ele>
        <time>2021-08-31T16:40:36.000Z</time>
      </trkpt>
      <trkpt lat="47.21927" lon="-1.35681">
        <ele>70</ele>
        <time>2021-08-31T16:40:38.000Z</time>
      </trkpt>
      <trkpt lat="47.21942" lon="-1.35685">
        <ele>70</ele>
        <time>2021-08-31T16:40:40.000Z</time>
      </trkpt>
      <trkpt lat="47.21956" lon="-1.35687">
        <ele>70</ele>
        <time>2021-08-31T16:40:42.000Z</time>
      </trkpt>
      <trkpt lat="47.21971" lon="-1.35691">
        <ele>69</ele>
        <time>2021-08-31T16:40:44.000Z</time>
      </trkpt>
      <trkpt lat="47.21986" lon="-1.35694">
        <ele>69</ele>
        <time>2021-08-31T16:40:46.000Z</time>
      </trkpt>
      <trkpt lat="47.22" lon="-1.35697">
        <ele>68</ele>
        <time>2021-08-31T16:40:48.000Z</time>
      </trkpt>
      <trkpt lat="47.22015" lon="-1.357">
        <ele>67</ele>
        <time>2021-08-31T16:40:50.000Z</time>
      </trkpt>
      <trkpt lat="47.22031" lon="-1.35703">
        <ele>67</ele>
        <time>2021-08-31T16:40:52.000Z</time>
      </trkpt>
      <trkpt lat="47.22046" lon="-1.35707">
        <ele>66</ele>
        <time>2021-08-31T16:40:54.000Z</time>
      </trkpt>
      <trkpt lat="47.22061" lon="-1.3571">
        <ele>65</ele>
        <time>2021-08-31T16:40:56.000Z</time>
      </trkpt>
      <trkpt lat="47.22077" lon="-1.35714">
        <ele>65</ele>
        <time>2021-08-31T16:40:58.000Z</time>
      </trkpt>
      <trkpt lat="47.22092" lon="-1.35717">
        <ele>64</ele>
        <time>2021-08-31T16:41:00.000Z</time>
      </trkpt>
      <trkpt lat="47.22107" lon="-1.3572">
        <ele>63</ele>
        <time>2021-08-31T16:41:02.000Z</time>
      </trkpt>
      <trkpt lat="47.22122" lon="-1.35723">
        <ele>62</ele>
        <time>2021-08-31T16:41:04.000Z</time>
      </trkpt>
      <trkpt lat="47.22137" lon="-1.35726">
        <ele>62</ele>
        <time>2021-08-31T16:41:06.000Z</time>
      </trkpt>
      <trkpt lat="47.22152" lon="-1.3573">
        <ele>61</ele>
        <time>2021-08-31T16:41:08.000Z</time>
      </trkpt>
      <trkpt lat="47.22168" lon="-1.35733">
        <ele>61</ele>
        <time>2021-08-31T16:41:10.000Z</time>
      </trkpt>
      <trkpt lat="47.22183" lon="-1.35736">
        <ele>61</ele>
        <time>2021-08-31T16:41:12.000Z</time>
      </trkpt>
      <trkpt lat="47.22198" lon="-1.35739">
        <ele>60</ele>
        <time>2021-08-31T16:41:14.000Z</time>
      </trkpt>
      <trkpt lat="47.22213" lon="-1.35741">
        <ele>60</ele>
        <time>2021-08-31T16:41:16.000Z</time>
      </trkpt>
      <trkpt lat="47.22229" lon="-1.35742">
        <ele>60</ele>
        <time>2021-08-31T16:41:18.000Z</time>
      </trkpt>
      <trkpt lat="47.22244" lon="-1.35742">
        <ele>60</ele>
        <time>2021-08-31T16:41:20.000Z</time>
      </trkpt>
      <trkpt lat="47.22258" lon="-1.35739">
        <ele>60</ele>
        <time>2021-08-31T16:41:22.000Z</time>
      </trkpt>
      <trkpt lat="47.22272" lon="-1.35735">
        <ele>60</ele>
        <time>2021-08-31T16:41:24.000Z</time>
      </trkpt>
      <trkpt lat="47.22286" lon="-1.35729">
        <ele>60</ele>
        <time>2021-08-31T16:41:26.000Z</time>
      </trkpt>
      <trkpt lat="47.223" lon="-1.35724">
        <ele>60</ele>
        <time>2021-08-31T16:41:28.000Z</time>
      </trkpt>
      <trkpt lat="47.22313" lon="-1.35718">
        <ele>60</ele>
        <time>2021-08-31T16:41:30.000Z</time>
      </trkpt>
      <trkpt lat="47.22326" lon="-1.35713">
        <ele>60</ele>
        <time>2021-08-31T16:41:32.000Z</time>
      </trkpt>
      <trkpt lat="47.22339" lon="-1.35707">
        <ele>60</ele>
        <time>2021-08-31T16:41:34.000Z</time>
      </trkpt>
      <trkpt lat="47.22352" lon="-1.35702">
        <ele>60</ele>
        <time>2021-08-31T16:41:36.000Z</time>
      </trkpt>
      <trkpt lat="47.22365" lon="-1.35696">
        <ele>60</ele>
        <time>2021-08-31T16:41:38.000Z</time>
      </trkpt>
      <trkpt lat="47.22378" lon="-1.35691">
        <ele>60</ele>
        <time>2021-08-31T16:41:40.000Z</time>
      </trkpt>
      <trkpt lat="47.22391" lon="-1.35686">
        <ele>60</ele>
        <time>2021-08-31T16:41:42.000Z</time>
      </trkpt>
      <trkpt lat="47.22404" lon="-1.3568">
        <ele>60</ele>
        <time>2021-08-31T16:41:44.000Z</time>
      </trkpt>
      <trkpt lat="47.22417" lon="-1.35675">
        <ele>59</ele>
        <time>2021-08-31T16:41:46.000Z</time>
      </trkpt>
      <trkpt lat="47.2243" lon="-1.35671">
        <ele>59</ele>
        <time>2021-08-31T16:41:48.000Z</time>
      </trkpt>
      <trkpt lat="47.22443" lon="-1.35666">
        <ele>59</ele>
        <time>2021-08-31T16:41:50.000Z</time>
      </trkpt>
      <trkpt lat="47.22457" lon="-1.35661">
        <ele>59</ele>
        <time>2021-08-31T16:41:52.000Z</time>
      </trkpt>
      <trkpt lat="47.2247" lon="-1.35658">
        <ele>59</ele>
        <time>2021-08-31T16:41:54.000Z</time>
      </trkpt>
      <trkpt lat="47.22483" lon="-1.35656">
        <ele>59</ele>
        <time>2021-08-31T16:41:56.000Z</time>
      </trkpt>
      <trkpt lat="47.22496" lon="-1.35654">
        <ele>59</ele>
        <time>2021-08-31T16:41:58.000Z</time>
      </trkpt>
      <trkpt lat="47.2251" lon="-1.35653">
        <ele>59</ele>
        <time>2021-08-31T16:42:00.000Z</time>
      </trkpt>
      <trkpt lat="47.22523" lon="-1.35652">
        <ele>59</ele>
        <time>2021-08-31T16:42:02.000Z</time>
      </trkpt>
      <trkpt lat="47.22536" lon="-1.35651">
        <ele>58</ele>
        <time>2021-08-31T16:42:04.000Z</time>
      </trkpt>
      <trkpt lat="47.2255" lon="-1.35648">
        <ele>58</ele>
        <time>2021-08-31T16:42:06.000Z</time>
      </trkpt>
      <trkpt lat="47.22563" lon="-1.35644">
        <ele>58</ele>
        <time>2021-08-31T16:42:08.000Z</time>
      </trkpt>
      <trkpt lat="47.22576" lon="-1.35639">
        <ele>58</ele>
        <time>2021-08-31T16:42:10.000Z</time>
      </trkpt>
      <trkpt lat="47.22589" lon="-1.35634">
        <ele>58</ele>
        <time>2021-08-31T16:42:12.000Z</time>
      </trkpt>
      <trkpt lat="47.22601" lon="-1.35627">
        <ele>57</ele>
        <time>2021-08-31T16:42:14.000Z</time>
      </trkpt>
      <trkpt lat="47.22613" lon="-1.35621">
        <ele>58</ele>
        <time>2021-08-31T16:42:16.000Z</time>
      </trkpt>
      <trkpt lat="47.22625" lon="-1.35613">
        <ele>58</ele>
        <time>2021-08-31T16:42:18.000Z</time>
      </trkpt>
      <trkpt lat="47.22636" lon="-1.35605">
        <ele>57</ele>
        <time>2021-08-31T16:42:20.000Z</time>
      </trkpt>
      <trkpt lat="47.22647" lon="-1.35598">
        <ele>58</ele>
        <time>2021-08-31T16:42:22.000Z</time>
      </trkpt>
      <trkpt lat="47.22658" lon="-1.3559">
        <ele>58</ele>
        <time>2021-08-31T16:42:24.000Z</time>
      </trkpt>
      <trkpt lat="47.22668" lon="-1.35583">
        <ele>58</ele>
        <time>2021-08-31T16:42:26.000Z</time>
      </trkpt>
      <trkpt lat="47.22679" lon="-1.35576">
        <ele>58</ele>
        <time>2021-08-31T16:42:28.000Z</time>
      </trkpt>
      <trkpt lat="47.2269" lon="-1.35568">
        <ele>59</ele>
        <time>2021-08-31T16:42:30.000Z</time>
      </trkpt>
      <trkpt lat="47.227" lon="-1.3556">
        <ele>59</ele>
        <time>2021-08-31T16:42:32.000Z</time>
      </trkpt>
      <trkpt lat="47.2271" lon="-1.35553">
        <ele>59</ele>
        <time>2021-08-31T16:42:34.000Z</time>
      </trkpt>
      <trkpt lat="47.2272" lon="-1.35547">
        <ele>59</ele>
        <time>2021-08-31T16:42:36.000Z</time>
      </trkpt>
      <trkpt lat="47.2273" lon="-1.3554">
        <ele>59</ele>
        <time>2021-08-31T16:42:38.000Z</time>
      </trkpt>
      <trkpt lat="47.22739" lon="-1.35534">
        <ele>59</ele>
        <time>2021-08-31T16:42:40.000Z</time>
      </trkpt>
      <trkpt lat="47.22748" lon="-1.35528">
        <ele>60</ele>
        <time>2021-08-31T16:42:42.000Z</time>
      </trkpt>
      <trkpt lat="47.22757" lon="-1.35521">
        <ele>60</ele>
        <time>2021-08-31T16:42:44.000Z</time>
      </trkpt>
      <trkpt lat="47.22766" lon="-1.35514">
        <ele>60</ele>
        <time>2021-08-31T16:42:46.000Z</time>
      </trkpt>
      <trkpt lat="47.22776" lon="-1.35508">
        <ele>61</ele>
        <time>2021-08-31T16:42:48.000Z</time>
      </trkpt>
      <trkpt lat="47.22784" lon="-1.35502">
        <ele>61</ele>
        <time>2021-08-31T16:42:50.000Z</time>
      </trkpt>
      <trkpt lat="47.22792" lon="-1.35496">
        <ele>62</ele>
        <time>2021-08-31T16:42:52.000Z</time>
      </trkpt>
      <trkpt lat="47.22804" lon="-1.35488">
        <ele>62</ele>
        <time>2021-08-31T16:42:55.000Z</time>
      </trkpt>
      <trkpt lat="47.22816" lon="-1.35479">
        <ele>62</ele>
        <time>2021-08-31T16:42:58.000Z</time>
      </trkpt>
      <trkpt lat="47.22827" lon="-1.35472">
        <ele>63</ele>
        <time>2021-08-31T16:43:01.000Z</time>
      </trkpt>
      <trkpt lat="47.22839" lon="-1.35463">
        <ele>64</ele>
        <time>2021-08-31T16:43:04.000Z</time>
      </trkpt>
      <trkpt lat="47.2285" lon="-1.35456">
        <ele>64</ele>
        <time>2021-08-31T16:43:07.000Z</time>
      </trkpt>
      <trkpt lat="47.22862" lon="-1.35449">
        <ele>65</ele>
        <time>2021-08-31T16:43:10.000Z</time>
      </trkpt>
      <trkpt lat="47.22874" lon="-1.35442">
        <ele>65</ele>
        <time>2021-08-31T16:43:13.000Z</time>
      </trkpt>
      <trkpt lat="47.22887" lon="-1.35436">
        <ele>66</ele>
        <time>2021-08-31T16:43:16.000Z</time>
      </trkpt>
      <trkpt lat="47.22899" lon="-1.35431">
        <ele>67</ele>
        <time>2021-08-31T16:43:19.000Z</time>
      </trkpt>
      <trkpt lat="47.22912" lon="-1.35429">
        <ele>67</ele>
        <time>2021-08-31T16:43:22.000Z</time>
      </trkpt>
      <trkpt lat="47.22922" lon="-1.35428">
        <ele>67</ele>
        <time>2021-08-31T16:43:24.000Z</time>
      </trkpt>
      <trkpt lat="47.22931" lon="-1.35428">
        <ele>68</ele>
        <time>2021-08-31T16:43:26.000Z</time>
      </trkpt>
      <trkpt lat="47.2294" lon="-1.35428">
        <ele>67</ele>
        <time>2021-08-31T16:43:28.000Z</time>
      </trkpt>
      <trkpt lat="47.2295" lon="-1.35429">
        <ele>68</ele>
        <time>2021-08-31T16:43:30.000Z</time>
      </trkpt>
      <trkpt lat="47.22959" lon="-1.3543">
        <ele>68</ele>
        <time>2021-08-31T16:43:32.000Z</time>
      </trkpt>
      <trkpt lat="47.22969" lon="-1.35432">
        <ele>68</ele>
        <time>2021-08-31T16:43:34.000Z</time>
      </trkpt>
      <trkpt lat="47.22979" lon="-1.35434">
        <ele>69</ele>
        <time>2021-08-31T16:43:36.000Z</time>
      </trkpt>
      <trkpt lat="47.22989" lon="-1.35436">
        <ele>69</ele>
        <time>2021-08-31T16:43:38.000Z</time>
      </trkpt>
      <trkpt lat="47.22998" lon="-1.35439">
        <ele>70</ele>
        <time>2021-08-31T16:43:40.000Z</time>
      </trkpt>
      <trkpt lat="47.23008" lon="-1.35442">
        <ele>70</ele>
        <time>2021-08-31T16:43:42.000Z</time>
      </trkpt>
      <trkpt lat="47.23018" lon="-1.35444">
        <ele>69</ele>
        <time>2021-08-31T16:43:44.000Z</time>
      </trkpt>
      <trkpt lat="47.23027" lon="-1.35446">
        <ele>70</ele>
        <time>2021-08-31T16:43:46.000Z</time>
      </trkpt>
      <trkpt lat="47.23036" lon="-1.35449">
        <ele>70</ele>
        <time>2021-08-31T16:43:48.000Z</time>
      </trkpt>
      <trkpt lat="47.23046" lon="-1.35451">
        <ele>70</ele>
        <time>2021-08-31T16:43:50.000Z</time>
      </trkpt>
      <trkpt lat="47.23055" lon="-1.35453">
        <ele>71</ele>
        <time>2021-08-31T16:43:52.000Z</time>
      </trkpt>
      <trkpt lat="47.23065" lon="-1.35455">
        <ele>71</ele>
        <time>2021-08-31T16:43:54.000Z</time>
      </trkpt>
      <trkpt lat="47.23076" lon="-1.35457">
        <ele>70</ele>
        <time>2021-08-31T16:43:56.000Z</time>
      </trkpt>
      <trkpt lat="47.23087" lon="-1.35458">
        <ele>70</ele>
        <time>2021-08-31T16:43:58.000Z</time>
      </trkpt>
      <trkpt lat="47.23099" lon="-1.35459">
        <ele>70</ele>
        <time>2021-08-31T16:44:00.000Z</time>
      </trkpt>
      <trkpt lat="47.23111" lon="-1.35457">
        <ele>69</ele>
        <time>2021-08-31T16:44:02.000Z</time>
      </trkpt>
      <trkpt lat="47.23124" lon="-1.35455">
        <ele>69</ele>
        <time>2021-08-31T16:44:04.000Z</time>
      </trkpt>
      <trkpt lat="47.23138" lon="-1.3545">
        <ele>68</ele>
        <time>2021-08-31T16:44:06.000Z</time>
      </trkpt>
      <trkpt lat="47.23151" lon="-1.35444">
        <ele>68</ele>
        <time>2021-08-31T16:44:08.000Z</time>
      </trkpt>
      <trkpt lat="47.23164" lon="-1.35437">
        <ele>68</ele>
        <time>2021-08-31T16:44:10.000Z</time>
      </trkpt>
      <trkpt lat="47.23176" lon="-1.35427">
        <ele>67</ele>
        <time>2021-08-31T16:44:12.000Z</time>
      </trkpt>
      <trkpt lat="47.23189" lon="-1.35417">
        <ele>67</ele>
        <time>2021-08-31T16:44:14.000Z</time>
      </trkpt>
      <trkpt lat="47.23201" lon="-1.35407">
        <ele>66</ele>
        <time>2021-08-31T16:44:16.000Z</time>
      </trkpt>
      <trkpt lat="47.23214" lon="-1.35397">
        <ele>66</ele>
        <time>2021-08-31T16:44:18.000Z</time>
      </trkpt>
      <trkpt lat="47.23226" lon="-1.35387">
        <ele>66</ele>
        <time>2021-08-31T16:44:20.000Z</time>
      </trkpt>
      <trkpt lat="47.23237" lon="-1.35376">
        <ele>66</ele>
        <time>2021-08-31T16:44:22.000Z</time>
      </trkpt>
      <trkpt lat="47.23248" lon="-1.35366">
        <ele>67</ele>
        <time>2021-08-31T16:44:24.000Z</time>
      </trkpt>
      <trkpt lat="47.23258" lon="-1.35356">
        <ele>67</ele>
        <time>2021-08-31T16:44:26.000Z</time>
      </trkpt>
      <trkpt lat="47.23268" lon="-1.35345">
        <ele>68</ele>
        <time>2021-08-31T16:44:28.000Z</time>
      </trkpt>
      <trkpt lat="47.23276" lon="-1.35335">
        <ele>68</ele>
        <time>2021-08-31T16:44:30.000Z</time>
      </trkpt>
      <trkpt lat="47.23283" lon="-1.35324">
        <ele>69</ele>
        <time>2021-08-31T16:44:32.000Z</time>
      </trkpt>
      <trkpt lat="47.23289" lon="-1.35314">
        <ele>69</ele>
        <time>2021-08-31T16:44:34.000Z</time>
      </trkpt>
      <trkpt lat="47.23296" lon="-1.35304">
        <ele>70</ele>
        <time>2021-08-31T16:44:36.000Z</time>
      </trkpt>
      <trkpt lat="47.23302" lon="-1.35293">
        <ele>70</ele>
        <time>2021-08-31T16:44:38.000Z</time>
      </trkpt>
      <trkpt lat="47.23307" lon="-1.35282">
        <ele>70</ele>
        <time>2021-08-31T16:44:40.000Z</time>
      </trkpt>
      <trkpt lat="47.23313" lon="-1.35271">
        <ele>71</ele>
        <time>2021-08-31T16:44:42.000Z</time>
      </trkpt>
      <trkpt lat="47.23321" lon="-1.35255">
        <ele>71</ele>
        <time>2021-08-31T16:44:45.000Z</time>
      </trkpt>
      <trkpt lat="47.23326" lon="-1.35244">
        <ele>72</ele>
        <time>2021-08-31T16:44:47.000Z</time>
      </trkpt>
      <trkpt lat="47.23333" lon="-1.35228">
        <ele>73</ele>
        <time>2021-08-31T16:44:50.000Z</time>
      </trkpt>
      <trkpt lat="47.2334" lon="-1.35212">
        <ele>74</ele>
        <time>2021-08-31T16:44:53.000Z</time>
      </trkpt>
      <trkpt lat="47.23346" lon="-1.35196">
        <ele>74</ele>
        <time>2021-08-31T16:44:56.000Z</time>
      </trkpt>
      <trkpt lat="47.23353" lon="-1.35181">
        <ele>75</ele>
        <time>2021-08-31T16:44:59.000Z</time>
      </trkpt>
      <trkpt lat="47.2336" lon="-1.35165">
        <ele>76</ele>
        <time>2021-08-31T16:45:02.000Z</time>
      </trkpt>
      <trkpt lat="47.23367" lon="-1.3515">
        <ele>77</ele>
        <time>2021-08-31T16:45:05.000Z</time>
      </trkpt>
      <trkpt lat="47.23374" lon="-1.35136">
        <ele>77</ele>
        <time>2021-08-31T16:45:08.000Z</time>
      </trkpt>
      <trkpt lat="47.23382" lon="-1.35124">
        <ele>78</ele>
        <time>2021-08-31T16:45:11.000Z</time>
      </trkpt>
      <trkpt lat="47.23389" lon="-1.35113">
        <ele>78</ele>
        <time>2021-08-31T16:45:14.000Z</time>
      </trkpt>
      <trkpt lat="47.23398" lon="-1.35101">
        <ele>79</ele>
        <time>2021-08-31T16:45:17.000Z</time>
      </trkpt>
      <trkpt lat="47.23407" lon="-1.35091">
        <ele>80</ele>
        <time>2021-08-31T16:45:20.000Z</time>
      </trkpt>
      <trkpt lat="47.23416" lon="-1.35081">
        <ele>81</ele>
        <time>2021-08-31T16:45:23.000Z</time>
      </trkpt>
      <trkpt lat="47.23425" lon="-1.35072">
        <ele>81</ele>
        <time>2021-08-31T16:45:26.000Z</time>
      </trkpt>
      <trkpt lat="47.23434" lon="-1.35064">
        <ele>82</ele>
        <time>2021-08-31T16:45:29.000Z</time>
      </trkpt>
      <trkpt lat="47.23443" lon="-1.35055">
        <ele>82</ele>
        <time>2021-08-31T16:45:32.000Z</time>
      </trkpt>
      <trkpt lat="47.23451" lon="-1.35046">
        <ele>84</ele>
        <time>2021-08-31T16:45:35.000Z</time>
      </trkpt>
      <trkpt lat="47.23459" lon="-1.35038">
        <ele>84</ele>
        <time>2021-08-31T16:45:38.000Z</time>
      </trkpt>
      <trkpt lat="47.23468" lon="-1.35029">
        <ele>85</ele>
        <time>2021-08-31T16:45:41.000Z</time>
      </trkpt>
      <trkpt lat="47.23477" lon="-1.35021">
        <ele>86</ele>
        <time>2021-08-31T16:45:44.000Z</time>
      </trkpt>
      <trkpt lat="47.23487" lon="-1.35012">
        <ele>86</ele>
        <time>2021-08-31T16:45:47.000Z</time>
      </trkpt>
      <trkpt lat="47.23494" lon="-1.35002">
        <ele>87</ele>
        <time>2021-08-31T16:45:50.000Z</time>
      </trkpt>
      <trkpt lat="47.23504" lon="-1.34994">
        <ele>87</ele>
        <time>2021-08-31T16:45:53.000Z</time>
      </trkpt>
      <trkpt lat="47.23514" lon="-1.34986">
        <ele>88</ele>
        <time>2021-08-31T16:45:56.000Z</time>
      </trkpt>
      <trkpt lat="47.23524" lon="-1.34977">
        <ele>89</ele>
        <time>2021-08-31T16:45:59.000Z</time>
      </trkpt>
      <trkpt lat="47.23535" lon="-1.34966">
        <ele>89</ele>
        <time>2021-08-31T16:46:02.000Z</time>
      </trkpt>
      <trkpt lat="47.23545" lon="-1.34956">
        <ele>89</ele>
        <time>2021-08-31T16:46:05.000Z</time>
      </trkpt>
      <trkpt lat="47.23555" lon="-1.34947">
        <ele>89</ele>
        <time>2021-08-31T16:46:08.000Z</time>
      </trkpt>
      <trkpt lat="47.23565" lon="-1.34935">
        <ele>90</ele>
        <time>2021-08-31T16:46:11.000Z</time>
      </trkpt>
      <trkpt lat="47.23576" lon="-1.34925">
        <ele>90</ele>
        <time>2021-08-31T16:46:14.000Z</time>
      </trkpt>
      <trkpt lat="47.23584" lon="-1.34919">
        <ele>89</ele>
        <time>2021-08-31T16:46:16.000Z</time>
      </trkpt>
      <trkpt lat="47.23596" lon="-1.34908">
        <ele>89</ele>
        <time>2021-08-31T16:46:19.000Z</time>
      </trkpt>
      <trkpt lat="47.23607" lon="-1.34898">
        <ele>89</ele>
        <time>2021-08-31T16:46:22.000Z</time>
      </trkpt>
      <trkpt lat="47.23614" lon="-1.34891">
        <ele>89</ele>
        <time>2021-08-31T16:46:24.000Z</time>
      </trkpt>
      <trkpt lat="47.23626" lon="-1.34879">
        <ele>89</ele>
        <time>2021-08-31T16:46:27.000Z</time>
      </trkpt>
      <trkpt lat="47.23636" lon="-1.34867">
        <ele>90</ele>
        <time>2021-08-31T16:46:30.000Z</time>
      </trkpt>
      <trkpt lat="47.23643" lon="-1.34858">
        <ele>89</ele>
        <time>2021-08-31T16:46:32.000Z</time>
      </trkpt>
      <trkpt lat="47.23655" lon="-1.3485">
        <ele>90</ele>
        <time>2021-08-31T16:46:35.000Z</time>
      </trkpt>
      <trkpt lat="47.23666" lon="-1.34842">
        <ele>90</ele>
        <time>2021-08-31T16:46:38.000Z</time>
      </trkpt>
      <trkpt lat="47.23678" lon="-1.34834">
        <ele>90</ele>
        <time>2021-08-31T16:46:41.000Z</time>
      </trkpt>
      <trkpt lat="47.23689" lon="-1.34826">
        <ele>91</ele>
        <time>2021-08-31T16:46:44.000Z</time>
      </trkpt>
      <trkpt lat="47.237" lon="-1.34821">
        <ele>92</ele>
        <time>2021-08-31T16:46:47.000Z</time>
      </trkpt>
      <trkpt lat="47.23712" lon="-1.34815">
        <ele>93</ele>
        <time>2021-08-31T16:46:50.000Z</time>
      </trkpt>
      <trkpt lat="47.23723" lon="-1.34808">
        <ele>94</ele>
        <time>2021-08-31T16:46:53.000Z</time>
      </trkpt>
      <trkpt lat="47.23733" lon="-1.34802">
        <ele>95</ele>
        <time>2021-08-31T16:46:56.000Z</time>
      </trkpt>
      <trkpt lat="47.23743" lon="-1.34796">
        <ele>95</ele>
        <time>2021-08-31T16:47:00.000Z</time>
      </trkpt>
      <trkpt lat="47.23751" lon="-1.34801">
        <ele>94</ele>
        <time>2021-08-31T16:47:04.000Z</time>
      </trkpt>
      <trkpt lat="47.23762" lon="-1.34814">
        <ele>95</ele>
        <time>2021-08-31T16:47:10.000Z</time>
      </trkpt>
      <trkpt lat="47.23769" lon="-1.34826">
        <ele>95</ele>
        <time>2021-08-31T16:47:12.000Z</time>
      </trkpt>
      <trkpt lat="47.23777" lon="-1.34835">
        <ele>97</ele>
        <time>2021-08-31T16:47:14.000Z</time>
      </trkpt>
      <trkpt lat="47.2379" lon="-1.34839">
        <ele>100</ele>
        <time>2021-08-31T16:47:17.000Z</time>
      </trkpt>
      <trkpt lat="47.23801" lon="-1.34837">
        <ele>100</ele>
        <time>2021-08-31T16:47:19.000Z</time>
      </trkpt>
      <trkpt lat="47.23814" lon="-1.34834">
        <ele>100</ele>
        <time>2021-08-31T16:47:22.000Z</time>
      </trkpt>
      <trkpt lat="47.23827" lon="-1.34833">
        <ele>100</ele>
        <time>2021-08-31T16:47:25.000Z</time>
      </trkpt>
      <trkpt lat="47.23837" lon="-1.34832">
        <ele>100</ele>
        <time>2021-08-31T16:47:27.000Z</time>
      </trkpt>
      <trkpt lat="47.23847" lon="-1.34832">
        <ele>99</ele>
        <time>2021-08-31T16:47:29.000Z</time>
      </trkpt>
      <trkpt lat="47.23857" lon="-1.34832">
        <ele>98</ele>
        <time>2021-08-31T16:47:31.000Z</time>
      </trkpt>
      <trkpt lat="47.23868" lon="-1.34835">
        <ele>98</ele>
        <time>2021-08-31T16:47:33.000Z</time>
      </trkpt>
      <trkpt lat="47.23879" lon="-1.3484">
        <ele>98</ele>
        <time>2021-08-31T16:47:35.000Z</time>
      </trkpt>
      <trkpt lat="47.23889" lon="-1.34849">
        <ele>97</ele>
        <time>2021-08-31T16:47:37.000Z</time>
      </trkpt>
      <trkpt lat="47.239" lon="-1.34859">
        <ele>98</ele>
        <time>2021-08-31T16:47:39.000Z</time>
      </trkpt>
      <trkpt lat="47.23912" lon="-1.34868">
        <ele>98</ele>
        <time>2021-08-31T16:47:41.000Z</time>
      </trkpt>
      <trkpt lat="47.23924" lon="-1.34877">
        <ele>98</ele>
        <time>2021-08-31T16:47:43.000Z</time>
      </trkpt>
      <trkpt lat="47.23935" lon="-1.34886">
        <ele>99</ele>
        <time>2021-08-31T16:47:45.000Z</time>
      </trkpt>
      <trkpt lat="47.23952" lon="-1.34898">
        <ele>99</ele>
        <time>2021-08-31T16:47:48.000Z</time>
      </trkpt>
      <trkpt lat="47.23963" lon="-1.34905">
        <ele>100</ele>
        <time>2021-08-31T16:47:50.000Z</time>
      </trkpt>
      <trkpt lat="47.23975" lon="-1.34911">
        <ele>100</ele>
        <time>2021-08-31T16:47:52.000Z</time>
      </trkpt>
      <trkpt lat="47.23993" lon="-1.34917">
        <ele>99</ele>
        <time>2021-08-31T16:47:55.000Z</time>
      </trkpt>
      <trkpt lat="47.24004" lon="-1.34921">
        <ele>98</ele>
        <time>2021-08-31T16:47:57.000Z</time>
      </trkpt>
      <trkpt lat="47.24016" lon="-1.34925">
        <ele>98</ele>
        <time>2021-08-31T16:47:59.000Z</time>
      </trkpt>
      <trkpt lat="47.24027" lon="-1.34928">
        <ele>98</ele>
        <time>2021-08-31T16:48:01.000Z</time>
      </trkpt>
      <trkpt lat="47.24039" lon="-1.34931">
        <ele>98</ele>
        <time>2021-08-31T16:48:03.000Z</time>
      </trkpt>
      <trkpt lat="47.24056" lon="-1.34937">
        <ele>98</ele>
        <time>2021-08-31T16:48:06.000Z</time>
      </trkpt>
      <trkpt lat="47.24068" lon="-1.3494">
        <ele>98</ele>
        <time>2021-08-31T16:48:08.000Z</time>
      </trkpt>
      <trkpt lat="47.24086" lon="-1.34945">
        <ele>97</ele>
        <time>2021-08-31T16:48:11.000Z</time>
      </trkpt>
      <trkpt lat="47.24103" lon="-1.34951">
        <ele>98</ele>
        <time>2021-08-31T16:48:14.000Z</time>
      </trkpt>
      <trkpt lat="47.24114" lon="-1.34954">
        <ele>99</ele>
        <time>2021-08-31T16:48:16.000Z</time>
      </trkpt>
      <trkpt lat="47.24125" lon="-1.34959">
        <ele>98</ele>
        <time>2021-08-31T16:48:18.000Z</time>
      </trkpt>
      <trkpt lat="47.24137" lon="-1.34963">
        <ele>98</ele>
        <time>2021-08-31T16:48:20.000Z</time>
      </trkpt>
      <trkpt lat="47.24148" lon="-1.34968">
        <ele>98</ele>
        <time>2021-08-31T16:48:22.000Z</time>
      </trkpt>
      <trkpt lat="47.2416" lon="-1.34971">
        <ele>98</ele>
        <time>2021-08-31T16:48:24.000Z</time>
      </trkpt>
      <trkpt lat="47.24172" lon="-1.34973">
        <ele>99</ele>
        <time>2021-08-31T16:48:26.000Z</time>
      </trkpt>
      <trkpt lat="47.24184" lon="-1.34977">
        <ele>99</ele>
        <time>2021-08-31T16:48:28.000Z</time>
      </trkpt>
      <trkpt lat="47.24195" lon="-1.3498">
        <ele>99</ele>
        <time>2021-08-31T16:48:30.000Z</time>
      </trkpt>
      <trkpt lat="47.24206" lon="-1.34984">
        <ele>99</ele>
        <time>2021-08-31T16:48:32.000Z</time>
      </trkpt>
      <trkpt lat="47.24217" lon="-1.34987">
        <ele>100</ele>
        <time>2021-08-31T16:48:34.000Z</time>
      </trkpt>
      <trkpt lat="47.24228" lon="-1.34991">
        <ele>100</ele>
        <time>2021-08-31T16:48:36.000Z</time>
      </trkpt>
      <trkpt lat="47.24239" lon="-1.34994">
        <ele>100</ele>
        <time>2021-08-31T16:48:38.000Z</time>
      </trkpt>
      <trkpt lat="47.2425" lon="-1.34997">
        <ele>100</ele>
        <time>2021-08-31T16:48:40.000Z</time>
      </trkpt>
      <trkpt lat="47.24261" lon="-1.35001">
        <ele>100</ele>
        <time>2021-08-31T16:48:42.000Z</time>
      </trkpt>
      <trkpt lat="47.24272" lon="-1.35005">
        <ele>100</ele>
        <time>2021-08-31T16:48:44.000Z</time>
      </trkpt>
      <trkpt lat="47.24283" lon="-1.35009">
        <ele>101</ele>
        <time>2021-08-31T16:48:46.000Z</time>
      </trkpt>
      <trkpt lat="47.24295" lon="-1.35011">
        <ele>100</ele>
        <time>2021-08-31T16:48:48.000Z</time>
      </trkpt>
      <trkpt lat="47.24306" lon="-1.35014">
        <ele>100</ele>
        <time>2021-08-31T16:48:50.000Z</time>
      </trkpt>
      <trkpt lat="47.24317" lon="-1.35018">
        <ele>101</ele>
        <time>2021-08-31T16:48:52.000Z</time>
      </trkpt>
      <trkpt lat="47.24328" lon="-1.35022">
        <ele>101</ele>
        <time>2021-08-31T16:48:54.000Z</time>
      </trkpt>
      <trkpt lat="47.24339" lon="-1.35026">
        <ele>101</ele>
        <time>2021-08-31T16:48:56.000Z</time>
      </trkpt>
      <trkpt lat="47.2435" lon="-1.35029">
        <ele>101</ele>
        <time>2021-08-31T16:48:58.000Z</time>
      </trkpt>
      <trkpt lat="47.24361" lon="-1.35033">
        <ele>101</ele>
        <time>2021-08-31T16:49:00.000Z</time>
      </trkpt>
      <trkpt lat="47.24372" lon="-1.35038">
        <ele>101</ele>
        <time>2021-08-31T16:49:02.000Z</time>
      </trkpt>
      <trkpt lat="47.24384" lon="-1.35042">
        <ele>101</ele>
        <time>2021-08-31T16:49:04.000Z</time>
      </trkpt>
      <trkpt lat="47.24395" lon="-1.35045">
        <ele>101</ele>
        <time>2021-08-31T16:49:06.000Z</time>
      </trkpt>
      <trkpt lat="47.24406" lon="-1.35049">
        <ele>102</ele>
        <time>2021-08-31T16:49:08.000Z</time>
      </trkpt>
      <trkpt lat="47.24418" lon="-1.35052">
        <ele>102</ele>
        <time>2021-08-31T16:49:10.000Z</time>
      </trkpt>
      <trkpt lat="47.24429" lon="-1.35053">
        <ele>102</ele>
        <time>2021-08-31T16:49:12.000Z</time>
      </trkpt>
      <trkpt lat="47.2444" lon="-1.35055">
        <ele>102</ele>
        <time>2021-08-31T16:49:14.000Z</time>
      </trkpt>
      <trkpt lat="47.24452" lon="-1.35058">
        <ele>102</ele>
        <time>2021-08-31T16:49:16.000Z</time>
      </trkpt>
      <trkpt lat="47.24463" lon="-1.3506">
        <ele>103</ele>
        <time>2021-08-31T16:49:18.000Z</time>
      </trkpt>
      <trkpt lat="47.24474" lon="-1.35063">
        <ele>102</ele>
        <time>2021-08-31T16:49:20.000Z</time>
      </trkpt>
      <trkpt lat="47.24486" lon="-1.35065">
        <ele>102</ele>
        <time>2021-08-31T16:49:22.000Z</time>
      </trkpt>
      <trkpt lat="47.24498" lon="-1.35067">
        <ele>101</ele>
        <time>2021-08-31T16:49:24.000Z</time>
      </trkpt>
      <trkpt lat="47.24511" lon="-1.35069">
        <ele>101</ele>
        <time>2021-08-31T16:49:26.000Z</time>
      </trkpt>
      <trkpt lat="47.24526" lon="-1.35071">
        <ele>100</ele>
        <time>2021-08-31T16:49:28.000Z</time>
      </trkpt>
      <trkpt lat="47.24541" lon="-1.35073">
        <ele>99</ele>
        <time>2021-08-31T16:49:30.000Z</time>
      </trkpt>
      <trkpt lat="47.24556" lon="-1.35076">
        <ele>98</ele>
        <time>2021-08-31T16:49:32.000Z</time>
      </trkpt>
      <trkpt lat="47.24573" lon="-1.3508">
        <ele>97</ele>
        <time>2021-08-31T16:49:34.000Z</time>
      </trkpt>
      <trkpt lat="47.24588" lon="-1.35084">
        <ele>96</ele>
        <time>2021-08-31T16:49:36.000Z</time>
      </trkpt>
      <trkpt lat="47.24604" lon="-1.35089">
        <ele>95</ele>
        <time>2021-08-31T16:49:38.000Z</time>
      </trkpt>
      <trkpt lat="47.24617" lon="-1.35091">
        <ele>95</ele>
        <time>2021-08-31T16:49:40.000Z</time>
      </trkpt>
      <trkpt lat="47.24628" lon="-1.35091">
        <ele>95</ele>
        <time>2021-08-31T16:49:42.000Z</time>
      </trkpt>
      <trkpt lat="47.2464" lon="-1.35092">
        <ele>96</ele>
        <time>2021-08-31T16:49:45.000Z</time>
      </trkpt>
      <trkpt lat="47.24648" lon="-1.35103">
        <ele>96</ele>
        <time>2021-08-31T16:49:48.000Z</time>
      </trkpt>
      <trkpt lat="47.24648" lon="-1.35121">
        <ele>96</ele>
        <time>2021-08-31T16:49:50.000Z</time>
      </trkpt>
      <trkpt lat="47.24645" lon="-1.3514">
        <ele>96</ele>
        <time>2021-08-31T16:49:52.000Z</time>
      </trkpt>
      <trkpt lat="47.24642" lon="-1.35161">
        <ele>95</ele>
        <time>2021-08-31T16:49:54.000Z</time>
      </trkpt>
      <trkpt lat="47.24639" lon="-1.35183">
        <ele>95</ele>
        <time>2021-08-31T16:49:56.000Z</time>
      </trkpt>
      <trkpt lat="47.24635" lon="-1.35206">
        <ele>95</ele>
        <time>2021-08-31T16:49:58.000Z</time>
      </trkpt>
      <trkpt lat="47.24632" lon="-1.35229">
        <ele>94</ele>
        <time>2021-08-31T16:50:00.000Z</time>
      </trkpt>
      <trkpt lat="47.24627" lon="-1.35253">
        <ele>94</ele>
        <time>2021-08-31T16:50:02.000Z</time>
      </trkpt>
      <trkpt lat="47.24624" lon="-1.35278">
        <ele>94</ele>
        <time>2021-08-31T16:50:04.000Z</time>
      </trkpt>
      <trkpt lat="47.2462" lon="-1.35303">
        <ele>93</ele>
        <time>2021-08-31T16:50:06.000Z</time>
      </trkpt>
      <trkpt lat="47.24618" lon="-1.35316">
        <ele>93</ele>
        <time>2021-08-31T16:50:07.000Z</time>
      </trkpt>
      <trkpt lat="47.24616" lon="-1.3533">
        <ele>93</ele>
        <time>2021-08-31T16:50:08.000Z</time>
      </trkpt>
      <trkpt lat="47.24614" lon="-1.35343">
        <ele>92</ele>
        <time>2021-08-31T16:50:09.000Z</time>
      </trkpt>
      <trkpt lat="47.24613" lon="-1.35357">
        <ele>92</ele>
        <time>2021-08-31T16:50:10.000Z</time>
      </trkpt>
      <trkpt lat="47.24611" lon="-1.35371">
        <ele>92</ele>
        <time>2021-08-31T16:50:11.000Z</time>
      </trkpt>
      <trkpt lat="47.24609" lon="-1.35385">
        <ele>91</ele>
        <time>2021-08-31T16:50:12.000Z</time>
      </trkpt>
      <trkpt lat="47.24607" lon="-1.35399">
        <ele>91</ele>
        <time>2021-08-31T16:50:13.000Z</time>
      </trkpt>
      <trkpt lat="47.24604" lon="-1.35413">
        <ele>90</ele>
        <time>2021-08-31T16:50:14.000Z</time>
      </trkpt>
      <trkpt lat="47.24602" lon="-1.35428">
        <ele>90</ele>
        <time>2021-08-31T16:50:15.000Z</time>
      </trkpt>
      <trkpt lat="47.246" lon="-1.35443">
        <ele>90</ele>
        <time>2021-08-31T16:50:16.000Z</time>
      </trkpt>
      <trkpt lat="47.24597" lon="-1.35457">
        <ele>89</ele>
        <time>2021-08-31T16:50:17.000Z</time>
      </trkpt>
      <trkpt lat="47.24595" lon="-1.35472">
        <ele>89</ele>
        <time>2021-08-31T16:50:18.000Z</time>
      </trkpt>
      <trkpt lat="47.24593" lon="-1.35487">
        <ele>89</ele>
        <time>2021-08-31T16:50:19.000Z</time>
      </trkpt>
      <trkpt lat="47.24591" lon="-1.35502">
        <ele>88</ele>
        <time>2021-08-31T16:50:20.000Z</time>
      </trkpt>
      <trkpt lat="47.24588" lon="-1.35517">
        <ele>88</ele>
        <time>2021-08-31T16:50:21.000Z</time>
      </trkpt>
      <trkpt lat="47.24586" lon="-1.35532">
        <ele>87</ele>
        <time>2021-08-31T16:50:22.000Z</time>
      </trkpt>
      <trkpt lat="47.24583" lon="-1.35547">
        <ele>87</ele>
        <time>2021-08-31T16:50:23.000Z</time>
      </trkpt>
      <trkpt lat="47.24581" lon="-1.35562">
        <ele>87</ele>
        <time>2021-08-31T16:50:24.000Z</time>
      </trkpt>
      <trkpt lat="47.24578" lon="-1.35577">
        <ele>86</ele>
        <time>2021-08-31T16:50:25.000Z</time>
      </trkpt>
      <trkpt lat="47.24575" lon="-1.35592">
        <ele>85</ele>
        <time>2021-08-31T16:50:26.000Z</time>
      </trkpt>
      <trkpt lat="47.24572" lon="-1.35607">
        <ele>85</ele>
        <time>2021-08-31T16:50:27.000Z</time>
      </trkpt>
      <trkpt lat="47.24569" lon="-1.35621">
        <ele>85</ele>
        <time>2021-08-31T16:50:28.000Z</time>
      </trkpt>
      <trkpt lat="47.24566" lon="-1.35636">
        <ele>85</ele>
        <time>2021-08-31T16:50:29.000Z</time>
      </trkpt>
      <trkpt lat="47.24563" lon="-1.3565">
        <ele>84</ele>
        <time>2021-08-31T16:50:30.000Z</time>
      </trkpt>
      <trkpt lat="47.2456" lon="-1.35664">
        <ele>84</ele>
        <time>2021-08-31T16:50:31.000Z</time>
      </trkpt>
      <trkpt lat="47.24557" lon="-1.35678">
        <ele>84</ele>
        <time>2021-08-31T16:50:32.000Z</time>
      </trkpt>
      <trkpt lat="47.24554" lon="-1.35692">
        <ele>83</ele>
        <time>2021-08-31T16:50:33.000Z</time>
      </trkpt>
      <trkpt lat="47.24551" lon="-1.35706">
        <ele>83</ele>
        <time>2021-08-31T16:50:34.000Z</time>
      </trkpt>
      <trkpt lat="47.24547" lon="-1.35721">
        <ele>82</ele>
        <time>2021-08-31T16:50:35.000Z</time>
      </trkpt>
      <trkpt lat="47.24544" lon="-1.35735">
        <ele>82</ele>
        <time>2021-08-31T16:50:36.000Z</time>
      </trkpt>
      <trkpt lat="47.2454" lon="-1.3575">
        <ele>81</ele>
        <time>2021-08-31T16:50:37.000Z</time>
      </trkpt>
      <trkpt lat="47.24536" lon="-1.35765">
        <ele>81</ele>
        <time>2021-08-31T16:50:38.000Z</time>
      </trkpt>
      <trkpt lat="47.24533" lon="-1.35779">
        <ele>81</ele>
        <time>2021-08-31T16:50:39.000Z</time>
      </trkpt>
      <trkpt lat="47.24529" lon="-1.35793">
        <ele>80</ele>
        <time>2021-08-31T16:50:40.000Z</time>
      </trkpt>
      <trkpt lat="47.24525" lon="-1.35807">
        <ele>80</ele>
        <time>2021-08-31T16:50:41.000Z</time>
      </trkpt>
      <trkpt lat="47.24521" lon="-1.35822">
        <ele>80</ele>
        <time>2021-08-31T16:50:42.000Z</time>
      </trkpt>
      <trkpt lat="47.24517" lon="-1.35836">
        <ele>79</ele>
        <time>2021-08-31T16:50:43.000Z</time>
      </trkpt>
      <trkpt lat="47.24513" lon="-1.3585">
        <ele>79</ele>
        <time>2021-08-31T16:50:44.000Z</time>
      </trkpt>
      <trkpt lat="47.24509" lon="-1.35864">
        <ele>78</ele>
        <time>2021-08-31T16:50:45.000Z</time>
      </trkpt>
      <trkpt lat="47.24505" lon="-1.35878">
        <ele>78</ele>
        <time>2021-08-31T16:50:46.000Z</time>
      </trkpt>
      <trkpt lat="47.245" lon="-1.35891">
        <ele>78</ele>
        <time>2021-08-31T16:50:47.000Z</time>
      </trkpt>
      <trkpt lat="47.24496" lon="-1.35904">
        <ele>78</ele>
        <time>2021-08-31T16:50:48.000Z</time>
      </trkpt>
      <trkpt lat="47.24491" lon="-1.35918">
        <ele>77</ele>
        <time>2021-08-31T16:50:49.000Z</time>
      </trkpt>
      <trkpt lat="47.24486" lon="-1.35931">
        <ele>77</ele>
        <time>2021-08-31T16:50:50.000Z</time>
      </trkpt>
      <trkpt lat="47.24481" lon="-1.35943">
        <ele>77</ele>
        <time>2021-08-31T16:50:51.000Z</time>
      </trkpt>
      <trkpt lat="47.24476" lon="-1.35954">
        <ele>77</ele>
        <time>2021-08-31T16:50:52.000Z</time>
      </trkpt>
      <trkpt lat="47.24471" lon="-1.35966">
        <ele>76</ele>
        <time>2021-08-31T16:50:53.000Z</time>
      </trkpt>
      <trkpt lat="47.24466" lon="-1.35978">
        <ele>76</ele>
        <time>2021-08-31T16:50:54.000Z</time>
      </trkpt>
      <trkpt lat="47.24462" lon="-1.3599">
        <ele>76</ele>
        <time>2021-08-31T16:50:55.000Z</time>
      </trkpt>
      <trkpt lat="47.24455" lon="-1.36013">
        <ele>75</ele>
        <time>2021-08-31T16:50:57.000Z</time>
      </trkpt>
      <trkpt lat="47.24456" lon="-1.36037">
        <ele>75</ele>
        <time>2021-08-31T16:50:59.000Z</time>
      </trkpt>
      <trkpt lat="47.24466" lon="-1.36059">
        <ele>74</ele>
        <time>2021-08-31T16:51:01.000Z</time>
      </trkpt>
      <trkpt lat="47.24472" lon="-1.36069">
        <ele>74</ele>
        <time>2021-08-31T16:51:02.000Z</time>
      </trkpt>
      <trkpt lat="47.24484" lon="-1.3609">
        <ele>73</ele>
        <time>2021-08-31T16:51:04.000Z</time>
      </trkpt>
      <trkpt lat="47.2449" lon="-1.361">
        <ele>73</ele>
        <time>2021-08-31T16:51:05.000Z</time>
      </trkpt>
      <trkpt lat="47.24496" lon="-1.36111">
        <ele>72</ele>
        <time>2021-08-31T16:51:06.000Z</time>
      </trkpt>
      <trkpt lat="47.24502" lon="-1.36122">
        <ele>72</ele>
        <time>2021-08-31T16:51:07.000Z</time>
      </trkpt>
      <trkpt lat="47.24509" lon="-1.36133">
        <ele>72</ele>
        <time>2021-08-31T16:51:08.000Z</time>
      </trkpt>
      <trkpt lat="47.24515" lon="-1.36145">
        <ele>71</ele>
        <time>2021-08-31T16:51:09.000Z</time>
      </trkpt>
      <trkpt lat="47.24522" lon="-1.36156">
        <ele>71</ele>
        <time>2021-08-31T16:51:10.000Z</time>
      </trkpt>
      <trkpt lat="47.24528" lon="-1.36168">
        <ele>70</ele>
        <time>2021-08-31T16:51:11.000Z</time>
      </trkpt>
      <trkpt lat="47.24534" lon="-1.3618">
        <ele>70</ele>
        <time>2021-08-31T16:51:12.000Z</time>
      </trkpt>
      <trkpt lat="47.24539" lon="-1.36192">
        <ele>69</ele>
        <time>2021-08-31T16:51:13.000Z</time>
      </trkpt>
      <trkpt lat="47.24544" lon="-1.36205">
        <ele>69</ele>
        <time>2021-08-31T16:51:14.000Z</time>
      </trkpt>
      <trkpt lat="47.24547" lon="-1.36218">
        <ele>68</ele>
        <time>2021-08-31T16:51:15.000Z</time>
      </trkpt>
      <trkpt lat="47.2455" lon="-1.36231">
        <ele>68</ele>
        <time>2021-08-31T16:51:16.000Z</time>
      </trkpt>
      <trkpt lat="47.24553" lon="-1.36244">
        <ele>68</ele>
        <time>2021-08-31T16:51:17.000Z</time>
      </trkpt>
      <trkpt lat="47.24556" lon="-1.36258">
        <ele>68</ele>
        <time>2021-08-31T16:51:18.000Z</time>
      </trkpt>
      <trkpt lat="47.24559" lon="-1.36271">
        <ele>67</ele>
        <time>2021-08-31T16:51:19.000Z</time>
      </trkpt>
      <trkpt lat="47.24562" lon="-1.36284">
        <ele>67</ele>
        <time>2021-08-31T16:51:20.000Z</time>
      </trkpt>
      <trkpt lat="47.24565" lon="-1.36297">
        <ele>67</ele>
        <time>2021-08-31T16:51:21.000Z</time>
      </trkpt>
      <trkpt lat="47.2457" lon="-1.36322">
        <ele>66</ele>
        <time>2021-08-31T16:51:23.000Z</time>
      </trkpt>
      <trkpt lat="47.24576" lon="-1.36347">
        <ele>66</ele>
        <time>2021-08-31T16:51:25.000Z</time>
      </trkpt>
      <trkpt lat="47.24582" lon="-1.36371">
        <ele>66</ele>
        <time>2021-08-31T16:51:27.000Z</time>
      </trkpt>
      <trkpt lat="47.24589" lon="-1.36395">
        <ele>65</ele>
        <time>2021-08-31T16:51:29.000Z</time>
      </trkpt>
      <trkpt lat="47.24593" lon="-1.36407">
        <ele>65</ele>
        <time>2021-08-31T16:51:30.000Z</time>
      </trkpt>
      <trkpt lat="47.24603" lon="-1.3643">
        <ele>64</ele>
        <time>2021-08-31T16:51:32.000Z</time>
      </trkpt>
      <trkpt lat="47.24608" lon="-1.36441">
        <ele>64</ele>
        <time>2021-08-31T16:51:33.000Z</time>
      </trkpt>
      <trkpt lat="47.24613" lon="-1.36452">
        <ele>64</ele>
        <time>2021-08-31T16:51:34.000Z</time>
      </trkpt>
      <trkpt lat="47.24618" lon="-1.36464">
        <ele>64</ele>
        <time>2021-08-31T16:51:35.000Z</time>
      </trkpt>
      <trkpt lat="47.24628" lon="-1.36485">
        <ele>63</ele>
        <time>2021-08-31T16:51:37.000Z</time>
      </trkpt>
      <trkpt lat="47.24638" lon="-1.36507">
        <ele>63</ele>
        <time>2021-08-31T16:51:39.000Z</time>
      </trkpt>
      <trkpt lat="47.24648" lon="-1.36529">
        <ele>63</ele>
        <time>2021-08-31T16:51:41.000Z</time>
      </trkpt>
      <trkpt lat="47.24653" lon="-1.3654">
        <ele>62</ele>
        <time>2021-08-31T16:51:42.000Z</time>
      </trkpt>
      <trkpt lat="47.24663" lon="-1.36561">
        <ele>62</ele>
        <time>2021-08-31T16:51:44.000Z</time>
      </trkpt>
      <trkpt lat="47.24671" lon="-1.36583">
        <ele>62</ele>
        <time>2021-08-31T16:51:46.000Z</time>
      </trkpt>
      <trkpt lat="47.24678" lon="-1.36604">
        <ele>61</ele>
        <time>2021-08-31T16:51:48.000Z</time>
      </trkpt>
      <trkpt lat="47.24684" lon="-1.36626">
        <ele>61</ele>
        <time>2021-08-31T16:51:50.000Z</time>
      </trkpt>
      <trkpt lat="47.2469" lon="-1.36649">
        <ele>61</ele>
        <time>2021-08-31T16:51:52.000Z</time>
      </trkpt>
      <trkpt lat="47.24696" lon="-1.36673">
        <ele>60</ele>
        <time>2021-08-31T16:51:54.000Z</time>
      </trkpt>
      <trkpt lat="47.24699" lon="-1.36686">
        <ele>60</ele>
        <time>2021-08-31T16:51:55.000Z</time>
      </trkpt>
      <trkpt lat="47.24705" lon="-1.3671">
        <ele>60</ele>
        <time>2021-08-31T16:51:57.000Z</time>
      </trkpt>
      <trkpt lat="47.24709" lon="-1.36723">
        <ele>59</ele>
        <time>2021-08-31T16:51:58.000Z</time>
      </trkpt>
      <trkpt lat="47.24712" lon="-1.36736">
        <ele>59</ele>
        <time>2021-08-31T16:51:59.000Z</time>
      </trkpt>
      <trkpt lat="47.24715" lon="-1.36749">
        <ele>59</ele>
        <time>2021-08-31T16:52:00.000Z</time>
      </trkpt>
      <trkpt lat="47.24719" lon="-1.36762">
        <ele>58</ele>
        <time>2021-08-31T16:52:01.000Z</time>
      </trkpt>
      <trkpt lat="47.24722" lon="-1.36775">
        <ele>58</ele>
        <time>2021-08-31T16:52:02.000Z</time>
      </trkpt>
      <trkpt lat="47.24726" lon="-1.36789">
        <ele>57</ele>
        <time>2021-08-31T16:52:03.000Z</time>
      </trkpt>
      <trkpt lat="47.24729" lon="-1.36802">
        <ele>57</ele>
        <time>2021-08-31T16:52:04.000Z</time>
      </trkpt>
      <trkpt lat="47.24732" lon="-1.36815">
        <ele>56</ele>
        <time>2021-08-31T16:52:05.000Z</time>
      </trkpt>
      <trkpt lat="47.24736" lon="-1.36829">
        <ele>56</ele>
        <time>2021-08-31T16:52:06.000Z</time>
      </trkpt>
      <trkpt lat="47.24739" lon="-1.36842">
        <ele>56</ele>
        <time>2021-08-31T16:52:07.000Z</time>
      </trkpt>
      <trkpt lat="47.24742" lon="-1.36855">
        <ele>56</ele>
        <time>2021-08-31T16:52:08.000Z</time>
      </trkpt>
      <trkpt lat="47.24746" lon="-1.36868">
        <ele>56</ele>
        <time>2021-08-31T16:52:09.000Z</time>
      </trkpt>
      <trkpt lat="47.24749" lon="-1.36881">
        <ele>55</ele>
        <time>2021-08-31T16:52:10.000Z</time>
      </trkpt>
      <trkpt lat="47.24752" lon="-1.36894">
        <ele>55</ele>
        <time>2021-08-31T16:52:11.000Z</time>
      </trkpt>
      <trkpt lat="47.24755" lon="-1.36907">
        <ele>55</ele>
        <time>2021-08-31T16:52:12.000Z</time>
      </trkpt>
      <trkpt lat="47.24759" lon="-1.36919">
        <ele>55</ele>
        <time>2021-08-31T16:52:13.000Z</time>
      </trkpt>
      <trkpt lat="47.24765" lon="-1.36944">
        <ele>54</ele>
        <time>2021-08-31T16:52:15.000Z</time>
      </trkpt>
      <trkpt lat="47.24768" lon="-1.36957">
        <ele>54</ele>
        <time>2021-08-31T16:52:16.000Z</time>
      </trkpt>
      <trkpt lat="47.24771" lon="-1.36969">
        <ele>54</ele>
        <time>2021-08-31T16:52:17.000Z</time>
      </trkpt>
      <trkpt lat="47.24777" lon="-1.36994">
        <ele>54</ele>
        <time>2021-08-31T16:52:19.000Z</time>
      </trkpt>
      <trkpt lat="47.24784" lon="-1.37017">
        <ele>54</ele>
        <time>2021-08-31T16:52:21.000Z</time>
      </trkpt>
      <trkpt lat="47.24791" lon="-1.3704">
        <ele>54</ele>
        <time>2021-08-31T16:52:23.000Z</time>
      </trkpt>
      <trkpt lat="47.24799" lon="-1.3706">
        <ele>54</ele>
        <time>2021-08-31T16:52:25.000Z</time>
      </trkpt>
      <trkpt lat="47.24809" lon="-1.37077">
        <ele>53</ele>
        <time>2021-08-31T16:52:27.000Z</time>
      </trkpt>
      <trkpt lat="47.24819" lon="-1.37094">
        <ele>54</ele>
        <time>2021-08-31T16:52:29.000Z</time>
      </trkpt>
      <trkpt lat="47.24823" lon="-1.37116">
        <ele>54</ele>
        <time>2021-08-31T16:52:31.000Z</time>
      </trkpt>
      <trkpt lat="47.24829" lon="-1.37137">
        <ele>54</ele>
        <time>2021-08-31T16:52:33.000Z</time>
      </trkpt>
      <trkpt lat="47.24839" lon="-1.37157">
        <ele>54</ele>
        <time>2021-08-31T16:52:35.000Z</time>
      </trkpt>
      <trkpt lat="47.24849" lon="-1.37176">
        <ele>53</ele>
        <time>2021-08-31T16:52:37.000Z</time>
      </trkpt>
      <trkpt lat="47.2486" lon="-1.37194">
        <ele>53</ele>
        <time>2021-08-31T16:52:39.000Z</time>
      </trkpt>
      <trkpt lat="47.2487" lon="-1.37211">
        <ele>53</ele>
        <time>2021-08-31T16:52:41.000Z</time>
      </trkpt>
      <trkpt lat="47.24882" lon="-1.37228">
        <ele>53</ele>
        <time>2021-08-31T16:52:43.000Z</time>
      </trkpt>
      <trkpt lat="47.24893" lon="-1.37244">
        <ele>53</ele>
        <time>2021-08-31T16:52:45.000Z</time>
      </trkpt>
      <trkpt lat="47.24905" lon="-1.3726">
        <ele>53</ele>
        <time>2021-08-31T16:52:47.000Z</time>
      </trkpt>
      <trkpt lat="47.24917" lon="-1.37275">
        <ele>54</ele>
        <time>2021-08-31T16:52:49.000Z</time>
      </trkpt>
      <trkpt lat="47.24929" lon="-1.37289">
        <ele>54</ele>
        <time>2021-08-31T16:52:51.000Z</time>
      </trkpt>
      <trkpt lat="47.24941" lon="-1.37303">
        <ele>53</ele>
        <time>2021-08-31T16:52:53.000Z</time>
      </trkpt>
      <trkpt lat="47.24953" lon="-1.37317">
        <ele>53</ele>
        <time>2021-08-31T16:52:55.000Z</time>
      </trkpt>
      <trkpt lat="47.24965" lon="-1.37332">
        <ele>53</ele>
        <time>2021-08-31T16:52:57.000Z</time>
      </trkpt>
      <trkpt lat="47.24977" lon="-1.37346">
        <ele>53</ele>
        <time>2021-08-31T16:52:59.000Z</time>
      </trkpt>
      <trkpt lat="47.24989" lon="-1.3736">
        <ele>52</ele>
        <time>2021-08-31T16:53:01.000Z</time>
      </trkpt>
      <trkpt lat="47.25001" lon="-1.37375">
        <ele>52</ele>
        <time>2021-08-31T16:53:03.000Z</time>
      </trkpt>
      <trkpt lat="47.25013" lon="-1.37389">
        <ele>52</ele>
        <time>2021-08-31T16:53:05.000Z</time>
      </trkpt>
      <trkpt lat="47.25025" lon="-1.37403">
        <ele>52</ele>
        <time>2021-08-31T16:53:07.000Z</time>
      </trkpt>
      <trkpt lat="47.25037" lon="-1.37418">
        <ele>52</ele>
        <time>2021-08-31T16:53:09.000Z</time>
      </trkpt>
      <trkpt lat="47.25049" lon="-1.37432">
        <ele>52</ele>
        <time>2021-08-31T16:53:11.000Z</time>
      </trkpt>
      <trkpt lat="47.25061" lon="-1.37445">
        <ele>52</ele>
        <time>2021-08-31T16:53:13.000Z</time>
      </trkpt>
      <trkpt lat="47.25073" lon="-1.37459">
        <ele>52</ele>
        <time>2021-08-31T16:53:15.000Z</time>
      </trkpt>
      <trkpt lat="47.25084" lon="-1.37472">
        <ele>51</ele>
        <time>2021-08-31T16:53:17.000Z</time>
      </trkpt>
      <trkpt lat="47.25095" lon="-1.37486">
        <ele>51</ele>
        <time>2021-08-31T16:53:19.000Z</time>
      </trkpt>
      <trkpt lat="47.25107" lon="-1.37499">
        <ele>51</ele>
        <time>2021-08-31T16:53:21.000Z</time>
      </trkpt>
      <trkpt lat="47.25118" lon="-1.37513">
        <ele>51</ele>
        <time>2021-08-31T16:53:23.000Z</time>
      </trkpt>
      <trkpt lat="47.25129" lon="-1.37526">
        <ele>52</ele>
        <time>2021-08-31T16:53:25.000Z</time>
      </trkpt>
      <trkpt lat="47.25141" lon="-1.3754">
        <ele>51</ele>
        <time>2021-08-31T16:53:27.000Z</time>
      </trkpt>
      <trkpt lat="47.25151" lon="-1.37552">
        <ele>52</ele>
        <time>2021-08-31T16:53:29.000Z</time>
      </trkpt>
      <trkpt lat="47.25163" lon="-1.37566">
        <ele>52</ele>
        <time>2021-08-31T16:53:31.000Z</time>
      </trkpt>
      <trkpt lat="47.25174" lon="-1.37579">
        <ele>52</ele>
        <time>2021-08-31T16:53:33.000Z</time>
      </trkpt>
      <trkpt lat="47.25186" lon="-1.37593">
        <ele>52</ele>
        <time>2021-08-31T16:53:35.000Z</time>
      </trkpt>
      <trkpt lat="47.25198" lon="-1.37607">
        <ele>52</ele>
        <time>2021-08-31T16:53:37.000Z</time>
      </trkpt>
      <trkpt lat="47.25209" lon="-1.37621">
        <ele>51</ele>
        <time>2021-08-31T16:53:39.000Z</time>
      </trkpt>
      <trkpt lat="47.25221" lon="-1.37634">
        <ele>51</ele>
        <time>2021-08-31T16:53:41.000Z</time>
      </trkpt>
      <trkpt lat="47.25232" lon="-1.37647">
        <ele>52</ele>
        <time>2021-08-31T16:53:43.000Z</time>
      </trkpt>
      <trkpt lat="47.25243" lon="-1.37661">
        <ele>52</ele>
        <time>2021-08-31T16:53:45.000Z</time>
      </trkpt>
      <trkpt lat="47.25255" lon="-1.37674">
        <ele>52</ele>
        <time>2021-08-31T16:53:47.000Z</time>
      </trkpt>
      <trkpt lat="47.25266" lon="-1.37687">
        <ele>52</ele>
        <time>2021-08-31T16:53:49.000Z</time>
      </trkpt>
      <trkpt lat="47.25277" lon="-1.377">
        <ele>52</ele>
        <time>2021-08-31T16:53:51.000Z</time>
      </trkpt>
      <trkpt lat="47.25289" lon="-1.37713">
        <ele>52</ele>
        <time>2021-08-31T16:53:53.000Z</time>
      </trkpt>
      <trkpt lat="47.253" lon="-1.37727">
        <ele>52</ele>
        <time>2021-08-31T16:53:55.000Z</time>
      </trkpt>
      <trkpt lat="47.25311" lon="-1.3774">
        <ele>52</ele>
        <time>2021-08-31T16:53:57.000Z</time>
      </trkpt>
      <trkpt lat="47.25322" lon="-1.37754">
        <ele>52</ele>
        <time>2021-08-31T16:53:59.000Z</time>
      </trkpt>
      <trkpt lat="47.25333" lon="-1.37767">
        <ele>52</ele>
        <time>2021-08-31T16:54:01.000Z</time>
      </trkpt>
      <trkpt lat="47.25345" lon="-1.37781">
        <ele>52</ele>
        <time>2021-08-31T16:54:03.000Z</time>
      </trkpt>
      <trkpt lat="47.25356" lon="-1.37794">
        <ele>52</ele>
        <time>2021-08-31T16:54:05.000Z</time>
      </trkpt>
      <trkpt lat="47.25368" lon="-1.37808">
        <ele>52</ele>
        <time>2021-08-31T16:54:07.000Z</time>
      </trkpt>
      <trkpt lat="47.25379" lon="-1.37821">
        <ele>52</ele>
        <time>2021-08-31T16:54:09.000Z</time>
      </trkpt>
      <trkpt lat="47.2539" lon="-1.37835">
        <ele>52</ele>
        <time>2021-08-31T16:54:11.000Z</time>
      </trkpt>
      <trkpt lat="47.25401" lon="-1.37849">
        <ele>52</ele>
        <time>2021-08-31T16:54:13.000Z</time>
      </trkpt>
      <trkpt lat="47.25412" lon="-1.37863">
        <ele>52</ele>
        <time>2021-08-31T16:54:15.000Z</time>
      </trkpt>
      <trkpt lat="47.25423" lon="-1.37877">
        <ele>52</ele>
        <time>2021-08-31T16:54:17.000Z</time>
      </trkpt>
      <trkpt lat="47.25434" lon="-1.37892">
        <ele>52</ele>
        <time>2021-08-31T16:54:19.000Z</time>
      </trkpt>
      <trkpt lat="47.25444" lon="-1.37908">
        <ele>52</ele>
        <time>2021-08-31T16:54:21.000Z</time>
      </trkpt>
      <trkpt lat="47.25454" lon="-1.37925">
        <ele>52</ele>
        <time>2021-08-31T16:54:23.000Z</time>
      </trkpt>
      <trkpt lat="47.25463" lon="-1.37941">
        <ele>52</ele>
        <time>2021-08-31T16:54:25.000Z</time>
      </trkpt>
      <trkpt lat="47.25472" lon="-1.37959">
        <ele>51</ele>
        <time>2021-08-31T16:54:27.000Z</time>
      </trkpt>
      <trkpt lat="47.25481" lon="-1.37977">
        <ele>51</ele>
        <time>2021-08-31T16:54:29.000Z</time>
      </trkpt>
      <trkpt lat="47.2549" lon="-1.37995">
        <ele>51</ele>
        <time>2021-08-31T16:54:31.000Z</time>
      </trkpt>
      <trkpt lat="47.25498" lon="-1.38013">
        <ele>51</ele>
        <time>2021-08-31T16:54:33.000Z</time>
      </trkpt>
      <trkpt lat="47.25505" lon="-1.38032">
        <ele>51</ele>
        <time>2021-08-31T16:54:35.000Z</time>
      </trkpt>
      <trkpt lat="47.25512" lon="-1.38051">
        <ele>51</ele>
        <time>2021-08-31T16:54:37.000Z</time>
      </trkpt>
      <trkpt lat="47.25518" lon="-1.38072">
        <ele>52</ele>
        <time>2021-08-31T16:54:39.000Z</time>
      </trkpt>
      <trkpt lat="47.25524" lon="-1.38092">
        <ele>52</ele>
        <time>2021-08-31T16:54:41.000Z</time>
      </trkpt>
      <trkpt lat="47.25529" lon="-1.38112">
        <ele>52</ele>
        <time>2021-08-31T16:54:43.000Z</time>
      </trkpt>
      <trkpt lat="47.25534" lon="-1.38132">
        <ele>52</ele>
        <time>2021-08-31T16:54:45.000Z</time>
      </trkpt>
      <trkpt lat="47.25539" lon="-1.38152">
        <ele>52</ele>
        <time>2021-08-31T16:54:47.000Z</time>
      </trkpt>
      <trkpt lat="47.25543" lon="-1.38172">
        <ele>52</ele>
        <time>2021-08-31T16:54:49.000Z</time>
      </trkpt>
      <trkpt lat="47.25547" lon="-1.38192">
        <ele>52</ele>
        <time>2021-08-31T16:54:51.000Z</time>
      </trkpt>
      <trkpt lat="47.2555" lon="-1.38213">
        <ele>52</ele>
        <time>2021-08-31T16:54:53.000Z</time>
      </trkpt>
      <trkpt lat="47.25553" lon="-1.38233">
        <ele>52</ele>
        <time>2021-08-31T16:54:55.000Z</time>
      </trkpt>
      <trkpt lat="47.25556" lon="-1.38253">
        <ele>52</ele>
        <time>2021-08-31T16:54:57.000Z</time>
      </trkpt>
      <trkpt lat="47.25557" lon="-1.38273">
        <ele>53</ele>
        <time>2021-08-31T16:54:59.000Z</time>
      </trkpt>
      <trkpt lat="47.25558" lon="-1.38293">
        <ele>53</ele>
        <time>2021-08-31T16:55:01.000Z</time>
      </trkpt>
      <trkpt lat="47.25559" lon="-1.38314">
        <ele>53</ele>
        <time>2021-08-31T16:55:03.000Z</time>
      </trkpt>
      <trkpt lat="47.2556" lon="-1.38334">
        <ele>53</ele>
        <time>2021-08-31T16:55:05.000Z</time>
      </trkpt>
      <trkpt lat="47.2556" lon="-1.38355">
        <ele>54</ele>
        <time>2021-08-31T16:55:07.000Z</time>
      </trkpt>
      <trkpt lat="47.25559" lon="-1.38376">
        <ele>54</ele>
        <time>2021-08-31T16:55:09.000Z</time>
      </trkpt>
      <trkpt lat="47.25559" lon="-1.38397">
        <ele>54</ele>
        <time>2021-08-31T16:55:11.000Z</time>
      </trkpt>
      <trkpt lat="47.25558" lon="-1.38418">
        <ele>54</ele>
        <time>2021-08-31T16:55:13.000Z</time>
      </trkpt>
      <trkpt lat="47.25558" lon="-1.38439">
        <ele>54</ele>
        <time>2021-08-31T16:55:15.000Z</time>
      </trkpt>
      <trkpt lat="47.25557" lon="-1.3846">
        <ele>54</ele>
        <time>2021-08-31T16:55:17.000Z</time>
      </trkpt>
      <trkpt lat="47.25557" lon="-1.38481">
        <ele>54</ele>
        <time>2021-08-31T16:55:19.000Z</time>
      </trkpt>
      <trkpt lat="47.25556" lon="-1.38502">
        <ele>54</ele>
        <time>2021-08-31T16:55:21.000Z</time>
      </trkpt>
      <trkpt lat="47.25555" lon="-1.38522">
        <ele>54</ele>
        <time>2021-08-31T16:55:23.000Z</time>
      </trkpt>
      <trkpt lat="47.25554" lon="-1.38543">
        <ele>54</ele>
        <time>2021-08-31T16:55:25.000Z</time>
      </trkpt>
      <trkpt lat="47.25554" lon="-1.38564">
        <ele>54</ele>
        <time>2021-08-31T16:55:27.000Z</time>
      </trkpt>
      <trkpt lat="47.25553" lon="-1.38584">
        <ele>54</ele>
        <time>2021-08-31T16:55:29.000Z</time>
      </trkpt>
      <trkpt lat="47.25554" lon="-1.38602">
        <ele>54</ele>
        <time>2021-08-31T16:55:31.000Z</time>
      </trkpt>
      <trkpt lat="47.25556" lon="-1.38619">
        <ele>54</ele>
        <time>2021-08-31T16:55:33.000Z</time>
      </trkpt>
      <trkpt lat="47.25562" lon="-1.38628">
        <ele>55</ele>
        <time>2021-08-31T16:55:36.000Z</time>
      </trkpt>
      <trkpt lat="47.25565" lon="-1.38641">
        <ele>55</ele>
        <time>2021-08-31T16:55:38.000Z</time>
      </trkpt>
      <trkpt lat="47.25563" lon="-1.38657">
        <ele>54</ele>
        <time>2021-08-31T16:55:40.000Z</time>
      </trkpt>
      <trkpt lat="47.25556" lon="-1.3867">
        <ele>54</ele>
        <time>2021-08-31T16:55:42.000Z</time>
      </trkpt>
      <trkpt lat="47.25551" lon="-1.38686">
        <ele>54</ele>
        <time>2021-08-31T16:55:44.000Z</time>
      </trkpt>
      <trkpt lat="47.2555" lon="-1.38706">
        <ele>54</ele>
        <time>2021-08-31T16:55:46.000Z</time>
      </trkpt>
      <trkpt lat="47.25549" lon="-1.38728">
        <ele>54</ele>
        <time>2021-08-31T16:55:48.000Z</time>
      </trkpt>
      <trkpt lat="47.25549" lon="-1.38751">
        <ele>54</ele>
        <time>2021-08-31T16:55:50.000Z</time>
      </trkpt>
      <trkpt lat="47.25548" lon="-1.38773">
        <ele>54</ele>
        <time>2021-08-31T16:55:52.000Z</time>
      </trkpt>
      <trkpt lat="47.25547" lon="-1.38795">
        <ele>54</ele>
        <time>2021-08-31T16:55:54.000Z</time>
      </trkpt>
      <trkpt lat="47.25546" lon="-1.38818">
        <ele>54</ele>
        <time>2021-08-31T16:55:56.000Z</time>
      </trkpt>
      <trkpt lat="47.25546" lon="-1.38842">
        <ele>54</ele>
        <time>2021-08-31T16:55:58.000Z</time>
      </trkpt>
      <trkpt lat="47.25545" lon="-1.38864">
        <ele>54</ele>
        <time>2021-08-31T16:56:00.000Z</time>
      </trkpt>
      <trkpt lat="47.25545" lon="-1.38887">
        <ele>54</ele>
        <time>2021-08-31T16:56:02.000Z</time>
      </trkpt>
      <trkpt lat="47.25544" lon="-1.3891">
        <ele>54</ele>
        <time>2021-08-31T16:56:04.000Z</time>
      </trkpt>
      <trkpt lat="47.25544" lon="-1.38933">
        <ele>54</ele>
        <time>2021-08-31T16:56:06.000Z</time>
      </trkpt>
      <trkpt lat="47.25543" lon="-1.38956">
        <ele>54</ele>
        <time>2021-08-31T16:56:08.000Z</time>
      </trkpt>
      <trkpt lat="47.25542" lon="-1.38979">
        <ele>54</ele>
        <time>2021-08-31T16:56:10.000Z</time>
      </trkpt>
      <trkpt lat="47.25541" lon="-1.39003">
        <ele>54</ele>
        <time>2021-08-31T16:56:12.000Z</time>
      </trkpt>
      <trkpt lat="47.25539" lon="-1.39025">
        <ele>53</ele>
        <time>2021-08-31T16:56:14.000Z</time>
      </trkpt>
      <trkpt lat="47.25537" lon="-1.39049">
        <ele>53</ele>
        <time>2021-08-31T16:56:16.000Z</time>
      </trkpt>
      <trkpt lat="47.25534" lon="-1.39072">
        <ele>53</ele>
        <time>2021-08-31T16:56:18.000Z</time>
      </trkpt>
      <trkpt lat="47.25532" lon="-1.39094">
        <ele>53</ele>
        <time>2021-08-31T16:56:20.000Z</time>
      </trkpt>
      <trkpt lat="47.25528" lon="-1.39117">
        <ele>53</ele>
        <time>2021-08-31T16:56:22.000Z</time>
      </trkpt>
      <trkpt lat="47.25523" lon="-1.39139">
        <ele>53</ele>
        <time>2021-08-31T16:56:24.000Z</time>
      </trkpt>
      <trkpt lat="47.25518" lon="-1.39161">
        <ele>53</ele>
        <time>2021-08-31T16:56:26.000Z</time>
      </trkpt>
      <trkpt lat="47.25513" lon="-1.39182">
        <ele>53</ele>
        <time>2021-08-31T16:56:28.000Z</time>
      </trkpt>
      <trkpt lat="47.25507" lon="-1.39205">
        <ele>53</ele>
        <time>2021-08-31T16:56:30.000Z</time>
      </trkpt>
      <trkpt lat="47.25501" lon="-1.39226">
        <ele>53</ele>
        <time>2021-08-31T16:56:32.000Z</time>
      </trkpt>
      <trkpt lat="47.25493" lon="-1.39247">
        <ele>53</ele>
        <time>2021-08-31T16:56:34.000Z</time>
      </trkpt>
      <trkpt lat="47.25486" lon="-1.39268">
        <ele>53</ele>
        <time>2021-08-31T16:56:36.000Z</time>
      </trkpt>
      <trkpt lat="47.25479" lon="-1.39289">
        <ele>53</ele>
        <time>2021-08-31T16:56:38.000Z</time>
      </trkpt>
      <trkpt lat="47.25472" lon="-1.39309">
        <ele>53</ele>
        <time>2021-08-31T16:56:40.000Z</time>
      </trkpt>
      <trkpt lat="47.25465" lon="-1.3933">
        <ele>53</ele>
        <time>2021-08-31T16:56:42.000Z</time>
      </trkpt>
      <trkpt lat="47.25458" lon="-1.39351">
        <ele>53</ele>
        <time>2021-08-31T16:56:44.000Z</time>
      </trkpt>
      <trkpt lat="47.25451" lon="-1.39372">
        <ele>53</ele>
        <time>2021-08-31T16:56:46.000Z</time>
      </trkpt>
      <trkpt lat="47.25443" lon="-1.39391">
        <ele>52</ele>
        <time>2021-08-31T16:56:48.000Z</time>
      </trkpt>
      <trkpt lat="47.25436" lon="-1.39411">
        <ele>53</ele>
        <time>2021-08-31T16:56:50.000Z</time>
      </trkpt>
      <trkpt lat="47.25428" lon="-1.39432">
        <ele>52</ele>
        <time>2021-08-31T16:56:52.000Z</time>
      </trkpt>
      <trkpt lat="47.25422" lon="-1.39452">
        <ele>53</ele>
        <time>2021-08-31T16:56:54.000Z</time>
      </trkpt>
      <trkpt lat="47.25416" lon="-1.39473">
        <ele>53</ele>
        <time>2021-08-31T16:56:56.000Z</time>
      </trkpt>
      <trkpt lat="47.25411" lon="-1.39494">
        <ele>53</ele>
        <time>2021-08-31T16:56:58.000Z</time>
      </trkpt>
      <trkpt lat="47.25407" lon="-1.39516">
        <ele>53</ele>
        <time>2021-08-31T16:57:00.000Z</time>
      </trkpt>
      <trkpt lat="47.25403" lon="-1.39537">
        <ele>53</ele>
        <time>2021-08-31T16:57:02.000Z</time>
      </trkpt>
      <trkpt lat="47.254" lon="-1.39559">
        <ele>53</ele>
        <time>2021-08-31T16:57:04.000Z</time>
      </trkpt>
      <trkpt lat="47.25398" lon="-1.3958">
        <ele>53</ele>
        <time>2021-08-31T16:57:06.000Z</time>
      </trkpt>
      <trkpt lat="47.25397" lon="-1.39602">
        <ele>53</ele>
        <time>2021-08-31T16:57:08.000Z</time>
      </trkpt>
      <trkpt lat="47.25397" lon="-1.39625">
        <ele>53</ele>
        <time>2021-08-31T16:57:10.000Z</time>
      </trkpt>
      <trkpt lat="47.25398" lon="-1.39647">
        <ele>53</ele>
        <time>2021-08-31T16:57:12.000Z</time>
      </trkpt>
      <trkpt lat="47.25399" lon="-1.39668">
        <ele>53</ele>
        <time>2021-08-31T16:57:14.000Z</time>
      </trkpt>
      <trkpt lat="47.25401" lon="-1.39689">
        <ele>53</ele>
        <time>2021-08-31T16:57:16.000Z</time>
      </trkpt>
      <trkpt lat="47.25403" lon="-1.39709">
        <ele>53</ele>
        <time>2021-08-31T16:57:18.000Z</time>
      </trkpt>
      <trkpt lat="47.25405" lon="-1.39731">
        <ele>53</ele>
        <time>2021-08-31T16:57:20.000Z</time>
      </trkpt>
      <trkpt lat="47.25407" lon="-1.39752">
        <ele>53</ele>
        <time>2021-08-31T16:57:22.000Z</time>
      </trkpt>
      <trkpt lat="47.25409" lon="-1.39773">
        <ele>54</ele>
        <time>2021-08-31T16:57:24.000Z</time>
      </trkpt>
      <trkpt lat="47.25412" lon="-1.39795">
        <ele>53</ele>
        <time>2021-08-31T16:57:26.000Z</time>
      </trkpt>
      <trkpt lat="47.25414" lon="-1.39817">
        <ele>53</ele>
        <time>2021-08-31T16:57:28.000Z</time>
      </trkpt>
      <trkpt lat="47.25417" lon="-1.39839">
        <ele>53</ele>
        <time>2021-08-31T16:57:30.000Z</time>
      </trkpt>
      <trkpt lat="47.25419" lon="-1.39861">
        <ele>53</ele>
        <time>2021-08-31T16:57:32.000Z</time>
      </trkpt>
      <trkpt lat="47.25422" lon="-1.39883">
        <ele>53</ele>
        <time>2021-08-31T16:57:34.000Z</time>
      </trkpt>
      <trkpt lat="47.25424" lon="-1.39905">
        <ele>52</ele>
        <time>2021-08-31T16:57:36.000Z</time>
      </trkpt>
      <trkpt lat="47.25427" lon="-1.39928">
        <ele>52</ele>
        <time>2021-08-31T16:57:38.000Z</time>
      </trkpt>
      <trkpt lat="47.25429" lon="-1.3995">
        <ele>52</ele>
        <time>2021-08-31T16:57:40.000Z</time>
      </trkpt>
      <trkpt lat="47.25432" lon="-1.39972">
        <ele>52</ele>
        <time>2021-08-31T16:57:42.000Z</time>
      </trkpt>
      <trkpt lat="47.25434" lon="-1.39994">
        <ele>52</ele>
        <time>2021-08-31T16:57:44.000Z</time>
      </trkpt>
      <trkpt lat="47.25437" lon="-1.40017">
        <ele>52</ele>
        <time>2021-08-31T16:57:46.000Z</time>
      </trkpt>
      <trkpt lat="47.25439" lon="-1.40039">
        <ele>52</ele>
        <time>2021-08-31T16:57:48.000Z</time>
      </trkpt>
      <trkpt lat="47.25442" lon="-1.40062">
        <ele>52</ele>
        <time>2021-08-31T16:57:50.000Z</time>
      </trkpt>
      <trkpt lat="47.25444" lon="-1.40084">
        <ele>52</ele>
        <time>2021-08-31T16:57:52.000Z</time>
      </trkpt>
      <trkpt lat="47.25447" lon="-1.40106">
        <ele>52</ele>
        <time>2021-08-31T16:57:54.000Z</time>
      </trkpt>
      <trkpt lat="47.25449" lon="-1.40128">
        <ele>52</ele>
        <time>2021-08-31T16:57:56.000Z</time>
      </trkpt>
      <trkpt lat="47.25451" lon="-1.4015">
        <ele>52</ele>
        <time>2021-08-31T16:57:58.000Z</time>
      </trkpt>
      <trkpt lat="47.25454" lon="-1.40172">
        <ele>51</ele>
        <time>2021-08-31T16:58:00.000Z</time>
      </trkpt>
      <trkpt lat="47.25456" lon="-1.40194">
        <ele>52</ele>
        <time>2021-08-31T16:58:02.000Z</time>
      </trkpt>
      <trkpt lat="47.25458" lon="-1.40215">
        <ele>51</ele>
        <time>2021-08-31T16:58:04.000Z</time>
      </trkpt>
      <trkpt lat="47.25461" lon="-1.40237">
        <ele>51</ele>
        <time>2021-08-31T16:58:06.000Z</time>
      </trkpt>
      <trkpt lat="47.25463" lon="-1.40259">
        <ele>51</ele>
        <time>2021-08-31T16:58:08.000Z</time>
      </trkpt>
      <trkpt lat="47.25466" lon="-1.4028">
        <ele>51</ele>
        <time>2021-08-31T16:58:10.000Z</time>
      </trkpt>
      <trkpt lat="47.25467" lon="-1.40301">
        <ele>51</ele>
        <time>2021-08-31T16:58:12.000Z</time>
      </trkpt>
      <trkpt lat="47.2547" lon="-1.40322">
        <ele>51</ele>
        <time>2021-08-31T16:58:14.000Z</time>
      </trkpt>
      <trkpt lat="47.25472" lon="-1.40342">
        <ele>51</ele>
        <time>2021-08-31T16:58:16.000Z</time>
      </trkpt>
      <trkpt lat="47.25474" lon="-1.40364">
        <ele>51</ele>
        <time>2021-08-31T16:58:18.000Z</time>
      </trkpt>
      <trkpt lat="47.25476" lon="-1.40384">
        <ele>51</ele>
        <time>2021-08-31T16:58:20.000Z</time>
      </trkpt>
      <trkpt lat="47.25478" lon="-1.40404">
        <ele>51</ele>
        <time>2021-08-31T16:58:22.000Z</time>
      </trkpt>
      <trkpt lat="47.2548" lon="-1.40424">
        <ele>51</ele>
        <time>2021-08-31T16:58:24.000Z</time>
      </trkpt>
      <trkpt lat="47.25482" lon="-1.40443">
        <ele>51</ele>
        <time>2021-08-31T16:58:26.000Z</time>
      </trkpt>
      <trkpt lat="47.25485" lon="-1.40463">
        <ele>51</ele>
        <time>2021-08-31T16:58:28.000Z</time>
      </trkpt>
      <trkpt lat="47.25487" lon="-1.40483">
        <ele>51</ele>
        <time>2021-08-31T16:58:30.000Z</time>
      </trkpt>
      <trkpt lat="47.25489" lon="-1.40502">
        <ele>51</ele>
        <time>2021-08-31T16:58:32.000Z</time>
      </trkpt>
      <trkpt lat="47.25491" lon="-1.40521">
        <ele>51</ele>
        <time>2021-08-31T16:58:34.000Z</time>
      </trkpt>
      <trkpt lat="47.25493" lon="-1.40541">
        <ele>51</ele>
        <time>2021-08-31T16:58:36.000Z</time>
      </trkpt>
      <trkpt lat="47.25496" lon="-1.4056">
        <ele>51</ele>
        <time>2021-08-31T16:58:38.000Z</time>
      </trkpt>
      <trkpt lat="47.25498" lon="-1.4058">
        <ele>51</ele>
        <time>2021-08-31T16:58:40.000Z</time>
      </trkpt>
      <trkpt lat="47.255" lon="-1.406">
        <ele>51</ele>
        <time>2021-08-31T16:58:42.000Z</time>
      </trkpt>
      <trkpt lat="47.25502" lon="-1.40619">
        <ele>51</ele>
        <time>2021-08-31T16:58:44.000Z</time>
      </trkpt>
      <trkpt lat="47.25504" lon="-1.40638">
        <ele>51</ele>
        <time>2021-08-31T16:58:46.000Z</time>
      </trkpt>
      <trkpt lat="47.25507" lon="-1.40657">
        <ele>51</ele>
        <time>2021-08-31T16:58:48.000Z</time>
      </trkpt>
      <trkpt lat="47.25509" lon="-1.40677">
        <ele>51</ele>
        <time>2021-08-31T16:58:50.000Z</time>
      </trkpt>
      <trkpt lat="47.25511" lon="-1.40697">
        <ele>52</ele>
        <time>2021-08-31T16:58:52.000Z</time>
      </trkpt>
      <trkpt lat="47.25513" lon="-1.40717">
        <ele>52</ele>
        <time>2021-08-31T16:58:54.000Z</time>
      </trkpt>
      <trkpt lat="47.25515" lon="-1.40737">
        <ele>52</ele>
        <time>2021-08-31T16:58:56.000Z</time>
      </trkpt>
      <trkpt lat="47.25517" lon="-1.40757">
        <ele>52</ele>
        <time>2021-08-31T16:58:58.000Z</time>
      </trkpt>
      <trkpt lat="47.25519" lon="-1.40777">
        <ele>52</ele>
        <time>2021-08-31T16:59:00.000Z</time>
      </trkpt>
      <trkpt lat="47.25521" lon="-1.40797">
        <ele>52</ele>
        <time>2021-08-31T16:59:02.000Z</time>
      </trkpt>
      <trkpt lat="47.25523" lon="-1.40817">
        <ele>52</ele>
        <time>2021-08-31T16:59:04.000Z</time>
      </trkpt>
      <trkpt lat="47.25525" lon="-1.40836">
        <ele>52</ele>
        <time>2021-08-31T16:59:06.000Z</time>
      </trkpt>
      <trkpt lat="47.25527" lon="-1.40856">
        <ele>52</ele>
        <time>2021-08-31T16:59:08.000Z</time>
      </trkpt>
      <trkpt lat="47.25529" lon="-1.40876">
        <ele>52</ele>
        <time>2021-08-31T16:59:10.000Z</time>
      </trkpt>
      <trkpt lat="47.2553" lon="-1.40897">
        <ele>52</ele>
        <time>2021-08-31T16:59:12.000Z</time>
      </trkpt>
      <trkpt lat="47.25532" lon="-1.40917">
        <ele>52</ele>
        <time>2021-08-31T16:59:14.000Z</time>
      </trkpt>
      <trkpt lat="47.25533" lon="-1.40938">
        <ele>52</ele>
        <time>2021-08-31T16:59:16.000Z</time>
      </trkpt>
      <trkpt lat="47.25531" lon="-1.40958">
        <ele>52</ele>
        <time>2021-08-31T16:59:18.000Z</time>
      </trkpt>
      <trkpt lat="47.2553" lon="-1.40978">
        <ele>52</ele>
        <time>2021-08-31T16:59:20.000Z</time>
      </trkpt>
      <trkpt lat="47.25529" lon="-1.40998">
        <ele>52</ele>
        <time>2021-08-31T16:59:22.000Z</time>
      </trkpt>
      <trkpt lat="47.25533" lon="-1.41015">
        <ele>53</ele>
        <time>2021-08-31T16:59:24.000Z</time>
      </trkpt>
      <trkpt lat="47.25543" lon="-1.41027">
        <ele>52</ele>
        <time>2021-08-31T16:59:26.000Z</time>
      </trkpt>
      <trkpt lat="47.25554" lon="-1.41035">
        <ele>52</ele>
        <time>2021-08-31T16:59:28.000Z</time>
      </trkpt>
      <trkpt lat="47.25556" lon="-1.4105">
        <ele>52</ele>
        <time>2021-08-31T16:59:30.000Z</time>
      </trkpt>
      <trkpt lat="47.25553" lon="-1.41069">
        <ele>51</ele>
        <time>2021-08-31T16:59:32.000Z</time>
      </trkpt>
      <trkpt lat="47.25556" lon="-1.41089">
        <ele>51</ele>
        <time>2021-08-31T16:59:34.000Z</time>
      </trkpt>
      <trkpt lat="47.2556" lon="-1.41109">
        <ele>51</ele>
        <time>2021-08-31T16:59:36.000Z</time>
      </trkpt>
      <trkpt lat="47.25563" lon="-1.41128">
        <ele>51</ele>
        <time>2021-08-31T16:59:38.000Z</time>
      </trkpt>
      <trkpt lat="47.25562" lon="-1.4115">
        <ele>51</ele>
        <time>2021-08-31T16:59:40.000Z</time>
      </trkpt>
      <trkpt lat="47.25564" lon="-1.4117">
        <ele>51</ele>
        <time>2021-08-31T16:59:42.000Z</time>
      </trkpt>
      <trkpt lat="47.25567" lon="-1.4119">
        <ele>51</ele>
        <time>2021-08-31T16:59:44.000Z</time>
      </trkpt>
      <trkpt lat="47.25568" lon="-1.41209">
        <ele>51</ele>
        <time>2021-08-31T16:59:46.000Z</time>
      </trkpt>
      <trkpt lat="47.2557" lon="-1.41228">
        <ele>51</ele>
        <time>2021-08-31T16:59:48.000Z</time>
      </trkpt>
      <trkpt lat="47.25573" lon="-1.41248">
        <ele>51</ele>
        <time>2021-08-31T16:59:50.000Z</time>
      </trkpt>
      <trkpt lat="47.25575" lon="-1.41266">
        <ele>52</ele>
        <time>2021-08-31T16:59:52.000Z</time>
      </trkpt>
      <trkpt lat="47.25577" lon="-1.41285">
        <ele>51</ele>
        <time>2021-08-31T16:59:54.000Z</time>
      </trkpt>
      <trkpt lat="47.2558" lon="-1.41305">
        <ele>51</ele>
        <time>2021-08-31T16:59:56.000Z</time>
      </trkpt>
      <trkpt lat="47.25582" lon="-1.41324">
        <ele>51</ele>
        <time>2021-08-31T16:59:58.000Z</time>
      </trkpt>
      <trkpt lat="47.25585" lon="-1.41344">
        <ele>51</ele>
        <time>2021-08-31T17:00:00.000Z</time>
      </trkpt>
      <trkpt lat="47.25587" lon="-1.41363">
        <ele>52</ele>
        <time>2021-08-31T17:00:02.000Z</time>
      </trkpt>
      <trkpt lat="47.25589" lon="-1.41381">
        <ele>51</ele>
        <time>2021-08-31T17:00:04.000Z</time>
      </trkpt>
      <trkpt lat="47.25591" lon="-1.41401">
        <ele>51</ele>
        <time>2021-08-31T17:00:06.000Z</time>
      </trkpt>
      <trkpt lat="47.25593" lon="-1.4142">
        <ele>51</ele>
        <time>2021-08-31T17:00:08.000Z</time>
      </trkpt>
      <trkpt lat="47.25593" lon="-1.41439">
        <ele>52</ele>
        <time>2021-08-31T17:00:10.000Z</time>
      </trkpt>
      <trkpt lat="47.25597" lon="-1.41456">
        <ele>52</ele>
        <time>2021-08-31T17:00:12.000Z</time>
      </trkpt>
      <trkpt lat="47.25599" lon="-1.41476">
        <ele>52</ele>
        <time>2021-08-31T17:00:14.000Z</time>
      </trkpt>
      <trkpt lat="47.25601" lon="-1.41495">
        <ele>52</ele>
        <time>2021-08-31T17:00:16.000Z</time>
      </trkpt>
      <trkpt lat="47.25603" lon="-1.41514">
        <ele>52</ele>
        <time>2021-08-31T17:00:18.000Z</time>
      </trkpt>
      <trkpt lat="47.25606" lon="-1.41532">
        <ele>52</ele>
        <time>2021-08-31T17:00:20.000Z</time>
      </trkpt>
      <trkpt lat="47.25605" lon="-1.4155">
        <ele>53</ele>
        <time>2021-08-31T17:00:22.000Z</time>
      </trkpt>
      <trkpt lat="47.25607" lon="-1.41568">
        <ele>52</ele>
        <time>2021-08-31T17:00:24.000Z</time>
      </trkpt>
      <trkpt lat="47.25609" lon="-1.41587">
        <ele>52</ele>
        <time>2021-08-31T17:00:26.000Z</time>
      </trkpt>
      <trkpt lat="47.25612" lon="-1.41605">
        <ele>52</ele>
        <time>2021-08-31T17:00:28.000Z</time>
      </trkpt>
      <trkpt lat="47.25614" lon="-1.41621">
        <ele>52</ele>
        <time>2021-08-31T17:00:30.000Z</time>
      </trkpt>
      <trkpt lat="47.25617" lon="-1.41637">
        <ele>51</ele>
        <time>2021-08-31T17:00:32.000Z</time>
      </trkpt>
      <trkpt lat="47.25619" lon="-1.41655">
        <ele>51</ele>
        <time>2021-08-31T17:00:34.000Z</time>
      </trkpt>
      <trkpt lat="47.2562" lon="-1.41675">
        <ele>51</ele>
        <time>2021-08-31T17:00:36.000Z</time>
      </trkpt>
      <trkpt lat="47.25622" lon="-1.41695">
        <ele>51</ele>
        <time>2021-08-31T17:00:38.000Z</time>
      </trkpt>
      <trkpt lat="47.25624" lon="-1.41714">
        <ele>51</ele>
        <time>2021-08-31T17:00:40.000Z</time>
      </trkpt>
      <trkpt lat="47.25627" lon="-1.41733">
        <ele>51</ele>
        <time>2021-08-31T17:00:42.000Z</time>
      </trkpt>
      <trkpt lat="47.25629" lon="-1.41752">
        <ele>51</ele>
        <time>2021-08-31T17:00:44.000Z</time>
      </trkpt>
      <trkpt lat="47.25631" lon="-1.41771">
        <ele>51</ele>
        <time>2021-08-31T17:00:46.000Z</time>
      </trkpt>
      <trkpt lat="47.25633" lon="-1.41791">
        <ele>51</ele>
        <time>2021-08-31T17:00:48.000Z</time>
      </trkpt>
      <trkpt lat="47.25635" lon="-1.4181">
        <ele>52</ele>
        <time>2021-08-31T17:00:50.000Z</time>
      </trkpt>
      <trkpt lat="47.25636" lon="-1.41829">
        <ele>51</ele>
        <time>2021-08-31T17:00:52.000Z</time>
      </trkpt>
      <trkpt lat="47.25638" lon="-1.41848">
        <ele>51</ele>
        <time>2021-08-31T17:00:54.000Z</time>
      </trkpt>
      <trkpt lat="47.2564" lon="-1.41866">
        <ele>51</ele>
        <time>2021-08-31T17:00:56.000Z</time>
      </trkpt>
      <trkpt lat="47.25642" lon="-1.41885">
        <ele>51</ele>
        <time>2021-08-31T17:00:58.000Z</time>
      </trkpt>
      <trkpt lat="47.25644" lon="-1.41904">
        <ele>51</ele>
        <time>2021-08-31T17:01:00.000Z</time>
      </trkpt>
      <trkpt lat="47.25645" lon="-1.4192">
        <ele>51</ele>
        <time>2021-08-31T17:01:02.000Z</time>
      </trkpt>
      <trkpt lat="47.25646" lon="-1.41937">
        <ele>51</ele>
        <time>2021-08-31T17:01:04.000Z</time>
      </trkpt>
      <trkpt lat="47.25648" lon="-1.41955">
        <ele>51</ele>
        <time>2021-08-31T17:01:06.000Z</time>
      </trkpt>
      <trkpt lat="47.25653" lon="-1.41983">
        <ele>51</ele>
        <time>2021-08-31T17:01:09.000Z</time>
      </trkpt>
      <trkpt lat="47.25655" lon="-1.42003">
        <ele>51</ele>
        <time>2021-08-31T17:01:11.000Z</time>
      </trkpt>
      <trkpt lat="47.25658" lon="-1.42032">
        <ele>51</ele>
        <time>2021-08-31T17:01:14.000Z</time>
      </trkpt>
      <trkpt lat="47.2566" lon="-1.4205">
        <ele>51</ele>
        <time>2021-08-31T17:01:16.000Z</time>
      </trkpt>
      <trkpt lat="47.25663" lon="-1.4208">
        <ele>51</ele>
        <time>2021-08-31T17:01:19.000Z</time>
      </trkpt>
      <trkpt lat="47.25665" lon="-1.42099">
        <ele>51</ele>
        <time>2021-08-31T17:01:21.000Z</time>
      </trkpt>
      <trkpt lat="47.25669" lon="-1.42128">
        <ele>51</ele>
        <time>2021-08-31T17:01:24.000Z</time>
      </trkpt>
      <trkpt lat="47.25667" lon="-1.42146">
        <ele>51</ele>
        <time>2021-08-31T17:01:26.000Z</time>
      </trkpt>
      <trkpt lat="47.25668" lon="-1.42166">
        <ele>52</ele>
        <time>2021-08-31T17:01:28.000Z</time>
      </trkpt>
      <trkpt lat="47.25671" lon="-1.42187">
        <ele>52</ele>
        <time>2021-08-31T17:01:30.000Z</time>
      </trkpt>
      <trkpt lat="47.25673" lon="-1.42209">
        <ele>52</ele>
        <time>2021-08-31T17:01:32.000Z</time>
      </trkpt>
      <trkpt lat="47.25675" lon="-1.42231">
        <ele>52</ele>
        <time>2021-08-31T17:01:34.000Z</time>
      </trkpt>
      <trkpt lat="47.25678" lon="-1.42252">
        <ele>52</ele>
        <time>2021-08-31T17:01:36.000Z</time>
      </trkpt>
      <trkpt lat="47.2568" lon="-1.42272">
        <ele>52</ele>
        <time>2021-08-31T17:01:38.000Z</time>
      </trkpt>
      <trkpt lat="47.25682" lon="-1.42292">
        <ele>52</ele>
        <time>2021-08-31T17:01:40.000Z</time>
      </trkpt>
      <trkpt lat="47.25684" lon="-1.42312">
        <ele>52</ele>
        <time>2021-08-31T17:01:42.000Z</time>
      </trkpt>
      <trkpt lat="47.25687" lon="-1.42333">
        <ele>52</ele>
        <time>2021-08-31T17:01:44.000Z</time>
      </trkpt>
      <trkpt lat="47.25689" lon="-1.42353">
        <ele>52</ele>
        <time>2021-08-31T17:01:46.000Z</time>
      </trkpt>
      <trkpt lat="47.25691" lon="-1.42373">
        <ele>52</ele>
        <time>2021-08-31T17:01:48.000Z</time>
      </trkpt>
      <trkpt lat="47.25693" lon="-1.42392">
        <ele>52</ele>
        <time>2021-08-31T17:01:50.000Z</time>
      </trkpt>
      <trkpt lat="47.25695" lon="-1.42411">
        <ele>52</ele>
        <time>2021-08-31T17:01:52.000Z</time>
      </trkpt>
      <trkpt lat="47.25697" lon="-1.4243">
        <ele>52</ele>
        <time>2021-08-31T17:01:54.000Z</time>
      </trkpt>
      <trkpt lat="47.25699" lon="-1.42449">
        <ele>53</ele>
        <time>2021-08-31T17:01:56.000Z</time>
      </trkpt>
      <trkpt lat="47.25701" lon="-1.42468">
        <ele>52</ele>
        <time>2021-08-31T17:01:58.000Z</time>
      </trkpt>
      <trkpt lat="47.25703" lon="-1.42488">
        <ele>53</ele>
        <time>2021-08-31T17:02:00.000Z</time>
      </trkpt>
      <trkpt lat="47.25706" lon="-1.42507">
        <ele>53</ele>
        <time>2021-08-31T17:02:02.000Z</time>
      </trkpt>
      <trkpt lat="47.25708" lon="-1.42525">
        <ele>53</ele>
        <time>2021-08-31T17:02:04.000Z</time>
      </trkpt>
      <trkpt lat="47.25709" lon="-1.42543">
        <ele>54</ele>
        <time>2021-08-31T17:02:06.000Z</time>
      </trkpt>
      <trkpt lat="47.25711" lon="-1.42561">
        <ele>54</ele>
        <time>2021-08-31T17:02:08.000Z</time>
      </trkpt>
      <trkpt lat="47.25714" lon="-1.42577">
        <ele>55</ele>
        <time>2021-08-31T17:02:10.000Z</time>
      </trkpt>
      <trkpt lat="47.25718" lon="-1.42593">
        <ele>55</ele>
        <time>2021-08-31T17:02:12.000Z</time>
      </trkpt>
      <trkpt lat="47.25725" lon="-1.42606">
        <ele>56</ele>
        <time>2021-08-31T17:02:14.000Z</time>
      </trkpt>
      <trkpt lat="47.25732" lon="-1.4262">
        <ele>56</ele>
        <time>2021-08-31T17:02:16.000Z</time>
      </trkpt>
      <trkpt lat="47.25738" lon="-1.42637">
        <ele>57</ele>
        <time>2021-08-31T17:02:18.000Z</time>
      </trkpt>
      <trkpt lat="47.25745" lon="-1.42654">
        <ele>57</ele>
        <time>2021-08-31T17:02:20.000Z</time>
      </trkpt>
      <trkpt lat="47.25751" lon="-1.4267">
        <ele>57</ele>
        <time>2021-08-31T17:02:22.000Z</time>
      </trkpt>
      <trkpt lat="47.25757" lon="-1.42686">
        <ele>57</ele>
        <time>2021-08-31T17:02:24.000Z</time>
      </trkpt>
      <trkpt lat="47.25763" lon="-1.42701">
        <ele>58</ele>
        <time>2021-08-31T17:02:26.000Z</time>
      </trkpt>
      <trkpt lat="47.25768" lon="-1.42716">
        <ele>59</ele>
        <time>2021-08-31T17:02:28.000Z</time>
      </trkpt>
      <trkpt lat="47.25774" lon="-1.42731">
        <ele>59</ele>
        <time>2021-08-31T17:02:30.000Z</time>
      </trkpt>
      <trkpt lat="47.25779" lon="-1.42745">
        <ele>59</ele>
        <time>2021-08-31T17:02:32.000Z</time>
      </trkpt>
      <trkpt lat="47.25784" lon="-1.42758">
        <ele>59</ele>
        <time>2021-08-31T17:02:34.000Z</time>
      </trkpt>
      <trkpt lat="47.25791" lon="-1.42773">
        <ele>60</ele>
        <time>2021-08-31T17:02:36.000Z</time>
      </trkpt>
      <trkpt lat="47.25797" lon="-1.42787">
        <ele>60</ele>
        <time>2021-08-31T17:02:38.000Z</time>
      </trkpt>
      <trkpt lat="47.25803" lon="-1.42803">
        <ele>60</ele>
        <time>2021-08-31T17:02:40.000Z</time>
      </trkpt>
      <trkpt lat="47.2581" lon="-1.42819">
        <ele>60</ele>
        <time>2021-08-31T17:02:42.000Z</time>
      </trkpt>
      <trkpt lat="47.25818" lon="-1.42838">
        <ele>61</ele>
        <time>2021-08-31T17:02:44.000Z</time>
      </trkpt>
      <trkpt lat="47.25825" lon="-1.42856">
        <ele>62</ele>
        <time>2021-08-31T17:02:46.000Z</time>
      </trkpt>
      <trkpt lat="47.25832" lon="-1.42875">
        <ele>62</ele>
        <time>2021-08-31T17:02:48.000Z</time>
      </trkpt>
      <trkpt lat="47.25839" lon="-1.42894">
        <ele>63</ele>
        <time>2021-08-31T17:02:50.000Z</time>
      </trkpt>
      <trkpt lat="47.25849" lon="-1.42913">
        <ele>62</ele>
        <time>2021-08-31T17:02:52.000Z</time>
      </trkpt>
      <trkpt lat="47.25858" lon="-1.42933">
        <ele>61</ele>
        <time>2021-08-31T17:02:54.000Z</time>
      </trkpt>
      <trkpt lat="47.25866" lon="-1.42954">
        <ele>60</ele>
        <time>2021-08-31T17:02:56.000Z</time>
      </trkpt>
      <trkpt lat="47.25874" lon="-1.42974">
        <ele>59</ele>
        <time>2021-08-31T17:02:58.000Z</time>
      </trkpt>
      <trkpt lat="47.25883" lon="-1.42994">
        <ele>58</ele>
        <time>2021-08-31T17:03:00.000Z</time>
      </trkpt>
      <trkpt lat="47.25891" lon="-1.43015">
        <ele>57</ele>
        <time>2021-08-31T17:03:02.000Z</time>
      </trkpt>
      <trkpt lat="47.259" lon="-1.43036">
        <ele>57</ele>
        <time>2021-08-31T17:03:04.000Z</time>
      </trkpt>
      <trkpt lat="47.25908" lon="-1.43057">
        <ele>57</ele>
        <time>2021-08-31T17:03:06.000Z</time>
      </trkpt>
      <trkpt lat="47.25916" lon="-1.43077">
        <ele>57</ele>
        <time>2021-08-31T17:03:08.000Z</time>
      </trkpt>
      <trkpt lat="47.25925" lon="-1.43097">
        <ele>57</ele>
        <time>2021-08-31T17:03:10.000Z</time>
      </trkpt>
      <trkpt lat="47.25933" lon="-1.43115">
        <ele>56</ele>
        <time>2021-08-31T17:03:12.000Z</time>
      </trkpt>
      <trkpt lat="47.25944" lon="-1.4313">
        <ele>57</ele>
        <time>2021-08-31T17:03:14.000Z</time>
      </trkpt>
      <trkpt lat="47.25954" lon="-1.43145">
        <ele>57</ele>
        <time>2021-08-31T17:03:16.000Z</time>
      </trkpt>
      <trkpt lat="47.25964" lon="-1.43159">
        <ele>57</ele>
        <time>2021-08-31T17:03:18.000Z</time>
      </trkpt>
      <trkpt lat="47.25973" lon="-1.43173">
        <ele>56</ele>
        <time>2021-08-31T17:03:20.000Z</time>
      </trkpt>
      <trkpt lat="47.25982" lon="-1.43186">
        <ele>57</ele>
        <time>2021-08-31T17:03:22.000Z</time>
      </trkpt>
      <trkpt lat="47.25991" lon="-1.432">
        <ele>57</ele>
        <time>2021-08-31T17:03:24.000Z</time>
      </trkpt>
      <trkpt lat="47.25999" lon="-1.43213">
        <ele>58</ele>
        <time>2021-08-31T17:03:26.000Z</time>
      </trkpt>
      <trkpt lat="47.26008" lon="-1.43227">
        <ele>59</ele>
        <time>2021-08-31T17:03:28.000Z</time>
      </trkpt>
      <trkpt lat="47.26017" lon="-1.43241">
        <ele>59</ele>
        <time>2021-08-31T17:03:30.000Z</time>
      </trkpt>
      <trkpt lat="47.26026" lon="-1.43254">
        <ele>60</ele>
        <time>2021-08-31T17:03:32.000Z</time>
      </trkpt>
      <trkpt lat="47.26035" lon="-1.43268">
        <ele>60</ele>
        <time>2021-08-31T17:03:34.000Z</time>
      </trkpt>
      <trkpt lat="47.26044" lon="-1.43281">
        <ele>60</ele>
        <time>2021-08-31T17:03:36.000Z</time>
      </trkpt>
      <trkpt lat="47.26054" lon="-1.43295">
        <ele>60</ele>
        <time>2021-08-31T17:03:38.000Z</time>
      </trkpt>
      <trkpt lat="47.26063" lon="-1.43308">
        <ele>61</ele>
        <time>2021-08-31T17:03:40.000Z</time>
      </trkpt>
      <trkpt lat="47.26073" lon="-1.43322">
        <ele>62</ele>
        <time>2021-08-31T17:03:42.000Z</time>
      </trkpt>
      <trkpt lat="47.26082" lon="-1.43336">
        <ele>62</ele>
        <time>2021-08-31T17:03:44.000Z</time>
      </trkpt>
      <trkpt lat="47.26091" lon="-1.4335">
        <ele>62</ele>
        <time>2021-08-31T17:03:46.000Z</time>
      </trkpt>
      <trkpt lat="47.26102" lon="-1.43364">
        <ele>62</ele>
        <time>2021-08-31T17:03:48.000Z</time>
      </trkpt>
      <trkpt lat="47.26112" lon="-1.43378">
        <ele>62</ele>
        <time>2021-08-31T17:03:50.000Z</time>
      </trkpt>
      <trkpt lat="47.26121" lon="-1.43392">
        <ele>63</ele>
        <time>2021-08-31T17:03:52.000Z</time>
      </trkpt>
      <trkpt lat="47.26131" lon="-1.43407">
        <ele>63</ele>
        <time>2021-08-31T17:03:54.000Z</time>
      </trkpt>
      <trkpt lat="47.26141" lon="-1.43422">
        <ele>62</ele>
        <time>2021-08-31T17:03:56.000Z</time>
      </trkpt>
      <trkpt lat="47.26151" lon="-1.43436">
        <ele>62</ele>
        <time>2021-08-31T17:03:58.000Z</time>
      </trkpt>
      <trkpt lat="47.26161" lon="-1.4345">
        <ele>62</ele>
        <time>2021-08-31T17:04:00.000Z</time>
      </trkpt>
      <trkpt lat="47.26171" lon="-1.43464">
        <ele>61</ele>
        <time>2021-08-31T17:04:02.000Z</time>
      </trkpt>
      <trkpt lat="47.2618" lon="-1.43479">
        <ele>62</ele>
        <time>2021-08-31T17:04:04.000Z</time>
      </trkpt>
      <trkpt lat="47.2619" lon="-1.43494">
        <ele>61</ele>
        <time>2021-08-31T17:04:06.000Z</time>
      </trkpt>
      <trkpt lat="47.262" lon="-1.43507">
        <ele>61</ele>
        <time>2021-08-31T17:04:08.000Z</time>
      </trkpt>
      <trkpt lat="47.2621" lon="-1.4352">
        <ele>62</ele>
        <time>2021-08-31T17:04:10.000Z</time>
      </trkpt>
      <trkpt lat="47.26219" lon="-1.43534">
        <ele>61</ele>
        <time>2021-08-31T17:04:12.000Z</time>
      </trkpt>
      <trkpt lat="47.26227" lon="-1.43544">
        <ele>61</ele>
        <time>2021-08-31T17:04:14.000Z</time>
      </trkpt>
      <trkpt lat="47.26235" lon="-1.43554">
        <ele>59</ele>
        <time>2021-08-31T17:04:18.000Z</time>
      </trkpt>
      <trkpt lat="47.2623" lon="-1.4357">
        <ele>58</ele>
        <time>2021-08-31T17:04:22.000Z</time>
      </trkpt>
      <trkpt lat="47.26222" lon="-1.43581">
        <ele>57</ele>
        <time>2021-08-31T17:04:24.000Z</time>
      </trkpt>
      <trkpt lat="47.26212" lon="-1.43594">
        <ele>56</ele>
        <time>2021-08-31T17:04:26.000Z</time>
      </trkpt>
      <trkpt lat="47.26202" lon="-1.43609">
        <ele>54</ele>
        <time>2021-08-31T17:04:28.000Z</time>
      </trkpt>
      <trkpt lat="47.26191" lon="-1.43623">
        <ele>54</ele>
        <time>2021-08-31T17:04:30.000Z</time>
      </trkpt>
      <trkpt lat="47.26181" lon="-1.43638">
        <ele>54</ele>
        <time>2021-08-31T17:04:32.000Z</time>
      </trkpt>
      <trkpt lat="47.2617" lon="-1.43651">
        <ele>54</ele>
        <time>2021-08-31T17:04:34.000Z</time>
      </trkpt>
      <trkpt lat="47.2616" lon="-1.43666">
        <ele>54</ele>
        <time>2021-08-31T17:04:36.000Z</time>
      </trkpt>
      <trkpt lat="47.26151" lon="-1.43682">
        <ele>54</ele>
        <time>2021-08-31T17:04:38.000Z</time>
      </trkpt>
      <trkpt lat="47.26143" lon="-1.43697">
        <ele>54</ele>
        <time>2021-08-31T17:04:40.000Z</time>
      </trkpt>
      <trkpt lat="47.26133" lon="-1.43712">
        <ele>54</ele>
        <time>2021-08-31T17:04:42.000Z</time>
      </trkpt>
      <trkpt lat="47.26124" lon="-1.43726">
        <ele>55</ele>
        <time>2021-08-31T17:04:44.000Z</time>
      </trkpt>
      <trkpt lat="47.26115" lon="-1.43741">
        <ele>55</ele>
        <time>2021-08-31T17:04:46.000Z</time>
      </trkpt>
      <trkpt lat="47.26104" lon="-1.43754">
        <ele>55</ele>
        <time>2021-08-31T17:04:48.000Z</time>
      </trkpt>
      <trkpt lat="47.26092" lon="-1.43766">
        <ele>55</ele>
        <time>2021-08-31T17:04:50.000Z</time>
      </trkpt>
      <trkpt lat="47.26081" lon="-1.4378">
        <ele>55</ele>
        <time>2021-08-31T17:04:52.000Z</time>
      </trkpt>
      <trkpt lat="47.26071" lon="-1.43793">
        <ele>55</ele>
        <time>2021-08-31T17:04:54.000Z</time>
      </trkpt>
      <trkpt lat="47.2606" lon="-1.43808">
        <ele>55</ele>
        <time>2021-08-31T17:04:56.000Z</time>
      </trkpt>
      <trkpt lat="47.26051" lon="-1.43825">
        <ele>55</ele>
        <time>2021-08-31T17:04:58.000Z</time>
      </trkpt>
      <trkpt lat="47.26043" lon="-1.43844">
        <ele>55</ele>
        <time>2021-08-31T17:05:00.000Z</time>
      </trkpt>
      <trkpt lat="47.26035" lon="-1.4386">
        <ele>55</ele>
        <time>2021-08-31T17:05:02.000Z</time>
      </trkpt>
      <trkpt lat="47.26023" lon="-1.43871">
        <ele>54</ele>
        <time>2021-08-31T17:05:04.000Z</time>
      </trkpt>
      <trkpt lat="47.26011" lon="-1.43882">
        <ele>54</ele>
        <time>2021-08-31T17:05:06.000Z</time>
      </trkpt>
      <trkpt lat="47.25999" lon="-1.43894">
        <ele>54</ele>
        <time>2021-08-31T17:05:08.000Z</time>
      </trkpt>
      <trkpt lat="47.25987" lon="-1.43906">
        <ele>53</ele>
        <time>2021-08-31T17:05:10.000Z</time>
      </trkpt>
      <trkpt lat="47.25976" lon="-1.43919">
        <ele>54</ele>
        <time>2021-08-31T17:05:12.000Z</time>
      </trkpt>
      <trkpt lat="47.25965" lon="-1.43932">
        <ele>53</ele>
        <time>2021-08-31T17:05:14.000Z</time>
      </trkpt>
      <trkpt lat="47.25954" lon="-1.43945">
        <ele>53</ele>
        <time>2021-08-31T17:05:16.000Z</time>
      </trkpt>
      <trkpt lat="47.25942" lon="-1.43958">
        <ele>54</ele>
        <time>2021-08-31T17:05:18.000Z</time>
      </trkpt>
      <trkpt lat="47.25931" lon="-1.4397">
        <ele>55</ele>
        <time>2021-08-31T17:05:20.000Z</time>
      </trkpt>
      <trkpt lat="47.2592" lon="-1.43983">
        <ele>56</ele>
        <time>2021-08-31T17:05:22.000Z</time>
      </trkpt>
      <trkpt lat="47.25908" lon="-1.43996">
        <ele>56</ele>
        <time>2021-08-31T17:05:24.000Z</time>
      </trkpt>
      <trkpt lat="47.25896" lon="-1.44009">
        <ele>56</ele>
        <time>2021-08-31T17:05:26.000Z</time>
      </trkpt>
      <trkpt lat="47.25885" lon="-1.44022">
        <ele>56</ele>
        <time>2021-08-31T17:05:28.000Z</time>
      </trkpt>
      <trkpt lat="47.25876" lon="-1.44039">
        <ele>56</ele>
        <time>2021-08-31T17:05:30.000Z</time>
      </trkpt>
      <trkpt lat="47.25871" lon="-1.4406">
        <ele>55</ele>
        <time>2021-08-31T17:05:32.000Z</time>
      </trkpt>
      <trkpt lat="47.25864" lon="-1.44079">
        <ele>54</ele>
        <time>2021-08-31T17:05:34.000Z</time>
      </trkpt>
      <trkpt lat="47.25855" lon="-1.44093">
        <ele>54</ele>
        <time>2021-08-31T17:05:36.000Z</time>
      </trkpt>
      <trkpt lat="47.25845" lon="-1.44107">
        <ele>53</ele>
        <time>2021-08-31T17:05:38.000Z</time>
      </trkpt>
      <trkpt lat="47.25835" lon="-1.44119">
        <ele>54</ele>
        <time>2021-08-31T17:05:40.000Z</time>
      </trkpt>
      <trkpt lat="47.25824" lon="-1.44132">
        <ele>54</ele>
        <time>2021-08-31T17:05:42.000Z</time>
      </trkpt>
      <trkpt lat="47.25813" lon="-1.44144">
        <ele>54</ele>
        <time>2021-08-31T17:05:44.000Z</time>
      </trkpt>
      <trkpt lat="47.25801" lon="-1.44156">
        <ele>54</ele>
        <time>2021-08-31T17:05:46.000Z</time>
      </trkpt>
      <trkpt lat="47.25791" lon="-1.44169">
        <ele>54</ele>
        <time>2021-08-31T17:05:48.000Z</time>
      </trkpt>
      <trkpt lat="47.2578" lon="-1.44181">
        <ele>54</ele>
        <time>2021-08-31T17:05:50.000Z</time>
      </trkpt>
      <trkpt lat="47.25769" lon="-1.44193">
        <ele>55</ele>
        <time>2021-08-31T17:05:52.000Z</time>
      </trkpt>
      <trkpt lat="47.25758" lon="-1.44206">
        <ele>55</ele>
        <time>2021-08-31T17:05:54.000Z</time>
      </trkpt>
      <trkpt lat="47.25748" lon="-1.44219">
        <ele>55</ele>
        <time>2021-08-31T17:05:56.000Z</time>
      </trkpt>
      <trkpt lat="47.25737" lon="-1.44234">
        <ele>55</ele>
        <time>2021-08-31T17:05:58.000Z</time>
      </trkpt>
      <trkpt lat="47.25727" lon="-1.44249">
        <ele>55</ele>
        <time>2021-08-31T17:06:00.000Z</time>
      </trkpt>
      <trkpt lat="47.25716" lon="-1.44262">
        <ele>55</ele>
        <time>2021-08-31T17:06:02.000Z</time>
      </trkpt>
      <trkpt lat="47.25705" lon="-1.44275">
        <ele>55</ele>
        <time>2021-08-31T17:06:04.000Z</time>
      </trkpt>
      <trkpt lat="47.25694" lon="-1.44288">
        <ele>55</ele>
        <time>2021-08-31T17:06:06.000Z</time>
      </trkpt>
      <trkpt lat="47.25683" lon="-1.44301">
        <ele>55</ele>
        <time>2021-08-31T17:06:08.000Z</time>
      </trkpt>
      <trkpt lat="47.25673" lon="-1.44313">
        <ele>55</ele>
        <time>2021-08-31T17:06:10.000Z</time>
      </trkpt>
      <trkpt lat="47.25662" lon="-1.44326">
        <ele>55</ele>
        <time>2021-08-31T17:06:12.000Z</time>
      </trkpt>
      <trkpt lat="47.25651" lon="-1.44338">
        <ele>56</ele>
        <time>2021-08-31T17:06:14.000Z</time>
      </trkpt>
      <trkpt lat="47.2564" lon="-1.4435">
        <ele>56</ele>
        <time>2021-08-31T17:06:16.000Z</time>
      </trkpt>
      <trkpt lat="47.25629" lon="-1.44362">
        <ele>56</ele>
        <time>2021-08-31T17:06:18.000Z</time>
      </trkpt>
      <trkpt lat="47.25618" lon="-1.44374">
        <ele>56</ele>
        <time>2021-08-31T17:06:20.000Z</time>
      </trkpt>
      <trkpt lat="47.25607" lon="-1.44387">
        <ele>56</ele>
        <time>2021-08-31T17:06:22.000Z</time>
      </trkpt>
      <trkpt lat="47.25596" lon="-1.444">
        <ele>56</ele>
        <time>2021-08-31T17:06:24.000Z</time>
      </trkpt>
      <trkpt lat="47.25585" lon="-1.44414">
        <ele>56</ele>
        <time>2021-08-31T17:06:26.000Z</time>
      </trkpt>
      <trkpt lat="47.25575" lon="-1.44427">
        <ele>56</ele>
        <time>2021-08-31T17:06:28.000Z</time>
      </trkpt>
      <trkpt lat="47.25564" lon="-1.44441">
        <ele>56</ele>
        <time>2021-08-31T17:06:30.000Z</time>
      </trkpt>
      <trkpt lat="47.25553" lon="-1.44455">
        <ele>55</ele>
        <time>2021-08-31T17:06:32.000Z</time>
      </trkpt>
      <trkpt lat="47.25544" lon="-1.44469">
        <ele>55</ele>
        <time>2021-08-31T17:06:34.000Z</time>
      </trkpt>
      <trkpt lat="47.25534" lon="-1.44485">
        <ele>55</ele>
        <time>2021-08-31T17:06:36.000Z</time>
      </trkpt>
      <trkpt lat="47.25524" lon="-1.44499">
        <ele>55</ele>
        <time>2021-08-31T17:06:38.000Z</time>
      </trkpt>
      <trkpt lat="47.25515" lon="-1.44514">
        <ele>55</ele>
        <time>2021-08-31T17:06:40.000Z</time>
      </trkpt>
      <trkpt lat="47.25505" lon="-1.44529">
        <ele>54</ele>
        <time>2021-08-31T17:06:42.000Z</time>
      </trkpt>
      <trkpt lat="47.25494" lon="-1.44543">
        <ele>54</ele>
        <time>2021-08-31T17:06:44.000Z</time>
      </trkpt>
      <trkpt lat="47.25484" lon="-1.44558">
        <ele>53</ele>
        <time>2021-08-31T17:06:46.000Z</time>
      </trkpt>
      <trkpt lat="47.25474" lon="-1.44574">
        <ele>53</ele>
        <time>2021-08-31T17:06:48.000Z</time>
      </trkpt>
      <trkpt lat="47.25463" lon="-1.44589">
        <ele>53</ele>
        <time>2021-08-31T17:06:50.000Z</time>
      </trkpt>
      <trkpt lat="47.25453" lon="-1.44604">
        <ele>53</ele>
        <time>2021-08-31T17:06:52.000Z</time>
      </trkpt>
      <trkpt lat="47.25443" lon="-1.44618">
        <ele>54</ele>
        <time>2021-08-31T17:06:54.000Z</time>
      </trkpt>
      <trkpt lat="47.25433" lon="-1.44632">
        <ele>55</ele>
        <time>2021-08-31T17:06:56.000Z</time>
      </trkpt>
      <trkpt lat="47.25422" lon="-1.44647">
        <ele>55</ele>
        <time>2021-08-31T17:06:58.000Z</time>
      </trkpt>
      <trkpt lat="47.2541" lon="-1.44664">
        <ele>56</ele>
        <time>2021-08-31T17:07:00.000Z</time>
      </trkpt>
      <trkpt lat="47.25398" lon="-1.44679">
        <ele>55</ele>
        <time>2021-08-31T17:07:02.000Z</time>
      </trkpt>
      <trkpt lat="47.25386" lon="-1.44693">
        <ele>55</ele>
        <time>2021-08-31T17:07:04.000Z</time>
      </trkpt>
      <trkpt lat="47.25374" lon="-1.44707">
        <ele>55</ele>
        <time>2021-08-31T17:07:06.000Z</time>
      </trkpt>
      <trkpt lat="47.25362" lon="-1.4472">
        <ele>55</ele>
        <time>2021-08-31T17:07:08.000Z</time>
      </trkpt>
      <trkpt lat="47.2535" lon="-1.44733">
        <ele>55</ele>
        <time>2021-08-31T17:07:10.000Z</time>
      </trkpt>
      <trkpt lat="47.25337" lon="-1.44745">
        <ele>55</ele>
        <time>2021-08-31T17:07:12.000Z</time>
      </trkpt>
      <trkpt lat="47.25326" lon="-1.44758">
        <ele>55</ele>
        <time>2021-08-31T17:07:14.000Z</time>
      </trkpt>
      <trkpt lat="47.25315" lon="-1.4477">
        <ele>55</ele>
        <time>2021-08-31T17:07:16.000Z</time>
      </trkpt>
      <trkpt lat="47.25304" lon="-1.44782">
        <ele>55</ele>
        <time>2021-08-31T17:07:18.000Z</time>
      </trkpt>
      <trkpt lat="47.25292" lon="-1.44794">
        <ele>55</ele>
        <time>2021-08-31T17:07:20.000Z</time>
      </trkpt>
      <trkpt lat="47.2528" lon="-1.44805">
        <ele>56</ele>
        <time>2021-08-31T17:07:22.000Z</time>
      </trkpt>
      <trkpt lat="47.25269" lon="-1.4482">
        <ele>56</ele>
        <time>2021-08-31T17:07:24.000Z</time>
      </trkpt>
      <trkpt lat="47.25258" lon="-1.44835">
        <ele>56</ele>
        <time>2021-08-31T17:07:26.000Z</time>
      </trkpt>
      <trkpt lat="47.25245" lon="-1.44847">
        <ele>56</ele>
        <time>2021-08-31T17:07:28.000Z</time>
      </trkpt>
      <trkpt lat="47.25232" lon="-1.4486">
        <ele>56</ele>
        <time>2021-08-31T17:07:30.000Z</time>
      </trkpt>
      <trkpt lat="47.25219" lon="-1.44872">
        <ele>56</ele>
        <time>2021-08-31T17:07:32.000Z</time>
      </trkpt>
      <trkpt lat="47.25206" lon="-1.44883">
        <ele>56</ele>
        <time>2021-08-31T17:07:34.000Z</time>
      </trkpt>
      <trkpt lat="47.25192" lon="-1.44894">
        <ele>55</ele>
        <time>2021-08-31T17:07:36.000Z</time>
      </trkpt>
      <trkpt lat="47.25179" lon="-1.44904">
        <ele>54</ele>
        <time>2021-08-31T17:07:38.000Z</time>
      </trkpt>
      <trkpt lat="47.25166" lon="-1.44916">
        <ele>54</ele>
        <time>2021-08-31T17:07:40.000Z</time>
      </trkpt>
      <trkpt lat="47.25154" lon="-1.44928">
        <ele>54</ele>
        <time>2021-08-31T17:07:42.000Z</time>
      </trkpt>
      <trkpt lat="47.25141" lon="-1.44939">
        <ele>54</ele>
        <time>2021-08-31T17:07:44.000Z</time>
      </trkpt>
      <trkpt lat="47.25129" lon="-1.44951">
        <ele>54</ele>
        <time>2021-08-31T17:07:46.000Z</time>
      </trkpt>
      <trkpt lat="47.25117" lon="-1.44962">
        <ele>54</ele>
        <time>2021-08-31T17:07:48.000Z</time>
      </trkpt>
      <trkpt lat="47.25104" lon="-1.44974">
        <ele>53</ele>
        <time>2021-08-31T17:07:50.000Z</time>
      </trkpt>
      <trkpt lat="47.25091" lon="-1.44985">
        <ele>54</ele>
        <time>2021-08-31T17:07:52.000Z</time>
      </trkpt>
      <trkpt lat="47.25079" lon="-1.44996">
        <ele>54</ele>
        <time>2021-08-31T17:07:54.000Z</time>
      </trkpt>
      <trkpt lat="47.25066" lon="-1.45006">
        <ele>53</ele>
        <time>2021-08-31T17:07:56.000Z</time>
      </trkpt>
      <trkpt lat="47.25053" lon="-1.45017">
        <ele>53</ele>
        <time>2021-08-31T17:07:58.000Z</time>
      </trkpt>
      <trkpt lat="47.2504" lon="-1.45026">
        <ele>53</ele>
        <time>2021-08-31T17:08:00.000Z</time>
      </trkpt>
      <trkpt lat="47.25027" lon="-1.45036">
        <ele>53</ele>
        <time>2021-08-31T17:08:02.000Z</time>
      </trkpt>
      <trkpt lat="47.25014" lon="-1.45046">
        <ele>53</ele>
        <time>2021-08-31T17:08:04.000Z</time>
      </trkpt>
      <trkpt lat="47.25002" lon="-1.45058">
        <ele>53</ele>
        <time>2021-08-31T17:08:06.000Z</time>
      </trkpt>
      <trkpt lat="47.24991" lon="-1.45072">
        <ele>54</ele>
        <time>2021-08-31T17:08:08.000Z</time>
      </trkpt>
      <trkpt lat="47.24979" lon="-1.45086">
        <ele>54</ele>
        <time>2021-08-31T17:08:10.000Z</time>
      </trkpt>
      <trkpt lat="47.24967" lon="-1.45099">
        <ele>54</ele>
        <time>2021-08-31T17:08:12.000Z</time>
      </trkpt>
      <trkpt lat="47.24955" lon="-1.45111">
        <ele>54</ele>
        <time>2021-08-31T17:08:14.000Z</time>
      </trkpt>
      <trkpt lat="47.24944" lon="-1.45123">
        <ele>54</ele>
        <time>2021-08-31T17:08:16.000Z</time>
      </trkpt>
      <trkpt lat="47.24932" lon="-1.45136">
        <ele>53</ele>
        <time>2021-08-31T17:08:18.000Z</time>
      </trkpt>
      <trkpt lat="47.2492" lon="-1.4515">
        <ele>53</ele>
        <time>2021-08-31T17:08:20.000Z</time>
      </trkpt>
      <trkpt lat="47.24908" lon="-1.45162">
        <ele>53</ele>
        <time>2021-08-31T17:08:22.000Z</time>
      </trkpt>
      <trkpt lat="47.24897" lon="-1.45175">
        <ele>53</ele>
        <time>2021-08-31T17:08:24.000Z</time>
      </trkpt>
      <trkpt lat="47.24887" lon="-1.4519">
        <ele>53</ele>
        <time>2021-08-31T17:08:26.000Z</time>
      </trkpt>
      <trkpt lat="47.24877" lon="-1.45203">
        <ele>54</ele>
        <time>2021-08-31T17:08:28.000Z</time>
      </trkpt>
      <trkpt lat="47.24868" lon="-1.45216">
        <ele>54</ele>
        <time>2021-08-31T17:08:30.000Z</time>
      </trkpt>
      <trkpt lat="47.24858" lon="-1.45231">
        <ele>54</ele>
        <time>2021-08-31T17:08:32.000Z</time>
      </trkpt>
      <trkpt lat="47.24848" lon="-1.45245">
        <ele>54</ele>
        <time>2021-08-31T17:08:34.000Z</time>
      </trkpt>
      <trkpt lat="47.24838" lon="-1.4526">
        <ele>54</ele>
        <time>2021-08-31T17:08:36.000Z</time>
      </trkpt>
      <trkpt lat="47.24828" lon="-1.45276">
        <ele>54</ele>
        <time>2021-08-31T17:08:38.000Z</time>
      </trkpt>
      <trkpt lat="47.2482" lon="-1.45294">
        <ele>55</ele>
        <time>2021-08-31T17:08:40.000Z</time>
      </trkpt>
      <trkpt lat="47.24811" lon="-1.45311">
        <ele>57</ele>
        <time>2021-08-31T17:08:42.000Z</time>
      </trkpt>
      <trkpt lat="47.24804" lon="-1.45328">
        <ele>56</ele>
        <time>2021-08-31T17:08:44.000Z</time>
      </trkpt>
      <trkpt lat="47.24795" lon="-1.45345">
        <ele>56</ele>
        <time>2021-08-31T17:08:46.000Z</time>
      </trkpt>
      <trkpt lat="47.24787" lon="-1.45364">
        <ele>56</ele>
        <time>2021-08-31T17:08:48.000Z</time>
      </trkpt>
      <trkpt lat="47.2478" lon="-1.45383">
        <ele>55</ele>
        <time>2021-08-31T17:08:50.000Z</time>
      </trkpt>
      <trkpt lat="47.24773" lon="-1.45402">
        <ele>55</ele>
        <time>2021-08-31T17:08:52.000Z</time>
      </trkpt>
      <trkpt lat="47.24766" lon="-1.4542">
        <ele>55</ele>
        <time>2021-08-31T17:08:54.000Z</time>
      </trkpt>
      <trkpt lat="47.24758" lon="-1.45437">
        <ele>55</ele>
        <time>2021-08-31T17:08:56.000Z</time>
      </trkpt>
      <trkpt lat="47.24753" lon="-1.45456">
        <ele>55</ele>
        <time>2021-08-31T17:08:58.000Z</time>
      </trkpt>
      <trkpt lat="47.24747" lon="-1.45473">
        <ele>55</ele>
        <time>2021-08-31T17:09:00.000Z</time>
      </trkpt>
      <trkpt lat="47.2474" lon="-1.4549">
        <ele>54</ele>
        <time>2021-08-31T17:09:02.000Z</time>
      </trkpt>
      <trkpt lat="47.24732" lon="-1.45508">
        <ele>53</ele>
        <time>2021-08-31T17:09:04.000Z</time>
      </trkpt>
      <trkpt lat="47.24725" lon="-1.45527">
        <ele>54</ele>
        <time>2021-08-31T17:09:06.000Z</time>
      </trkpt>
      <trkpt lat="47.24719" lon="-1.45546">
        <ele>54</ele>
        <time>2021-08-31T17:09:08.000Z</time>
      </trkpt>
      <trkpt lat="47.24713" lon="-1.45564">
        <ele>54</ele>
        <time>2021-08-31T17:09:10.000Z</time>
      </trkpt>
      <trkpt lat="47.24708" lon="-1.45583">
        <ele>54</ele>
        <time>2021-08-31T17:09:12.000Z</time>
      </trkpt>
      <trkpt lat="47.24703" lon="-1.45601">
        <ele>54</ele>
        <time>2021-08-31T17:09:14.000Z</time>
      </trkpt>
      <trkpt lat="47.24696" lon="-1.45619">
        <ele>54</ele>
        <time>2021-08-31T17:09:16.000Z</time>
      </trkpt>
      <trkpt lat="47.2469" lon="-1.45637">
        <ele>54</ele>
        <time>2021-08-31T17:09:18.000Z</time>
      </trkpt>
      <trkpt lat="47.24683" lon="-1.45655">
        <ele>55</ele>
        <time>2021-08-31T17:09:20.000Z</time>
      </trkpt>
      <trkpt lat="47.24678" lon="-1.45673">
        <ele>55</ele>
        <time>2021-08-31T17:09:22.000Z</time>
      </trkpt>
      <trkpt lat="47.24674" lon="-1.45691">
        <ele>56</ele>
        <time>2021-08-31T17:09:24.000Z</time>
      </trkpt>
      <trkpt lat="47.24669" lon="-1.45711">
        <ele>56</ele>
        <time>2021-08-31T17:09:26.000Z</time>
      </trkpt>
      <trkpt lat="47.24665" lon="-1.4573">
        <ele>56</ele>
        <time>2021-08-31T17:09:28.000Z</time>
      </trkpt>
      <trkpt lat="47.2466" lon="-1.45749">
        <ele>56</ele>
        <time>2021-08-31T17:09:30.000Z</time>
      </trkpt>
      <trkpt lat="47.24654" lon="-1.45768">
        <ele>56</ele>
        <time>2021-08-31T17:09:32.000Z</time>
      </trkpt>
      <trkpt lat="47.24649" lon="-1.45787">
        <ele>56</ele>
        <time>2021-08-31T17:09:34.000Z</time>
      </trkpt>
      <trkpt lat="47.24644" lon="-1.45806">
        <ele>56</ele>
        <time>2021-08-31T17:09:36.000Z</time>
      </trkpt>
      <trkpt lat="47.24638" lon="-1.45824">
        <ele>56</ele>
        <time>2021-08-31T17:09:38.000Z</time>
      </trkpt>
      <trkpt lat="47.24632" lon="-1.45844">
        <ele>57</ele>
        <time>2021-08-31T17:09:40.000Z</time>
      </trkpt>
      <trkpt lat="47.24626" lon="-1.45863">
        <ele>57</ele>
        <time>2021-08-31T17:09:42.000Z</time>
      </trkpt>
      <trkpt lat="47.24621" lon="-1.45884">
        <ele>58</ele>
        <time>2021-08-31T17:09:44.000Z</time>
      </trkpt>
      <trkpt lat="47.24614" lon="-1.45904">
        <ele>58</ele>
        <time>2021-08-31T17:09:46.000Z</time>
      </trkpt>
      <trkpt lat="47.24607" lon="-1.45924">
        <ele>58</ele>
        <time>2021-08-31T17:09:48.000Z</time>
      </trkpt>
      <trkpt lat="47.24599" lon="-1.45942">
        <ele>58</ele>
        <time>2021-08-31T17:09:50.000Z</time>
      </trkpt>
      <trkpt lat="47.24592" lon="-1.45961">
        <ele>57</ele>
        <time>2021-08-31T17:09:52.000Z</time>
      </trkpt>
      <trkpt lat="47.24584" lon="-1.45979">
        <ele>57</ele>
        <time>2021-08-31T17:09:54.000Z</time>
      </trkpt>
      <trkpt lat="47.24576" lon="-1.45998">
        <ele>56</ele>
        <time>2021-08-31T17:09:56.000Z</time>
      </trkpt>
      <trkpt lat="47.24568" lon="-1.46017">
        <ele>56</ele>
        <time>2021-08-31T17:09:58.000Z</time>
      </trkpt>
      <trkpt lat="47.2456" lon="-1.46033">
        <ele>55</ele>
        <time>2021-08-31T17:10:00.000Z</time>
      </trkpt>
      <trkpt lat="47.24551" lon="-1.46051">
        <ele>55</ele>
        <time>2021-08-31T17:10:02.000Z</time>
      </trkpt>
      <trkpt lat="47.24543" lon="-1.46068">
        <ele>55</ele>
        <time>2021-08-31T17:10:04.000Z</time>
      </trkpt>
      <trkpt lat="47.24535" lon="-1.46084">
        <ele>55</ele>
        <time>2021-08-31T17:10:06.000Z</time>
      </trkpt>
      <trkpt lat="47.24527" lon="-1.46099">
        <ele>55</ele>
        <time>2021-08-31T17:10:08.000Z</time>
      </trkpt>
      <trkpt lat="47.24516" lon="-1.46112">
        <ele>56</ele>
        <time>2021-08-31T17:10:10.000Z</time>
      </trkpt>
      <trkpt lat="47.24505" lon="-1.46125">
        <ele>57</ele>
        <time>2021-08-31T17:10:12.000Z</time>
      </trkpt>
      <trkpt lat="47.24492" lon="-1.4614">
        <ele>57</ele>
        <time>2021-08-31T17:10:14.000Z</time>
      </trkpt>
      <trkpt lat="47.2448" lon="-1.46156">
        <ele>56</ele>
        <time>2021-08-31T17:10:16.000Z</time>
      </trkpt>
      <trkpt lat="47.24469" lon="-1.46169">
        <ele>56</ele>
        <time>2021-08-31T17:10:18.000Z</time>
      </trkpt>
      <trkpt lat="47.24457" lon="-1.46182">
        <ele>57</ele>
        <time>2021-08-31T17:10:20.000Z</time>
      </trkpt>
      <trkpt lat="47.24447" lon="-1.46196">
        <ele>57</ele>
        <time>2021-08-31T17:10:22.000Z</time>
      </trkpt>
      <trkpt lat="47.24437" lon="-1.46211">
        <ele>57</ele>
        <time>2021-08-31T17:10:24.000Z</time>
      </trkpt>
      <trkpt lat="47.24426" lon="-1.46226">
        <ele>58</ele>
        <time>2021-08-31T17:10:26.000Z</time>
      </trkpt>
      <trkpt lat="47.24415" lon="-1.4624">
        <ele>58</ele>
        <time>2021-08-31T17:10:28.000Z</time>
      </trkpt>
      <trkpt lat="47.24406" lon="-1.46254">
        <ele>58</ele>
        <time>2021-08-31T17:10:30.000Z</time>
      </trkpt>
      <trkpt lat="47.24396" lon="-1.46267">
        <ele>58</ele>
        <time>2021-08-31T17:10:32.000Z</time>
      </trkpt>
      <trkpt lat="47.24386" lon="-1.4628">
        <ele>58</ele>
        <time>2021-08-31T17:10:34.000Z</time>
      </trkpt>
      <trkpt lat="47.24376" lon="-1.46295">
        <ele>58</ele>
        <time>2021-08-31T17:10:36.000Z</time>
      </trkpt>
      <trkpt lat="47.24367" lon="-1.46309">
        <ele>58</ele>
        <time>2021-08-31T17:10:38.000Z</time>
      </trkpt>
      <trkpt lat="47.24358" lon="-1.46323">
        <ele>57</ele>
        <time>2021-08-31T17:10:40.000Z</time>
      </trkpt>
      <trkpt lat="47.24349" lon="-1.46337">
        <ele>58</ele>
        <time>2021-08-31T17:10:42.000Z</time>
      </trkpt>
      <trkpt lat="47.24339" lon="-1.46353">
        <ele>57</ele>
        <time>2021-08-31T17:10:44.000Z</time>
      </trkpt>
      <trkpt lat="47.2433" lon="-1.46369">
        <ele>58</ele>
        <time>2021-08-31T17:10:46.000Z</time>
      </trkpt>
      <trkpt lat="47.24322" lon="-1.46385">
        <ele>58</ele>
        <time>2021-08-31T17:10:48.000Z</time>
      </trkpt>
      <trkpt lat="47.24314" lon="-1.464">
        <ele>58</ele>
        <time>2021-08-31T17:10:50.000Z</time>
      </trkpt>
      <trkpt lat="47.24305" lon="-1.46416">
        <ele>58</ele>
        <time>2021-08-31T17:10:52.000Z</time>
      </trkpt>
      <trkpt lat="47.24295" lon="-1.46432">
        <ele>56</ele>
        <time>2021-08-31T17:10:54.000Z</time>
      </trkpt>
      <trkpt lat="47.24286" lon="-1.46446">
        <ele>56</ele>
        <time>2021-08-31T17:10:56.000Z</time>
      </trkpt>
      <trkpt lat="47.24276" lon="-1.46459">
        <ele>55</ele>
        <time>2021-08-31T17:10:58.000Z</time>
      </trkpt>
      <trkpt lat="47.24265" lon="-1.46473">
        <ele>55</ele>
        <time>2021-08-31T17:11:00.000Z</time>
      </trkpt>
      <trkpt lat="47.24254" lon="-1.46488">
        <ele>54</ele>
        <time>2021-08-31T17:11:02.000Z</time>
      </trkpt>
      <trkpt lat="47.24242" lon="-1.46503">
        <ele>55</ele>
        <time>2021-08-31T17:11:04.000Z</time>
      </trkpt>
      <trkpt lat="47.2423" lon="-1.46516">
        <ele>55</ele>
        <time>2021-08-31T17:11:06.000Z</time>
      </trkpt>
      <trkpt lat="47.24218" lon="-1.46529">
        <ele>55</ele>
        <time>2021-08-31T17:11:08.000Z</time>
      </trkpt>
      <trkpt lat="47.24207" lon="-1.46543">
        <ele>54</ele>
        <time>2021-08-31T17:11:10.000Z</time>
      </trkpt>
      <trkpt lat="47.24197" lon="-1.46557">
        <ele>54</ele>
        <time>2021-08-31T17:11:12.000Z</time>
      </trkpt>
      <trkpt lat="47.24186" lon="-1.46571">
        <ele>54</ele>
        <time>2021-08-31T17:11:14.000Z</time>
      </trkpt>
      <trkpt lat="47.24175" lon="-1.46584">
        <ele>54</ele>
        <time>2021-08-31T17:11:16.000Z</time>
      </trkpt>
      <trkpt lat="47.24164" lon="-1.46598">
        <ele>54</ele>
        <time>2021-08-31T17:11:18.000Z</time>
      </trkpt>
      <trkpt lat="47.24154" lon="-1.46611">
        <ele>55</ele>
        <time>2021-08-31T17:11:20.000Z</time>
      </trkpt>
      <trkpt lat="47.24144" lon="-1.46623">
        <ele>55</ele>
        <time>2021-08-31T17:11:22.000Z</time>
      </trkpt>
      <trkpt lat="47.24134" lon="-1.46637">
        <ele>55</ele>
        <time>2021-08-31T17:11:24.000Z</time>
      </trkpt>
      <trkpt lat="47.24124" lon="-1.46651">
        <ele>55</ele>
        <time>2021-08-31T17:11:26.000Z</time>
      </trkpt>
      <trkpt lat="47.24114" lon="-1.46664">
        <ele>55</ele>
        <time>2021-08-31T17:11:28.000Z</time>
      </trkpt>
      <trkpt lat="47.24104" lon="-1.46677">
        <ele>56</ele>
        <time>2021-08-31T17:11:30.000Z</time>
      </trkpt>
      <trkpt lat="47.24094" lon="-1.46692">
        <ele>56</ele>
        <time>2021-08-31T17:11:32.000Z</time>
      </trkpt>
      <trkpt lat="47.24085" lon="-1.46708">
        <ele>56</ele>
        <time>2021-08-31T17:11:34.000Z</time>
      </trkpt>
      <trkpt lat="47.24079" lon="-1.46726">
        <ele>55</ele>
        <time>2021-08-31T17:11:36.000Z</time>
      </trkpt>
      <trkpt lat="47.24069" lon="-1.4674">
        <ele>55</ele>
        <time>2021-08-31T17:11:38.000Z</time>
      </trkpt>
      <trkpt lat="47.24057" lon="-1.46748">
        <ele>54</ele>
        <time>2021-08-31T17:11:40.000Z</time>
      </trkpt>
      <trkpt lat="47.24046" lon="-1.46758">
        <ele>54</ele>
        <time>2021-08-31T17:11:42.000Z</time>
      </trkpt>
      <trkpt lat="47.24035" lon="-1.4677">
        <ele>53</ele>
        <time>2021-08-31T17:11:44.000Z</time>
      </trkpt>
      <trkpt lat="47.24024" lon="-1.46781">
        <ele>54</ele>
        <time>2021-08-31T17:11:46.000Z</time>
      </trkpt>
      <trkpt lat="47.24014" lon="-1.46793">
        <ele>54</ele>
        <time>2021-08-31T17:11:48.000Z</time>
      </trkpt>
      <trkpt lat="47.24002" lon="-1.46805">
        <ele>54</ele>
        <time>2021-08-31T17:11:50.000Z</time>
      </trkpt>
      <trkpt lat="47.23991" lon="-1.46819">
        <ele>54</ele>
        <time>2021-08-31T17:11:52.000Z</time>
      </trkpt>
      <trkpt lat="47.23981" lon="-1.46831">
        <ele>54</ele>
        <time>2021-08-31T17:11:54.000Z</time>
      </trkpt>
      <trkpt lat="47.23969" lon="-1.46842">
        <ele>54</ele>
        <time>2021-08-31T17:11:56.000Z</time>
      </trkpt>
      <trkpt lat="47.23958" lon="-1.46853">
        <ele>54</ele>
        <time>2021-08-31T17:11:58.000Z</time>
      </trkpt>
      <trkpt lat="47.23946" lon="-1.46863">
        <ele>54</ele>
        <time>2021-08-31T17:12:00.000Z</time>
      </trkpt>
      <trkpt lat="47.23934" lon="-1.46871">
        <ele>54</ele>
        <time>2021-08-31T17:12:02.000Z</time>
      </trkpt>
      <trkpt lat="47.23923" lon="-1.46882">
        <ele>54</ele>
        <time>2021-08-31T17:12:04.000Z</time>
      </trkpt>
      <trkpt lat="47.23912" lon="-1.46896">
        <ele>54</ele>
        <time>2021-08-31T17:12:06.000Z</time>
      </trkpt>
      <trkpt lat="47.23902" lon="-1.4691">
        <ele>55</ele>
        <time>2021-08-31T17:12:08.000Z</time>
      </trkpt>
      <trkpt lat="47.23892" lon="-1.46923">
        <ele>55</ele>
        <time>2021-08-31T17:12:10.000Z</time>
      </trkpt>
      <trkpt lat="47.23882" lon="-1.46938">
        <ele>56</ele>
        <time>2021-08-31T17:12:12.000Z</time>
      </trkpt>
      <trkpt lat="47.23871" lon="-1.46951">
        <ele>56</ele>
        <time>2021-08-31T17:12:14.000Z</time>
      </trkpt>
      <trkpt lat="47.23859" lon="-1.46966">
        <ele>55</ele>
        <time>2021-08-31T17:12:16.000Z</time>
      </trkpt>
      <trkpt lat="47.23848" lon="-1.46982">
        <ele>55</ele>
        <time>2021-08-31T17:12:18.000Z</time>
      </trkpt>
      <trkpt lat="47.23838" lon="-1.46997">
        <ele>54</ele>
        <time>2021-08-31T17:12:20.000Z</time>
      </trkpt>
      <trkpt lat="47.23828" lon="-1.47012">
        <ele>54</ele>
        <time>2021-08-31T17:12:22.000Z</time>
      </trkpt>
      <trkpt lat="47.23818" lon="-1.47027">
        <ele>54</ele>
        <time>2021-08-31T17:12:24.000Z</time>
      </trkpt>
      <trkpt lat="47.23807" lon="-1.47041">
        <ele>54</ele>
        <time>2021-08-31T17:12:26.000Z</time>
      </trkpt>
      <trkpt lat="47.23797" lon="-1.47056">
        <ele>54</ele>
        <time>2021-08-31T17:12:28.000Z</time>
      </trkpt>
      <trkpt lat="47.23786" lon="-1.4707">
        <ele>54</ele>
        <time>2021-08-31T17:12:30.000Z</time>
      </trkpt>
      <trkpt lat="47.23775" lon="-1.47086">
        <ele>54</ele>
        <time>2021-08-31T17:12:32.000Z</time>
      </trkpt>
      <trkpt lat="47.23764" lon="-1.47101">
        <ele>54</ele>
        <time>2021-08-31T17:12:34.000Z</time>
      </trkpt>
      <trkpt lat="47.23753" lon="-1.47116">
        <ele>54</ele>
        <time>2021-08-31T17:12:36.000Z</time>
      </trkpt>
      <trkpt lat="47.23742" lon="-1.4713">
        <ele>54</ele>
        <time>2021-08-31T17:12:38.000Z</time>
      </trkpt>
      <trkpt lat="47.2373" lon="-1.47143">
        <ele>54</ele>
        <time>2021-08-31T17:12:40.000Z</time>
      </trkpt>
      <trkpt lat="47.23719" lon="-1.47158">
        <ele>54</ele>
        <time>2021-08-31T17:12:42.000Z</time>
      </trkpt>
      <trkpt lat="47.23709" lon="-1.47172">
        <ele>54</ele>
        <time>2021-08-31T17:12:44.000Z</time>
      </trkpt>
      <trkpt lat="47.23699" lon="-1.47187">
        <ele>55</ele>
        <time>2021-08-31T17:12:46.000Z</time>
      </trkpt>
      <trkpt lat="47.23689" lon="-1.47204">
        <ele>55</ele>
        <time>2021-08-31T17:12:48.000Z</time>
      </trkpt>
      <trkpt lat="47.23677" lon="-1.47221">
        <ele>54</ele>
        <time>2021-08-31T17:12:50.000Z</time>
      </trkpt>
      <trkpt lat="47.23665" lon="-1.47235">
        <ele>54</ele>
        <time>2021-08-31T17:12:52.000Z</time>
      </trkpt>
      <trkpt lat="47.23653" lon="-1.47248">
        <ele>54</ele>
        <time>2021-08-31T17:12:54.000Z</time>
      </trkpt>
      <trkpt lat="47.23641" lon="-1.47262">
        <ele>53</ele>
        <time>2021-08-31T17:12:56.000Z</time>
      </trkpt>
      <trkpt lat="47.2363" lon="-1.47274">
        <ele>53</ele>
        <time>2021-08-31T17:12:58.000Z</time>
      </trkpt>
      <trkpt lat="47.23618" lon="-1.47287">
        <ele>53</ele>
        <time>2021-08-31T17:13:00.000Z</time>
      </trkpt>
      <trkpt lat="47.23606" lon="-1.473">
        <ele>53</ele>
        <time>2021-08-31T17:13:02.000Z</time>
      </trkpt>
      <trkpt lat="47.23594" lon="-1.47312">
        <ele>53</ele>
        <time>2021-08-31T17:13:04.000Z</time>
      </trkpt>
      <trkpt lat="47.23582" lon="-1.47323">
        <ele>54</ele>
        <time>2021-08-31T17:13:06.000Z</time>
      </trkpt>
      <trkpt lat="47.2357" lon="-1.47334">
        <ele>54</ele>
        <time>2021-08-31T17:13:08.000Z</time>
      </trkpt>
      <trkpt lat="47.23557" lon="-1.47344">
        <ele>54</ele>
        <time>2021-08-31T17:13:10.000Z</time>
      </trkpt>
      <trkpt lat="47.23545" lon="-1.47354">
        <ele>54</ele>
        <time>2021-08-31T17:13:12.000Z</time>
      </trkpt>
      <trkpt lat="47.23533" lon="-1.47364">
        <ele>54</ele>
        <time>2021-08-31T17:13:14.000Z</time>
      </trkpt>
      <trkpt lat="47.23521" lon="-1.47375">
        <ele>54</ele>
        <time>2021-08-31T17:13:16.000Z</time>
      </trkpt>
      <trkpt lat="47.23508" lon="-1.47385">
        <ele>54</ele>
        <time>2021-08-31T17:13:18.000Z</time>
      </trkpt>
      <trkpt lat="47.23496" lon="-1.47395">
        <ele>54</ele>
        <time>2021-08-31T17:13:20.000Z</time>
      </trkpt>
      <trkpt lat="47.23482" lon="-1.47402">
        <ele>54</ele>
        <time>2021-08-31T17:13:22.000Z</time>
      </trkpt>
      <trkpt lat="47.23468" lon="-1.47408">
        <ele>53</ele>
        <time>2021-08-31T17:13:24.000Z</time>
      </trkpt>
      <trkpt lat="47.23455" lon="-1.47415">
        <ele>53</ele>
        <time>2021-08-31T17:13:26.000Z</time>
      </trkpt>
      <trkpt lat="47.23436" lon="-1.47423">
        <ele>53</ele>
        <time>2021-08-31T17:13:29.000Z</time>
      </trkpt>
      <trkpt lat="47.23425" lon="-1.4743">
        <ele>53</ele>
        <time>2021-08-31T17:13:31.000Z</time>
      </trkpt>
      <trkpt lat="47.23409" lon="-1.47442">
        <ele>53</ele>
        <time>2021-08-31T17:13:35.000Z</time>
      </trkpt>
      <trkpt lat="47.23397" lon="-1.47448">
        <ele>54</ele>
        <time>2021-08-31T17:13:37.000Z</time>
      </trkpt>
      <trkpt lat="47.23383" lon="-1.47455">
        <ele>54</ele>
        <time>2021-08-31T17:13:39.000Z</time>
      </trkpt>
      <trkpt lat="47.23363" lon="-1.47466">
        <ele>54</ele>
        <time>2021-08-31T17:13:42.000Z</time>
      </trkpt>
      <trkpt lat="47.23349" lon="-1.47472">
        <ele>54</ele>
        <time>2021-08-31T17:13:44.000Z</time>
      </trkpt>
      <trkpt lat="47.23337" lon="-1.47479">
        <ele>54</ele>
        <time>2021-08-31T17:13:46.000Z</time>
      </trkpt>
      <trkpt lat="47.23325" lon="-1.47487">
        <ele>54</ele>
        <time>2021-08-31T17:13:48.000Z</time>
      </trkpt>
      <trkpt lat="47.23307" lon="-1.47501">
        <ele>54</ele>
        <time>2021-08-31T17:13:51.000Z</time>
      </trkpt>
      <trkpt lat="47.23293" lon="-1.47509">
        <ele>53</ele>
        <time>2021-08-31T17:13:53.000Z</time>
      </trkpt>
      <trkpt lat="47.23281" lon="-1.47517">
        <ele>53</ele>
        <time>2021-08-31T17:13:55.000Z</time>
      </trkpt>
      <trkpt lat="47.23269" lon="-1.47527">
        <ele>54</ele>
        <time>2021-08-31T17:13:57.000Z</time>
      </trkpt>
      <trkpt lat="47.23259" lon="-1.47541">
        <ele>54</ele>
        <time>2021-08-31T17:13:59.000Z</time>
      </trkpt>
      <trkpt lat="47.2325" lon="-1.47556">
        <ele>54</ele>
        <time>2021-08-31T17:14:01.000Z</time>
      </trkpt>
      <trkpt lat="47.23242" lon="-1.47572">
        <ele>55</ele>
        <time>2021-08-31T17:14:03.000Z</time>
      </trkpt>
      <trkpt lat="47.23233" lon="-1.47586">
        <ele>55</ele>
        <time>2021-08-31T17:14:05.000Z</time>
      </trkpt>
      <trkpt lat="47.23224" lon="-1.47601">
        <ele>55</ele>
        <time>2021-08-31T17:14:07.000Z</time>
      </trkpt>
      <trkpt lat="47.23217" lon="-1.47619">
        <ele>54</ele>
        <time>2021-08-31T17:14:09.000Z</time>
      </trkpt>
      <trkpt lat="47.23211" lon="-1.47635">
        <ele>55</ele>
        <time>2021-08-31T17:14:11.000Z</time>
      </trkpt>
      <trkpt lat="47.23205" lon="-1.47652">
        <ele>55</ele>
        <time>2021-08-31T17:14:13.000Z</time>
      </trkpt>
      <trkpt lat="47.23199" lon="-1.47668">
        <ele>56</ele>
        <time>2021-08-31T17:14:15.000Z</time>
      </trkpt>
      <trkpt lat="47.23192" lon="-1.47685">
        <ele>57</ele>
        <time>2021-08-31T17:14:17.000Z</time>
      </trkpt>
      <trkpt lat="47.23184" lon="-1.47701">
        <ele>57</ele>
        <time>2021-08-31T17:14:19.000Z</time>
      </trkpt>
      <trkpt lat="47.23176" lon="-1.47718">
        <ele>57</ele>
        <time>2021-08-31T17:14:21.000Z</time>
      </trkpt>
      <trkpt lat="47.23169" lon="-1.47736">
        <ele>56</ele>
        <time>2021-08-31T17:14:23.000Z</time>
      </trkpt>
      <trkpt lat="47.23162" lon="-1.47754">
        <ele>55</ele>
        <time>2021-08-31T17:14:25.000Z</time>
      </trkpt>
      <trkpt lat="47.23154" lon="-1.47772">
        <ele>56</ele>
        <time>2021-08-31T17:14:27.000Z</time>
      </trkpt>
      <trkpt lat="47.23147" lon="-1.47789">
        <ele>56</ele>
        <time>2021-08-31T17:14:29.000Z</time>
      </trkpt>
      <trkpt lat="47.23141" lon="-1.47807">
        <ele>56</ele>
        <time>2021-08-31T17:14:31.000Z</time>
      </trkpt>
      <trkpt lat="47.23134" lon="-1.47824">
        <ele>56</ele>
        <time>2021-08-31T17:14:33.000Z</time>
      </trkpt>
      <trkpt lat="47.23127" lon="-1.47843">
        <ele>55</ele>
        <time>2021-08-31T17:14:35.000Z</time>
      </trkpt>
      <trkpt lat="47.23118" lon="-1.47859">
        <ele>55</ele>
        <time>2021-08-31T17:14:37.000Z</time>
      </trkpt>
      <trkpt lat="47.23108" lon="-1.47875">
        <ele>55</ele>
        <time>2021-08-31T17:14:39.000Z</time>
      </trkpt>
      <trkpt lat="47.23098" lon="-1.47888">
        <ele>54</ele>
        <time>2021-08-31T17:14:41.000Z</time>
      </trkpt>
      <trkpt lat="47.23088" lon="-1.47901">
        <ele>54</ele>
        <time>2021-08-31T17:14:43.000Z</time>
      </trkpt>
      <trkpt lat="47.23078" lon="-1.47915">
        <ele>54</ele>
        <time>2021-08-31T17:14:45.000Z</time>
      </trkpt>
      <trkpt lat="47.23068" lon="-1.47927">
        <ele>54</ele>
        <time>2021-08-31T17:14:47.000Z</time>
      </trkpt>
      <trkpt lat="47.23058" lon="-1.47941">
        <ele>55</ele>
        <time>2021-08-31T17:14:49.000Z</time>
      </trkpt>
      <trkpt lat="47.23047" lon="-1.47953">
        <ele>55</ele>
        <time>2021-08-31T17:14:51.000Z</time>
      </trkpt>
      <trkpt lat="47.23037" lon="-1.47967">
        <ele>54</ele>
        <time>2021-08-31T17:14:53.000Z</time>
      </trkpt>
      <trkpt lat="47.23027" lon="-1.47981">
        <ele>54</ele>
        <time>2021-08-31T17:14:55.000Z</time>
      </trkpt>
      <trkpt lat="47.23018" lon="-1.47995">
        <ele>54</ele>
        <time>2021-08-31T17:14:57.000Z</time>
      </trkpt>
      <trkpt lat="47.23009" lon="-1.48009">
        <ele>54</ele>
        <time>2021-08-31T17:14:59.000Z</time>
      </trkpt>
      <trkpt lat="47.23" lon="-1.48024">
        <ele>55</ele>
        <time>2021-08-31T17:15:01.000Z</time>
      </trkpt>
      <trkpt lat="47.22992" lon="-1.48039">
        <ele>55</ele>
        <time>2021-08-31T17:15:03.000Z</time>
      </trkpt>
      <trkpt lat="47.22983" lon="-1.48054">
        <ele>54</ele>
        <time>2021-08-31T17:15:05.000Z</time>
      </trkpt>
      <trkpt lat="47.22974" lon="-1.48069">
        <ele>54</ele>
        <time>2021-08-31T17:15:07.000Z</time>
      </trkpt>
      <trkpt lat="47.22965" lon="-1.48083">
        <ele>55</ele>
        <time>2021-08-31T17:15:09.000Z</time>
      </trkpt>
      <trkpt lat="47.22956" lon="-1.48097">
        <ele>55</ele>
        <time>2021-08-31T17:15:11.000Z</time>
      </trkpt>
      <trkpt lat="47.22947" lon="-1.48108">
        <ele>55</ele>
        <time>2021-08-31T17:15:13.000Z</time>
      </trkpt>
      <trkpt lat="47.22935" lon="-1.48109">
        <ele>55</ele>
        <time>2021-08-31T17:15:15.000Z</time>
      </trkpt>
      <trkpt lat="47.22921" lon="-1.48113">
        <ele>54</ele>
        <time>2021-08-31T17:15:17.000Z</time>
      </trkpt>
      <trkpt lat="47.22909" lon="-1.48118">
        <ele>54</ele>
        <time>2021-08-31T17:15:19.000Z</time>
      </trkpt>
      <trkpt lat="47.22898" lon="-1.48131">
        <ele>53</ele>
        <time>2021-08-31T17:15:21.000Z</time>
      </trkpt>
      <trkpt lat="47.22888" lon="-1.48148">
        <ele>53</ele>
        <time>2021-08-31T17:15:23.000Z</time>
      </trkpt>
      <trkpt lat="47.22878" lon="-1.48164">
        <ele>54</ele>
        <time>2021-08-31T17:15:25.000Z</time>
      </trkpt>
      <trkpt lat="47.22868" lon="-1.4818">
        <ele>54</ele>
        <time>2021-08-31T17:15:27.000Z</time>
      </trkpt>
      <trkpt lat="47.22858" lon="-1.48195">
        <ele>55</ele>
        <time>2021-08-31T17:15:29.000Z</time>
      </trkpt>
      <trkpt lat="47.22849" lon="-1.48211">
        <ele>56</ele>
        <time>2021-08-31T17:15:31.000Z</time>
      </trkpt>
      <trkpt lat="47.22838" lon="-1.48227">
        <ele>55</ele>
        <time>2021-08-31T17:15:33.000Z</time>
      </trkpt>
      <trkpt lat="47.22827" lon="-1.48242">
        <ele>54</ele>
        <time>2021-08-31T17:15:35.000Z</time>
      </trkpt>
      <trkpt lat="47.22817" lon="-1.48256">
        <ele>54</ele>
        <time>2021-08-31T17:15:37.000Z</time>
      </trkpt>
      <trkpt lat="47.22807" lon="-1.48272">
        <ele>54</ele>
        <time>2021-08-31T17:15:39.000Z</time>
      </trkpt>
      <trkpt lat="47.22797" lon="-1.48288">
        <ele>54</ele>
        <time>2021-08-31T17:15:41.000Z</time>
      </trkpt>
      <trkpt lat="47.22788" lon="-1.48304">
        <ele>54</ele>
        <time>2021-08-31T17:15:43.000Z</time>
      </trkpt>
      <trkpt lat="47.22778" lon="-1.48321">
        <ele>54</ele>
        <time>2021-08-31T17:15:45.000Z</time>
      </trkpt>
      <trkpt lat="47.22767" lon="-1.48336">
        <ele>54</ele>
        <time>2021-08-31T17:15:47.000Z</time>
      </trkpt>
      <trkpt lat="47.22757" lon="-1.4835">
        <ele>55</ele>
        <time>2021-08-31T17:15:49.000Z</time>
      </trkpt>
      <trkpt lat="47.22746" lon="-1.48364">
        <ele>55</ele>
        <time>2021-08-31T17:15:51.000Z</time>
      </trkpt>
      <trkpt lat="47.22736" lon="-1.48379">
        <ele>54</ele>
        <time>2021-08-31T17:15:53.000Z</time>
      </trkpt>
      <trkpt lat="47.22725" lon="-1.48392">
        <ele>55</ele>
        <time>2021-08-31T17:15:55.000Z</time>
      </trkpt>
      <trkpt lat="47.22714" lon="-1.48405">
        <ele>54</ele>
        <time>2021-08-31T17:15:57.000Z</time>
      </trkpt>
      <trkpt lat="47.22706" lon="-1.48423">
        <ele>54</ele>
        <time>2021-08-31T17:15:59.000Z</time>
      </trkpt>
      <trkpt lat="47.22699" lon="-1.48441">
        <ele>54</ele>
        <time>2021-08-31T17:16:01.000Z</time>
      </trkpt>
      <trkpt lat="47.22692" lon="-1.48459">
        <ele>54</ele>
        <time>2021-08-31T17:16:03.000Z</time>
      </trkpt>
      <trkpt lat="47.22685" lon="-1.48478">
        <ele>54</ele>
        <time>2021-08-31T17:16:05.000Z</time>
      </trkpt>
      <trkpt lat="47.22677" lon="-1.48494">
        <ele>55</ele>
        <time>2021-08-31T17:16:07.000Z</time>
      </trkpt>
      <trkpt lat="47.2267" lon="-1.48511">
        <ele>55</ele>
        <time>2021-08-31T17:16:09.000Z</time>
      </trkpt>
      <trkpt lat="47.22663" lon="-1.48529">
        <ele>54</ele>
        <time>2021-08-31T17:16:11.000Z</time>
      </trkpt>
      <trkpt lat="47.22658" lon="-1.4855">
        <ele>54</ele>
        <time>2021-08-31T17:16:13.000Z</time>
      </trkpt>
      <trkpt lat="47.22652" lon="-1.4857">
        <ele>54</ele>
        <time>2021-08-31T17:16:15.000Z</time>
      </trkpt>
      <trkpt lat="47.22645" lon="-1.48587">
        <ele>54</ele>
        <time>2021-08-31T17:16:17.000Z</time>
      </trkpt>
      <trkpt lat="47.22637" lon="-1.48604">
        <ele>54</ele>
        <time>2021-08-31T17:16:19.000Z</time>
      </trkpt>
      <trkpt lat="47.2263" lon="-1.48621">
        <ele>55</ele>
        <time>2021-08-31T17:16:21.000Z</time>
      </trkpt>
      <trkpt lat="47.22624" lon="-1.48637">
        <ele>56</ele>
        <time>2021-08-31T17:16:23.000Z</time>
      </trkpt>
      <trkpt lat="47.22617" lon="-1.48655">
        <ele>56</ele>
        <time>2021-08-31T17:16:25.000Z</time>
      </trkpt>
      <trkpt lat="47.22612" lon="-1.48674">
        <ele>56</ele>
        <time>2021-08-31T17:16:27.000Z</time>
      </trkpt>
      <trkpt lat="47.22606" lon="-1.48695">
        <ele>56</ele>
        <time>2021-08-31T17:16:29.000Z</time>
      </trkpt>
      <trkpt lat="47.22601" lon="-1.48715">
        <ele>55</ele>
        <time>2021-08-31T17:16:31.000Z</time>
      </trkpt>
      <trkpt lat="47.22596" lon="-1.48734">
        <ele>55</ele>
        <time>2021-08-31T17:16:33.000Z</time>
      </trkpt>
      <trkpt lat="47.22591" lon="-1.48753">
        <ele>55</ele>
        <time>2021-08-31T17:16:35.000Z</time>
      </trkpt>
      <trkpt lat="47.22586" lon="-1.48772">
        <ele>55</ele>
        <time>2021-08-31T17:16:37.000Z</time>
      </trkpt>
      <trkpt lat="47.2258" lon="-1.4879">
        <ele>55</ele>
        <time>2021-08-31T17:16:39.000Z</time>
      </trkpt>
      <trkpt lat="47.22575" lon="-1.48809">
        <ele>55</ele>
        <time>2021-08-31T17:16:41.000Z</time>
      </trkpt>
      <trkpt lat="47.22568" lon="-1.48827">
        <ele>54</ele>
        <time>2021-08-31T17:16:43.000Z</time>
      </trkpt>
      <trkpt lat="47.22561" lon="-1.48844">
        <ele>55</ele>
        <time>2021-08-31T17:16:45.000Z</time>
      </trkpt>
      <trkpt lat="47.22553" lon="-1.48862">
        <ele>56</ele>
        <time>2021-08-31T17:16:47.000Z</time>
      </trkpt>
      <trkpt lat="47.22547" lon="-1.48879">
        <ele>56</ele>
        <time>2021-08-31T17:16:49.000Z</time>
      </trkpt>
      <trkpt lat="47.2254" lon="-1.48896">
        <ele>56</ele>
        <time>2021-08-31T17:16:51.000Z</time>
      </trkpt>
      <trkpt lat="47.22535" lon="-1.48916">
        <ele>57</ele>
        <time>2021-08-31T17:16:53.000Z</time>
      </trkpt>
      <trkpt lat="47.22531" lon="-1.48937">
        <ele>57</ele>
        <time>2021-08-31T17:16:55.000Z</time>
      </trkpt>
      <trkpt lat="47.22524" lon="-1.48956">
        <ele>58</ele>
        <time>2021-08-31T17:16:57.000Z</time>
      </trkpt>
      <trkpt lat="47.22518" lon="-1.48974">
        <ele>58</ele>
        <time>2021-08-31T17:16:59.000Z</time>
      </trkpt>
      <trkpt lat="47.22512" lon="-1.48994">
        <ele>59</ele>
        <time>2021-08-31T17:17:01.000Z</time>
      </trkpt>
      <trkpt lat="47.22507" lon="-1.49013">
        <ele>58</ele>
        <time>2021-08-31T17:17:03.000Z</time>
      </trkpt>
      <trkpt lat="47.22501" lon="-1.49032">
        <ele>58</ele>
        <time>2021-08-31T17:17:05.000Z</time>
      </trkpt>
      <trkpt lat="47.22495" lon="-1.49051">
        <ele>58</ele>
        <time>2021-08-31T17:17:07.000Z</time>
      </trkpt>
      <trkpt lat="47.2249" lon="-1.49069">
        <ele>58</ele>
        <time>2021-08-31T17:17:09.000Z</time>
      </trkpt>
      <trkpt lat="47.22485" lon="-1.49088">
        <ele>59</ele>
        <time>2021-08-31T17:17:11.000Z</time>
      </trkpt>
      <trkpt lat="47.22479" lon="-1.49107">
        <ele>59</ele>
        <time>2021-08-31T17:17:13.000Z</time>
      </trkpt>
      <trkpt lat="47.22474" lon="-1.49126">
        <ele>59</ele>
        <time>2021-08-31T17:17:15.000Z</time>
      </trkpt>
      <trkpt lat="47.22469" lon="-1.49145">
        <ele>59</ele>
        <time>2021-08-31T17:17:17.000Z</time>
      </trkpt>
      <trkpt lat="47.22463" lon="-1.49164">
        <ele>58</ele>
        <time>2021-08-31T17:17:19.000Z</time>
      </trkpt>
      <trkpt lat="47.22457" lon="-1.49183">
        <ele>58</ele>
        <time>2021-08-31T17:17:21.000Z</time>
      </trkpt>
      <trkpt lat="47.22451" lon="-1.49201">
        <ele>57</ele>
        <time>2021-08-31T17:17:23.000Z</time>
      </trkpt>
      <trkpt lat="47.22444" lon="-1.4922">
        <ele>57</ele>
        <time>2021-08-31T17:17:25.000Z</time>
      </trkpt>
      <trkpt lat="47.22438" lon="-1.49239">
        <ele>56</ele>
        <time>2021-08-31T17:17:27.000Z</time>
      </trkpt>
      <trkpt lat="47.22432" lon="-1.49256">
        <ele>56</ele>
        <time>2021-08-31T17:17:29.000Z</time>
      </trkpt>
      <trkpt lat="47.22425" lon="-1.49272">
        <ele>56</ele>
        <time>2021-08-31T17:17:31.000Z</time>
      </trkpt>
      <trkpt lat="47.22417" lon="-1.4929">
        <ele>56</ele>
        <time>2021-08-31T17:17:33.000Z</time>
      </trkpt>
      <trkpt lat="47.2241" lon="-1.49308">
        <ele>56</ele>
        <time>2021-08-31T17:17:35.000Z</time>
      </trkpt>
      <trkpt lat="47.22403" lon="-1.49327">
        <ele>57</ele>
        <time>2021-08-31T17:17:37.000Z</time>
      </trkpt>
      <trkpt lat="47.22396" lon="-1.49345">
        <ele>57</ele>
        <time>2021-08-31T17:17:39.000Z</time>
      </trkpt>
      <trkpt lat="47.22389" lon="-1.49362">
        <ele>57</ele>
        <time>2021-08-31T17:17:41.000Z</time>
      </trkpt>
      <trkpt lat="47.22382" lon="-1.49378">
        <ele>58</ele>
        <time>2021-08-31T17:17:43.000Z</time>
      </trkpt>
      <trkpt lat="47.22375" lon="-1.49394">
        <ele>58</ele>
        <time>2021-08-31T17:17:45.000Z</time>
      </trkpt>
      <trkpt lat="47.22369" lon="-1.4941">
        <ele>58</ele>
        <time>2021-08-31T17:17:47.000Z</time>
      </trkpt>
      <trkpt lat="47.22362" lon="-1.49427">
        <ele>58</ele>
        <time>2021-08-31T17:17:49.000Z</time>
      </trkpt>
      <trkpt lat="47.22355" lon="-1.49443">
        <ele>59</ele>
        <time>2021-08-31T17:17:51.000Z</time>
      </trkpt>
      <trkpt lat="47.2235" lon="-1.49459">
        <ele>60</ele>
        <time>2021-08-31T17:17:53.000Z</time>
      </trkpt>
      <trkpt lat="47.22344" lon="-1.49476">
        <ele>60</ele>
        <time>2021-08-31T17:17:55.000Z</time>
      </trkpt>
      <trkpt lat="47.22338" lon="-1.49496">
        <ele>59</ele>
        <time>2021-08-31T17:17:57.000Z</time>
      </trkpt>
      <trkpt lat="47.22331" lon="-1.49515">
        <ele>58</ele>
        <time>2021-08-31T17:17:59.000Z</time>
      </trkpt>
      <trkpt lat="47.22325" lon="-1.49534">
        <ele>58</ele>
        <time>2021-08-31T17:18:01.000Z</time>
      </trkpt>
      <trkpt lat="47.22319" lon="-1.49551">
        <ele>58</ele>
        <time>2021-08-31T17:18:03.000Z</time>
      </trkpt>
      <trkpt lat="47.22313" lon="-1.49568">
        <ele>58</ele>
        <time>2021-08-31T17:18:05.000Z</time>
      </trkpt>
      <trkpt lat="47.22308" lon="-1.49588">
        <ele>58</ele>
        <time>2021-08-31T17:18:07.000Z</time>
      </trkpt>
      <trkpt lat="47.22301" lon="-1.49606">
        <ele>59</ele>
        <time>2021-08-31T17:18:09.000Z</time>
      </trkpt>
      <trkpt lat="47.22296" lon="-1.49624">
        <ele>59</ele>
        <time>2021-08-31T17:18:11.000Z</time>
      </trkpt>
      <trkpt lat="47.22291" lon="-1.49643">
        <ele>59</ele>
        <time>2021-08-31T17:18:13.000Z</time>
      </trkpt>
      <trkpt lat="47.22286" lon="-1.49663">
        <ele>58</ele>
        <time>2021-08-31T17:18:15.000Z</time>
      </trkpt>
      <trkpt lat="47.2228" lon="-1.49681">
        <ele>58</ele>
        <time>2021-08-31T17:18:17.000Z</time>
      </trkpt>
      <trkpt lat="47.22274" lon="-1.49699">
        <ele>59</ele>
        <time>2021-08-31T17:18:19.000Z</time>
      </trkpt>
      <trkpt lat="47.22267" lon="-1.49718">
        <ele>58</ele>
        <time>2021-08-31T17:18:21.000Z</time>
      </trkpt>
      <trkpt lat="47.2226" lon="-1.49736">
        <ele>57</ele>
        <time>2021-08-31T17:18:23.000Z</time>
      </trkpt>
      <trkpt lat="47.22256" lon="-1.49756">
        <ele>57</ele>
        <time>2021-08-31T17:18:25.000Z</time>
      </trkpt>
      <trkpt lat="47.22253" lon="-1.49775">
        <ele>57</ele>
        <time>2021-08-31T17:18:27.000Z</time>
      </trkpt>
      <trkpt lat="47.2225" lon="-1.49794">
        <ele>57</ele>
        <time>2021-08-31T17:18:29.000Z</time>
      </trkpt>
      <trkpt lat="47.22246" lon="-1.49813">
        <ele>57</ele>
        <time>2021-08-31T17:18:31.000Z</time>
      </trkpt>
      <trkpt lat="47.22241" lon="-1.49832">
        <ele>58</ele>
        <time>2021-08-31T17:18:33.000Z</time>
      </trkpt>
      <trkpt lat="47.22236" lon="-1.4985">
        <ele>58</ele>
        <time>2021-08-31T17:18:35.000Z</time>
      </trkpt>
      <trkpt lat="47.22231" lon="-1.49869">
        <ele>58</ele>
        <time>2021-08-31T17:18:37.000Z</time>
      </trkpt>
      <trkpt lat="47.22227" lon="-1.49888">
        <ele>58</ele>
        <time>2021-08-31T17:18:39.000Z</time>
      </trkpt>
      <trkpt lat="47.22222" lon="-1.49907">
        <ele>58</ele>
        <time>2021-08-31T17:18:41.000Z</time>
      </trkpt>
      <trkpt lat="47.22216" lon="-1.49925">
        <ele>58</ele>
        <time>2021-08-31T17:18:43.000Z</time>
      </trkpt>
      <trkpt lat="47.22211" lon="-1.49943">
        <ele>58</ele>
        <time>2021-08-31T17:18:45.000Z</time>
      </trkpt>
      <trkpt lat="47.22206" lon="-1.49963">
        <ele>58</ele>
        <time>2021-08-31T17:18:47.000Z</time>
      </trkpt>
      <trkpt lat="47.22201" lon="-1.49982">
        <ele>58</ele>
        <time>2021-08-31T17:18:49.000Z</time>
      </trkpt>
      <trkpt lat="47.22196" lon="-1.50002">
        <ele>58</ele>
        <time>2021-08-31T17:18:51.000Z</time>
      </trkpt>
      <trkpt lat="47.22192" lon="-1.50024">
        <ele>57</ele>
        <time>2021-08-31T17:18:53.000Z</time>
      </trkpt>
      <trkpt lat="47.22188" lon="-1.50044">
        <ele>58</ele>
        <time>2021-08-31T17:18:55.000Z</time>
      </trkpt>
      <trkpt lat="47.22184" lon="-1.50065">
        <ele>58</ele>
        <time>2021-08-31T17:18:57.000Z</time>
      </trkpt>
      <trkpt lat="47.22179" lon="-1.50083">
        <ele>58</ele>
        <time>2021-08-31T17:18:59.000Z</time>
      </trkpt>
      <trkpt lat="47.22173" lon="-1.50102">
        <ele>58</ele>
        <time>2021-08-31T17:19:01.000Z</time>
      </trkpt>
      <trkpt lat="47.22167" lon="-1.50121">
        <ele>58</ele>
        <time>2021-08-31T17:19:03.000Z</time>
      </trkpt>
      <trkpt lat="47.22161" lon="-1.5014">
        <ele>57</ele>
        <time>2021-08-31T17:19:05.000Z</time>
      </trkpt>
      <trkpt lat="47.22155" lon="-1.50159">
        <ele>56</ele>
        <time>2021-08-31T17:19:07.000Z</time>
      </trkpt>
      <trkpt lat="47.2215" lon="-1.50177">
        <ele>56</ele>
        <time>2021-08-31T17:19:09.000Z</time>
      </trkpt>
      <trkpt lat="47.22147" lon="-1.50198">
        <ele>56</ele>
        <time>2021-08-31T17:19:11.000Z</time>
      </trkpt>
      <trkpt lat="47.22143" lon="-1.50217">
        <ele>55</ele>
        <time>2021-08-31T17:19:13.000Z</time>
      </trkpt>
      <trkpt lat="47.22138" lon="-1.50236">
        <ele>55</ele>
        <time>2021-08-31T17:19:15.000Z</time>
      </trkpt>
      <trkpt lat="47.22132" lon="-1.50254">
        <ele>54</ele>
        <time>2021-08-31T17:19:17.000Z</time>
      </trkpt>
      <trkpt lat="47.22126" lon="-1.50273">
        <ele>54</ele>
        <time>2021-08-31T17:19:19.000Z</time>
      </trkpt>
      <trkpt lat="47.22117" lon="-1.50291">
        <ele>54</ele>
        <time>2021-08-31T17:19:21.000Z</time>
      </trkpt>
      <trkpt lat="47.22109" lon="-1.50306">
        <ele>54</ele>
        <time>2021-08-31T17:19:23.000Z</time>
      </trkpt>
      <trkpt lat="47.221" lon="-1.50321">
        <ele>54</ele>
        <time>2021-08-31T17:19:25.000Z</time>
      </trkpt>
      <trkpt lat="47.22093" lon="-1.50338">
        <ele>54</ele>
        <time>2021-08-31T17:19:27.000Z</time>
      </trkpt>
      <trkpt lat="47.22088" lon="-1.50358">
        <ele>54</ele>
        <time>2021-08-31T17:19:29.000Z</time>
      </trkpt>
      <trkpt lat="47.22084" lon="-1.50377">
        <ele>54</ele>
        <time>2021-08-31T17:19:31.000Z</time>
      </trkpt>
      <trkpt lat="47.22079" lon="-1.50396">
        <ele>54</ele>
        <time>2021-08-31T17:19:33.000Z</time>
      </trkpt>
      <trkpt lat="47.22074" lon="-1.50415">
        <ele>54</ele>
        <time>2021-08-31T17:19:35.000Z</time>
      </trkpt>
      <trkpt lat="47.2207" lon="-1.50436">
        <ele>53</ele>
        <time>2021-08-31T17:19:37.000Z</time>
      </trkpt>
      <trkpt lat="47.22067" lon="-1.50456">
        <ele>53</ele>
        <time>2021-08-31T17:19:39.000Z</time>
      </trkpt>
      <trkpt lat="47.22064" lon="-1.50475">
        <ele>53</ele>
        <time>2021-08-31T17:19:41.000Z</time>
      </trkpt>
      <trkpt lat="47.22061" lon="-1.50493">
        <ele>54</ele>
        <time>2021-08-31T17:19:43.000Z</time>
      </trkpt>
      <trkpt lat="47.2206" lon="-1.50513">
        <ele>53</ele>
        <time>2021-08-31T17:19:45.000Z</time>
      </trkpt>
      <trkpt lat="47.2206" lon="-1.50534">
        <ele>53</ele>
        <time>2021-08-31T17:19:47.000Z</time>
      </trkpt>
      <trkpt lat="47.22058" lon="-1.50553">
        <ele>53</ele>
        <time>2021-08-31T17:19:49.000Z</time>
      </trkpt>
      <trkpt lat="47.22057" lon="-1.50572">
        <ele>53</ele>
        <time>2021-08-31T17:19:51.000Z</time>
      </trkpt>
      <trkpt lat="47.22055" lon="-1.5059">
        <ele>53</ele>
        <time>2021-08-31T17:19:53.000Z</time>
      </trkpt>
      <trkpt lat="47.22053" lon="-1.50608">
        <ele>53</ele>
        <time>2021-08-31T17:19:55.000Z</time>
      </trkpt>
      <trkpt lat="47.22052" lon="-1.50625">
        <ele>53</ele>
        <time>2021-08-31T17:19:57.000Z</time>
      </trkpt>
      <trkpt lat="47.22051" lon="-1.50645">
        <ele>54</ele>
        <time>2021-08-31T17:19:59.000Z</time>
      </trkpt>
      <trkpt lat="47.22049" lon="-1.50665">
        <ele>54</ele>
        <time>2021-08-31T17:20:01.000Z</time>
      </trkpt>
      <trkpt lat="47.22046" lon="-1.50681">
        <ele>55</ele>
        <time>2021-08-31T17:20:03.000Z</time>
      </trkpt>
      <trkpt lat="47.22044" lon="-1.50699">
        <ele>55</ele>
        <time>2021-08-31T17:20:05.000Z</time>
      </trkpt>
      <trkpt lat="47.22042" lon="-1.50716">
        <ele>54</ele>
        <time>2021-08-31T17:20:07.000Z</time>
      </trkpt>
      <trkpt lat="47.22039" lon="-1.50735">
        <ele>55</ele>
        <time>2021-08-31T17:20:09.000Z</time>
      </trkpt>
      <trkpt lat="47.22036" lon="-1.50753">
        <ele>55</ele>
        <time>2021-08-31T17:20:11.000Z</time>
      </trkpt>
      <trkpt lat="47.22032" lon="-1.50772">
        <ele>55</ele>
        <time>2021-08-31T17:20:13.000Z</time>
      </trkpt>
      <trkpt lat="47.22026" lon="-1.50791">
        <ele>56</ele>
        <time>2021-08-31T17:20:15.000Z</time>
      </trkpt>
      <trkpt lat="47.2202" lon="-1.5081">
        <ele>56</ele>
        <time>2021-08-31T17:20:17.000Z</time>
      </trkpt>
      <trkpt lat="47.22014" lon="-1.50827">
        <ele>56</ele>
        <time>2021-08-31T17:20:19.000Z</time>
      </trkpt>
      <trkpt lat="47.22009" lon="-1.50845">
        <ele>57</ele>
        <time>2021-08-31T17:20:21.000Z</time>
      </trkpt>
      <trkpt lat="47.22004" lon="-1.50865">
        <ele>56</ele>
        <time>2021-08-31T17:20:23.000Z</time>
      </trkpt>
      <trkpt lat="47.21998" lon="-1.50884">
        <ele>57</ele>
        <time>2021-08-31T17:20:25.000Z</time>
      </trkpt>
      <trkpt lat="47.21991" lon="-1.50904">
        <ele>56</ele>
        <time>2021-08-31T17:20:27.000Z</time>
      </trkpt>
      <trkpt lat="47.21987" lon="-1.50923">
        <ele>55</ele>
        <time>2021-08-31T17:20:29.000Z</time>
      </trkpt>
      <trkpt lat="47.21982" lon="-1.50939">
        <ele>55</ele>
        <time>2021-08-31T17:20:31.000Z</time>
      </trkpt>
      <trkpt lat="47.21979" lon="-1.50957">
        <ele>54</ele>
        <time>2021-08-31T17:20:33.000Z</time>
      </trkpt>
      <trkpt lat="47.21974" lon="-1.50976">
        <ele>54</ele>
        <time>2021-08-31T17:20:35.000Z</time>
      </trkpt>
      <trkpt lat="47.21969" lon="-1.50994">
        <ele>54</ele>
        <time>2021-08-31T17:20:37.000Z</time>
      </trkpt>
      <trkpt lat="47.21964" lon="-1.51011">
        <ele>54</ele>
        <time>2021-08-31T17:20:39.000Z</time>
      </trkpt>
      <trkpt lat="47.21957" lon="-1.51025">
        <ele>54</ele>
        <time>2021-08-31T17:20:41.000Z</time>
      </trkpt>
      <trkpt lat="47.21954" lon="-1.5104">
        <ele>54</ele>
        <time>2021-08-31T17:20:43.000Z</time>
      </trkpt>
      <trkpt lat="47.21949" lon="-1.51054">
        <ele>55</ele>
        <time>2021-08-31T17:20:45.000Z</time>
      </trkpt>
      <trkpt lat="47.21943" lon="-1.51065">
        <ele>56</ele>
        <time>2021-08-31T17:20:47.000Z</time>
      </trkpt>
      <trkpt lat="47.21935" lon="-1.5108">
        <ele>55</ele>
        <time>2021-08-31T17:20:49.000Z</time>
      </trkpt>
      <trkpt lat="47.21929" lon="-1.51098">
        <ele>55</ele>
        <time>2021-08-31T17:20:51.000Z</time>
      </trkpt>
      <trkpt lat="47.21922" lon="-1.51117">
        <ele>54</ele>
        <time>2021-08-31T17:20:53.000Z</time>
      </trkpt>
      <trkpt lat="47.21916" lon="-1.51136">
        <ele>54</ele>
        <time>2021-08-31T17:20:55.000Z</time>
      </trkpt>
      <trkpt lat="47.2191" lon="-1.51154">
        <ele>54</ele>
        <time>2021-08-31T17:20:57.000Z</time>
      </trkpt>
      <trkpt lat="47.21904" lon="-1.51172">
        <ele>54</ele>
        <time>2021-08-31T17:20:59.000Z</time>
      </trkpt>
      <trkpt lat="47.21898" lon="-1.5119">
        <ele>54</ele>
        <time>2021-08-31T17:21:01.000Z</time>
      </trkpt>
      <trkpt lat="47.21892" lon="-1.51209">
        <ele>53</ele>
        <time>2021-08-31T17:21:03.000Z</time>
      </trkpt>
      <trkpt lat="47.21886" lon="-1.51228">
        <ele>53</ele>
        <time>2021-08-31T17:21:05.000Z</time>
      </trkpt>
      <trkpt lat="47.2188" lon="-1.51245">
        <ele>53</ele>
        <time>2021-08-31T17:21:07.000Z</time>
      </trkpt>
      <trkpt lat="47.21874" lon="-1.51263">
        <ele>53</ele>
        <time>2021-08-31T17:21:09.000Z</time>
      </trkpt>
      <trkpt lat="47.21869" lon="-1.5128">
        <ele>53</ele>
        <time>2021-08-31T17:21:11.000Z</time>
      </trkpt>
      <trkpt lat="47.21863" lon="-1.51297">
        <ele>53</ele>
        <time>2021-08-31T17:21:13.000Z</time>
      </trkpt>
      <trkpt lat="47.21857" lon="-1.51314">
        <ele>53</ele>
        <time>2021-08-31T17:21:15.000Z</time>
      </trkpt>
      <trkpt lat="47.21852" lon="-1.51331">
        <ele>54</ele>
        <time>2021-08-31T17:21:17.000Z</time>
      </trkpt>
      <trkpt lat="47.21848" lon="-1.5135">
        <ele>54</ele>
        <time>2021-08-31T17:21:19.000Z</time>
      </trkpt>
      <trkpt lat="47.21843" lon="-1.51369">
        <ele>54</ele>
        <time>2021-08-31T17:21:21.000Z</time>
      </trkpt>
      <trkpt lat="47.21839" lon="-1.51386">
        <ele>54</ele>
        <time>2021-08-31T17:21:23.000Z</time>
      </trkpt>
      <trkpt lat="47.21834" lon="-1.51405">
        <ele>53</ele>
        <time>2021-08-31T17:21:25.000Z</time>
      </trkpt>
      <trkpt lat="47.21829" lon="-1.51424">
        <ele>53</ele>
        <time>2021-08-31T17:21:27.000Z</time>
      </trkpt>
      <trkpt lat="47.21825" lon="-1.51442">
        <ele>53</ele>
        <time>2021-08-31T17:21:29.000Z</time>
      </trkpt>
      <trkpt lat="47.21821" lon="-1.51461">
        <ele>53</ele>
        <time>2021-08-31T17:21:31.000Z</time>
      </trkpt>
      <trkpt lat="47.21818" lon="-1.51479">
        <ele>53</ele>
        <time>2021-08-31T17:21:33.000Z</time>
      </trkpt>
      <trkpt lat="47.21813" lon="-1.51497">
        <ele>53</ele>
        <time>2021-08-31T17:21:35.000Z</time>
      </trkpt>
      <trkpt lat="47.21805" lon="-1.51513">
        <ele>53</ele>
        <time>2021-08-31T17:21:37.000Z</time>
      </trkpt>
      <trkpt lat="47.21798" lon="-1.5153">
        <ele>53</ele>
        <time>2021-08-31T17:21:39.000Z</time>
      </trkpt>
      <trkpt lat="47.21792" lon="-1.51547">
        <ele>53</ele>
        <time>2021-08-31T17:21:41.000Z</time>
      </trkpt>
      <trkpt lat="47.21784" lon="-1.51564">
        <ele>53</ele>
        <time>2021-08-31T17:21:43.000Z</time>
      </trkpt>
      <trkpt lat="47.21775" lon="-1.51579">
        <ele>53</ele>
        <time>2021-08-31T17:21:45.000Z</time>
      </trkpt>
      <trkpt lat="47.21767" lon="-1.51593">
        <ele>53</ele>
        <time>2021-08-31T17:21:47.000Z</time>
      </trkpt>
      <trkpt lat="47.21757" lon="-1.51606">
        <ele>54</ele>
        <time>2021-08-31T17:21:49.000Z</time>
      </trkpt>
      <trkpt lat="47.2175" lon="-1.5162">
        <ele>54</ele>
        <time>2021-08-31T17:21:51.000Z</time>
      </trkpt>
      <trkpt lat="47.21742" lon="-1.51635">
        <ele>54</ele>
        <time>2021-08-31T17:21:53.000Z</time>
      </trkpt>
      <trkpt lat="47.21735" lon="-1.51652">
        <ele>54</ele>
        <time>2021-08-31T17:21:55.000Z</time>
      </trkpt>
      <trkpt lat="47.21728" lon="-1.51669">
        <ele>54</ele>
        <time>2021-08-31T17:21:57.000Z</time>
      </trkpt>
      <trkpt lat="47.2172" lon="-1.51685">
        <ele>54</ele>
        <time>2021-08-31T17:21:59.000Z</time>
      </trkpt>
      <trkpt lat="47.21712" lon="-1.517">
        <ele>54</ele>
        <time>2021-08-31T17:22:01.000Z</time>
      </trkpt>
      <trkpt lat="47.21704" lon="-1.51715">
        <ele>55</ele>
        <time>2021-08-31T17:22:03.000Z</time>
      </trkpt>
      <trkpt lat="47.21697" lon="-1.51734">
        <ele>55</ele>
        <time>2021-08-31T17:22:05.000Z</time>
      </trkpt>
      <trkpt lat="47.2169" lon="-1.51752">
        <ele>55</ele>
        <time>2021-08-31T17:22:07.000Z</time>
      </trkpt>
      <trkpt lat="47.21683" lon="-1.51769">
        <ele>54</ele>
        <time>2021-08-31T17:22:09.000Z</time>
      </trkpt>
      <trkpt lat="47.21675" lon="-1.51786">
        <ele>55</ele>
        <time>2021-08-31T17:22:11.000Z</time>
      </trkpt>
      <trkpt lat="47.21668" lon="-1.51802">
        <ele>55</ele>
        <time>2021-08-31T17:22:13.000Z</time>
      </trkpt>
      <trkpt lat="47.21661" lon="-1.51819">
        <ele>55</ele>
        <time>2021-08-31T17:22:15.000Z</time>
      </trkpt>
      <trkpt lat="47.21654" lon="-1.51836">
        <ele>54</ele>
        <time>2021-08-31T17:22:17.000Z</time>
      </trkpt>
      <trkpt lat="47.21649" lon="-1.51854">
        <ele>54</ele>
        <time>2021-08-31T17:22:19.000Z</time>
      </trkpt>
      <trkpt lat="47.21645" lon="-1.51872">
        <ele>54</ele>
        <time>2021-08-31T17:22:21.000Z</time>
      </trkpt>
      <trkpt lat="47.2164" lon="-1.5189">
        <ele>54</ele>
        <time>2021-08-31T17:22:23.000Z</time>
      </trkpt>
      <trkpt lat="47.21632" lon="-1.51905">
        <ele>54</ele>
        <time>2021-08-31T17:22:25.000Z</time>
      </trkpt>
      <trkpt lat="47.21626" lon="-1.51923">
        <ele>54</ele>
        <time>2021-08-31T17:22:27.000Z</time>
      </trkpt>
      <trkpt lat="47.21622" lon="-1.5194">
        <ele>54</ele>
        <time>2021-08-31T17:22:29.000Z</time>
      </trkpt>
      <trkpt lat="47.21619" lon="-1.5196">
        <ele>54</ele>
        <time>2021-08-31T17:22:31.000Z</time>
      </trkpt>
      <trkpt lat="47.21613" lon="-1.51977">
        <ele>54</ele>
        <time>2021-08-31T17:22:33.000Z</time>
      </trkpt>
      <trkpt lat="47.21607" lon="-1.51991">
        <ele>54</ele>
        <time>2021-08-31T17:22:35.000Z</time>
      </trkpt>
      <trkpt lat="47.216" lon="-1.52008">
        <ele>54</ele>
        <time>2021-08-31T17:22:37.000Z</time>
      </trkpt>
      <trkpt lat="47.21593" lon="-1.52028">
        <ele>53</ele>
        <time>2021-08-31T17:22:39.000Z</time>
      </trkpt>
      <trkpt lat="47.21587" lon="-1.52046">
        <ele>53</ele>
        <time>2021-08-31T17:22:41.000Z</time>
      </trkpt>
      <trkpt lat="47.21581" lon="-1.52065">
        <ele>54</ele>
        <time>2021-08-31T17:22:43.000Z</time>
      </trkpt>
      <trkpt lat="47.21576" lon="-1.52084">
        <ele>54</ele>
        <time>2021-08-31T17:22:45.000Z</time>
      </trkpt>
      <trkpt lat="47.21569" lon="-1.52102">
        <ele>54</ele>
        <time>2021-08-31T17:22:47.000Z</time>
      </trkpt>
      <trkpt lat="47.21563" lon="-1.52122">
        <ele>53</ele>
        <time>2021-08-31T17:22:49.000Z</time>
      </trkpt>
      <trkpt lat="47.21556" lon="-1.52141">
        <ele>53</ele>
        <time>2021-08-31T17:22:51.000Z</time>
      </trkpt>
      <trkpt lat="47.2155" lon="-1.52161">
        <ele>54</ele>
        <time>2021-08-31T17:22:53.000Z</time>
      </trkpt>
      <trkpt lat="47.21544" lon="-1.52181">
        <ele>54</ele>
        <time>2021-08-31T17:22:55.000Z</time>
      </trkpt>
      <trkpt lat="47.21537" lon="-1.522">
        <ele>54</ele>
        <time>2021-08-31T17:22:57.000Z</time>
      </trkpt>
      <trkpt lat="47.21531" lon="-1.52219">
        <ele>54</ele>
        <time>2021-08-31T17:22:59.000Z</time>
      </trkpt>
      <trkpt lat="47.21525" lon="-1.52238">
        <ele>53</ele>
        <time>2021-08-31T17:23:01.000Z</time>
      </trkpt>
      <trkpt lat="47.21519" lon="-1.52257">
        <ele>53</ele>
        <time>2021-08-31T17:23:03.000Z</time>
      </trkpt>
      <trkpt lat="47.21513" lon="-1.52277">
        <ele>52</ele>
        <time>2021-08-31T17:23:05.000Z</time>
      </trkpt>
      <trkpt lat="47.21507" lon="-1.52296">
        <ele>52</ele>
        <time>2021-08-31T17:23:07.000Z</time>
      </trkpt>
      <trkpt lat="47.21501" lon="-1.52315">
        <ele>52</ele>
        <time>2021-08-31T17:23:09.000Z</time>
      </trkpt>
      <trkpt lat="47.21495" lon="-1.52333">
        <ele>53</ele>
        <time>2021-08-31T17:23:11.000Z</time>
      </trkpt>
      <trkpt lat="47.21489" lon="-1.5235">
        <ele>53</ele>
        <time>2021-08-31T17:23:13.000Z</time>
      </trkpt>
      <trkpt lat="47.21483" lon="-1.52369">
        <ele>53</ele>
        <time>2021-08-31T17:23:15.000Z</time>
      </trkpt>
      <trkpt lat="47.21477" lon="-1.52388">
        <ele>53</ele>
        <time>2021-08-31T17:23:17.000Z</time>
      </trkpt>
      <trkpt lat="47.21471" lon="-1.52406">
        <ele>53</ele>
        <time>2021-08-31T17:23:19.000Z</time>
      </trkpt>
      <trkpt lat="47.21466" lon="-1.52425">
        <ele>53</ele>
        <time>2021-08-31T17:23:21.000Z</time>
      </trkpt>
      <trkpt lat="47.2146" lon="-1.52443">
        <ele>53</ele>
        <time>2021-08-31T17:23:23.000Z</time>
      </trkpt>
      <trkpt lat="47.21453" lon="-1.52462">
        <ele>53</ele>
        <time>2021-08-31T17:23:25.000Z</time>
      </trkpt>
      <trkpt lat="47.21447" lon="-1.52481">
        <ele>53</ele>
        <time>2021-08-31T17:23:27.000Z</time>
      </trkpt>
      <trkpt lat="47.21441" lon="-1.525">
        <ele>53</ele>
        <time>2021-08-31T17:23:29.000Z</time>
      </trkpt>
      <trkpt lat="47.21436" lon="-1.52517">
        <ele>54</ele>
        <time>2021-08-31T17:23:31.000Z</time>
      </trkpt>
      <trkpt lat="47.2143" lon="-1.52536">
        <ele>54</ele>
        <time>2021-08-31T17:23:33.000Z</time>
      </trkpt>
      <trkpt lat="47.21424" lon="-1.52554">
        <ele>54</ele>
        <time>2021-08-31T17:23:35.000Z</time>
      </trkpt>
      <trkpt lat="47.21418" lon="-1.52571">
        <ele>54</ele>
        <time>2021-08-31T17:23:37.000Z</time>
      </trkpt>
      <trkpt lat="47.21412" lon="-1.52589">
        <ele>54</ele>
        <time>2021-08-31T17:23:39.000Z</time>
      </trkpt>
      <trkpt lat="47.21406" lon="-1.52607">
        <ele>54</ele>
        <time>2021-08-31T17:23:41.000Z</time>
      </trkpt>
      <trkpt lat="47.214" lon="-1.52626">
        <ele>54</ele>
        <time>2021-08-31T17:23:43.000Z</time>
      </trkpt>
      <trkpt lat="47.21395" lon="-1.52643">
        <ele>54</ele>
        <time>2021-08-31T17:23:45.000Z</time>
      </trkpt>
      <trkpt lat="47.21389" lon="-1.5266">
        <ele>54</ele>
        <time>2021-08-31T17:23:47.000Z</time>
      </trkpt>
      <trkpt lat="47.21385" lon="-1.5268">
        <ele>54</ele>
        <time>2021-08-31T17:23:49.000Z</time>
      </trkpt>
      <trkpt lat="47.21381" lon="-1.52699">
        <ele>54</ele>
        <time>2021-08-31T17:23:51.000Z</time>
      </trkpt>
      <trkpt lat="47.21377" lon="-1.52718">
        <ele>55</ele>
        <time>2021-08-31T17:23:53.000Z</time>
      </trkpt>
      <trkpt lat="47.21372" lon="-1.52736">
        <ele>54</ele>
        <time>2021-08-31T17:23:55.000Z</time>
      </trkpt>
      <trkpt lat="47.21369" lon="-1.52756">
        <ele>53</ele>
        <time>2021-08-31T17:23:57.000Z</time>
      </trkpt>
      <trkpt lat="47.21367" lon="-1.52776">
        <ele>54</ele>
        <time>2021-08-31T17:23:59.000Z</time>
      </trkpt>
      <trkpt lat="47.21364" lon="-1.52795">
        <ele>54</ele>
        <time>2021-08-31T17:24:01.000Z</time>
      </trkpt>
      <trkpt lat="47.21362" lon="-1.52812">
        <ele>55</ele>
        <time>2021-08-31T17:24:03.000Z</time>
      </trkpt>
      <trkpt lat="47.21358" lon="-1.5283">
        <ele>54</ele>
        <time>2021-08-31T17:24:05.000Z</time>
      </trkpt>
      <trkpt lat="47.21353" lon="-1.52849">
        <ele>54</ele>
        <time>2021-08-31T17:24:07.000Z</time>
      </trkpt>
      <trkpt lat="47.2135" lon="-1.52868">
        <ele>54</ele>
        <time>2021-08-31T17:24:09.000Z</time>
      </trkpt>
      <trkpt lat="47.21346" lon="-1.52887">
        <ele>53</ele>
        <time>2021-08-31T17:24:11.000Z</time>
      </trkpt>
      <trkpt lat="47.21343" lon="-1.52907">
        <ele>53</ele>
        <time>2021-08-31T17:24:13.000Z</time>
      </trkpt>
      <trkpt lat="47.2134" lon="-1.52927">
        <ele>53</ele>
        <time>2021-08-31T17:24:15.000Z</time>
      </trkpt>
      <trkpt lat="47.21338" lon="-1.52947">
        <ele>52</ele>
        <time>2021-08-31T17:24:17.000Z</time>
      </trkpt>
      <trkpt lat="47.21336" lon="-1.52966">
        <ele>53</ele>
        <time>2021-08-31T17:24:19.000Z</time>
      </trkpt>
      <trkpt lat="47.21334" lon="-1.52987">
        <ele>53</ele>
        <time>2021-08-31T17:24:21.000Z</time>
      </trkpt>
      <trkpt lat="47.21333" lon="-1.53007">
        <ele>53</ele>
        <time>2021-08-31T17:24:23.000Z</time>
      </trkpt>
      <trkpt lat="47.21331" lon="-1.53026">
        <ele>53</ele>
        <time>2021-08-31T17:24:25.000Z</time>
      </trkpt>
      <trkpt lat="47.21329" lon="-1.53045">
        <ele>54</ele>
        <time>2021-08-31T17:24:27.000Z</time>
      </trkpt>
      <trkpt lat="47.21328" lon="-1.53065">
        <ele>54</ele>
        <time>2021-08-31T17:24:29.000Z</time>
      </trkpt>
      <trkpt lat="47.21327" lon="-1.53084">
        <ele>54</ele>
        <time>2021-08-31T17:24:31.000Z</time>
      </trkpt>
      <trkpt lat="47.21326" lon="-1.53102">
        <ele>54</ele>
        <time>2021-08-31T17:24:33.000Z</time>
      </trkpt>
      <trkpt lat="47.21323" lon="-1.5312">
        <ele>54</ele>
        <time>2021-08-31T17:24:35.000Z</time>
      </trkpt>
      <trkpt lat="47.21319" lon="-1.5314">
        <ele>54</ele>
        <time>2021-08-31T17:24:37.000Z</time>
      </trkpt>
      <trkpt lat="47.21316" lon="-1.53161">
        <ele>54</ele>
        <time>2021-08-31T17:24:39.000Z</time>
      </trkpt>
      <trkpt lat="47.21313" lon="-1.53181">
        <ele>54</ele>
        <time>2021-08-31T17:24:41.000Z</time>
      </trkpt>
      <trkpt lat="47.21311" lon="-1.53201">
        <ele>53</ele>
        <time>2021-08-31T17:24:43.000Z</time>
      </trkpt>
      <trkpt lat="47.2131" lon="-1.53222">
        <ele>53</ele>
        <time>2021-08-31T17:24:45.000Z</time>
      </trkpt>
      <trkpt lat="47.21309" lon="-1.53242">
        <ele>53</ele>
        <time>2021-08-31T17:24:47.000Z</time>
      </trkpt>
      <trkpt lat="47.21309" lon="-1.53263">
        <ele>53</ele>
        <time>2021-08-31T17:24:49.000Z</time>
      </trkpt>
      <trkpt lat="47.21309" lon="-1.53283">
        <ele>53</ele>
        <time>2021-08-31T17:24:51.000Z</time>
      </trkpt>
      <trkpt lat="47.21308" lon="-1.53303">
        <ele>53</ele>
        <time>2021-08-31T17:24:53.000Z</time>
      </trkpt>
      <trkpt lat="47.21306" lon="-1.53323">
        <ele>53</ele>
        <time>2021-08-31T17:24:55.000Z</time>
      </trkpt>
      <trkpt lat="47.21303" lon="-1.53343">
        <ele>52</ele>
        <time>2021-08-31T17:24:57.000Z</time>
      </trkpt>
      <trkpt lat="47.21299" lon="-1.53362">
        <ele>52</ele>
        <time>2021-08-31T17:24:59.000Z</time>
      </trkpt>
      <trkpt lat="47.21296" lon="-1.53382">
        <ele>52</ele>
        <time>2021-08-31T17:25:01.000Z</time>
      </trkpt>
      <trkpt lat="47.21293" lon="-1.53403">
        <ele>53</ele>
        <time>2021-08-31T17:25:03.000Z</time>
      </trkpt>
      <trkpt lat="47.21291" lon="-1.53423">
        <ele>53</ele>
        <time>2021-08-31T17:25:05.000Z</time>
      </trkpt>
      <trkpt lat="47.21289" lon="-1.53442">
        <ele>53</ele>
        <time>2021-08-31T17:25:07.000Z</time>
      </trkpt>
      <trkpt lat="47.21291" lon="-1.53461">
        <ele>53</ele>
        <time>2021-08-31T17:25:09.000Z</time>
      </trkpt>
      <trkpt lat="47.21297" lon="-1.53477">
        <ele>53</ele>
        <time>2021-08-31T17:25:11.000Z</time>
      </trkpt>
      <trkpt lat="47.213" lon="-1.53495">
        <ele>53</ele>
        <time>2021-08-31T17:25:13.000Z</time>
      </trkpt>
      <trkpt lat="47.213" lon="-1.53515">
        <ele>54</ele>
        <time>2021-08-31T17:25:15.000Z</time>
      </trkpt>
      <trkpt lat="47.213" lon="-1.53533">
        <ele>54</ele>
        <time>2021-08-31T17:25:17.000Z</time>
      </trkpt>
      <trkpt lat="47.21301" lon="-1.53553">
        <ele>55</ele>
        <time>2021-08-31T17:25:19.000Z</time>
      </trkpt>
      <trkpt lat="47.21303" lon="-1.53573">
        <ele>55</ele>
        <time>2021-08-31T17:25:21.000Z</time>
      </trkpt>
      <trkpt lat="47.21304" lon="-1.53592">
        <ele>55</ele>
        <time>2021-08-31T17:25:23.000Z</time>
      </trkpt>
      <trkpt lat="47.21304" lon="-1.53609">
        <ele>55</ele>
        <time>2021-08-31T17:25:25.000Z</time>
      </trkpt>
      <trkpt lat="47.213" lon="-1.53624">
        <ele>55</ele>
        <time>2021-08-31T17:25:27.000Z</time>
      </trkpt>
      <trkpt lat="47.21294" lon="-1.53637">
        <ele>55</ele>
        <time>2021-08-31T17:25:30.000Z</time>
      </trkpt>
      <trkpt lat="47.21293" lon="-1.53652">
        <ele>55</ele>
        <time>2021-08-31T17:25:33.000Z</time>
      </trkpt>
      <trkpt lat="47.21292" lon="-1.53666">
        <ele>55</ele>
        <time>2021-08-31T17:25:35.000Z</time>
      </trkpt>
      <trkpt lat="47.21297" lon="-1.53678">
        <ele>56</ele>
        <time>2021-08-31T17:25:37.000Z</time>
      </trkpt>
      <trkpt lat="47.21303" lon="-1.53693">
        <ele>57</ele>
        <time>2021-08-31T17:25:39.000Z</time>
      </trkpt>
      <trkpt lat="47.21308" lon="-1.53713">
        <ele>58</ele>
        <time>2021-08-31T17:25:41.000Z</time>
      </trkpt>
      <trkpt lat="47.21312" lon="-1.53733">
        <ele>59</ele>
        <time>2021-08-31T17:25:43.000Z</time>
      </trkpt>
      <trkpt lat="47.21316" lon="-1.53752">
        <ele>59</ele>
        <time>2021-08-31T17:25:45.000Z</time>
      </trkpt>
      <trkpt lat="47.2132" lon="-1.53772">
        <ele>60</ele>
        <time>2021-08-31T17:25:47.000Z</time>
      </trkpt>
      <trkpt lat="47.21323" lon="-1.53792">
        <ele>60</ele>
        <time>2021-08-31T17:25:49.000Z</time>
      </trkpt>
      <trkpt lat="47.21325" lon="-1.53813">
        <ele>60</ele>
        <time>2021-08-31T17:25:51.000Z</time>
      </trkpt>
      <trkpt lat="47.21326" lon="-1.53832">
        <ele>60</ele>
        <time>2021-08-31T17:25:53.000Z</time>
      </trkpt>
      <trkpt lat="47.21327" lon="-1.5385">
        <ele>60</ele>
        <time>2021-08-31T17:25:55.000Z</time>
      </trkpt>
      <trkpt lat="47.2133" lon="-1.53867">
        <ele>61</ele>
        <time>2021-08-31T17:25:57.000Z</time>
      </trkpt>
      <trkpt lat="47.21334" lon="-1.53884">
        <ele>62</ele>
        <time>2021-08-31T17:25:59.000Z</time>
      </trkpt>
      <trkpt lat="47.21338" lon="-1.53901">
        <ele>62</ele>
        <time>2021-08-31T17:26:01.000Z</time>
      </trkpt>
      <trkpt lat="47.21345" lon="-1.53913">
        <ele>60</ele>
        <time>2021-08-31T17:26:03.000Z</time>
      </trkpt>
      <trkpt lat="47.21354" lon="-1.53926">
        <ele>59</ele>
        <time>2021-08-31T17:26:05.000Z</time>
      </trkpt>
      <trkpt lat="47.21366" lon="-1.53931">
        <ele>58</ele>
        <time>2021-08-31T17:26:07.000Z</time>
      </trkpt>
      <trkpt lat="47.21379" lon="-1.53936">
        <ele>58</ele>
        <time>2021-08-31T17:26:09.000Z</time>
      </trkpt>
      <trkpt lat="47.21386" lon="-1.5395">
        <ele>58</ele>
        <time>2021-08-31T17:26:11.000Z</time>
      </trkpt>
      <trkpt lat="47.21385" lon="-1.53972">
        <ele>57</ele>
        <time>2021-08-31T17:26:13.000Z</time>
      </trkpt>
      <trkpt lat="47.21382" lon="-1.53992">
        <ele>55</ele>
        <time>2021-08-31T17:26:15.000Z</time>
      </trkpt>
      <trkpt lat="47.2139" lon="-1.54012">
        <ele>54</ele>
        <time>2021-08-31T17:26:17.000Z</time>
      </trkpt>
      <trkpt lat="47.21401" lon="-1.54027">
        <ele>55</ele>
        <time>2021-08-31T17:26:19.000Z</time>
      </trkpt>
      <trkpt lat="47.21411" lon="-1.54042">
        <ele>55</ele>
        <time>2021-08-31T17:26:21.000Z</time>
      </trkpt>
      <trkpt lat="47.21421" lon="-1.54056">
        <ele>54</ele>
        <time>2021-08-31T17:26:23.000Z</time>
      </trkpt>
      <trkpt lat="47.21432" lon="-1.54071">
        <ele>53</ele>
        <time>2021-08-31T17:26:25.000Z</time>
      </trkpt>
      <trkpt lat="47.21441" lon="-1.54086">
        <ele>53</ele>
        <time>2021-08-31T17:26:27.000Z</time>
      </trkpt>
      <trkpt lat="47.21451" lon="-1.54102">
        <ele>54</ele>
        <time>2021-08-31T17:26:29.000Z</time>
      </trkpt>
      <trkpt lat="47.21461" lon="-1.54118">
        <ele>53</ele>
        <time>2021-08-31T17:26:31.000Z</time>
      </trkpt>
      <trkpt lat="47.21472" lon="-1.54134">
        <ele>53</ele>
        <time>2021-08-31T17:26:33.000Z</time>
      </trkpt>
      <trkpt lat="47.21483" lon="-1.54149">
        <ele>53</ele>
        <time>2021-08-31T17:26:35.000Z</time>
      </trkpt>
      <trkpt lat="47.21494" lon="-1.54165">
        <ele>53</ele>
        <time>2021-08-31T17:26:37.000Z</time>
      </trkpt>
      <trkpt lat="47.21505" lon="-1.54178">
        <ele>52</ele>
        <time>2021-08-31T17:26:39.000Z</time>
      </trkpt>
      <trkpt lat="47.21515" lon="-1.54195">
        <ele>51</ele>
        <time>2021-08-31T17:26:41.000Z</time>
      </trkpt>
      <trkpt lat="47.21529" lon="-1.54219">
        <ele>51</ele>
        <time>2021-08-31T17:26:44.000Z</time>
      </trkpt>
      <trkpt lat="47.21538" lon="-1.54232">
        <ele>52</ele>
        <time>2021-08-31T17:26:46.000Z</time>
      </trkpt>
      <trkpt lat="47.2155" lon="-1.5425">
        <ele>52</ele>
        <time>2021-08-31T17:26:49.000Z</time>
      </trkpt>
      <trkpt lat="47.21558" lon="-1.54264">
        <ele>52</ele>
        <time>2021-08-31T17:26:51.000Z</time>
      </trkpt>
      <trkpt lat="47.21572" lon="-1.54287">
        <ele>52</ele>
        <time>2021-08-31T17:26:54.000Z</time>
      </trkpt>
      <trkpt lat="47.21583" lon="-1.54303">
        <ele>52</ele>
        <time>2021-08-31T17:26:56.000Z</time>
      </trkpt>
      <trkpt lat="47.21593" lon="-1.5432">
        <ele>53</ele>
        <time>2021-08-31T17:26:58.000Z</time>
      </trkpt>
      <trkpt lat="47.21603" lon="-1.54336">
        <ele>52</ele>
        <time>2021-08-31T17:27:00.000Z</time>
      </trkpt>
      <trkpt lat="47.21616" lon="-1.5436">
        <ele>52</ele>
        <time>2021-08-31T17:27:03.000Z</time>
      </trkpt>
      <trkpt lat="47.21621" lon="-1.54381">
        <ele>52</ele>
        <time>2021-08-31T17:27:05.000Z</time>
      </trkpt>
      <trkpt lat="47.2162" lon="-1.54406">
        <ele>52</ele>
        <time>2021-08-31T17:27:07.000Z</time>
      </trkpt>
      <trkpt lat="47.21614" lon="-1.54429">
        <ele>53</ele>
        <time>2021-08-31T17:27:09.000Z</time>
      </trkpt>
      <trkpt lat="47.21612" lon="-1.54452">
        <ele>54</ele>
        <time>2021-08-31T17:27:11.000Z</time>
      </trkpt>
      <trkpt lat="47.21609" lon="-1.54473">
        <ele>55</ele>
        <time>2021-08-31T17:27:13.000Z</time>
      </trkpt>
      <trkpt lat="47.21605" lon="-1.54493">
        <ele>56</ele>
        <time>2021-08-31T17:27:15.000Z</time>
      </trkpt>
      <trkpt lat="47.216" lon="-1.54512">
        <ele>56</ele>
        <time>2021-08-31T17:27:17.000Z</time>
      </trkpt>
      <trkpt lat="47.21594" lon="-1.54531">
        <ele>56</ele>
        <time>2021-08-31T17:27:19.000Z</time>
      </trkpt>
      <trkpt lat="47.21587" lon="-1.54549">
        <ele>56</ele>
        <time>2021-08-31T17:27:21.000Z</time>
      </trkpt>
      <trkpt lat="47.2158" lon="-1.54566">
        <ele>56</ele>
        <time>2021-08-31T17:27:23.000Z</time>
      </trkpt>
      <trkpt lat="47.21574" lon="-1.54585">
        <ele>56</ele>
        <time>2021-08-31T17:27:25.000Z</time>
      </trkpt>
      <trkpt lat="47.21567" lon="-1.54605">
        <ele>56</ele>
        <time>2021-08-31T17:27:27.000Z</time>
      </trkpt>
      <trkpt lat="47.2156" lon="-1.54625">
        <ele>56</ele>
        <time>2021-08-31T17:27:29.000Z</time>
      </trkpt>
      <trkpt lat="47.21551" lon="-1.54643">
        <ele>55</ele>
        <time>2021-08-31T17:27:31.000Z</time>
      </trkpt>
      <trkpt lat="47.21544" lon="-1.5466">
        <ele>55</ele>
        <time>2021-08-31T17:27:33.000Z</time>
      </trkpt>
      <trkpt lat="47.21539" lon="-1.54677">
        <ele>56</ele>
        <time>2021-08-31T17:27:35.000Z</time>
      </trkpt>
      <trkpt lat="47.21533" lon="-1.54697">
        <ele>56</ele>
        <time>2021-08-31T17:27:37.000Z</time>
      </trkpt>
      <trkpt lat="47.21527" lon="-1.54716">
        <ele>56</ele>
        <time>2021-08-31T17:27:39.000Z</time>
      </trkpt>
      <trkpt lat="47.21519" lon="-1.54735">
        <ele>56</ele>
        <time>2021-08-31T17:27:41.000Z</time>
      </trkpt>
      <trkpt lat="47.21513" lon="-1.54752">
        <ele>57</ele>
        <time>2021-08-31T17:27:43.000Z</time>
      </trkpt>
      <trkpt lat="47.21506" lon="-1.54769">
        <ele>58</ele>
        <time>2021-08-31T17:27:45.000Z</time>
      </trkpt>
      <trkpt lat="47.21498" lon="-1.54787">
        <ele>58</ele>
        <time>2021-08-31T17:27:47.000Z</time>
      </trkpt>
      <trkpt lat="47.21491" lon="-1.54805">
        <ele>58</ele>
        <time>2021-08-31T17:27:49.000Z</time>
      </trkpt>
      <trkpt lat="47.21483" lon="-1.54823">
        <ele>57</ele>
        <time>2021-08-31T17:27:51.000Z</time>
      </trkpt>
      <trkpt lat="47.21475" lon="-1.5484">
        <ele>58</ele>
        <time>2021-08-31T17:27:53.000Z</time>
      </trkpt>
      <trkpt lat="47.21466" lon="-1.54856">
        <ele>58</ele>
        <time>2021-08-31T17:27:55.000Z</time>
      </trkpt>
      <trkpt lat="47.21456" lon="-1.54874">
        <ele>58</ele>
        <time>2021-08-31T17:27:57.000Z</time>
      </trkpt>
      <trkpt lat="47.21447" lon="-1.54894">
        <ele>58</ele>
        <time>2021-08-31T17:27:59.000Z</time>
      </trkpt>
      <trkpt lat="47.21438" lon="-1.54915">
        <ele>58</ele>
        <time>2021-08-31T17:28:01.000Z</time>
      </trkpt>
      <trkpt lat="47.21428" lon="-1.54935">
        <ele>57</ele>
        <time>2021-08-31T17:28:03.000Z</time>
      </trkpt>
      <trkpt lat="47.21418" lon="-1.54956">
        <ele>57</ele>
        <time>2021-08-31T17:28:05.000Z</time>
      </trkpt>
      <trkpt lat="47.21409" lon="-1.54976">
        <ele>57</ele>
        <time>2021-08-31T17:28:07.000Z</time>
      </trkpt>
      <trkpt lat="47.214" lon="-1.54996">
        <ele>56</ele>
        <time>2021-08-31T17:28:09.000Z</time>
      </trkpt>
      <trkpt lat="47.21392" lon="-1.55016">
        <ele>56</ele>
        <time>2021-08-31T17:28:11.000Z</time>
      </trkpt>
      <trkpt lat="47.21385" lon="-1.55038">
        <ele>56</ele>
        <time>2021-08-31T17:28:13.000Z</time>
      </trkpt>
      <trkpt lat="47.21377" lon="-1.55058">
        <ele>56</ele>
        <time>2021-08-31T17:28:15.000Z</time>
      </trkpt>
      <trkpt lat="47.21368" lon="-1.55077">
        <ele>56</ele>
        <time>2021-08-31T17:28:17.000Z</time>
      </trkpt>
      <trkpt lat="47.2136" lon="-1.55096">
        <ele>57</ele>
        <time>2021-08-31T17:28:19.000Z</time>
      </trkpt>
      <trkpt lat="47.21353" lon="-1.55115">
        <ele>57</ele>
        <time>2021-08-31T17:28:21.000Z</time>
      </trkpt>
      <trkpt lat="47.21345" lon="-1.55134">
        <ele>58</ele>
        <time>2021-08-31T17:28:23.000Z</time>
      </trkpt>
      <trkpt lat="47.21338" lon="-1.55154">
        <ele>58</ele>
        <time>2021-08-31T17:28:25.000Z</time>
      </trkpt>
      <trkpt lat="47.2133" lon="-1.55173">
        <ele>57</ele>
        <time>2021-08-31T17:28:27.000Z</time>
      </trkpt>
      <trkpt lat="47.21322" lon="-1.55191">
        <ele>57</ele>
        <time>2021-08-31T17:28:29.000Z</time>
      </trkpt>
      <trkpt lat="47.21314" lon="-1.5521">
        <ele>56</ele>
        <time>2021-08-31T17:28:31.000Z</time>
      </trkpt>
      <trkpt lat="47.21308" lon="-1.55228">
        <ele>56</ele>
        <time>2021-08-31T17:28:33.000Z</time>
      </trkpt>
      <trkpt lat="47.21301" lon="-1.55246">
        <ele>56</ele>
        <time>2021-08-31T17:28:35.000Z</time>
      </trkpt>
      <trkpt lat="47.21294" lon="-1.55264">
        <ele>56</ele>
        <time>2021-08-31T17:28:37.000Z</time>
      </trkpt>
      <trkpt lat="47.21287" lon="-1.55281">
        <ele>57</ele>
        <time>2021-08-31T17:28:39.000Z</time>
      </trkpt>
      <trkpt lat="47.2128" lon="-1.55293">
        <ele>57</ele>
        <time>2021-08-31T17:28:41.000Z</time>
      </trkpt>
      <trkpt lat="47.21269" lon="-1.55293">
        <ele>57</ele>
        <time>2021-08-31T17:28:43.000Z</time>
      </trkpt>
      <trkpt lat="47.21259" lon="-1.55298">
        <ele>57</ele>
        <time>2021-08-31T17:28:45.000Z</time>
      </trkpt>
      <trkpt lat="47.21256" lon="-1.55311">
        <ele>58</ele>
        <time>2021-08-31T17:28:47.000Z</time>
      </trkpt>
      <trkpt lat="47.21257" lon="-1.55326">
        <ele>58</ele>
        <time>2021-08-31T17:28:50.000Z</time>
      </trkpt>
      <trkpt lat="47.21263" lon="-1.55336">
        <ele>58</ele>
        <time>2021-08-31T17:28:54.000Z</time>
      </trkpt>
      <trkpt lat="47.2127" lon="-1.55346">
        <ele>58</ele>
        <time>2021-08-31T17:28:58.000Z</time>
      </trkpt>
      <trkpt lat="47.21282" lon="-1.55353">
        <ele>56</ele>
        <time>2021-08-31T17:29:08.000Z</time>
      </trkpt>
      <trkpt lat="47.21287" lon="-1.55369">
        <ele>56</ele>
        <time>2021-08-31T17:29:10.000Z</time>
      </trkpt>
      <trkpt lat="47.2128" lon="-1.55384">
        <ele>56</ele>
        <time>2021-08-31T17:29:12.000Z</time>
      </trkpt>
      <trkpt lat="47.2127" lon="-1.55398">
        <ele>56</ele>
        <time>2021-08-31T17:29:14.000Z</time>
      </trkpt>
      <trkpt lat="47.21261" lon="-1.55416">
        <ele>57</ele>
        <time>2021-08-31T17:29:16.000Z</time>
      </trkpt>
      <trkpt lat="47.21249" lon="-1.55435">
        <ele>56</ele>
        <time>2021-08-31T17:29:18.000Z</time>
      </trkpt>
      <trkpt lat="47.21236" lon="-1.55454">
        <ele>57</ele>
        <time>2021-08-31T17:29:20.000Z</time>
      </trkpt>
      <trkpt lat="47.2123" lon="-1.55466">
        <ele>57</ele>
        <time>2021-08-31T17:29:21.000Z</time>
      </trkpt>
      <trkpt lat="47.21224" lon="-1.55478">
        <ele>57</ele>
        <time>2021-08-31T17:29:22.000Z</time>
      </trkpt>
      <trkpt lat="47.21219" lon="-1.5549">
        <ele>57</ele>
        <time>2021-08-31T17:29:23.000Z</time>
      </trkpt>
      <trkpt lat="47.21216" lon="-1.55503">
        <ele>57</ele>
        <time>2021-08-31T17:29:24.000Z</time>
      </trkpt>
      <trkpt lat="47.21212" lon="-1.55518">
        <ele>57</ele>
        <time>2021-08-31T17:29:25.000Z</time>
      </trkpt>
      <trkpt lat="47.21209" lon="-1.55533">
        <ele>57</ele>
        <time>2021-08-31T17:29:26.000Z</time>
      </trkpt>
      <trkpt lat="47.21204" lon="-1.55548">
        <ele>56</ele>
        <time>2021-08-31T17:29:27.000Z</time>
      </trkpt>
      <trkpt lat="47.21199" lon="-1.55562">
        <ele>56</ele>
        <time>2021-08-31T17:29:28.000Z</time>
      </trkpt>
      <trkpt lat="47.21195" lon="-1.55576">
        <ele>56</ele>
        <time>2021-08-31T17:29:29.000Z</time>
      </trkpt>
      <trkpt lat="47.2119" lon="-1.5559">
        <ele>56</ele>
        <time>2021-08-31T17:29:30.000Z</time>
      </trkpt>
      <trkpt lat="47.21186" lon="-1.55603">
        <ele>56</ele>
        <time>2021-08-31T17:29:31.000Z</time>
      </trkpt>
      <trkpt lat="47.21181" lon="-1.55617">
        <ele>56</ele>
        <time>2021-08-31T17:29:32.000Z</time>
      </trkpt>
      <trkpt lat="47.21177" lon="-1.5563">
        <ele>56</ele>
        <time>2021-08-31T17:29:33.000Z</time>
      </trkpt>
      <trkpt lat="47.21173" lon="-1.55643">
        <ele>56</ele>
        <time>2021-08-31T17:29:34.000Z</time>
      </trkpt>
      <trkpt lat="47.21171" lon="-1.55656">
        <ele>56</ele>
        <time>2021-08-31T17:29:35.000Z</time>
      </trkpt>
      <trkpt lat="47.21172" lon="-1.5567">
        <ele>56</ele>
        <time>2021-08-31T17:29:36.000Z</time>
      </trkpt>
      <trkpt lat="47.21175" lon="-1.55683">
        <ele>56</ele>
        <time>2021-08-31T17:29:37.000Z</time>
      </trkpt>
      <trkpt lat="47.21176" lon="-1.55709">
        <ele>54</ele>
        <time>2021-08-31T17:29:39.000Z</time>
      </trkpt>
      <trkpt lat="47.21171" lon="-1.55721">
        <ele>54</ele>
        <time>2021-08-31T17:29:40.000Z</time>
      </trkpt>
      <trkpt lat="47.21166" lon="-1.55733">
        <ele>54</ele>
        <time>2021-08-31T17:29:41.000Z</time>
      </trkpt>
      <trkpt lat="47.21161" lon="-1.55745">
        <ele>54</ele>
        <time>2021-08-31T17:29:42.000Z</time>
      </trkpt>
      <trkpt lat="47.21157" lon="-1.55757">
        <ele>54</ele>
        <time>2021-08-31T17:29:43.000Z</time>
      </trkpt>
      <trkpt lat="47.21149" lon="-1.5578">
        <ele>54</ele>
        <time>2021-08-31T17:29:45.000Z</time>
      </trkpt>
      <trkpt lat="47.21144" lon="-1.55804">
        <ele>54</ele>
        <time>2021-08-31T17:29:47.000Z</time>
      </trkpt>
      <trkpt lat="47.21141" lon="-1.55829">
        <ele>54</ele>
        <time>2021-08-31T17:29:49.000Z</time>
      </trkpt>
      <trkpt lat="47.21141" lon="-1.55854">
        <ele>54</ele>
        <time>2021-08-31T17:29:51.000Z</time>
      </trkpt>
      <trkpt lat="47.21146" lon="-1.55876">
        <ele>54</ele>
        <time>2021-08-31T17:29:53.000Z</time>
      </trkpt>
      <trkpt lat="47.21147" lon="-1.55899">
        <ele>54</ele>
        <time>2021-08-31T17:29:55.000Z</time>
      </trkpt>
      <trkpt lat="47.21134" lon="-1.55911">
        <ele>54</ele>
        <time>2021-08-31T17:29:57.000Z</time>
      </trkpt>
      <trkpt lat="47.21118" lon="-1.55919">
        <ele>54</ele>
        <time>2021-08-31T17:29:59.000Z</time>
      </trkpt>
      <trkpt lat="47.21104" lon="-1.55934">
        <ele>53</ele>
        <time>2021-08-31T17:30:01.000Z</time>
      </trkpt>
      <trkpt lat="47.2109" lon="-1.5595">
        <ele>53</ele>
        <time>2021-08-31T17:30:03.000Z</time>
      </trkpt>
      <trkpt lat="47.21078" lon="-1.55967">
        <ele>53</ele>
        <time>2021-08-31T17:30:05.000Z</time>
      </trkpt>
      <trkpt lat="47.21068" lon="-1.55985">
        <ele>53</ele>
        <time>2021-08-31T17:30:07.000Z</time>
      </trkpt>
      <trkpt lat="47.21062" lon="-1.56004">
        <ele>53</ele>
        <time>2021-08-31T17:30:09.000Z</time>
      </trkpt>
      <trkpt lat="47.21055" lon="-1.56019">
        <ele>54</ele>
        <time>2021-08-31T17:30:11.000Z</time>
      </trkpt>
      <trkpt lat="47.21047" lon="-1.56035">
        <ele>54</ele>
        <time>2021-08-31T17:30:13.000Z</time>
      </trkpt>
      <trkpt lat="47.21039" lon="-1.56054">
        <ele>55</ele>
        <time>2021-08-31T17:30:15.000Z</time>
      </trkpt>
      <trkpt lat="47.21032" lon="-1.56072">
        <ele>55</ele>
        <time>2021-08-31T17:30:17.000Z</time>
      </trkpt>
      <trkpt lat="47.21026" lon="-1.5609">
        <ele>56</ele>
        <time>2021-08-31T17:30:19.000Z</time>
      </trkpt>
      <trkpt lat="47.21019" lon="-1.56106">
        <ele>55</ele>
        <time>2021-08-31T17:30:21.000Z</time>
      </trkpt>
      <trkpt lat="47.21013" lon="-1.56121">
        <ele>55</ele>
        <time>2021-08-31T17:30:23.000Z</time>
      </trkpt>
      <trkpt lat="47.21009" lon="-1.56133">
        <ele>55</ele>
        <time>2021-08-31T17:30:25.000Z</time>
      </trkpt>
      <trkpt lat="47.21004" lon="-1.56147">
        <ele>55</ele>
        <time>2021-08-31T17:30:29.000Z</time>
      </trkpt>
      <trkpt lat="47.20999" lon="-1.56163">
        <ele>56</ele>
        <time>2021-08-31T17:30:32.000Z</time>
      </trkpt>
      <trkpt lat="47.20987" lon="-1.56171">
        <ele>55</ele>
        <time>2021-08-31T17:30:36.000Z</time>
      </trkpt>
      <trkpt lat="47.20975" lon="-1.56169">
        <ele>55</ele>
        <time>2021-08-31T17:30:38.000Z</time>
      </trkpt>
      <trkpt lat="47.20963" lon="-1.56165">
        <ele>56</ele>
        <time>2021-08-31T17:30:40.000Z</time>
      </trkpt>
      <trkpt lat="47.2095" lon="-1.56161">
        <ele>57</ele>
        <time>2021-08-31T17:30:42.000Z</time>
      </trkpt>
      <trkpt lat="47.20936" lon="-1.56157">
        <ele>58</ele>
        <time>2021-08-31T17:30:44.000Z</time>
      </trkpt>
      <trkpt lat="47.20924" lon="-1.56157">
        <ele>58</ele>
        <time>2021-08-31T17:30:46.000Z</time>
      </trkpt>
      <trkpt lat="47.20912" lon="-1.56153">
        <ele>58</ele>
        <time>2021-08-31T17:30:48.000Z</time>
      </trkpt>
      <trkpt lat="47.209" lon="-1.56151">
        <ele>57</ele>
        <time>2021-08-31T17:30:50.000Z</time>
      </trkpt>
      <trkpt lat="47.20889" lon="-1.56148">
        <ele>57</ele>
        <time>2021-08-31T17:30:52.000Z</time>
      </trkpt>
      <trkpt lat="47.20878" lon="-1.56145">
        <ele>56</ele>
        <time>2021-08-31T17:30:54.000Z</time>
      </trkpt>
      <trkpt lat="47.20865" lon="-1.56143">
        <ele>55</ele>
        <time>2021-08-31T17:30:56.000Z</time>
      </trkpt>
      <trkpt lat="47.20853" lon="-1.56141">
        <ele>55</ele>
        <time>2021-08-31T17:30:58.000Z</time>
      </trkpt>
      <trkpt lat="47.20841" lon="-1.56141">
        <ele>54</ele>
        <time>2021-08-31T17:31:00.000Z</time>
      </trkpt>
      <trkpt lat="47.20834" lon="-1.56156">
        <ele>54</ele>
        <time>2021-08-31T17:31:02.000Z</time>
      </trkpt>
      <trkpt lat="47.20834" lon="-1.56175">
        <ele>54</ele>
        <time>2021-08-31T17:31:04.000Z</time>
      </trkpt>
      <trkpt lat="47.20832" lon="-1.56195">
        <ele>55</ele>
        <time>2021-08-31T17:31:06.000Z</time>
      </trkpt>
      <trkpt lat="47.20832" lon="-1.56216">
        <ele>55</ele>
        <time>2021-08-31T17:31:08.000Z</time>
      </trkpt>
      <trkpt lat="47.20831" lon="-1.56237">
        <ele>54</ele>
        <time>2021-08-31T17:31:10.000Z</time>
      </trkpt>
      <trkpt lat="47.20832" lon="-1.56257">
        <ele>54</ele>
        <time>2021-08-31T17:31:12.000Z</time>
      </trkpt>
      <trkpt lat="47.20833" lon="-1.56278">
        <ele>55</ele>
        <time>2021-08-31T17:31:14.000Z</time>
      </trkpt>
      <trkpt lat="47.20832" lon="-1.56299">
        <ele>55</ele>
        <time>2021-08-31T17:31:16.000Z</time>
      </trkpt>
      <trkpt lat="47.20828" lon="-1.56319">
        <ele>55</ele>
        <time>2021-08-31T17:31:18.000Z</time>
      </trkpt>
      <trkpt lat="47.20824" lon="-1.56339">
        <ele>56</ele>
        <time>2021-08-31T17:31:20.000Z</time>
      </trkpt>
      <trkpt lat="47.20819" lon="-1.56359">
        <ele>56</ele>
        <time>2021-08-31T17:31:22.000Z</time>
      </trkpt>
      <trkpt lat="47.20814" lon="-1.56379">
        <ele>56</ele>
        <time>2021-08-31T17:31:24.000Z</time>
      </trkpt>
      <trkpt lat="47.2081" lon="-1.56399">
        <ele>57</ele>
        <time>2021-08-31T17:31:26.000Z</time>
      </trkpt>
      <trkpt lat="47.20805" lon="-1.56418">
        <ele>57</ele>
        <time>2021-08-31T17:31:28.000Z</time>
      </trkpt>
      <trkpt lat="47.208" lon="-1.56437">
        <ele>57</ele>
        <time>2021-08-31T17:31:30.000Z</time>
      </trkpt>
      <trkpt lat="47.20794" lon="-1.56455">
        <ele>57</ele>
        <time>2021-08-31T17:31:32.000Z</time>
      </trkpt>
      <trkpt lat="47.20789" lon="-1.56473">
        <ele>57</ele>
        <time>2021-08-31T17:31:34.000Z</time>
      </trkpt>
      <trkpt lat="47.20785" lon="-1.56491">
        <ele>58</ele>
        <time>2021-08-31T17:31:36.000Z</time>
      </trkpt>
      <trkpt lat="47.20781" lon="-1.56507">
        <ele>57</ele>
        <time>2021-08-31T17:31:38.000Z</time>
      </trkpt>
      <trkpt lat="47.20771" lon="-1.56514">
        <ele>56</ele>
        <time>2021-08-31T17:31:40.000Z</time>
      </trkpt>
      <trkpt lat="47.20764" lon="-1.56508">
        <ele>56</ele>
        <time>2021-08-31T17:31:42.000Z</time>
      </trkpt>
      <trkpt lat="47.20754" lon="-1.56498">
        <ele>56</ele>
        <time>2021-08-31T17:31:45.000Z</time>
      </trkpt>
      <trkpt lat="47.20745" lon="-1.5649">
        <ele>57</ele>
        <time>2021-08-31T17:31:48.000Z</time>
      </trkpt>
      <trkpt lat="47.20737" lon="-1.565">
        <ele>57</ele>
        <time>2021-08-31T17:31:55.000Z</time>
      </trkpt>
      <trkpt lat="47.20725" lon="-1.56496">
        <ele>60</ele>
        <time>2021-08-31T17:31:59.000Z</time>
      </trkpt>
      <trkpt lat="47.20713" lon="-1.56486">
        <ele>59</ele>
        <time>2021-08-31T17:32:01.000Z</time>
      </trkpt>
      <trkpt lat="47.207" lon="-1.56475">
        <ele>57</ele>
        <time>2021-08-31T17:32:03.000Z</time>
      </trkpt>
      <trkpt lat="47.20686" lon="-1.56464">
        <ele>58</ele>
        <time>2021-08-31T17:32:05.000Z</time>
      </trkpt>
      <trkpt lat="47.20672" lon="-1.56451">
        <ele>56</ele>
        <time>2021-08-31T17:32:07.000Z</time>
      </trkpt>
      <trkpt lat="47.20659" lon="-1.56439">
        <ele>55</ele>
        <time>2021-08-31T17:32:09.000Z</time>
      </trkpt>
      <trkpt lat="47.20647" lon="-1.56429">
        <ele>55</ele>
        <time>2021-08-31T17:32:11.000Z</time>
      </trkpt>
      <trkpt lat="47.20635" lon="-1.56416">
        <ele>56</ele>
        <time>2021-08-31T17:32:13.000Z</time>
      </trkpt>
      <trkpt lat="47.20624" lon="-1.56406">
        <ele>58</ele>
        <time>2021-08-31T17:32:15.000Z</time>
      </trkpt>
      <trkpt lat="47.20613" lon="-1.56395">
        <ele>59</ele>
        <time>2021-08-31T17:32:17.000Z</time>
      </trkpt>
      <trkpt lat="47.206" lon="-1.56385">
        <ele>59</ele>
        <time>2021-08-31T17:32:19.000Z</time>
      </trkpt>
      <trkpt lat="47.20588" lon="-1.56376">
        <ele>60</ele>
        <time>2021-08-31T17:32:21.000Z</time>
      </trkpt>
      <trkpt lat="47.20576" lon="-1.56364">
        <ele>60</ele>
        <time>2021-08-31T17:32:23.000Z</time>
      </trkpt>
      <trkpt lat="47.20565" lon="-1.56352">
        <ele>62</ele>
        <time>2021-08-31T17:32:25.000Z</time>
      </trkpt>
      <trkpt lat="47.20553" lon="-1.56341">
        <ele>61</ele>
        <time>2021-08-31T17:32:27.000Z</time>
      </trkpt>
      <trkpt lat="47.20541" lon="-1.56331">
        <ele>62</ele>
        <time>2021-08-31T17:32:29.000Z</time>
      </trkpt>
      <trkpt lat="47.20529" lon="-1.56322">
        <ele>63</ele>
        <time>2021-08-31T17:32:31.000Z</time>
      </trkpt>
      <trkpt lat="47.20518" lon="-1.56311">
        <ele>63</ele>
        <time>2021-08-31T17:32:33.000Z</time>
      </trkpt>
      <trkpt lat="47.20507" lon="-1.56301">
        <ele>63</ele>
        <time>2021-08-31T17:32:35.000Z</time>
      </trkpt>
      <trkpt lat="47.20497" lon="-1.56294">
        <ele>63</ele>
        <time>2021-08-31T17:32:37.000Z</time>
      </trkpt>
      <trkpt lat="47.20487" lon="-1.56285">
        <ele>61</ele>
        <time>2021-08-31T17:32:39.000Z</time>
      </trkpt>
      <trkpt lat="47.20476" lon="-1.56277">
        <ele>60</ele>
        <time>2021-08-31T17:32:41.000Z</time>
      </trkpt>
      <trkpt lat="47.20466" lon="-1.56267">
        <ele>60</ele>
        <time>2021-08-31T17:32:44.000Z</time>
      </trkpt>
      <trkpt lat="47.20454" lon="-1.56261">
        <ele>62</ele>
        <time>2021-08-31T17:32:50.000Z</time>
      </trkpt>
      <trkpt lat="47.20444" lon="-1.56254">
        <ele>62</ele>
        <time>2021-08-31T17:32:52.000Z</time>
      </trkpt>
      <trkpt lat="47.20436" lon="-1.5624">
        <ele>63</ele>
        <time>2021-08-31T17:32:54.000Z</time>
      </trkpt>
      <trkpt lat="47.20428" lon="-1.56227">
        <ele>62</ele>
        <time>2021-08-31T17:32:56.000Z</time>
      </trkpt>
      <trkpt lat="47.20416" lon="-1.56219">
        <ele>60</ele>
        <time>2021-08-31T17:32:58.000Z</time>
      </trkpt>
      <trkpt lat="47.20404" lon="-1.5621">
        <ele>58</ele>
        <time>2021-08-31T17:33:00.000Z</time>
      </trkpt>
      <trkpt lat="47.20391" lon="-1.56201">
        <ele>56</ele>
        <time>2021-08-31T17:33:02.000Z</time>
      </trkpt>
      <trkpt lat="47.20383" lon="-1.56184">
        <ele>55</ele>
        <time>2021-08-31T17:33:04.000Z</time>
      </trkpt>
      <trkpt lat="47.20383" lon="-1.56164">
        <ele>55</ele>
        <time>2021-08-31T17:33:06.000Z</time>
      </trkpt>
      <trkpt lat="47.20385" lon="-1.56144">
        <ele>54</ele>
        <time>2021-08-31T17:33:08.000Z</time>
      </trkpt>
      <trkpt lat="47.20387" lon="-1.56124">
        <ele>53</ele>
        <time>2021-08-31T17:33:10.000Z</time>
      </trkpt>
      <trkpt lat="47.20389" lon="-1.56103">
        <ele>52</ele>
        <time>2021-08-31T17:33:12.000Z</time>
      </trkpt>
      <trkpt lat="47.20391" lon="-1.56083">
        <ele>52</ele>
        <time>2021-08-31T17:33:14.000Z</time>
      </trkpt>
      <trkpt lat="47.20394" lon="-1.56062">
        <ele>52</ele>
        <time>2021-08-31T17:33:16.000Z</time>
      </trkpt>
      <trkpt lat="47.20397" lon="-1.56043">
        <ele>54</ele>
        <time>2021-08-31T17:33:18.000Z</time>
      </trkpt>
      <trkpt lat="47.20398" lon="-1.56022">
        <ele>55</ele>
        <time>2021-08-31T17:33:20.000Z</time>
      </trkpt>
      <trkpt lat="47.204" lon="-1.56003">
        <ele>54</ele>
        <time>2021-08-31T17:33:22.000Z</time>
      </trkpt>
      <trkpt lat="47.20401" lon="-1.55985">
        <ele>54</ele>
        <time>2021-08-31T17:33:24.000Z</time>
      </trkpt>
      <trkpt lat="47.20402" lon="-1.55965">
        <ele>53</ele>
        <time>2021-08-31T17:33:26.000Z</time>
      </trkpt>
      <trkpt lat="47.20404" lon="-1.55945">
        <ele>53</ele>
        <time>2021-08-31T17:33:28.000Z</time>
      </trkpt>
      <trkpt lat="47.20406" lon="-1.55926">
        <ele>53</ele>
        <time>2021-08-31T17:33:30.000Z</time>
      </trkpt>
      <trkpt lat="47.20407" lon="-1.55907">
        <ele>53</ele>
        <time>2021-08-31T17:33:32.000Z</time>
      </trkpt>
      <trkpt lat="47.20409" lon="-1.55888">
        <ele>53</ele>
        <time>2021-08-31T17:33:34.000Z</time>
      </trkpt>
      <trkpt lat="47.20411" lon="-1.55869">
        <ele>53</ele>
        <time>2021-08-31T17:33:36.000Z</time>
      </trkpt>
      <trkpt lat="47.20413" lon="-1.5585">
        <ele>53</ele>
        <time>2021-08-31T17:33:38.000Z</time>
      </trkpt>
      <trkpt lat="47.20415" lon="-1.55831">
        <ele>53</ele>
        <time>2021-08-31T17:33:40.000Z</time>
      </trkpt>
      <trkpt lat="47.20417" lon="-1.55811">
        <ele>52</ele>
        <time>2021-08-31T17:33:42.000Z</time>
      </trkpt>
      <trkpt lat="47.20419" lon="-1.55791">
        <ele>52</ele>
        <time>2021-08-31T17:33:44.000Z</time>
      </trkpt>
      <trkpt lat="47.20421" lon="-1.55771">
        <ele>52</ele>
        <time>2021-08-31T17:33:46.000Z</time>
      </trkpt>
      <trkpt lat="47.20423" lon="-1.55752">
        <ele>52</ele>
        <time>2021-08-31T17:33:48.000Z</time>
      </trkpt>
      <trkpt lat="47.20425" lon="-1.55732">
        <ele>52</ele>
        <time>2021-08-31T17:33:50.000Z</time>
      </trkpt>
      <trkpt lat="47.20427" lon="-1.55712">
        <ele>52</ele>
        <time>2021-08-31T17:33:52.000Z</time>
      </trkpt>
      <trkpt lat="47.2043" lon="-1.55693">
        <ele>52</ele>
        <time>2021-08-31T17:33:54.000Z</time>
      </trkpt>
      <trkpt lat="47.20433" lon="-1.55674">
        <ele>52</ele>
        <time>2021-08-31T17:33:56.000Z</time>
      </trkpt>
      <trkpt lat="47.20435" lon="-1.55654">
        <ele>52</ele>
        <time>2021-08-31T17:33:58.000Z</time>
      </trkpt>
      <trkpt lat="47.20437" lon="-1.55634">
        <ele>52</ele>
        <time>2021-08-31T17:34:00.000Z</time>
      </trkpt>
      <trkpt lat="47.20438" lon="-1.55616">
        <ele>52</ele>
        <time>2021-08-31T17:34:02.000Z</time>
      </trkpt>
      <trkpt lat="47.2044" lon="-1.55597">
        <ele>52</ele>
        <time>2021-08-31T17:34:04.000Z</time>
      </trkpt>
      <trkpt lat="47.20441" lon="-1.55578">
        <ele>52</ele>
        <time>2021-08-31T17:34:06.000Z</time>
      </trkpt>
      <trkpt lat="47.20444" lon="-1.55559">
        <ele>52</ele>
        <time>2021-08-31T17:34:08.000Z</time>
      </trkpt>
      <trkpt lat="47.20447" lon="-1.55538">
        <ele>52</ele>
        <time>2021-08-31T17:34:10.000Z</time>
      </trkpt>
      <trkpt lat="47.20449" lon="-1.55518">
        <ele>52</ele>
        <time>2021-08-31T17:34:12.000Z</time>
      </trkpt>
      <trkpt lat="47.20449" lon="-1.55495">
        <ele>52</ele>
        <time>2021-08-31T17:34:14.000Z</time>
      </trkpt>
      <trkpt lat="47.20449" lon="-1.55473">
        <ele>52</ele>
        <time>2021-08-31T17:34:16.000Z</time>
      </trkpt>
      <trkpt lat="47.2045" lon="-1.55453">
        <ele>52</ele>
        <time>2021-08-31T17:34:18.000Z</time>
      </trkpt>
      <trkpt lat="47.2045" lon="-1.55433">
        <ele>52</ele>
        <time>2021-08-31T17:34:20.000Z</time>
      </trkpt>
      <trkpt lat="47.2045" lon="-1.55413">
        <ele>52</ele>
        <time>2021-08-31T17:34:22.000Z</time>
      </trkpt>
      <trkpt lat="47.20451" lon="-1.55392">
        <ele>52</ele>
        <time>2021-08-31T17:34:24.000Z</time>
      </trkpt>
      <trkpt lat="47.20453" lon="-1.55373">
        <ele>51</ele>
        <time>2021-08-31T17:34:26.000Z</time>
      </trkpt>
      <trkpt lat="47.20457" lon="-1.55355">
        <ele>51</ele>
        <time>2021-08-31T17:34:28.000Z</time>
      </trkpt>
      <trkpt lat="47.20461" lon="-1.55338">
        <ele>51</ele>
        <time>2021-08-31T17:34:30.000Z</time>
      </trkpt>
      <trkpt lat="47.20459" lon="-1.5532">
        <ele>51</ele>
        <time>2021-08-31T17:34:32.000Z</time>
      </trkpt>
      <trkpt lat="47.20452" lon="-1.55302">
        <ele>50</ele>
        <time>2021-08-31T17:34:34.000Z</time>
      </trkpt>
      <trkpt lat="47.20445" lon="-1.55286">
        <ele>50</ele>
        <time>2021-08-31T17:34:36.000Z</time>
      </trkpt>
      <trkpt lat="47.20437" lon="-1.5527">
        <ele>50</ele>
        <time>2021-08-31T17:34:38.000Z</time>
      </trkpt>
      <trkpt lat="47.2043" lon="-1.55253">
        <ele>49</ele>
        <time>2021-08-31T17:34:40.000Z</time>
      </trkpt>
      <trkpt lat="47.20422" lon="-1.55236">
        <ele>50</ele>
        <time>2021-08-31T17:34:42.000Z</time>
      </trkpt>
      <trkpt lat="47.20415" lon="-1.5522">
        <ele>50</ele>
        <time>2021-08-31T17:34:44.000Z</time>
      </trkpt>
      <trkpt lat="47.20409" lon="-1.55205">
        <ele>51</ele>
        <time>2021-08-31T17:34:46.000Z</time>
      </trkpt>
      <trkpt lat="47.20401" lon="-1.55192">
        <ele>53</ele>
        <time>2021-08-31T17:34:48.000Z</time>
      </trkpt>
      <trkpt lat="47.20392" lon="-1.55181">
        <ele>55</ele>
        <time>2021-08-31T17:34:50.000Z</time>
      </trkpt>
      <trkpt lat="47.20378" lon="-1.55181">
        <ele>56</ele>
        <time>2021-08-31T17:34:52.000Z</time>
      </trkpt>
      <trkpt lat="47.20366" lon="-1.55194">
        <ele>56</ele>
        <time>2021-08-31T17:34:54.000Z</time>
      </trkpt>
      <trkpt lat="47.20355" lon="-1.55208">
        <ele>57</ele>
        <time>2021-08-31T17:34:56.000Z</time>
      </trkpt>
      <trkpt lat="47.20344" lon="-1.55223">
        <ele>56</ele>
        <time>2021-08-31T17:34:58.000Z</time>
      </trkpt>
      <trkpt lat="47.20333" lon="-1.55237">
        <ele>56</ele>
        <time>2021-08-31T17:35:00.000Z</time>
      </trkpt>
      <trkpt lat="47.20321" lon="-1.55252">
        <ele>57</ele>
        <time>2021-08-31T17:35:02.000Z</time>
      </trkpt>
      <trkpt lat="47.2031" lon="-1.55266">
        <ele>58</ele>
        <time>2021-08-31T17:35:04.000Z</time>
      </trkpt>
      <trkpt lat="47.203" lon="-1.55279">
        <ele>57</ele>
        <time>2021-08-31T17:35:06.000Z</time>
      </trkpt>
      <trkpt lat="47.2029" lon="-1.55294">
        <ele>57</ele>
        <time>2021-08-31T17:35:08.000Z</time>
      </trkpt>
      <trkpt lat="47.20279" lon="-1.55308">
        <ele>57</ele>
        <time>2021-08-31T17:35:10.000Z</time>
      </trkpt>
      <trkpt lat="47.20268" lon="-1.55321">
        <ele>57</ele>
        <time>2021-08-31T17:35:12.000Z</time>
      </trkpt>
      <trkpt lat="47.20258" lon="-1.55336">
        <ele>57</ele>
        <time>2021-08-31T17:35:14.000Z</time>
      </trkpt>
      <trkpt lat="47.20248" lon="-1.55351">
        <ele>56</ele>
        <time>2021-08-31T17:35:16.000Z</time>
      </trkpt>
      <trkpt lat="47.20238" lon="-1.55364">
        <ele>57</ele>
        <time>2021-08-31T17:35:18.000Z</time>
      </trkpt>
      <trkpt lat="47.20228" lon="-1.55378">
        <ele>56</ele>
        <time>2021-08-31T17:35:20.000Z</time>
      </trkpt>
      <trkpt lat="47.20217" lon="-1.55391">
        <ele>55</ele>
        <time>2021-08-31T17:35:22.000Z</time>
      </trkpt>
      <trkpt lat="47.20207" lon="-1.55403">
        <ele>55</ele>
        <time>2021-08-31T17:35:24.000Z</time>
      </trkpt>
      <trkpt lat="47.20199" lon="-1.55414">
        <ele>56</ele>
        <time>2021-08-31T17:35:26.000Z</time>
      </trkpt>
      <trkpt lat="47.20194" lon="-1.55427">
        <ele>56</ele>
        <time>2021-08-31T17:35:28.000Z</time>
      </trkpt>
      <trkpt lat="47.20187" lon="-1.55444">
        <ele>55</ele>
        <time>2021-08-31T17:35:30.000Z</time>
      </trkpt>
      <trkpt lat="47.20182" lon="-1.55462">
        <ele>54</ele>
        <time>2021-08-31T17:35:32.000Z</time>
      </trkpt>
      <trkpt lat="47.20177" lon="-1.55483">
        <ele>54</ele>
        <time>2021-08-31T17:35:34.000Z</time>
      </trkpt>
      <trkpt lat="47.20176" lon="-1.55503">
        <ele>53</ele>
        <time>2021-08-31T17:35:36.000Z</time>
      </trkpt>
      <trkpt lat="47.20182" lon="-1.55521">
        <ele>54</ele>
        <time>2021-08-31T17:35:38.000Z</time>
      </trkpt>
      <trkpt lat="47.20193" lon="-1.55534">
        <ele>54</ele>
        <time>2021-08-31T17:35:40.000Z</time>
      </trkpt>
      <trkpt lat="47.20205" lon="-1.55541">
        <ele>54</ele>
        <time>2021-08-31T17:35:42.000Z</time>
      </trkpt>
      <trkpt lat="47.20218" lon="-1.55547">
        <ele>53</ele>
        <time>2021-08-31T17:35:44.000Z</time>
      </trkpt>
      <trkpt lat="47.20231" lon="-1.55553">
        <ele>54</ele>
        <time>2021-08-31T17:35:46.000Z</time>
      </trkpt>
      <trkpt lat="47.20245" lon="-1.55558">
        <ele>54</ele>
        <time>2021-08-31T17:35:48.000Z</time>
      </trkpt>
      <trkpt lat="47.20258" lon="-1.55563">
        <ele>54</ele>
        <time>2021-08-31T17:35:50.000Z</time>
      </trkpt>
      <trkpt lat="47.20271" lon="-1.55566">
        <ele>54</ele>
        <time>2021-08-31T17:35:52.000Z</time>
      </trkpt>
      <trkpt lat="47.20283" lon="-1.55571">
        <ele>54</ele>
        <time>2021-08-31T17:35:54.000Z</time>
      </trkpt>
      <trkpt lat="47.20293" lon="-1.55581">
        <ele>54</ele>
        <time>2021-08-31T17:35:56.000Z</time>
      </trkpt>
      <trkpt lat="47.20298" lon="-1.55599">
        <ele>54</ele>
        <time>2021-08-31T17:35:58.000Z</time>
      </trkpt>
      <trkpt lat="47.20295" lon="-1.55619">
        <ele>54</ele>
        <time>2021-08-31T17:36:00.000Z</time>
      </trkpt>
      <trkpt lat="47.20293" lon="-1.55639">
        <ele>54</ele>
        <time>2021-08-31T17:36:02.000Z</time>
      </trkpt>
      <trkpt lat="47.20291" lon="-1.55659">
        <ele>54</ele>
        <time>2021-08-31T17:36:04.000Z</time>
      </trkpt>
      <trkpt lat="47.20289" lon="-1.5568">
        <ele>54</ele>
        <time>2021-08-31T17:36:06.000Z</time>
      </trkpt>
      <trkpt lat="47.20286" lon="-1.55701">
        <ele>54</ele>
        <time>2021-08-31T17:36:08.000Z</time>
      </trkpt>
      <trkpt lat="47.20284" lon="-1.55721">
        <ele>54</ele>
        <time>2021-08-31T17:36:10.000Z</time>
      </trkpt>
      <trkpt lat="47.20282" lon="-1.55742">
        <ele>54</ele>
        <time>2021-08-31T17:36:12.000Z</time>
      </trkpt>
      <trkpt lat="47.2028" lon="-1.55763">
        <ele>54</ele>
        <time>2021-08-31T17:36:14.000Z</time>
      </trkpt>
      <trkpt lat="47.20278" lon="-1.55784">
        <ele>54</ele>
        <time>2021-08-31T17:36:16.000Z</time>
      </trkpt>
      <trkpt lat="47.20275" lon="-1.55805">
        <ele>54</ele>
        <time>2021-08-31T17:36:18.000Z</time>
      </trkpt>
      <trkpt lat="47.20273" lon="-1.55827">
        <ele>54</ele>
        <time>2021-08-31T17:36:20.000Z</time>
      </trkpt>
      <trkpt lat="47.2027" lon="-1.55848">
        <ele>54</ele>
        <time>2021-08-31T17:36:22.000Z</time>
      </trkpt>
      <trkpt lat="47.20268" lon="-1.5587">
        <ele>54</ele>
        <time>2021-08-31T17:36:24.000Z</time>
      </trkpt>
      <trkpt lat="47.20266" lon="-1.55892">
        <ele>54</ele>
        <time>2021-08-31T17:36:26.000Z</time>
      </trkpt>
      <trkpt lat="47.20264" lon="-1.55912">
        <ele>55</ele>
        <time>2021-08-31T17:36:28.000Z</time>
      </trkpt>
      <trkpt lat="47.20263" lon="-1.55933">
        <ele>54</ele>
        <time>2021-08-31T17:36:30.000Z</time>
      </trkpt>
      <trkpt lat="47.2026" lon="-1.55953">
        <ele>54</ele>
        <time>2021-08-31T17:36:32.000Z</time>
      </trkpt>
      <trkpt lat="47.20258" lon="-1.55974">
        <ele>54</ele>
        <time>2021-08-31T17:36:34.000Z</time>
      </trkpt>
      <trkpt lat="47.20256" lon="-1.55994">
        <ele>54</ele>
        <time>2021-08-31T17:36:36.000Z</time>
      </trkpt>
      <trkpt lat="47.20254" lon="-1.56014">
        <ele>54</ele>
        <time>2021-08-31T17:36:38.000Z</time>
      </trkpt>
      <trkpt lat="47.20252" lon="-1.56035">
        <ele>54</ele>
        <time>2021-08-31T17:36:40.000Z</time>
      </trkpt>
      <trkpt lat="47.20249" lon="-1.56055">
        <ele>54</ele>
        <time>2021-08-31T17:36:42.000Z</time>
      </trkpt>
      <trkpt lat="47.20247" lon="-1.56075">
        <ele>54</ele>
        <time>2021-08-31T17:36:44.000Z</time>
      </trkpt>
      <trkpt lat="47.20245" lon="-1.56096">
        <ele>54</ele>
        <time>2021-08-31T17:36:46.000Z</time>
      </trkpt>
      <trkpt lat="47.20242" lon="-1.56118">
        <ele>54</ele>
        <time>2021-08-31T17:36:48.000Z</time>
      </trkpt>
      <trkpt lat="47.20236" lon="-1.56137">
        <ele>53</ele>
        <time>2021-08-31T17:36:50.000Z</time>
      </trkpt>
      <trkpt lat="47.20226" lon="-1.56152">
        <ele>53</ele>
        <time>2021-08-31T17:36:52.000Z</time>
      </trkpt>
      <trkpt lat="47.20215" lon="-1.56164">
        <ele>53</ele>
        <time>2021-08-31T17:36:54.000Z</time>
      </trkpt>
      <trkpt lat="47.20201" lon="-1.56173">
        <ele>53</ele>
        <time>2021-08-31T17:36:56.000Z</time>
      </trkpt>
      <trkpt lat="47.20189" lon="-1.56182">
        <ele>52</ele>
        <time>2021-08-31T17:36:58.000Z</time>
      </trkpt>
      <trkpt lat="47.20178" lon="-1.56194">
        <ele>52</ele>
        <time>2021-08-31T17:37:00.000Z</time>
      </trkpt>
      <trkpt lat="47.20164" lon="-1.56195">
        <ele>51</ele>
        <time>2021-08-31T17:37:02.000Z</time>
      </trkpt>
      <trkpt lat="47.20152" lon="-1.56185">
        <ele>52</ele>
        <time>2021-08-31T17:37:04.000Z</time>
      </trkpt>
      <trkpt lat="47.20139" lon="-1.56183">
        <ele>52</ele>
        <time>2021-08-31T17:37:06.000Z</time>
      </trkpt>
      <trkpt lat="47.20126" lon="-1.56182">
        <ele>52</ele>
        <time>2021-08-31T17:37:08.000Z</time>
      </trkpt>
      <trkpt lat="47.20111" lon="-1.56181">
        <ele>52</ele>
        <time>2021-08-31T17:37:10.000Z</time>
      </trkpt>
      <trkpt lat="47.20098" lon="-1.56181">
        <ele>53</ele>
        <time>2021-08-31T17:37:12.000Z</time>
      </trkpt>
      <trkpt lat="47.20084" lon="-1.56181">
        <ele>53</ele>
        <time>2021-08-31T17:37:14.000Z</time>
      </trkpt>
      <trkpt lat="47.2007" lon="-1.5618">
        <ele>53</ele>
        <time>2021-08-31T17:37:16.000Z</time>
      </trkpt>
      <trkpt lat="47.20056" lon="-1.56181">
        <ele>53</ele>
        <time>2021-08-31T17:37:18.000Z</time>
      </trkpt>
      <trkpt lat="47.20042" lon="-1.56181">
        <ele>53</ele>
        <time>2021-08-31T17:37:20.000Z</time>
      </trkpt>
      <trkpt lat="47.20029" lon="-1.56182">
        <ele>54</ele>
        <time>2021-08-31T17:37:22.000Z</time>
      </trkpt>
      <trkpt lat="47.20016" lon="-1.56183">
        <ele>54</ele>
        <time>2021-08-31T17:37:24.000Z</time>
      </trkpt>
      <trkpt lat="47.20003" lon="-1.56188">
        <ele>54</ele>
        <time>2021-08-31T17:37:26.000Z</time>
      </trkpt>
      <trkpt lat="47.19992" lon="-1.56193">
        <ele>53</ele>
        <time>2021-08-31T17:37:28.000Z</time>
      </trkpt>
      <trkpt lat="47.19979" lon="-1.56189">
        <ele>53</ele>
        <time>2021-08-31T17:37:31.000Z</time>
      </trkpt>
      <trkpt lat="47.19974" lon="-1.56176">
        <ele>53</ele>
        <time>2021-08-31T17:37:33.000Z</time>
      </trkpt>
      <trkpt lat="47.19967" lon="-1.56166">
        <ele>53</ele>
        <time>2021-08-31T17:37:35.000Z</time>
      </trkpt>
      <trkpt lat="47.19955" lon="-1.56166">
        <ele>53</ele>
        <time>2021-08-31T17:37:37.000Z</time>
      </trkpt>
      <trkpt lat="47.19941" lon="-1.5617">
        <ele>54</ele>
        <time>2021-08-31T17:37:39.000Z</time>
      </trkpt>
      <trkpt lat="47.19927" lon="-1.56172">
        <ele>54</ele>
        <time>2021-08-31T17:37:41.000Z</time>
      </trkpt>
      <trkpt lat="47.19913" lon="-1.56175">
        <ele>55</ele>
        <time>2021-08-31T17:37:43.000Z</time>
      </trkpt>
      <trkpt lat="47.19899" lon="-1.56177">
        <ele>55</ele>
        <time>2021-08-31T17:37:45.000Z</time>
      </trkpt>
      <trkpt lat="47.19884" lon="-1.56181">
        <ele>56</ele>
        <time>2021-08-31T17:37:47.000Z</time>
      </trkpt>
      <trkpt lat="47.1987" lon="-1.56184">
        <ele>57</ele>
        <time>2021-08-31T17:37:49.000Z</time>
      </trkpt>
      <trkpt lat="47.19856" lon="-1.56187">
        <ele>57</ele>
        <time>2021-08-31T17:37:51.000Z</time>
      </trkpt>
      <trkpt lat="47.19842" lon="-1.56189">
        <ele>58</ele>
        <time>2021-08-31T17:37:53.000Z</time>
      </trkpt>
      <trkpt lat="47.19829" lon="-1.56191">
        <ele>58</ele>
        <time>2021-08-31T17:37:55.000Z</time>
      </trkpt>
      <trkpt lat="47.19815" lon="-1.56193">
        <ele>58</ele>
        <time>2021-08-31T17:37:57.000Z</time>
      </trkpt>
      <trkpt lat="47.19801" lon="-1.56195">
        <ele>58</ele>
        <time>2021-08-31T17:37:59.000Z</time>
      </trkpt>
      <trkpt lat="47.19788" lon="-1.56198">
        <ele>58</ele>
        <time>2021-08-31T17:38:01.000Z</time>
      </trkpt>
      <trkpt lat="47.19775" lon="-1.56201">
        <ele>58</ele>
        <time>2021-08-31T17:38:03.000Z</time>
      </trkpt>
      <trkpt lat="47.19761" lon="-1.56203">
        <ele>57</ele>
        <time>2021-08-31T17:38:05.000Z</time>
      </trkpt>
      <trkpt lat="47.19747" lon="-1.56206">
        <ele>57</ele>
        <time>2021-08-31T17:38:07.000Z</time>
      </trkpt>
      <trkpt lat="47.19732" lon="-1.56209">
        <ele>56</ele>
        <time>2021-08-31T17:38:09.000Z</time>
      </trkpt>
      <trkpt lat="47.19716" lon="-1.56212">
        <ele>56</ele>
        <time>2021-08-31T17:38:11.000Z</time>
      </trkpt>
      <trkpt lat="47.19699" lon="-1.56214">
        <ele>55</ele>
        <time>2021-08-31T17:38:13.000Z</time>
      </trkpt>
      <trkpt lat="47.19681" lon="-1.56218">
        <ele>54</ele>
        <time>2021-08-31T17:38:15.000Z</time>
      </trkpt>
      <trkpt lat="47.19663" lon="-1.56224">
        <ele>53</ele>
        <time>2021-08-31T17:38:17.000Z</time>
      </trkpt>
      <trkpt lat="47.19654" lon="-1.56226">
        <ele>52</ele>
        <time>2021-08-31T17:38:18.000Z</time>
      </trkpt>
      <trkpt lat="47.19645" lon="-1.56229">
        <ele>52</ele>
        <time>2021-08-31T17:38:19.000Z</time>
      </trkpt>
      <trkpt lat="47.19635" lon="-1.56249">
        <ele>52</ele>
        <time>2021-08-31T17:38:21.000Z</time>
      </trkpt>
      <trkpt lat="47.19633" lon="-1.56273">
        <ele>52</ele>
        <time>2021-08-31T17:38:23.000Z</time>
      </trkpt>
      <trkpt lat="47.19632" lon="-1.56297">
        <ele>52</ele>
        <time>2021-08-31T17:38:25.000Z</time>
      </trkpt>
      <trkpt lat="47.19631" lon="-1.56321">
        <ele>52</ele>
        <time>2021-08-31T17:38:27.000Z</time>
      </trkpt>
      <trkpt lat="47.1963" lon="-1.56345">
        <ele>52</ele>
        <time>2021-08-31T17:38:29.000Z</time>
      </trkpt>
      <trkpt lat="47.1963" lon="-1.56369">
        <ele>52</ele>
        <time>2021-08-31T17:38:31.000Z</time>
      </trkpt>
      <trkpt lat="47.1963" lon="-1.56393">
        <ele>52</ele>
        <time>2021-08-31T17:38:33.000Z</time>
      </trkpt>
      <trkpt lat="47.19631" lon="-1.56416">
        <ele>52</ele>
        <time>2021-08-31T17:38:35.000Z</time>
      </trkpt>
      <trkpt lat="47.19632" lon="-1.5644">
        <ele>52</ele>
        <time>2021-08-31T17:38:37.000Z</time>
      </trkpt>
      <trkpt lat="47.19633" lon="-1.56463">
        <ele>52</ele>
        <time>2021-08-31T17:38:39.000Z</time>
      </trkpt>
      <trkpt lat="47.19633" lon="-1.56487">
        <ele>51</ele>
        <time>2021-08-31T17:38:41.000Z</time>
      </trkpt>
      <trkpt lat="47.19633" lon="-1.5651">
        <ele>51</ele>
        <time>2021-08-31T17:38:43.000Z</time>
      </trkpt>
      <trkpt lat="47.19633" lon="-1.56532">
        <ele>52</ele>
        <time>2021-08-31T17:38:45.000Z</time>
      </trkpt>
      <trkpt lat="47.19632" lon="-1.56556">
        <ele>52</ele>
        <time>2021-08-31T17:38:47.000Z</time>
      </trkpt>
      <trkpt lat="47.1963" lon="-1.5658">
        <ele>52</ele>
        <time>2021-08-31T17:38:49.000Z</time>
      </trkpt>
      <trkpt lat="47.19629" lon="-1.56604">
        <ele>52</ele>
        <time>2021-08-31T17:38:51.000Z</time>
      </trkpt>
      <trkpt lat="47.19629" lon="-1.56627">
        <ele>53</ele>
        <time>2021-08-31T17:38:53.000Z</time>
      </trkpt>
      <trkpt lat="47.19628" lon="-1.56649">
        <ele>53</ele>
        <time>2021-08-31T17:38:55.000Z</time>
      </trkpt>
      <trkpt lat="47.19627" lon="-1.56671">
        <ele>54</ele>
        <time>2021-08-31T17:38:57.000Z</time>
      </trkpt>
      <trkpt lat="47.19626" lon="-1.56693">
        <ele>54</ele>
        <time>2021-08-31T17:38:59.000Z</time>
      </trkpt>
      <trkpt lat="47.19624" lon="-1.56716">
        <ele>53</ele>
        <time>2021-08-31T17:39:01.000Z</time>
      </trkpt>
      <trkpt lat="47.19622" lon="-1.56738">
        <ele>53</ele>
        <time>2021-08-31T17:39:03.000Z</time>
      </trkpt>
      <trkpt lat="47.19621" lon="-1.5676">
        <ele>53</ele>
        <time>2021-08-31T17:39:05.000Z</time>
      </trkpt>
      <trkpt lat="47.19619" lon="-1.56781">
        <ele>53</ele>
        <time>2021-08-31T17:39:07.000Z</time>
      </trkpt>
      <trkpt lat="47.19617" lon="-1.56804">
        <ele>53</ele>
        <time>2021-08-31T17:39:09.000Z</time>
      </trkpt>
      <trkpt lat="47.19615" lon="-1.56826">
        <ele>53</ele>
        <time>2021-08-31T17:39:11.000Z</time>
      </trkpt>
      <trkpt lat="47.19614" lon="-1.56849">
        <ele>53</ele>
        <time>2021-08-31T17:39:13.000Z</time>
      </trkpt>
      <trkpt lat="47.19613" lon="-1.56871">
        <ele>54</ele>
        <time>2021-08-31T17:39:15.000Z</time>
      </trkpt>
      <trkpt lat="47.19611" lon="-1.56894">
        <ele>54</ele>
        <time>2021-08-31T17:39:17.000Z</time>
      </trkpt>
      <trkpt lat="47.1961" lon="-1.56917">
        <ele>53</ele>
        <time>2021-08-31T17:39:19.000Z</time>
      </trkpt>
      <trkpt lat="47.19609" lon="-1.56939">
        <ele>54</ele>
        <time>2021-08-31T17:39:21.000Z</time>
      </trkpt>
      <trkpt lat="47.19608" lon="-1.56962">
        <ele>54</ele>
        <time>2021-08-31T17:39:23.000Z</time>
      </trkpt>
      <trkpt lat="47.19606" lon="-1.56985">
        <ele>54</ele>
        <time>2021-08-31T17:39:25.000Z</time>
      </trkpt>
      <trkpt lat="47.19605" lon="-1.57008">
        <ele>54</ele>
        <time>2021-08-31T17:39:27.000Z</time>
      </trkpt>
      <trkpt lat="47.19604" lon="-1.57031">
        <ele>54</ele>
        <time>2021-08-31T17:39:29.000Z</time>
      </trkpt>
      <trkpt lat="47.19602" lon="-1.57054">
        <ele>54</ele>
        <time>2021-08-31T17:39:31.000Z</time>
      </trkpt>
      <trkpt lat="47.19601" lon="-1.57076">
        <ele>54</ele>
        <time>2021-08-31T17:39:33.000Z</time>
      </trkpt>
      <trkpt lat="47.196" lon="-1.57099">
        <ele>54</ele>
        <time>2021-08-31T17:39:35.000Z</time>
      </trkpt>
      <trkpt lat="47.19599" lon="-1.5712">
        <ele>54</ele>
        <time>2021-08-31T17:39:37.000Z</time>
      </trkpt>
      <trkpt lat="47.19597" lon="-1.57142">
        <ele>54</ele>
        <time>2021-08-31T17:39:39.000Z</time>
      </trkpt>
      <trkpt lat="47.19596" lon="-1.57162">
        <ele>53</ele>
        <time>2021-08-31T17:39:41.000Z</time>
      </trkpt>
      <trkpt lat="47.19595" lon="-1.57183">
        <ele>54</ele>
        <time>2021-08-31T17:39:43.000Z</time>
      </trkpt>
      <trkpt lat="47.19594" lon="-1.57203">
        <ele>54</ele>
        <time>2021-08-31T17:39:45.000Z</time>
      </trkpt>
      <trkpt lat="47.19593" lon="-1.57225">
        <ele>54</ele>
        <time>2021-08-31T17:39:47.000Z</time>
      </trkpt>
      <trkpt lat="47.19591" lon="-1.57246">
        <ele>54</ele>
        <time>2021-08-31T17:39:49.000Z</time>
      </trkpt>
      <trkpt lat="47.19589" lon="-1.57267">
        <ele>54</ele>
        <time>2021-08-31T17:39:51.000Z</time>
      </trkpt>
      <trkpt lat="47.19589" lon="-1.57289">
        <ele>54</ele>
        <time>2021-08-31T17:39:53.000Z</time>
      </trkpt>
      <trkpt lat="47.19588" lon="-1.5731">
        <ele>54</ele>
        <time>2021-08-31T17:39:55.000Z</time>
      </trkpt>
      <trkpt lat="47.19585" lon="-1.5733">
        <ele>53</ele>
        <time>2021-08-31T17:39:57.000Z</time>
      </trkpt>
      <trkpt lat="47.19581" lon="-1.57349">
        <ele>54</ele>
        <time>2021-08-31T17:39:59.000Z</time>
      </trkpt>
      <trkpt lat="47.19576" lon="-1.57368">
        <ele>53</ele>
        <time>2021-08-31T17:40:01.000Z</time>
      </trkpt>
      <trkpt lat="47.19572" lon="-1.57387">
        <ele>53</ele>
        <time>2021-08-31T17:40:03.000Z</time>
      </trkpt>
      <trkpt lat="47.19568" lon="-1.57407">
        <ele>53</ele>
        <time>2021-08-31T17:40:05.000Z</time>
      </trkpt>
      <trkpt lat="47.19564" lon="-1.57428">
        <ele>53</ele>
        <time>2021-08-31T17:40:07.000Z</time>
      </trkpt>
      <trkpt lat="47.19558" lon="-1.57458">
        <ele>52</ele>
        <time>2021-08-31T17:40:10.000Z</time>
      </trkpt>
      <trkpt lat="47.19554" lon="-1.57477">
        <ele>53</ele>
        <time>2021-08-31T17:40:12.000Z</time>
      </trkpt>
      <trkpt lat="47.19549" lon="-1.57497">
        <ele>52</ele>
        <time>2021-08-31T17:40:14.000Z</time>
      </trkpt>
      <trkpt lat="47.19545" lon="-1.57517">
        <ele>53</ele>
        <time>2021-08-31T17:40:16.000Z</time>
      </trkpt>
      <trkpt lat="47.1954" lon="-1.57547">
        <ele>53</ele>
        <time>2021-08-31T17:40:19.000Z</time>
      </trkpt>
      <trkpt lat="47.19534" lon="-1.57576">
        <ele>53</ele>
        <time>2021-08-31T17:40:22.000Z</time>
      </trkpt>
      <trkpt lat="47.1953" lon="-1.57596">
        <ele>53</ele>
        <time>2021-08-31T17:40:24.000Z</time>
      </trkpt>
      <trkpt lat="47.19526" lon="-1.57616">
        <ele>53</ele>
        <time>2021-08-31T17:40:26.000Z</time>
      </trkpt>
      <trkpt lat="47.19522" lon="-1.57634">
        <ele>53</ele>
        <time>2021-08-31T17:40:28.000Z</time>
      </trkpt>
      <trkpt lat="47.19518" lon="-1.57653">
        <ele>53</ele>
        <time>2021-08-31T17:40:30.000Z</time>
      </trkpt>
      <trkpt lat="47.19515" lon="-1.57673">
        <ele>53</ele>
        <time>2021-08-31T17:40:32.000Z</time>
      </trkpt>
      <trkpt lat="47.19511" lon="-1.57692">
        <ele>53</ele>
        <time>2021-08-31T17:40:34.000Z</time>
      </trkpt>
      <trkpt lat="47.19507" lon="-1.57712">
        <ele>53</ele>
        <time>2021-08-31T17:40:36.000Z</time>
      </trkpt>
      <trkpt lat="47.19503" lon="-1.57732">
        <ele>53</ele>
        <time>2021-08-31T17:40:38.000Z</time>
      </trkpt>
      <trkpt lat="47.19499" lon="-1.57752">
        <ele>53</ele>
        <time>2021-08-31T17:40:40.000Z</time>
      </trkpt>
      <trkpt lat="47.19495" lon="-1.57771">
        <ele>53</ele>
        <time>2021-08-31T17:40:42.000Z</time>
      </trkpt>
      <trkpt lat="47.19491" lon="-1.57791">
        <ele>53</ele>
        <time>2021-08-31T17:40:44.000Z</time>
      </trkpt>
      <trkpt lat="47.19487" lon="-1.5781">
        <ele>52</ele>
        <time>2021-08-31T17:40:46.000Z</time>
      </trkpt>
      <trkpt lat="47.19482" lon="-1.57829">
        <ele>52</ele>
        <time>2021-08-31T17:40:48.000Z</time>
      </trkpt>
      <trkpt lat="47.19478" lon="-1.57847">
        <ele>52</ele>
        <time>2021-08-31T17:40:50.000Z</time>
      </trkpt>
      <trkpt lat="47.19478" lon="-1.57866">
        <ele>52</ele>
        <time>2021-08-31T17:40:52.000Z</time>
      </trkpt>
      <trkpt lat="47.19475" lon="-1.57886">
        <ele>52</ele>
        <time>2021-08-31T17:40:54.000Z</time>
      </trkpt>
      <trkpt lat="47.19472" lon="-1.57906">
        <ele>51</ele>
        <time>2021-08-31T17:40:56.000Z</time>
      </trkpt>
      <trkpt lat="47.1947" lon="-1.57926">
        <ele>51</ele>
        <time>2021-08-31T17:40:58.000Z</time>
      </trkpt>
      <trkpt lat="47.19467" lon="-1.57946">
        <ele>51</ele>
        <time>2021-08-31T17:41:00.000Z</time>
      </trkpt>
      <trkpt lat="47.19466" lon="-1.57964">
        <ele>51</ele>
        <time>2021-08-31T17:41:02.000Z</time>
      </trkpt>
      <trkpt lat="47.19465" lon="-1.57982">
        <ele>52</ele>
        <time>2021-08-31T17:41:04.000Z</time>
      </trkpt>
      <trkpt lat="47.19464" lon="-1.57999">
        <ele>52</ele>
        <time>2021-08-31T17:41:06.000Z</time>
      </trkpt>
      <trkpt lat="47.19463" lon="-1.58017">
        <ele>52</ele>
        <time>2021-08-31T17:41:08.000Z</time>
      </trkpt>
      <trkpt lat="47.19461" lon="-1.58034">
        <ele>52</ele>
        <time>2021-08-31T17:41:10.000Z</time>
      </trkpt>
      <trkpt lat="47.1946" lon="-1.5805">
        <ele>53</ele>
        <time>2021-08-31T17:41:12.000Z</time>
      </trkpt>
      <trkpt lat="47.19458" lon="-1.58063">
        <ele>53</ele>
        <time>2021-08-31T17:41:14.000Z</time>
      </trkpt>
      <trkpt lat="47.19458" lon="-1.58079">
        <ele>52</ele>
        <time>2021-08-31T17:41:17.000Z</time>
      </trkpt>
      <trkpt lat="47.1945" lon="-1.58096">
        <ele>52</ele>
        <time>2021-08-31T17:41:20.000Z</time>
      </trkpt>
      <trkpt lat="47.19442" lon="-1.58105">
        <ele>52</ele>
        <time>2021-08-31T17:41:22.000Z</time>
      </trkpt>
      <trkpt lat="47.19435" lon="-1.58113">
        <ele>52</ele>
        <time>2021-08-31T17:41:24.000Z</time>
      </trkpt>
      <trkpt lat="47.19427" lon="-1.58123">
        <ele>52</ele>
        <time>2021-08-31T17:41:26.000Z</time>
      </trkpt>
      <trkpt lat="47.1942" lon="-1.58132">
        <ele>52</ele>
        <time>2021-08-31T17:41:28.000Z</time>
      </trkpt>
      <trkpt lat="47.19413" lon="-1.58143">
        <ele>53</ele>
        <time>2021-08-31T17:41:30.000Z</time>
      </trkpt>
      <trkpt lat="47.19403" lon="-1.58159">
        <ele>53</ele>
        <time>2021-08-31T17:41:32.000Z</time>
      </trkpt>
      <trkpt lat="47.19393" lon="-1.58177">
        <ele>53</ele>
        <time>2021-08-31T17:41:34.000Z</time>
      </trkpt>
      <trkpt lat="47.19384" lon="-1.58196">
        <ele>54</ele>
        <time>2021-08-31T17:41:36.000Z</time>
      </trkpt>
      <trkpt lat="47.19376" lon="-1.58217">
        <ele>54</ele>
        <time>2021-08-31T17:41:38.000Z</time>
      </trkpt>
      <trkpt lat="47.19368" lon="-1.58239">
        <ele>53</ele>
        <time>2021-08-31T17:41:40.000Z</time>
      </trkpt>
      <trkpt lat="47.19361" lon="-1.58259">
        <ele>53</ele>
        <time>2021-08-31T17:41:42.000Z</time>
      </trkpt>
      <trkpt lat="47.19351" lon="-1.58274">
        <ele>53</ele>
        <time>2021-08-31T17:41:44.000Z</time>
      </trkpt>
      <trkpt lat="47.1934" lon="-1.58289">
        <ele>53</ele>
        <time>2021-08-31T17:41:46.000Z</time>
      </trkpt>
      <trkpt lat="47.19328" lon="-1.58301">
        <ele>53</ele>
        <time>2021-08-31T17:41:48.000Z</time>
      </trkpt>
      <trkpt lat="47.19315" lon="-1.58313">
        <ele>53</ele>
        <time>2021-08-31T17:41:50.000Z</time>
      </trkpt>
      <trkpt lat="47.19303" lon="-1.58324">
        <ele>53</ele>
        <time>2021-08-31T17:41:52.000Z</time>
      </trkpt>
      <trkpt lat="47.1929" lon="-1.58334">
        <ele>53</ele>
        <time>2021-08-31T17:41:54.000Z</time>
      </trkpt>
      <trkpt lat="47.19278" lon="-1.58346">
        <ele>53</ele>
        <time>2021-08-31T17:41:56.000Z</time>
      </trkpt>
      <trkpt lat="47.19266" lon="-1.58358">
        <ele>53</ele>
        <time>2021-08-31T17:41:58.000Z</time>
      </trkpt>
      <trkpt lat="47.19255" lon="-1.5837">
        <ele>53</ele>
        <time>2021-08-31T17:42:00.000Z</time>
      </trkpt>
      <trkpt lat="47.19242" lon="-1.58381">
        <ele>53</ele>
        <time>2021-08-31T17:42:02.000Z</time>
      </trkpt>
      <trkpt lat="47.19229" lon="-1.58392">
        <ele>52</ele>
        <time>2021-08-31T17:42:04.000Z</time>
      </trkpt>
      <trkpt lat="47.19217" lon="-1.58404">
        <ele>53</ele>
        <time>2021-08-31T17:42:06.000Z</time>
      </trkpt>
      <trkpt lat="47.19205" lon="-1.58416">
        <ele>52</ele>
        <time>2021-08-31T17:42:08.000Z</time>
      </trkpt>
      <trkpt lat="47.19193" lon="-1.58426">
        <ele>52</ele>
        <time>2021-08-31T17:42:10.000Z</time>
      </trkpt>
      <trkpt lat="47.19182" lon="-1.58437">
        <ele>52</ele>
        <time>2021-08-31T17:42:12.000Z</time>
      </trkpt>
      <trkpt lat="47.19171" lon="-1.58448">
        <ele>52</ele>
        <time>2021-08-31T17:42:14.000Z</time>
      </trkpt>
      <trkpt lat="47.19161" lon="-1.58458">
        <ele>53</ele>
        <time>2021-08-31T17:42:16.000Z</time>
      </trkpt>
      <trkpt lat="47.19153" lon="-1.58466">
        <ele>53</ele>
        <time>2021-08-31T17:42:18.000Z</time>
      </trkpt>
      <trkpt lat="47.19142" lon="-1.58477">
        <ele>53</ele>
        <time>2021-08-31T17:42:21.000Z</time>
      </trkpt>
      <trkpt lat="47.19132" lon="-1.58486">
        <ele>52</ele>
        <time>2021-08-31T17:42:23.000Z</time>
      </trkpt>
      <trkpt lat="47.1912" lon="-1.58498">
        <ele>53</ele>
        <time>2021-08-31T17:42:25.000Z</time>
      </trkpt>
      <trkpt lat="47.19108" lon="-1.58509">
        <ele>53</ele>
        <time>2021-08-31T17:42:27.000Z</time>
      </trkpt>
      <trkpt lat="47.19096" lon="-1.5852">
        <ele>53</ele>
        <time>2021-08-31T17:42:29.000Z</time>
      </trkpt>
      <trkpt lat="47.19084" lon="-1.58533">
        <ele>53</ele>
        <time>2021-08-31T17:42:31.000Z</time>
      </trkpt>
      <trkpt lat="47.19072" lon="-1.58544">
        <ele>53</ele>
        <time>2021-08-31T17:42:33.000Z</time>
      </trkpt>
      <trkpt lat="47.1906" lon="-1.58556">
        <ele>53</ele>
        <time>2021-08-31T17:42:35.000Z</time>
      </trkpt>
      <trkpt lat="47.19049" lon="-1.58568">
        <ele>53</ele>
        <time>2021-08-31T17:42:37.000Z</time>
      </trkpt>
      <trkpt lat="47.19038" lon="-1.5858">
        <ele>53</ele>
        <time>2021-08-31T17:42:39.000Z</time>
      </trkpt>
      <trkpt lat="47.19027" lon="-1.58592">
        <ele>53</ele>
        <time>2021-08-31T17:42:41.000Z</time>
      </trkpt>
      <trkpt lat="47.19017" lon="-1.58604">
        <ele>54</ele>
        <time>2021-08-31T17:42:43.000Z</time>
      </trkpt>
      <trkpt lat="47.19005" lon="-1.58616">
        <ele>53</ele>
        <time>2021-08-31T17:42:45.000Z</time>
      </trkpt>
      <trkpt lat="47.18994" lon="-1.58627">
        <ele>54</ele>
        <time>2021-08-31T17:42:47.000Z</time>
      </trkpt>
      <trkpt lat="47.18983" lon="-1.58637">
        <ele>54</ele>
        <time>2021-08-31T17:42:49.000Z</time>
      </trkpt>
      <trkpt lat="47.18971" lon="-1.58648">
        <ele>54</ele>
        <time>2021-08-31T17:42:51.000Z</time>
      </trkpt>
      <trkpt lat="47.1896" lon="-1.58659">
        <ele>53</ele>
        <time>2021-08-31T17:42:53.000Z</time>
      </trkpt>
      <trkpt lat="47.18948" lon="-1.5867">
        <ele>53</ele>
        <time>2021-08-31T17:42:55.000Z</time>
      </trkpt>
      <trkpt lat="47.18936" lon="-1.58681">
        <ele>53</ele>
        <time>2021-08-31T17:42:57.000Z</time>
      </trkpt>
      <trkpt lat="47.18924" lon="-1.58692">
        <ele>52</ele>
        <time>2021-08-31T17:42:59.000Z</time>
      </trkpt>
      <trkpt lat="47.18912" lon="-1.58703">
        <ele>52</ele>
        <time>2021-08-31T17:43:01.000Z</time>
      </trkpt>
      <trkpt lat="47.189" lon="-1.58712">
        <ele>53</ele>
        <time>2021-08-31T17:43:03.000Z</time>
      </trkpt>
      <trkpt lat="47.18888" lon="-1.58719">
        <ele>52</ele>
        <time>2021-08-31T17:43:05.000Z</time>
      </trkpt>
      <trkpt lat="47.18875" lon="-1.58726">
        <ele>53</ele>
        <time>2021-08-31T17:43:07.000Z</time>
      </trkpt>
      <trkpt lat="47.18864" lon="-1.58733">
        <ele>52</ele>
        <time>2021-08-31T17:43:09.000Z</time>
      </trkpt>
      <trkpt lat="47.18851" lon="-1.58738">
        <ele>53</ele>
        <time>2021-08-31T17:43:11.000Z</time>
      </trkpt>
      <trkpt lat="47.18841" lon="-1.58745">
        <ele>52</ele>
        <time>2021-08-31T17:43:13.000Z</time>
      </trkpt>
      <trkpt lat="47.18833" lon="-1.58758">
        <ele>52</ele>
        <time>2021-08-31T17:43:15.000Z</time>
      </trkpt>
      <trkpt lat="47.18831" lon="-1.58775">
        <ele>52</ele>
        <time>2021-08-31T17:43:17.000Z</time>
      </trkpt>
      <trkpt lat="47.18824" lon="-1.58788">
        <ele>52</ele>
        <time>2021-08-31T17:43:19.000Z</time>
      </trkpt>
      <trkpt lat="47.18816" lon="-1.58799">
        <ele>52</ele>
        <time>2021-08-31T17:43:21.000Z</time>
      </trkpt>
      <trkpt lat="47.18805" lon="-1.58809">
        <ele>52</ele>
        <time>2021-08-31T17:43:23.000Z</time>
      </trkpt>
      <trkpt lat="47.18793" lon="-1.58816">
        <ele>53</ele>
        <time>2021-08-31T17:43:25.000Z</time>
      </trkpt>
      <trkpt lat="47.18787" lon="-1.58834">
        <ele>53</ele>
        <time>2021-08-31T17:43:27.000Z</time>
      </trkpt>
      <trkpt lat="47.18782" lon="-1.58854">
        <ele>52</ele>
        <time>2021-08-31T17:43:29.000Z</time>
      </trkpt>
      <trkpt lat="47.18779" lon="-1.58876">
        <ele>53</ele>
        <time>2021-08-31T17:43:31.000Z</time>
      </trkpt>
      <trkpt lat="47.18775" lon="-1.58898">
        <ele>53</ele>
        <time>2021-08-31T17:43:33.000Z</time>
      </trkpt>
      <trkpt lat="47.18773" lon="-1.58922">
        <ele>53</ele>
        <time>2021-08-31T17:43:35.000Z</time>
      </trkpt>
      <trkpt lat="47.1877" lon="-1.58945">
        <ele>53</ele>
        <time>2021-08-31T17:43:37.000Z</time>
      </trkpt>
      <trkpt lat="47.18768" lon="-1.58967">
        <ele>53</ele>
        <time>2021-08-31T17:43:39.000Z</time>
      </trkpt>
      <trkpt lat="47.18765" lon="-1.58989">
        <ele>53</ele>
        <time>2021-08-31T17:43:41.000Z</time>
      </trkpt>
      <trkpt lat="47.18762" lon="-1.59012">
        <ele>53</ele>
        <time>2021-08-31T17:43:43.000Z</time>
      </trkpt>
      <trkpt lat="47.1876" lon="-1.59035">
        <ele>53</ele>
        <time>2021-08-31T17:43:45.000Z</time>
      </trkpt>
      <trkpt lat="47.18757" lon="-1.59058">
        <ele>53</ele>
        <time>2021-08-31T17:43:47.000Z</time>
      </trkpt>
      <trkpt lat="47.18755" lon="-1.59081">
        <ele>53</ele>
        <time>2021-08-31T17:43:49.000Z</time>
      </trkpt>
      <trkpt lat="47.18752" lon="-1.59104">
        <ele>53</ele>
        <time>2021-08-31T17:43:51.000Z</time>
      </trkpt>
      <trkpt lat="47.1875" lon="-1.59126">
        <ele>53</ele>
        <time>2021-08-31T17:43:53.000Z</time>
      </trkpt>
      <trkpt lat="47.18748" lon="-1.59148">
        <ele>53</ele>
        <time>2021-08-31T17:43:55.000Z</time>
      </trkpt>
      <trkpt lat="47.18745" lon="-1.59171">
        <ele>53</ele>
        <time>2021-08-31T17:43:57.000Z</time>
      </trkpt>
      <trkpt lat="47.18743" lon="-1.59192">
        <ele>53</ele>
        <time>2021-08-31T17:43:59.000Z</time>
      </trkpt>
      <trkpt lat="47.1874" lon="-1.59215">
        <ele>53</ele>
        <time>2021-08-31T17:44:01.000Z</time>
      </trkpt>
      <trkpt lat="47.18738" lon="-1.59237">
        <ele>53</ele>
        <time>2021-08-31T17:44:03.000Z</time>
      </trkpt>
      <trkpt lat="47.18735" lon="-1.59259">
        <ele>53</ele>
        <time>2021-08-31T17:44:05.000Z</time>
      </trkpt>
      <trkpt lat="47.18733" lon="-1.59281">
        <ele>53</ele>
        <time>2021-08-31T17:44:07.000Z</time>
      </trkpt>
      <trkpt lat="47.1873" lon="-1.59303">
        <ele>53</ele>
        <time>2021-08-31T17:44:09.000Z</time>
      </trkpt>
      <trkpt lat="47.18728" lon="-1.59325">
        <ele>53</ele>
        <time>2021-08-31T17:44:11.000Z</time>
      </trkpt>
      <trkpt lat="47.18726" lon="-1.59347">
        <ele>53</ele>
        <time>2021-08-31T17:44:13.000Z</time>
      </trkpt>
      <trkpt lat="47.18723" lon="-1.59369">
        <ele>53</ele>
        <time>2021-08-31T17:44:15.000Z</time>
      </trkpt>
      <trkpt lat="47.18721" lon="-1.59392">
        <ele>52</ele>
        <time>2021-08-31T17:44:17.000Z</time>
      </trkpt>
      <trkpt lat="47.18718" lon="-1.59414">
        <ele>52</ele>
        <time>2021-08-31T17:44:19.000Z</time>
      </trkpt>
      <trkpt lat="47.18716" lon="-1.59436">
        <ele>53</ele>
        <time>2021-08-31T17:44:21.000Z</time>
      </trkpt>
      <trkpt lat="47.18714" lon="-1.59458">
        <ele>52</ele>
        <time>2021-08-31T17:44:23.000Z</time>
      </trkpt>
      <trkpt lat="47.18712" lon="-1.5948">
        <ele>53</ele>
        <time>2021-08-31T17:44:25.000Z</time>
      </trkpt>
      <trkpt lat="47.18709" lon="-1.59502">
        <ele>53</ele>
        <time>2021-08-31T17:44:27.000Z</time>
      </trkpt>
      <trkpt lat="47.18707" lon="-1.59525">
        <ele>53</ele>
        <time>2021-08-31T17:44:29.000Z</time>
      </trkpt>
      <trkpt lat="47.18704" lon="-1.59548">
        <ele>53</ele>
        <time>2021-08-31T17:44:31.000Z</time>
      </trkpt>
      <trkpt lat="47.18701" lon="-1.59571">
        <ele>53</ele>
        <time>2021-08-31T17:44:33.000Z</time>
      </trkpt>
      <trkpt lat="47.18699" lon="-1.59593">
        <ele>53</ele>
        <time>2021-08-31T17:44:35.000Z</time>
      </trkpt>
      <trkpt lat="47.18696" lon="-1.59615">
        <ele>53</ele>
        <time>2021-08-31T17:44:37.000Z</time>
      </trkpt>
      <trkpt lat="47.18693" lon="-1.59637">
        <ele>53</ele>
        <time>2021-08-31T17:44:39.000Z</time>
      </trkpt>
      <trkpt lat="47.1869" lon="-1.5966">
        <ele>53</ele>
        <time>2021-08-31T17:44:41.000Z</time>
      </trkpt>
      <trkpt lat="47.18687" lon="-1.59682">
        <ele>53</ele>
        <time>2021-08-31T17:44:43.000Z</time>
      </trkpt>
      <trkpt lat="47.18685" lon="-1.59705">
        <ele>53</ele>
        <time>2021-08-31T17:44:45.000Z</time>
      </trkpt>
      <trkpt lat="47.18683" lon="-1.5973">
        <ele>53</ele>
        <time>2021-08-31T17:44:47.000Z</time>
      </trkpt>
      <trkpt lat="47.18682" lon="-1.59744">
        <ele>53</ele>
        <time>2021-08-31T17:44:48.000Z</time>
      </trkpt>
      <trkpt lat="47.18682" lon="-1.59758">
        <ele>52</ele>
        <time>2021-08-31T17:44:49.000Z</time>
      </trkpt>
      <trkpt lat="47.18683" lon="-1.59772">
        <ele>52</ele>
        <time>2021-08-31T17:44:50.000Z</time>
      </trkpt>
      <trkpt lat="47.18684" lon="-1.59787">
        <ele>52</ele>
        <time>2021-08-31T17:44:51.000Z</time>
      </trkpt>
      <trkpt lat="47.18684" lon="-1.59802">
        <ele>52</ele>
        <time>2021-08-31T17:44:52.000Z</time>
      </trkpt>
      <trkpt lat="47.18683" lon="-1.59816">
        <ele>52</ele>
        <time>2021-08-31T17:44:53.000Z</time>
      </trkpt>
      <trkpt lat="47.18678" lon="-1.59827">
        <ele>52</ele>
        <time>2021-08-31T17:44:54.000Z</time>
      </trkpt>
      <trkpt lat="47.18664" lon="-1.59843">
        <ele>53</ele>
        <time>2021-08-31T17:44:56.000Z</time>
      </trkpt>
      <trkpt lat="47.18648" lon="-1.59844">
        <ele>52</ele>
        <time>2021-08-31T17:44:58.000Z</time>
      </trkpt>
      <trkpt lat="47.18633" lon="-1.59834">
        <ele>52</ele>
        <time>2021-08-31T17:45:00.000Z</time>
      </trkpt>
      <trkpt lat="47.1862" lon="-1.59832">
        <ele>51</ele>
        <time>2021-08-31T17:45:02.000Z</time>
      </trkpt>
      <trkpt lat="47.18616" lon="-1.59844">
        <ele>51</ele>
        <time>2021-08-31T17:45:04.000Z</time>
      </trkpt>
      <trkpt lat="47.18622" lon="-1.59859">
        <ele>51</ele>
        <time>2021-08-31T17:45:06.000Z</time>
      </trkpt>
      <trkpt lat="47.18622" lon="-1.59877">
        <ele>52</ele>
        <time>2021-08-31T17:45:08.000Z</time>
      </trkpt>
      <trkpt lat="47.18617" lon="-1.59896">
        <ele>52</ele>
        <time>2021-08-31T17:45:10.000Z</time>
      </trkpt>
      <trkpt lat="47.18611" lon="-1.59917">
        <ele>51</ele>
        <time>2021-08-31T17:45:12.000Z</time>
      </trkpt>
      <trkpt lat="47.18606" lon="-1.59937">
        <ele>52</ele>
        <time>2021-08-31T17:45:14.000Z</time>
      </trkpt>
      <trkpt lat="47.186" lon="-1.59957">
        <ele>52</ele>
        <time>2021-08-31T17:45:16.000Z</time>
      </trkpt>
      <trkpt lat="47.18594" lon="-1.59978">
        <ele>52</ele>
        <time>2021-08-31T17:45:18.000Z</time>
      </trkpt>
      <trkpt lat="47.18588" lon="-1.59998">
        <ele>52</ele>
        <time>2021-08-31T17:45:20.000Z</time>
      </trkpt>
      <trkpt lat="47.18581" lon="-1.60019">
        <ele>52</ele>
        <time>2021-08-31T17:45:22.000Z</time>
      </trkpt>
      <trkpt lat="47.18574" lon="-1.60039">
        <ele>52</ele>
        <time>2021-08-31T17:45:24.000Z</time>
      </trkpt>
      <trkpt lat="47.18567" lon="-1.60059">
        <ele>52</ele>
        <time>2021-08-31T17:45:26.000Z</time>
      </trkpt>
      <trkpt lat="47.1856" lon="-1.60077">
        <ele>51</ele>
        <time>2021-08-31T17:45:28.000Z</time>
      </trkpt>
      <trkpt lat="47.18552" lon="-1.60096">
        <ele>51</ele>
        <time>2021-08-31T17:45:30.000Z</time>
      </trkpt>
      <trkpt lat="47.18544" lon="-1.60114">
        <ele>51</ele>
        <time>2021-08-31T17:45:32.000Z</time>
      </trkpt>
      <trkpt lat="47.18536" lon="-1.60131">
        <ele>51</ele>
        <time>2021-08-31T17:45:34.000Z</time>
      </trkpt>
      <trkpt lat="47.18528" lon="-1.60149">
        <ele>51</ele>
        <time>2021-08-31T17:45:36.000Z</time>
      </trkpt>
      <trkpt lat="47.1852" lon="-1.60166">
        <ele>52</ele>
        <time>2021-08-31T17:45:38.000Z</time>
      </trkpt>
      <trkpt lat="47.18511" lon="-1.60183">
        <ele>52</ele>
        <time>2021-08-31T17:45:40.000Z</time>
      </trkpt>
      <trkpt lat="47.18503" lon="-1.602">
        <ele>52</ele>
        <time>2021-08-31T17:45:42.000Z</time>
      </trkpt>
      <trkpt lat="47.18494" lon="-1.60218">
        <ele>52</ele>
        <time>2021-08-31T17:45:44.000Z</time>
      </trkpt>
      <trkpt lat="47.18485" lon="-1.60235">
        <ele>52</ele>
        <time>2021-08-31T17:45:46.000Z</time>
      </trkpt>
      <trkpt lat="47.18476" lon="-1.60252">
        <ele>52</ele>
        <time>2021-08-31T17:45:48.000Z</time>
      </trkpt>
      <trkpt lat="47.18467" lon="-1.60269">
        <ele>52</ele>
        <time>2021-08-31T17:45:50.000Z</time>
      </trkpt>
      <trkpt lat="47.18458" lon="-1.60285">
        <ele>52</ele>
        <time>2021-08-31T17:45:52.000Z</time>
      </trkpt>
      <trkpt lat="47.18448" lon="-1.60301">
        <ele>52</ele>
        <time>2021-08-31T17:45:54.000Z</time>
      </trkpt>
      <trkpt lat="47.18439" lon="-1.60316">
        <ele>52</ele>
        <time>2021-08-31T17:45:56.000Z</time>
      </trkpt>
      <trkpt lat="47.18429" lon="-1.60332">
        <ele>52</ele>
        <time>2021-08-31T17:45:58.000Z</time>
      </trkpt>
      <trkpt lat="47.18419" lon="-1.60347">
        <ele>52</ele>
        <time>2021-08-31T17:46:00.000Z</time>
      </trkpt>
      <trkpt lat="47.18408" lon="-1.60362">
        <ele>52</ele>
        <time>2021-08-31T17:46:02.000Z</time>
      </trkpt>
      <trkpt lat="47.18397" lon="-1.60376">
        <ele>52</ele>
        <time>2021-08-31T17:46:04.000Z</time>
      </trkpt>
      <trkpt lat="47.18387" lon="-1.6039">
        <ele>52</ele>
        <time>2021-08-31T17:46:06.000Z</time>
      </trkpt>
      <trkpt lat="47.18376" lon="-1.60405">
        <ele>52</ele>
        <time>2021-08-31T17:46:08.000Z</time>
      </trkpt>
      <trkpt lat="47.18366" lon="-1.60419">
        <ele>52</ele>
        <time>2021-08-31T17:46:10.000Z</time>
      </trkpt>
      <trkpt lat="47.18355" lon="-1.60432">
        <ele>52</ele>
        <time>2021-08-31T17:46:12.000Z</time>
      </trkpt>
      <trkpt lat="47.18344" lon="-1.60446">
        <ele>52</ele>
        <time>2021-08-31T17:46:14.000Z</time>
      </trkpt>
      <trkpt lat="47.18333" lon="-1.6046">
        <ele>52</ele>
        <time>2021-08-31T17:46:16.000Z</time>
      </trkpt>
      <trkpt lat="47.18322" lon="-1.60473">
        <ele>52</ele>
        <time>2021-08-31T17:46:18.000Z</time>
      </trkpt>
      <trkpt lat="47.18311" lon="-1.60485">
        <ele>52</ele>
        <time>2021-08-31T17:46:20.000Z</time>
      </trkpt>
      <trkpt lat="47.18299" lon="-1.60498">
        <ele>52</ele>
        <time>2021-08-31T17:46:22.000Z</time>
      </trkpt>
      <trkpt lat="47.18288" lon="-1.6051">
        <ele>52</ele>
        <time>2021-08-31T17:46:24.000Z</time>
      </trkpt>
      <trkpt lat="47.18277" lon="-1.60522">
        <ele>52</ele>
        <time>2021-08-31T17:46:26.000Z</time>
      </trkpt>
      <trkpt lat="47.18265" lon="-1.60533">
        <ele>52</ele>
        <time>2021-08-31T17:46:28.000Z</time>
      </trkpt>
      <trkpt lat="47.18253" lon="-1.60543">
        <ele>52</ele>
        <time>2021-08-31T17:46:30.000Z</time>
      </trkpt>
      <trkpt lat="47.18242" lon="-1.60551">
        <ele>53</ele>
        <time>2021-08-31T17:46:32.000Z</time>
      </trkpt>
      <trkpt lat="47.18231" lon="-1.60558">
        <ele>53</ele>
        <time>2021-08-31T17:46:34.000Z</time>
      </trkpt>
      <trkpt lat="47.1822" lon="-1.60565">
        <ele>53</ele>
        <time>2021-08-31T17:46:36.000Z</time>
      </trkpt>
      <trkpt lat="47.1821" lon="-1.60569">
        <ele>53</ele>
        <time>2021-08-31T17:46:38.000Z</time>
      </trkpt>
      <trkpt lat="47.182" lon="-1.60573">
        <ele>53</ele>
        <time>2021-08-31T17:46:40.000Z</time>
      </trkpt>
      <trkpt lat="47.18191" lon="-1.60581">
        <ele>53</ele>
        <time>2021-08-31T17:46:43.000Z</time>
      </trkpt>
      <trkpt lat="47.18189" lon="-1.60596">
        <ele>53</ele>
        <time>2021-08-31T17:46:46.000Z</time>
      </trkpt>
      <trkpt lat="47.18177" lon="-1.60602">
        <ele>52</ele>
        <time>2021-08-31T17:46:48.000Z</time>
      </trkpt>
      <trkpt lat="47.18164" lon="-1.60603">
        <ele>53</ele>
        <time>2021-08-31T17:46:50.000Z</time>
      </trkpt>
      <trkpt lat="47.18151" lon="-1.60603">
        <ele>54</ele>
        <time>2021-08-31T17:46:52.000Z</time>
      </trkpt>
      <trkpt lat="47.18137" lon="-1.606">
        <ele>54</ele>
        <time>2021-08-31T17:46:54.000Z</time>
      </trkpt>
      <trkpt lat="47.18123" lon="-1.60596">
        <ele>54</ele>
        <time>2021-08-31T17:46:56.000Z</time>
      </trkpt>
      <trkpt lat="47.1811" lon="-1.60592">
        <ele>54</ele>
        <time>2021-08-31T17:46:58.000Z</time>
      </trkpt>
      <trkpt lat="47.18096" lon="-1.60588">
        <ele>53</ele>
        <time>2021-08-31T17:47:00.000Z</time>
      </trkpt>
      <trkpt lat="47.18083" lon="-1.60581">
        <ele>53</ele>
        <time>2021-08-31T17:47:02.000Z</time>
      </trkpt>
      <trkpt lat="47.1807" lon="-1.60574">
        <ele>53</ele>
        <time>2021-08-31T17:47:04.000Z</time>
      </trkpt>
      <trkpt lat="47.18058" lon="-1.60567">
        <ele>53</ele>
        <time>2021-08-31T17:47:06.000Z</time>
      </trkpt>
      <trkpt lat="47.18045" lon="-1.6056">
        <ele>53</ele>
        <time>2021-08-31T17:47:08.000Z</time>
      </trkpt>
      <trkpt lat="47.18032" lon="-1.60554">
        <ele>53</ele>
        <time>2021-08-31T17:47:10.000Z</time>
      </trkpt>
      <trkpt lat="47.18019" lon="-1.60552">
        <ele>53</ele>
        <time>2021-08-31T17:47:12.000Z</time>
      </trkpt>
      <trkpt lat="47.18006" lon="-1.60555">
        <ele>53</ele>
        <time>2021-08-31T17:47:14.000Z</time>
      </trkpt>
      <trkpt lat="47.17993" lon="-1.60559">
        <ele>53</ele>
        <time>2021-08-31T17:47:16.000Z</time>
      </trkpt>
      <trkpt lat="47.1798" lon="-1.60563">
        <ele>53</ele>
        <time>2021-08-31T17:47:18.000Z</time>
      </trkpt>
      <trkpt lat="47.17951" lon="-1.60563">
        <ele>53</ele>
        <time>2021-08-31T17:47:22.000Z</time>
      </trkpt>
      <trkpt lat="47.17944" lon="-1.60578">
        <ele>53</ele>
        <time>2021-08-31T17:47:24.000Z</time>
      </trkpt>
      <trkpt lat="47.17934" lon="-1.60583">
        <ele>54</ele>
        <time>2021-08-31T17:47:26.000Z</time>
      </trkpt>
      <trkpt lat="47.17923" lon="-1.60585">
        <ele>54</ele>
        <time>2021-08-31T17:47:29.000Z</time>
      </trkpt>
      <trkpt lat="47.17911" lon="-1.60587">
        <ele>55</ele>
        <time>2021-08-31T17:47:34.000Z</time>
      </trkpt>
      <trkpt lat="47.17904" lon="-1.60598">
        <ele>54</ele>
        <time>2021-08-31T17:47:36.000Z</time>
      </trkpt>
      <trkpt lat="47.179" lon="-1.60615">
        <ele>53</ele>
        <time>2021-08-31T17:47:38.000Z</time>
      </trkpt>
      <trkpt lat="47.17895" lon="-1.60634">
        <ele>52</ele>
        <time>2021-08-31T17:47:40.000Z</time>
      </trkpt>
      <trkpt lat="47.17889" lon="-1.60653">
        <ele>51</ele>
        <time>2021-08-31T17:47:42.000Z</time>
      </trkpt>
      <trkpt lat="47.17883" lon="-1.60672">
        <ele>52</ele>
        <time>2021-08-31T17:47:44.000Z</time>
      </trkpt>
      <trkpt lat="47.17877" lon="-1.60691">
        <ele>52</ele>
        <time>2021-08-31T17:47:46.000Z</time>
      </trkpt>
      <trkpt lat="47.17871" lon="-1.6071">
        <ele>52</ele>
        <time>2021-08-31T17:47:48.000Z</time>
      </trkpt>
      <trkpt lat="47.17867" lon="-1.6073">
        <ele>52</ele>
        <time>2021-08-31T17:47:50.000Z</time>
      </trkpt>
      <trkpt lat="47.17862" lon="-1.60749">
        <ele>52</ele>
        <time>2021-08-31T17:47:52.000Z</time>
      </trkpt>
      <trkpt lat="47.17858" lon="-1.60769">
        <ele>52</ele>
        <time>2021-08-31T17:47:54.000Z</time>
      </trkpt>
      <trkpt lat="47.17854" lon="-1.60787">
        <ele>52</ele>
        <time>2021-08-31T17:47:56.000Z</time>
      </trkpt>
      <trkpt lat="47.1785" lon="-1.60806">
        <ele>53</ele>
        <time>2021-08-31T17:47:58.000Z</time>
      </trkpt>
      <trkpt lat="47.17845" lon="-1.60824">
        <ele>53</ele>
        <time>2021-08-31T17:48:00.000Z</time>
      </trkpt>
      <trkpt lat="47.17839" lon="-1.60842">
        <ele>53</ele>
        <time>2021-08-31T17:48:02.000Z</time>
      </trkpt>
      <trkpt lat="47.17831" lon="-1.60859">
        <ele>52</ele>
        <time>2021-08-31T17:48:04.000Z</time>
      </trkpt>
      <trkpt lat="47.17822" lon="-1.60874">
        <ele>52</ele>
        <time>2021-08-31T17:48:06.000Z</time>
      </trkpt>
      <trkpt lat="47.17812" lon="-1.60888">
        <ele>52</ele>
        <time>2021-08-31T17:48:08.000Z</time>
      </trkpt>
      <trkpt lat="47.17801" lon="-1.60899">
        <ele>52</ele>
        <time>2021-08-31T17:48:10.000Z</time>
      </trkpt>
      <trkpt lat="47.17789" lon="-1.60908">
        <ele>52</ele>
        <time>2021-08-31T17:48:12.000Z</time>
      </trkpt>
      <trkpt lat="47.17776" lon="-1.60916">
        <ele>52</ele>
        <time>2021-08-31T17:48:14.000Z</time>
      </trkpt>
      <trkpt lat="47.17764" lon="-1.60925">
        <ele>53</ele>
        <time>2021-08-31T17:48:16.000Z</time>
      </trkpt>
      <trkpt lat="47.17752" lon="-1.60933">
        <ele>53</ele>
        <time>2021-08-31T17:48:18.000Z</time>
      </trkpt>
      <trkpt lat="47.17741" lon="-1.60942">
        <ele>53</ele>
        <time>2021-08-31T17:48:20.000Z</time>
      </trkpt>
      <trkpt lat="47.17729" lon="-1.60951">
        <ele>53</ele>
        <time>2021-08-31T17:48:22.000Z</time>
      </trkpt>
      <trkpt lat="47.17717" lon="-1.6096">
        <ele>54</ele>
        <time>2021-08-31T17:48:24.000Z</time>
      </trkpt>
      <trkpt lat="47.17704" lon="-1.60967">
        <ele>54</ele>
        <time>2021-08-31T17:48:26.000Z</time>
      </trkpt>
      <trkpt lat="47.17691" lon="-1.60972">
        <ele>54</ele>
        <time>2021-08-31T17:48:28.000Z</time>
      </trkpt>
      <trkpt lat="47.17678" lon="-1.60969">
        <ele>53</ele>
        <time>2021-08-31T17:48:30.000Z</time>
      </trkpt>
      <trkpt lat="47.17664" lon="-1.60969">
        <ele>53</ele>
        <time>2021-08-31T17:48:32.000Z</time>
      </trkpt>
      <trkpt lat="47.17651" lon="-1.60978">
        <ele>53</ele>
        <time>2021-08-31T17:48:34.000Z</time>
      </trkpt>
      <trkpt lat="47.17639" lon="-1.60989">
        <ele>53</ele>
        <time>2021-08-31T17:48:36.000Z</time>
      </trkpt>
      <trkpt lat="47.17627" lon="-1.60999">
        <ele>53</ele>
        <time>2021-08-31T17:48:38.000Z</time>
      </trkpt>
      <trkpt lat="47.17615" lon="-1.6101">
        <ele>53</ele>
        <time>2021-08-31T17:48:40.000Z</time>
      </trkpt>
      <trkpt lat="47.17603" lon="-1.6102">
        <ele>53</ele>
        <time>2021-08-31T17:48:42.000Z</time>
      </trkpt>
      <trkpt lat="47.17591" lon="-1.61031">
        <ele>53</ele>
        <time>2021-08-31T17:48:44.000Z</time>
      </trkpt>
      <trkpt lat="47.1758" lon="-1.61041">
        <ele>53</ele>
        <time>2021-08-31T17:48:46.000Z</time>
      </trkpt>
      <trkpt lat="47.17568" lon="-1.61051">
        <ele>53</ele>
        <time>2021-08-31T17:48:48.000Z</time>
      </trkpt>
      <trkpt lat="47.17556" lon="-1.61061">
        <ele>53</ele>
        <time>2021-08-31T17:48:50.000Z</time>
      </trkpt>
      <trkpt lat="47.17545" lon="-1.61071">
        <ele>52</ele>
        <time>2021-08-31T17:48:52.000Z</time>
      </trkpt>
      <trkpt lat="47.17533" lon="-1.61082">
        <ele>52</ele>
        <time>2021-08-31T17:48:54.000Z</time>
      </trkpt>
      <trkpt lat="47.17521" lon="-1.61091">
        <ele>52</ele>
        <time>2021-08-31T17:48:56.000Z</time>
      </trkpt>
      <trkpt lat="47.1751" lon="-1.611">
        <ele>53</ele>
        <time>2021-08-31T17:48:58.000Z</time>
      </trkpt>
      <trkpt lat="47.17497" lon="-1.61103">
        <ele>53</ele>
        <time>2021-08-31T17:49:00.000Z</time>
      </trkpt>
      <trkpt lat="47.17484" lon="-1.61104">
        <ele>53</ele>
        <time>2021-08-31T17:49:02.000Z</time>
      </trkpt>
      <trkpt lat="47.17473" lon="-1.61099">
        <ele>53</ele>
        <time>2021-08-31T17:49:04.000Z</time>
      </trkpt>
      <trkpt lat="47.17462" lon="-1.61089">
        <ele>53</ele>
        <time>2021-08-31T17:49:06.000Z</time>
      </trkpt>
      <trkpt lat="47.17451" lon="-1.61078">
        <ele>53</ele>
        <time>2021-08-31T17:49:08.000Z</time>
      </trkpt>
      <trkpt lat="47.17443" lon="-1.61065">
        <ele>53</ele>
        <time>2021-08-31T17:49:10.000Z</time>
      </trkpt>
      <trkpt lat="47.17437" lon="-1.6105">
        <ele>54</ele>
        <time>2021-08-31T17:49:12.000Z</time>
      </trkpt>
      <trkpt lat="47.17433" lon="-1.61035">
        <ele>54</ele>
        <time>2021-08-31T17:49:14.000Z</time>
      </trkpt>
      <trkpt lat="47.17427" lon="-1.61018">
        <ele>55</ele>
        <time>2021-08-31T17:49:17.000Z</time>
      </trkpt>
      <trkpt lat="47.17421" lon="-1.61033">
        <ele>55</ele>
        <time>2021-08-31T17:49:21.000Z</time>
      </trkpt>
      <trkpt lat="47.17424" lon="-1.61046">
        <ele>55</ele>
        <time>2021-08-31T17:49:23.000Z</time>
      </trkpt>
      <trkpt lat="47.17429" lon="-1.61061">
        <ele>55</ele>
        <time>2021-08-31T17:49:25.000Z</time>
      </trkpt>
      <trkpt lat="47.17436" lon="-1.61076">
        <ele>56</ele>
        <time>2021-08-31T17:49:27.000Z</time>
      </trkpt>
      <trkpt lat="47.17442" lon="-1.61091">
        <ele>56</ele>
        <time>2021-08-31T17:49:29.000Z</time>
      </trkpt>
      <trkpt lat="47.17448" lon="-1.61106">
        <ele>57</ele>
        <time>2021-08-31T17:49:31.000Z</time>
      </trkpt>
      <trkpt lat="47.17454" lon="-1.6112">
        <ele>57</ele>
        <time>2021-08-31T17:49:33.000Z</time>
      </trkpt>
      <trkpt lat="47.1746" lon="-1.61134">
        <ele>58</ele>
        <time>2021-08-31T17:49:35.000Z</time>
      </trkpt>
      <trkpt lat="47.17466" lon="-1.61149">
        <ele>58</ele>
        <time>2021-08-31T17:49:37.000Z</time>
      </trkpt>
      <trkpt lat="47.17471" lon="-1.61163">
        <ele>58</ele>
        <time>2021-08-31T17:49:39.000Z</time>
      </trkpt>
      <trkpt lat="47.17477" lon="-1.61178">
        <ele>58</ele>
        <time>2021-08-31T17:49:41.000Z</time>
      </trkpt>
      <trkpt lat="47.17483" lon="-1.61193">
        <ele>59</ele>
        <time>2021-08-31T17:49:43.000Z</time>
      </trkpt>
      <trkpt lat="47.17489" lon="-1.61207">
        <ele>60</ele>
        <time>2021-08-31T17:49:45.000Z</time>
      </trkpt>
      <trkpt lat="47.17495" lon="-1.61221">
        <ele>60</ele>
        <time>2021-08-31T17:49:47.000Z</time>
      </trkpt>
      <trkpt lat="47.17501" lon="-1.61235">
        <ele>60</ele>
        <time>2021-08-31T17:49:49.000Z</time>
      </trkpt>
      <trkpt lat="47.17508" lon="-1.61248">
        <ele>60</ele>
        <time>2021-08-31T17:49:51.000Z</time>
      </trkpt>
      <trkpt lat="47.17515" lon="-1.61262">
        <ele>60</ele>
        <time>2021-08-31T17:49:53.000Z</time>
      </trkpt>
      <trkpt lat="47.17524" lon="-1.61273">
        <ele>59</ele>
        <time>2021-08-31T17:49:55.000Z</time>
      </trkpt>
      <trkpt lat="47.17532" lon="-1.61283">
        <ele>59</ele>
        <time>2021-08-31T17:49:57.000Z</time>
      </trkpt>
      <trkpt lat="47.17542" lon="-1.61291">
        <ele>59</ele>
        <time>2021-08-31T17:49:59.000Z</time>
      </trkpt>
      <trkpt lat="47.17552" lon="-1.61296">
        <ele>59</ele>
        <time>2021-08-31T17:50:01.000Z</time>
      </trkpt>
      <trkpt lat="47.1756" lon="-1.61308">
        <ele>59</ele>
        <time>2021-08-31T17:50:03.000Z</time>
      </trkpt>
      <trkpt lat="47.17561" lon="-1.61326">
        <ele>59</ele>
        <time>2021-08-31T17:50:05.000Z</time>
      </trkpt>
      <trkpt lat="47.17556" lon="-1.61343">
        <ele>59</ele>
        <time>2021-08-31T17:50:07.000Z</time>
      </trkpt>
      <trkpt lat="47.17547" lon="-1.61354">
        <ele>60</ele>
        <time>2021-08-31T17:50:09.000Z</time>
      </trkpt>
      <trkpt lat="47.17536" lon="-1.61364">
        <ele>60</ele>
        <time>2021-08-31T17:50:11.000Z</time>
      </trkpt>
      <trkpt lat="47.17529" lon="-1.61379">
        <ele>60</ele>
        <time>2021-08-31T17:50:13.000Z</time>
      </trkpt>
      <trkpt lat="47.17525" lon="-1.61396">
        <ele>61</ele>
        <time>2021-08-31T17:50:15.000Z</time>
      </trkpt>
      <trkpt lat="47.17522" lon="-1.61412">
        <ele>62</ele>
        <time>2021-08-31T17:50:17.000Z</time>
      </trkpt>
      <trkpt lat="47.17518" lon="-1.61427">
        <ele>62</ele>
        <time>2021-08-31T17:50:19.000Z</time>
      </trkpt>
      <trkpt lat="47.17515" lon="-1.61442">
        <ele>63</ele>
        <time>2021-08-31T17:50:21.000Z</time>
      </trkpt>
      <trkpt lat="47.1751" lon="-1.61455">
        <ele>63</ele>
        <time>2021-08-31T17:50:23.000Z</time>
      </trkpt>
      <trkpt lat="47.175" lon="-1.61463">
        <ele>63</ele>
        <time>2021-08-31T17:50:25.000Z</time>
      </trkpt>
      <trkpt lat="47.17488" lon="-1.61467">
        <ele>64</ele>
        <time>2021-08-31T17:50:27.000Z</time>
      </trkpt>
      <trkpt lat="47.17476" lon="-1.61471">
        <ele>64</ele>
        <time>2021-08-31T17:50:29.000Z</time>
      </trkpt>
      <trkpt lat="47.17465" lon="-1.61476">
        <ele>65</ele>
        <time>2021-08-31T17:50:31.000Z</time>
      </trkpt>
      <trkpt lat="47.17454" lon="-1.61481">
        <ele>65</ele>
        <time>2021-08-31T17:50:33.000Z</time>
      </trkpt>
      <trkpt lat="47.17443" lon="-1.61486">
        <ele>66</ele>
        <time>2021-08-31T17:50:35.000Z</time>
      </trkpt>
      <trkpt lat="47.17433" lon="-1.61493">
        <ele>66</ele>
        <time>2021-08-31T17:50:37.000Z</time>
      </trkpt>
      <trkpt lat="47.17422" lon="-1.61501">
        <ele>67</ele>
        <time>2021-08-31T17:50:39.000Z</time>
      </trkpt>
      <trkpt lat="47.17412" lon="-1.61508">
        <ele>67</ele>
        <time>2021-08-31T17:50:41.000Z</time>
      </trkpt>
      <trkpt lat="47.17403" lon="-1.61515">
        <ele>68</ele>
        <time>2021-08-31T17:50:43.000Z</time>
      </trkpt>
      <trkpt lat="47.17393" lon="-1.61523">
        <ele>68</ele>
        <time>2021-08-31T17:50:45.000Z</time>
      </trkpt>
      <trkpt lat="47.17384" lon="-1.61532">
        <ele>69</ele>
        <time>2021-08-31T17:50:47.000Z</time>
      </trkpt>
      <trkpt lat="47.17374" lon="-1.61541">
        <ele>69</ele>
        <time>2021-08-31T17:50:49.000Z</time>
      </trkpt>
      <trkpt lat="47.17365" lon="-1.6155">
        <ele>70</ele>
        <time>2021-08-31T17:50:51.000Z</time>
      </trkpt>
      <trkpt lat="47.17357" lon="-1.6156">
        <ele>70</ele>
        <time>2021-08-31T17:50:53.000Z</time>
      </trkpt>
      <trkpt lat="47.17348" lon="-1.6157">
        <ele>70</ele>
        <time>2021-08-31T17:50:55.000Z</time>
      </trkpt>
      <trkpt lat="47.1734" lon="-1.6158">
        <ele>70</ele>
        <time>2021-08-31T17:50:57.000Z</time>
      </trkpt>
      <trkpt lat="47.17331" lon="-1.61591">
        <ele>70</ele>
        <time>2021-08-31T17:50:59.000Z</time>
      </trkpt>
      <trkpt lat="47.17323" lon="-1.61602">
        <ele>70</ele>
        <time>2021-08-31T17:51:01.000Z</time>
      </trkpt>
      <trkpt lat="47.17314" lon="-1.61614">
        <ele>70</ele>
        <time>2021-08-31T17:51:03.000Z</time>
      </trkpt>
      <trkpt lat="47.17306" lon="-1.61626">
        <ele>70</ele>
        <time>2021-08-31T17:51:05.000Z</time>
      </trkpt>
      <trkpt lat="47.17298" lon="-1.61638">
        <ele>69</ele>
        <time>2021-08-31T17:51:07.000Z</time>
      </trkpt>
      <trkpt lat="47.17291" lon="-1.61651">
        <ele>69</ele>
        <time>2021-08-31T17:51:09.000Z</time>
      </trkpt>
      <trkpt lat="47.17284" lon="-1.61665">
        <ele>69</ele>
        <time>2021-08-31T17:51:11.000Z</time>
      </trkpt>
      <trkpt lat="47.17277" lon="-1.61679">
        <ele>70</ele>
        <time>2021-08-31T17:51:13.000Z</time>
      </trkpt>
      <trkpt lat="47.1727" lon="-1.61694">
        <ele>70</ele>
        <time>2021-08-31T17:51:15.000Z</time>
      </trkpt>
      <trkpt lat="47.17263" lon="-1.61708">
        <ele>70</ele>
        <time>2021-08-31T17:51:17.000Z</time>
      </trkpt>
      <trkpt lat="47.17256" lon="-1.61723">
        <ele>70</ele>
        <time>2021-08-31T17:51:19.000Z</time>
      </trkpt>
      <trkpt lat="47.1725" lon="-1.61737">
        <ele>70</ele>
        <time>2021-08-31T17:51:21.000Z</time>
      </trkpt>
      <trkpt lat="47.17246" lon="-1.61754">
        <ele>70</ele>
        <time>2021-08-31T17:51:23.000Z</time>
      </trkpt>
      <trkpt lat="47.17242" lon="-1.61771">
        <ele>70</ele>
        <time>2021-08-31T17:51:25.000Z</time>
      </trkpt>
      <trkpt lat="47.17233" lon="-1.61783">
        <ele>69</ele>
        <time>2021-08-31T17:51:27.000Z</time>
      </trkpt>
      <trkpt lat="47.17223" lon="-1.61793">
        <ele>69</ele>
        <time>2021-08-31T17:51:29.000Z</time>
      </trkpt>
      <trkpt lat="47.17212" lon="-1.61803">
        <ele>69</ele>
        <time>2021-08-31T17:51:31.000Z</time>
      </trkpt>
      <trkpt lat="47.17201" lon="-1.61813">
        <ele>69</ele>
        <time>2021-08-31T17:51:33.000Z</time>
      </trkpt>
      <trkpt lat="47.1719" lon="-1.61823">
        <ele>69</ele>
        <time>2021-08-31T17:51:35.000Z</time>
      </trkpt>
      <trkpt lat="47.1718" lon="-1.61832">
        <ele>69</ele>
        <time>2021-08-31T17:51:37.000Z</time>
      </trkpt>
      <trkpt lat="47.17169" lon="-1.61842">
        <ele>69</ele>
        <time>2021-08-31T17:51:39.000Z</time>
      </trkpt>
      <trkpt lat="47.17158" lon="-1.61853">
        <ele>69</ele>
        <time>2021-08-31T17:51:41.000Z</time>
      </trkpt>
      <trkpt lat="47.17147" lon="-1.61863">
        <ele>68</ele>
        <time>2021-08-31T17:51:43.000Z</time>
      </trkpt>
      <trkpt lat="47.17137" lon="-1.61874">
        <ele>69</ele>
        <time>2021-08-31T17:51:45.000Z</time>
      </trkpt>
      <trkpt lat="47.17126" lon="-1.61883">
        <ele>68</ele>
        <time>2021-08-31T17:51:47.000Z</time>
      </trkpt>
      <trkpt lat="47.17115" lon="-1.61894">
        <ele>68</ele>
        <time>2021-08-31T17:51:49.000Z</time>
      </trkpt>
      <trkpt lat="47.17104" lon="-1.61905">
        <ele>68</ele>
        <time>2021-08-31T17:51:51.000Z</time>
      </trkpt>
      <trkpt lat="47.17093" lon="-1.61916">
        <ele>68</ele>
        <time>2021-08-31T17:51:53.000Z</time>
      </trkpt>
      <trkpt lat="47.17082" lon="-1.61926">
        <ele>68</ele>
        <time>2021-08-31T17:51:55.000Z</time>
      </trkpt>
      <trkpt lat="47.17072" lon="-1.61937">
        <ele>69</ele>
        <time>2021-08-31T17:51:57.000Z</time>
      </trkpt>
      <trkpt lat="47.17062" lon="-1.61949">
        <ele>69</ele>
        <time>2021-08-31T17:51:59.000Z</time>
      </trkpt>
      <trkpt lat="47.17051" lon="-1.61961">
        <ele>69</ele>
        <time>2021-08-31T17:52:01.000Z</time>
      </trkpt>
      <trkpt lat="47.17041" lon="-1.61974">
        <ele>69</ele>
        <time>2021-08-31T17:52:03.000Z</time>
      </trkpt>
      <trkpt lat="47.17032" lon="-1.61988">
        <ele>69</ele>
        <time>2021-08-31T17:52:05.000Z</time>
      </trkpt>
      <trkpt lat="47.17022" lon="-1.62002">
        <ele>69</ele>
        <time>2021-08-31T17:52:07.000Z</time>
      </trkpt>
      <trkpt lat="47.17013" lon="-1.62017">
        <ele>69</ele>
        <time>2021-08-31T17:52:09.000Z</time>
      </trkpt>
      <trkpt lat="47.17004" lon="-1.62033">
        <ele>69</ele>
        <time>2021-08-31T17:52:11.000Z</time>
      </trkpt>
      <trkpt lat="47.16995" lon="-1.62049">
        <ele>69</ele>
        <time>2021-08-31T17:52:13.000Z</time>
      </trkpt>
      <trkpt lat="47.16986" lon="-1.62065">
        <ele>69</ele>
        <time>2021-08-31T17:52:15.000Z</time>
      </trkpt>
      <trkpt lat="47.16977" lon="-1.6208">
        <ele>70</ele>
        <time>2021-08-31T17:52:17.000Z</time>
      </trkpt>
      <trkpt lat="47.16968" lon="-1.62096">
        <ele>70</ele>
        <time>2021-08-31T17:52:19.000Z</time>
      </trkpt>
      <trkpt lat="47.16959" lon="-1.62112">
        <ele>70</ele>
        <time>2021-08-31T17:52:21.000Z</time>
      </trkpt>
      <trkpt lat="47.16951" lon="-1.62128">
        <ele>70</ele>
        <time>2021-08-31T17:52:23.000Z</time>
      </trkpt>
      <trkpt lat="47.16943" lon="-1.62144">
        <ele>70</ele>
        <time>2021-08-31T17:52:25.000Z</time>
      </trkpt>
      <trkpt lat="47.16935" lon="-1.62161">
        <ele>70</ele>
        <time>2021-08-31T17:52:27.000Z</time>
      </trkpt>
      <trkpt lat="47.16928" lon="-1.62178">
        <ele>70</ele>
        <time>2021-08-31T17:52:29.000Z</time>
      </trkpt>
      <trkpt lat="47.16919" lon="-1.62194">
        <ele>70</ele>
        <time>2021-08-31T17:52:31.000Z</time>
      </trkpt>
      <trkpt lat="47.16909" lon="-1.6221">
        <ele>69</ele>
        <time>2021-08-31T17:52:33.000Z</time>
      </trkpt>
      <trkpt lat="47.16899" lon="-1.62224">
        <ele>70</ele>
        <time>2021-08-31T17:52:35.000Z</time>
      </trkpt>
      <trkpt lat="47.16888" lon="-1.62236">
        <ele>70</ele>
        <time>2021-08-31T17:52:37.000Z</time>
      </trkpt>
      <trkpt lat="47.16878" lon="-1.62249">
        <ele>70</ele>
        <time>2021-08-31T17:52:39.000Z</time>
      </trkpt>
      <trkpt lat="47.16867" lon="-1.62263">
        <ele>70</ele>
        <time>2021-08-31T17:52:41.000Z</time>
      </trkpt>
      <trkpt lat="47.16856" lon="-1.62276">
        <ele>70</ele>
        <time>2021-08-31T17:52:43.000Z</time>
      </trkpt>
      <trkpt lat="47.16846" lon="-1.62289">
        <ele>70</ele>
        <time>2021-08-31T17:52:45.000Z</time>
      </trkpt>
      <trkpt lat="47.16835" lon="-1.62302">
        <ele>70</ele>
        <time>2021-08-31T17:52:47.000Z</time>
      </trkpt>
      <trkpt lat="47.16824" lon="-1.62313">
        <ele>70</ele>
        <time>2021-08-31T17:52:49.000Z</time>
      </trkpt>
      <trkpt lat="47.16811" lon="-1.62322">
        <ele>70</ele>
        <time>2021-08-31T17:52:51.000Z</time>
      </trkpt>
      <trkpt lat="47.16798" lon="-1.6233">
        <ele>70</ele>
        <time>2021-08-31T17:52:53.000Z</time>
      </trkpt>
      <trkpt lat="47.16785" lon="-1.62337">
        <ele>69</ele>
        <time>2021-08-31T17:52:55.000Z</time>
      </trkpt>
      <trkpt lat="47.16772" lon="-1.62344">
        <ele>69</ele>
        <time>2021-08-31T17:52:57.000Z</time>
      </trkpt>
      <trkpt lat="47.16759" lon="-1.62352">
        <ele>69</ele>
        <time>2021-08-31T17:52:59.000Z</time>
      </trkpt>
      <trkpt lat="47.16748" lon="-1.62363">
        <ele>69</ele>
        <time>2021-08-31T17:53:01.000Z</time>
      </trkpt>
      <trkpt lat="47.16739" lon="-1.62377">
        <ele>68</ele>
        <time>2021-08-31T17:53:03.000Z</time>
      </trkpt>
      <trkpt lat="47.16732" lon="-1.62395">
        <ele>68</ele>
        <time>2021-08-31T17:53:05.000Z</time>
      </trkpt>
      <trkpt lat="47.16729" lon="-1.62413">
        <ele>68</ele>
        <time>2021-08-31T17:53:07.000Z</time>
      </trkpt>
      <trkpt lat="47.16727" lon="-1.62431">
        <ele>68</ele>
        <time>2021-08-31T17:53:09.000Z</time>
      </trkpt>
      <trkpt lat="47.16723" lon="-1.62447">
        <ele>68</ele>
        <time>2021-08-31T17:53:11.000Z</time>
      </trkpt>
      <trkpt lat="47.16719" lon="-1.62465">
        <ele>68</ele>
        <time>2021-08-31T17:53:13.000Z</time>
      </trkpt>
      <trkpt lat="47.16715" lon="-1.62482">
        <ele>68</ele>
        <time>2021-08-31T17:53:15.000Z</time>
      </trkpt>
      <trkpt lat="47.1672" lon="-1.62495">
        <ele>68</ele>
        <time>2021-08-31T17:53:17.000Z</time>
      </trkpt>
      <trkpt lat="47.16734" lon="-1.62501">
        <ele>68</ele>
        <time>2021-08-31T17:53:19.000Z</time>
      </trkpt>
      <trkpt lat="47.16746" lon="-1.62506">
        <ele>68</ele>
        <time>2021-08-31T17:53:21.000Z</time>
      </trkpt>
      <trkpt lat="47.16758" lon="-1.62513">
        <ele>67</ele>
        <time>2021-08-31T17:53:23.000Z</time>
      </trkpt>
      <trkpt lat="47.1677" lon="-1.6252">
        <ele>67</ele>
        <time>2021-08-31T17:53:25.000Z</time>
      </trkpt>
      <trkpt lat="47.16787" lon="-1.62531">
        <ele>68</ele>
        <time>2021-08-31T17:53:28.000Z</time>
      </trkpt>
      <trkpt lat="47.16803" lon="-1.62543">
        <ele>67</ele>
        <time>2021-08-31T17:53:31.000Z</time>
      </trkpt>
      <trkpt lat="47.16814" lon="-1.62552">
        <ele>67</ele>
        <time>2021-08-31T17:53:33.000Z</time>
      </trkpt>
      <trkpt lat="47.16824" lon="-1.62562">
        <ele>67</ele>
        <time>2021-08-31T17:53:35.000Z</time>
      </trkpt>
      <trkpt lat="47.16832" lon="-1.62576">
        <ele>67</ele>
        <time>2021-08-31T17:53:37.000Z</time>
      </trkpt>
      <trkpt lat="47.16827" lon="-1.62592">
        <ele>67</ele>
        <time>2021-08-31T17:53:39.000Z</time>
      </trkpt>
      <trkpt lat="47.16819" lon="-1.62605">
        <ele>67</ele>
        <time>2021-08-31T17:53:41.000Z</time>
      </trkpt>
      <trkpt lat="47.16811" lon="-1.62618">
        <ele>68</ele>
        <time>2021-08-31T17:53:43.000Z</time>
      </trkpt>
      <trkpt lat="47.16803" lon="-1.6263">
        <ele>68</ele>
        <time>2021-08-31T17:53:45.000Z</time>
      </trkpt>
      <trkpt lat="47.16796" lon="-1.62642">
        <ele>69</ele>
        <time>2021-08-31T17:53:47.000Z</time>
      </trkpt>
      <trkpt lat="47.16788" lon="-1.62657">
        <ele>69</ele>
        <time>2021-08-31T17:53:50.000Z</time>
      </trkpt>
      <trkpt lat="47.16778" lon="-1.62655">
        <ele>70</ele>
        <time>2021-08-31T17:53:53.000Z</time>
      </trkpt>
    </trkseg>
  </trk>
</gpx>